<?xml version="1.0" encoding="UTF-8" standalone="no" ?>
<gpx xmlns="http://www.topografix.com/GPX/1/1" xmlns:xsi="http://www.w3.org/2001/XMLSchema-instance" xsi:schemaLocation="http://www.topografix.com/GPX/1/1 http://www.topografix.com/GPX/1/1/gpx.xsd" version="1.1" creator="VisuGPX - https://www.visugpx.com">
  <metadata>
    <name>Bouillouses vers Angoustrine</name>
    <desc><![CDATA[File with points/tracks from Locus Map/4.1.1]]></desc>
  </metadata>
  <trk>
    <name><![CDATA[2021-06-14 09:00:23_Bouillouses]]></name>
    <extensions>
      <line xmlns="http://www.topografix.com/GPX/gpx_style/0/2">
        <color>0000FF</color>
        <opacity>0.59</opacity>
        <width>6.0</width>
      </line>
    </extensions>
    <trkseg>
      <trkpt lat="42.56084" lon="1.99687">
        <ele>2029.55</ele>
        <time>2021-06-14T07:00:23.000Z</time>
      </trkpt>
      <trkpt lat="42.5608" lon="1.99687">
        <ele>2029.92</ele>
        <time>2021-06-14T07:00:33.000Z</time>
      </trkpt>
      <trkpt lat="42.56084" lon="1.99677">
        <ele>2020.21</ele>
        <time>2021-06-14T07:00:43.000Z</time>
      </trkpt>
      <trkpt lat="42.56088" lon="1.9967">
        <ele>2034.54</ele>
        <time>2021-06-14T07:00:53.000Z</time>
      </trkpt>
      <trkpt lat="42.5609" lon="1.99668">
        <ele>2046.38</ele>
        <time>2021-06-14T07:01:03.000Z</time>
      </trkpt>
      <trkpt lat="42.56086" lon="1.99666">
        <ele>2030.53</ele>
        <time>2021-06-14T07:01:13.000Z</time>
      </trkpt>
      <trkpt lat="42.5609" lon="1.99667">
        <ele>2035.21</ele>
        <time>2021-06-14T07:01:22.248Z</time>
      </trkpt>
      <trkpt lat="42.56095" lon="1.99672">
        <ele>2041.39</ele>
        <time>2021-06-14T07:01:31.430Z</time>
      </trkpt>
      <trkpt lat="42.5611" lon="1.99664">
        <ele>2039.67</ele>
        <time>2021-06-14T07:01:41.000Z</time>
      </trkpt>
      <trkpt lat="42.5611" lon="1.99693">
        <ele>2039.15</ele>
        <time>2021-06-14T07:01:51.000Z</time>
      </trkpt>
      <trkpt lat="42.56111" lon="1.99709">
        <ele>2036.59</ele>
        <time>2021-06-14T07:02:01.341Z</time>
      </trkpt>
      <trkpt lat="42.56113" lon="1.99714">
        <ele>2043.75</ele>
        <time>2021-06-14T07:02:11.000Z</time>
      </trkpt>
      <trkpt lat="42.56114" lon="1.99701">
        <ele>2027.84</ele>
        <time>2021-06-14T07:02:20.301Z</time>
      </trkpt>
      <trkpt lat="42.56117" lon="1.99678">
        <ele>2048.08</ele>
        <time>2021-06-14T07:02:29.940Z</time>
      </trkpt>
      <trkpt lat="42.56119" lon="1.99653">
        <ele>2026.46</ele>
        <time>2021-06-14T07:02:39.361Z</time>
      </trkpt>
      <trkpt lat="42.56123" lon="1.9964">
        <ele>2044.57</ele>
        <time>2021-06-14T07:02:48.421Z</time>
      </trkpt>
      <trkpt lat="42.56129" lon="1.99624">
        <ele>2035.2</ele>
        <time>2021-06-14T07:02:58.490Z</time>
      </trkpt>
      <trkpt lat="42.56135" lon="1.99611">
        <ele>2035.36</ele>
        <time>2021-06-14T07:03:08.445Z</time>
      </trkpt>
      <trkpt lat="42.56138" lon="1.99603">
        <ele>2025.28</ele>
        <time>2021-06-14T07:03:18.000Z</time>
      </trkpt>
      <trkpt lat="42.56144" lon="1.99603">
        <ele>2041.79</ele>
        <time>2021-06-14T07:03:27.249Z</time>
      </trkpt>
      <trkpt lat="42.56149" lon="1.996">
        <ele>2023.67</ele>
        <time>2021-06-14T07:03:36.895Z</time>
      </trkpt>
      <trkpt lat="42.5615" lon="1.99593">
        <ele>2032.2</ele>
        <time>2021-06-14T07:03:46.000Z</time>
      </trkpt>
      <trkpt lat="42.56155" lon="1.99594">
        <ele>2041.54</ele>
        <time>2021-06-14T07:03:55.520Z</time>
      </trkpt>
      <trkpt lat="42.56158" lon="1.99591">
        <ele>2031.15</ele>
        <time>2021-06-14T07:04:05.000Z</time>
      </trkpt>
      <trkpt lat="42.5616" lon="1.99587">
        <ele>2041.02</ele>
        <time>2021-06-14T07:04:14.605Z</time>
      </trkpt>
      <trkpt lat="42.56158" lon="1.99578">
        <ele>2041.63</ele>
        <time>2021-06-14T07:04:24.579Z</time>
      </trkpt>
      <trkpt lat="42.56162" lon="1.99574">
        <ele>2046.42</ele>
        <time>2021-06-14T07:04:34.000Z</time>
      </trkpt>
      <trkpt lat="42.56164" lon="1.99569">
        <ele>2049.25</ele>
        <time>2021-06-14T07:04:44.154Z</time>
      </trkpt>
      <trkpt lat="42.5617" lon="1.9957">
        <ele>2039.27</ele>
        <time>2021-06-14T07:04:54.000Z</time>
      </trkpt>
      <trkpt lat="42.56171" lon="1.99574">
        <ele>2037.59</ele>
        <time>2021-06-14T07:05:04.000Z</time>
      </trkpt>
      <trkpt lat="42.56173" lon="1.99572">
        <ele>2045.76</ele>
        <time>2021-06-14T07:05:13.262Z</time>
      </trkpt>
      <trkpt lat="42.56176" lon="1.99553">
        <ele>2036.65</ele>
        <time>2021-06-14T07:05:22.663Z</time>
      </trkpt>
      <trkpt lat="42.56175" lon="1.99536">
        <ele>2043.76</ele>
        <time>2021-06-14T07:05:32.000Z</time>
      </trkpt>
      <trkpt lat="42.56177" lon="1.99529">
        <ele>2039.86</ele>
        <time>2021-06-14T07:05:41.103Z</time>
      </trkpt>
      <trkpt lat="42.56183" lon="1.99525">
        <ele>2031.53</ele>
        <time>2021-06-14T07:05:50.847Z</time>
      </trkpt>
      <trkpt lat="42.56188" lon="1.99522">
        <ele>2041.31</ele>
        <time>2021-06-14T07:06:00.000Z</time>
      </trkpt>
      <trkpt lat="42.56189" lon="1.99517">
        <ele>2034.83</ele>
        <time>2021-06-14T07:06:09.105Z</time>
      </trkpt>
      <trkpt lat="42.56194" lon="1.99511">
        <ele>2061.22</ele>
        <time>2021-06-14T07:06:19.404Z</time>
      </trkpt>
      <trkpt lat="42.56197" lon="1.9951">
        <ele>2057.21</ele>
        <time>2021-06-14T07:06:29.392Z</time>
      </trkpt>
      <trkpt lat="42.56202" lon="1.99506">
        <ele>2065.82</ele>
        <time>2021-06-14T07:06:39.000Z</time>
      </trkpt>
      <trkpt lat="42.56205" lon="1.99502">
        <ele>2061.15</ele>
        <time>2021-06-14T07:06:48.296Z</time>
      </trkpt>
      <trkpt lat="42.56209" lon="1.99497">
        <ele>2064.37</ele>
        <time>2021-06-14T07:06:58.026Z</time>
      </trkpt>
      <trkpt lat="42.56214" lon="1.99494">
        <ele>2055.81</ele>
        <time>2021-06-14T07:07:08.000Z</time>
      </trkpt>
      <trkpt lat="42.5622" lon="1.99495">
        <ele>2061.71</ele>
        <time>2021-06-14T07:07:18.000Z</time>
      </trkpt>
      <trkpt lat="42.56222" lon="1.99492">
        <ele>2060.89</ele>
        <time>2021-06-14T07:07:27.226Z</time>
      </trkpt>
      <trkpt lat="42.56228" lon="1.99487">
        <ele>2073.23</ele>
        <time>2021-06-14T07:07:37.000Z</time>
      </trkpt>
      <trkpt lat="42.56233" lon="1.99481">
        <ele>2073.63</ele>
        <time>2021-06-14T07:07:46.287Z</time>
      </trkpt>
      <trkpt lat="42.56231" lon="1.99471">
        <ele>2075.34</ele>
        <time>2021-06-14T07:07:55.358Z</time>
      </trkpt>
      <trkpt lat="42.56235" lon="1.99467">
        <ele>2016.23</ele>
        <time>2021-06-14T07:08:05.080Z</time>
      </trkpt>
      <trkpt lat="42.56238" lon="1.99465">
        <ele>2016.2</ele>
        <time>2021-06-14T07:08:14.976Z</time>
      </trkpt>
      <trkpt lat="42.56243" lon="1.99466">
        <ele>2016.16</ele>
        <time>2021-06-14T07:08:24.070Z</time>
      </trkpt>
      <trkpt lat="42.56246" lon="1.99466">
        <ele>2016.22</ele>
        <time>2021-06-14T07:08:34.000Z</time>
      </trkpt>
      <trkpt lat="42.56249" lon="1.99472">
        <ele>2016.21</ele>
        <time>2021-06-14T07:08:44.000Z</time>
      </trkpt>
      <trkpt lat="42.56253" lon="1.9947">
        <ele>2016.24</ele>
        <time>2021-06-14T07:08:54.000Z</time>
      </trkpt>
      <trkpt lat="42.56251" lon="1.99468">
        <ele>2076.8</ele>
        <time>2021-06-14T07:09:06.000Z</time>
      </trkpt>
      <trkpt lat="42.5624" lon="1.99459">
        <ele>2075.77</ele>
        <time>2021-06-14T07:09:16.000Z</time>
      </trkpt>
      <trkpt lat="42.56236" lon="1.99452">
        <ele>2072.25</ele>
        <time>2021-06-14T07:09:26.000Z</time>
      </trkpt>
      <trkpt lat="42.56237" lon="1.9945">
        <ele>2066.1</ele>
        <time>2021-06-14T07:09:36.000Z</time>
      </trkpt>
      <trkpt lat="42.56242" lon="1.99451">
        <ele>2072.6</ele>
        <time>2021-06-14T07:09:46.000Z</time>
      </trkpt>
      <trkpt lat="42.56241" lon="1.99453">
        <ele>2073.33</ele>
        <time>2021-06-14T07:09:56.000Z</time>
      </trkpt>
      <trkpt lat="42.56241" lon="1.99455">
        <ele>2078.61</ele>
        <time>2021-06-14T07:10:06.000Z</time>
      </trkpt>
      <trkpt lat="42.56232" lon="1.99452">
        <ele>2077.65</ele>
        <time>2021-06-14T07:10:16.000Z</time>
      </trkpt>
      <trkpt lat="42.56237" lon="1.99454">
        <ele>2077.99</ele>
        <time>2021-06-14T07:10:26.000Z</time>
      </trkpt>
      <trkpt lat="42.56237" lon="1.9945">
        <ele>2076.6</ele>
        <time>2021-06-14T07:10:36.000Z</time>
      </trkpt>
      <trkpt lat="42.56237" lon="1.99451">
        <ele>2079.78</ele>
        <time>2021-06-14T07:10:46.000Z</time>
      </trkpt>
      <trkpt lat="42.56233" lon="1.99452">
        <ele>2079.53</ele>
        <time>2021-06-14T07:10:56.000Z</time>
      </trkpt>
      <trkpt lat="42.56234" lon="1.99453">
        <ele>2072.43</ele>
        <time>2021-06-14T07:11:08.000Z</time>
      </trkpt>
      <trkpt lat="42.56234" lon="1.99452">
        <ele>2083.74</ele>
        <time>2021-06-14T07:11:18.000Z</time>
      </trkpt>
      <trkpt lat="42.56229" lon="1.9945">
        <ele>2086.9</ele>
        <time>2021-06-14T07:11:28.000Z</time>
      </trkpt>
      <trkpt lat="42.56232" lon="1.99456">
        <ele>2082.62</ele>
        <time>2021-06-14T07:11:38.000Z</time>
      </trkpt>
      <trkpt lat="42.56238" lon="1.9946">
        <ele>2016.41</ele>
        <time>2021-06-14T07:11:48.000Z</time>
      </trkpt>
      <trkpt lat="42.56239" lon="1.9946">
        <ele>2016.21</ele>
        <time>2021-06-14T07:11:58.000Z</time>
      </trkpt>
      <trkpt lat="42.56238" lon="1.99454">
        <ele>2016.33</ele>
        <time>2021-06-14T07:12:08.000Z</time>
      </trkpt>
      <trkpt lat="42.56233" lon="1.99449">
        <ele>2016.21</ele>
        <time>2021-06-14T07:12:18.000Z</time>
      </trkpt>
      <trkpt lat="42.56233" lon="1.99452">
        <ele>2016.26</ele>
        <time>2021-06-14T07:12:28.000Z</time>
      </trkpt>
      <trkpt lat="42.56231" lon="1.9945">
        <ele>2016.26</ele>
        <time>2021-06-14T07:12:38.000Z</time>
      </trkpt>
      <trkpt lat="42.56232" lon="1.99448">
        <ele>2016.32</ele>
        <time>2021-06-14T07:12:55.000Z</time>
      </trkpt>
      <trkpt lat="42.56232" lon="1.9945">
        <ele>2085.86</ele>
        <time>2021-06-14T07:13:06.000Z</time>
      </trkpt>
      <trkpt lat="42.56233" lon="1.99451">
        <ele>2093.6</ele>
        <time>2021-06-14T07:13:20.000Z</time>
      </trkpt>
      <trkpt lat="42.56237" lon="1.99456">
        <ele>2085.46</ele>
        <time>2021-06-14T07:13:30.000Z</time>
      </trkpt>
      <trkpt lat="42.5624" lon="1.99454">
        <ele>2083.49</ele>
        <time>2021-06-14T07:13:39.459Z</time>
      </trkpt>
      <trkpt lat="42.56243" lon="1.99447">
        <ele>2087.25</ele>
        <time>2021-06-14T07:13:49.000Z</time>
      </trkpt>
      <trkpt lat="42.5624" lon="1.9944">
        <ele>2081.37</ele>
        <time>2021-06-14T07:13:59.000Z</time>
      </trkpt>
      <trkpt lat="42.56237" lon="1.99431">
        <ele>2092.56</ele>
        <time>2021-06-14T07:14:08.083Z</time>
      </trkpt>
      <trkpt lat="42.56233" lon="1.99426">
        <ele>2087.55</ele>
        <time>2021-06-14T07:14:17.842Z</time>
      </trkpt>
      <trkpt lat="42.56231" lon="1.99426">
        <ele>2093.93</ele>
        <time>2021-06-14T07:14:27.000Z</time>
      </trkpt>
      <trkpt lat="42.56232" lon="1.99422">
        <ele>2083.85</ele>
        <time>2021-06-14T07:14:37.000Z</time>
      </trkpt>
      <trkpt lat="42.56234" lon="1.99414">
        <ele>2096.12</ele>
        <time>2021-06-14T07:14:46.925Z</time>
      </trkpt>
      <trkpt lat="42.56245" lon="1.99405">
        <ele>2096.32</ele>
        <time>2021-06-14T07:14:56.000Z</time>
      </trkpt>
      <trkpt lat="42.56247" lon="1.99407">
        <ele>2096.36</ele>
        <time>2021-06-14T07:15:06.000Z</time>
      </trkpt>
      <trkpt lat="42.56247" lon="1.99412">
        <ele>2096.31</ele>
        <time>2021-06-14T07:15:16.000Z</time>
      </trkpt>
      <trkpt lat="42.56247" lon="1.9941">
        <ele>2096.27</ele>
        <time>2021-06-14T07:15:26.000Z</time>
      </trkpt>
      <trkpt lat="42.56251" lon="1.99401">
        <ele>2096.25</ele>
        <time>2021-06-14T07:15:36.000Z</time>
      </trkpt>
      <trkpt lat="42.56249" lon="1.99403">
        <ele>2096.25</ele>
        <time>2021-06-14T07:15:46.000Z</time>
      </trkpt>
      <trkpt lat="42.56248" lon="1.99406">
        <ele>2098.23</ele>
        <time>2021-06-14T07:15:56.000Z</time>
      </trkpt>
      <trkpt lat="42.56247" lon="1.99409">
        <ele>2105.61</ele>
        <time>2021-06-14T07:16:06.000Z</time>
      </trkpt>
      <trkpt lat="42.56247" lon="1.99416">
        <ele>2088.09</ele>
        <time>2021-06-14T07:16:16.000Z</time>
      </trkpt>
      <trkpt lat="42.56245" lon="1.99416">
        <ele>2116.24</ele>
        <time>2021-06-14T07:16:26.000Z</time>
      </trkpt>
      <trkpt lat="42.56249" lon="1.99416">
        <ele>2111</ele>
        <time>2021-06-14T07:16:36.000Z</time>
      </trkpt>
      <trkpt lat="42.56253" lon="1.99408">
        <ele>2106.01</ele>
        <time>2021-06-14T07:16:45.107Z</time>
      </trkpt>
      <trkpt lat="42.56254" lon="1.99403">
        <ele>2099.08</ele>
        <time>2021-06-14T07:16:55.000Z</time>
      </trkpt>
      <trkpt lat="42.56258" lon="1.9939">
        <ele>2109.2</ele>
        <time>2021-06-14T07:17:04.201Z</time>
      </trkpt>
      <trkpt lat="42.56262" lon="1.99378">
        <ele>2106.6</ele>
        <time>2021-06-14T07:17:14.000Z</time>
      </trkpt>
      <trkpt lat="42.56267" lon="1.99371">
        <ele>2112.4</ele>
        <time>2021-06-14T07:17:24.000Z</time>
      </trkpt>
      <trkpt lat="42.56274" lon="1.99364">
        <ele>2100.63</ele>
        <time>2021-06-14T07:17:34.154Z</time>
      </trkpt>
      <trkpt lat="42.56286" lon="1.99359">
        <ele>2108.83</ele>
        <time>2021-06-14T07:17:43.553Z</time>
      </trkpt>
      <trkpt lat="42.56292" lon="1.99352">
        <ele>2106.49</ele>
        <time>2021-06-14T07:17:53.000Z</time>
      </trkpt>
      <trkpt lat="42.56299" lon="1.99343">
        <ele>2112.92</ele>
        <time>2021-06-14T07:18:03.110Z</time>
      </trkpt>
      <trkpt lat="42.56302" lon="1.99339">
        <ele>2106.77</ele>
        <time>2021-06-14T07:18:12.132Z</time>
      </trkpt>
      <trkpt lat="42.56307" lon="1.99334">
        <ele>2106.27</ele>
        <time>2021-06-14T07:18:22.190Z</time>
      </trkpt>
      <trkpt lat="42.5631" lon="1.99324">
        <ele>2099.69</ele>
        <time>2021-06-14T07:18:32.270Z</time>
      </trkpt>
      <trkpt lat="42.56316" lon="1.99315">
        <ele>2106.49</ele>
        <time>2021-06-14T07:18:42.308Z</time>
      </trkpt>
      <trkpt lat="42.56321" lon="1.99306">
        <ele>2118.19</ele>
        <time>2021-06-14T07:18:52.477Z</time>
      </trkpt>
      <trkpt lat="42.56324" lon="1.99296">
        <ele>2119.41</ele>
        <time>2021-06-14T07:19:02.000Z</time>
      </trkpt>
      <trkpt lat="42.56326" lon="1.99293">
        <ele>2090.53</ele>
        <time>2021-06-14T07:19:12.333Z</time>
      </trkpt>
      <trkpt lat="42.56332" lon="1.99289">
        <ele>2104.59</ele>
        <time>2021-06-14T07:19:22.075Z</time>
      </trkpt>
      <trkpt lat="42.56335" lon="1.99283">
        <ele>2108.1</ele>
        <time>2021-06-14T07:19:31.280Z</time>
      </trkpt>
      <trkpt lat="42.56333" lon="1.99277">
        <ele>2102.14</ele>
        <time>2021-06-14T07:19:40.937Z</time>
      </trkpt>
      <trkpt lat="42.56333" lon="1.99268">
        <ele>2111.45</ele>
        <time>2021-06-14T07:19:49.989Z</time>
      </trkpt>
      <trkpt lat="42.56332" lon="1.99259">
        <ele>2090.46</ele>
        <time>2021-06-14T07:19:59.000Z</time>
      </trkpt>
      <trkpt lat="42.56334" lon="1.99253">
        <ele>2097.9</ele>
        <time>2021-06-14T07:20:08.647Z</time>
      </trkpt>
      <trkpt lat="42.56338" lon="1.99246">
        <ele>2097.66</ele>
        <time>2021-06-14T07:20:18.000Z</time>
      </trkpt>
      <trkpt lat="42.5634" lon="1.99241">
        <ele>2109.94</ele>
        <time>2021-06-14T07:20:28.070Z</time>
      </trkpt>
      <trkpt lat="42.56341" lon="1.99235">
        <ele>2110.88</ele>
        <time>2021-06-14T07:20:37.072Z</time>
      </trkpt>
      <trkpt lat="42.56338" lon="1.99228">
        <ele>2095.98</ele>
        <time>2021-06-14T07:20:46.510Z</time>
      </trkpt>
      <trkpt lat="42.5634" lon="1.99219">
        <ele>2100.67</ele>
        <time>2021-06-14T07:20:56.000Z</time>
      </trkpt>
      <trkpt lat="42.56344" lon="1.99211">
        <ele>2096.3</ele>
        <time>2021-06-14T07:21:05.022Z</time>
      </trkpt>
      <trkpt lat="42.56342" lon="1.99196">
        <ele>2092.62</ele>
        <time>2021-06-14T07:21:15.002Z</time>
      </trkpt>
      <trkpt lat="42.56346" lon="1.99185">
        <ele>2079.45</ele>
        <time>2021-06-14T07:21:24.372Z</time>
      </trkpt>
      <trkpt lat="42.56346" lon="1.99174">
        <ele>2083.23</ele>
        <time>2021-06-14T07:21:34.604Z</time>
      </trkpt>
      <trkpt lat="42.56341" lon="1.99165">
        <ele>2100.29</ele>
        <time>2021-06-14T07:21:44.000Z</time>
      </trkpt>
      <trkpt lat="42.56332" lon="1.99154">
        <ele>2091.87</ele>
        <time>2021-06-14T07:21:54.206Z</time>
      </trkpt>
      <trkpt lat="42.56328" lon="1.99143">
        <ele>2100.31</ele>
        <time>2021-06-14T07:22:04.108Z</time>
      </trkpt>
      <trkpt lat="42.56326" lon="1.9913">
        <ele>2110.38</ele>
        <time>2021-06-14T07:22:14.000Z</time>
      </trkpt>
      <trkpt lat="42.56321" lon="1.99119">
        <ele>2090.06</ele>
        <time>2021-06-14T07:22:24.000Z</time>
      </trkpt>
      <trkpt lat="42.5632" lon="1.99108">
        <ele>2082.8</ele>
        <time>2021-06-14T07:22:34.176Z</time>
      </trkpt>
      <trkpt lat="42.56317" lon="1.99096">
        <ele>2101.86</ele>
        <time>2021-06-14T07:22:44.000Z</time>
      </trkpt>
      <trkpt lat="42.56316" lon="1.99088">
        <ele>2104.08</ele>
        <time>2021-06-14T07:22:53.100Z</time>
      </trkpt>
      <trkpt lat="42.56315" lon="1.99082">
        <ele>2105.02</ele>
        <time>2021-06-14T07:23:02.742Z</time>
      </trkpt>
      <trkpt lat="42.56316" lon="1.99075">
        <ele>2100.21</ele>
        <time>2021-06-14T07:23:12.000Z</time>
      </trkpt>
      <trkpt lat="42.5632" lon="1.99068">
        <ele>2107.75</ele>
        <time>2021-06-14T07:23:21.461Z</time>
      </trkpt>
      <trkpt lat="42.5632" lon="1.99062">
        <ele>2106.11</ele>
        <time>2021-06-14T07:23:31.000Z</time>
      </trkpt>
      <trkpt lat="42.56323" lon="1.9906">
        <ele>2105.04</ele>
        <time>2021-06-14T07:23:40.227Z</time>
      </trkpt>
      <trkpt lat="42.56325" lon="1.99053">
        <ele>2095.31</ele>
        <time>2021-06-14T07:23:50.000Z</time>
      </trkpt>
      <trkpt lat="42.56326" lon="1.99047">
        <ele>2097.23</ele>
        <time>2021-06-14T07:23:59.425Z</time>
      </trkpt>
      <trkpt lat="42.56328" lon="1.99039">
        <ele>2095.53</ele>
        <time>2021-06-14T07:24:09.000Z</time>
      </trkpt>
      <trkpt lat="42.5633" lon="1.99038">
        <ele>2102.62</ele>
        <time>2021-06-14T07:24:18.336Z</time>
      </trkpt>
      <trkpt lat="42.56334" lon="1.9903">
        <ele>2083.9</ele>
        <time>2021-06-14T07:24:28.000Z</time>
      </trkpt>
      <trkpt lat="42.56341" lon="1.99026">
        <ele>2099.01</ele>
        <time>2021-06-14T07:24:38.000Z</time>
      </trkpt>
      <trkpt lat="42.56345" lon="1.99019">
        <ele>2091.84</ele>
        <time>2021-06-14T07:24:48.000Z</time>
      </trkpt>
      <trkpt lat="42.56346" lon="1.99004">
        <ele>2092.68</ele>
        <time>2021-06-14T07:24:57.085Z</time>
      </trkpt>
      <trkpt lat="42.56346" lon="1.98992">
        <ele>2090.97</ele>
        <time>2021-06-14T07:25:06.867Z</time>
      </trkpt>
      <trkpt lat="42.56337" lon="1.98982">
        <ele>2076.32</ele>
        <time>2021-06-14T07:25:16.659Z</time>
      </trkpt>
      <trkpt lat="42.56335" lon="1.98976">
        <ele>2097.56</ele>
        <time>2021-06-14T07:25:26.000Z</time>
      </trkpt>
      <trkpt lat="42.56333" lon="1.98969">
        <ele>2095.41</ele>
        <time>2021-06-14T07:25:36.017Z</time>
      </trkpt>
      <trkpt lat="42.56332" lon="1.98958">
        <ele>2103.75</ele>
        <time>2021-06-14T07:25:46.000Z</time>
      </trkpt>
      <trkpt lat="42.5633" lon="1.98947">
        <ele>2106.9</ele>
        <time>2021-06-14T07:25:55.932Z</time>
      </trkpt>
      <trkpt lat="42.56326" lon="1.98937">
        <ele>2089.63</ele>
        <time>2021-06-14T07:26:05.000Z</time>
      </trkpt>
      <trkpt lat="42.56326" lon="1.98931">
        <ele>2091.24</ele>
        <time>2021-06-14T07:26:15.000Z</time>
      </trkpt>
      <trkpt lat="42.56326" lon="1.98927">
        <ele>2104.15</ele>
        <time>2021-06-14T07:26:25.259Z</time>
      </trkpt>
      <trkpt lat="42.56324" lon="1.98917">
        <ele>2099.64</ele>
        <time>2021-06-14T07:26:34.790Z</time>
      </trkpt>
      <trkpt lat="42.56324" lon="1.9891">
        <ele>2106.37</ele>
        <time>2021-06-14T07:26:44.000Z</time>
      </trkpt>
      <trkpt lat="42.56325" lon="1.98909">
        <ele>2104.05</ele>
        <time>2021-06-14T07:26:54.000Z</time>
      </trkpt>
      <trkpt lat="42.56327" lon="1.98906">
        <ele>2101.79</ele>
        <time>2021-06-14T07:27:04.000Z</time>
      </trkpt>
      <trkpt lat="42.56328" lon="1.98903">
        <ele>2063.56</ele>
        <time>2021-06-14T07:27:14.241Z</time>
      </trkpt>
      <trkpt lat="42.5633" lon="1.98892">
        <ele>2092.13</ele>
        <time>2021-06-14T07:27:23.802Z</time>
      </trkpt>
      <trkpt lat="42.56335" lon="1.98882">
        <ele>2101.92</ele>
        <time>2021-06-14T07:27:33.000Z</time>
      </trkpt>
      <trkpt lat="42.56339" lon="1.98874">
        <ele>2080.04</ele>
        <time>2021-06-14T07:27:42.075Z</time>
      </trkpt>
      <trkpt lat="42.56344" lon="1.98866">
        <ele>2086.68</ele>
        <time>2021-06-14T07:27:52.149Z</time>
      </trkpt>
      <trkpt lat="42.56345" lon="1.98853">
        <ele>2093.4</ele>
        <time>2021-06-14T07:28:01.891Z</time>
      </trkpt>
      <trkpt lat="42.56346" lon="1.9884">
        <ele>2084.27</ele>
        <time>2021-06-14T07:28:11.000Z</time>
      </trkpt>
      <trkpt lat="42.56346" lon="1.98836">
        <ele>2086.5</ele>
        <time>2021-06-14T07:28:21.165Z</time>
      </trkpt>
      <trkpt lat="42.5635" lon="1.98828">
        <ele>2085.33</ele>
        <time>2021-06-14T07:28:31.000Z</time>
      </trkpt>
      <trkpt lat="42.56352" lon="1.98829">
        <ele>2095.64</ele>
        <time>2021-06-14T07:28:41.000Z</time>
      </trkpt>
      <trkpt lat="42.56349" lon="1.98831">
        <ele>2084.24</ele>
        <time>2021-06-14T07:28:51.000Z</time>
      </trkpt>
      <trkpt lat="42.56352" lon="1.9883">
        <ele>2091.81</ele>
        <time>2021-06-14T07:29:01.000Z</time>
      </trkpt>
      <trkpt lat="42.56351" lon="1.98823">
        <ele>2106.38</ele>
        <time>2021-06-14T07:29:11.000Z</time>
      </trkpt>
      <trkpt lat="42.56359" lon="1.98828">
        <ele>2096.66</ele>
        <time>2021-06-14T07:29:21.000Z</time>
      </trkpt>
      <trkpt lat="42.56365" lon="1.98821">
        <ele>2093.45</ele>
        <time>2021-06-14T07:29:31.000Z</time>
      </trkpt>
      <trkpt lat="42.5637" lon="1.98811">
        <ele>2083.55</ele>
        <time>2021-06-14T07:29:41.469Z</time>
      </trkpt>
      <trkpt lat="42.56374" lon="1.988">
        <ele>2093.61</ele>
        <time>2021-06-14T07:29:51.376Z</time>
      </trkpt>
      <trkpt lat="42.56377" lon="1.98791">
        <ele>2090.99</ele>
        <time>2021-06-14T07:30:00.615Z</time>
      </trkpt>
      <trkpt lat="42.5638" lon="1.98783">
        <ele>2099.62</ele>
        <time>2021-06-14T07:30:10.000Z</time>
      </trkpt>
      <trkpt lat="42.56375" lon="1.98774">
        <ele>2096.2</ele>
        <time>2021-06-14T07:30:20.000Z</time>
      </trkpt>
      <trkpt lat="42.56371" lon="1.98759">
        <ele>2102.58</ele>
        <time>2021-06-14T07:30:30.000Z</time>
      </trkpt>
      <trkpt lat="42.56371" lon="1.98754">
        <ele>2112.11</ele>
        <time>2021-06-14T07:30:39.108Z</time>
      </trkpt>
      <trkpt lat="42.56373" lon="1.98747">
        <ele>2109.3</ele>
        <time>2021-06-14T07:30:49.000Z</time>
      </trkpt>
      <trkpt lat="42.56375" lon="1.98744">
        <ele>2099.76</ele>
        <time>2021-06-14T07:30:58.397Z</time>
      </trkpt>
      <trkpt lat="42.56373" lon="1.98732">
        <ele>2122.94</ele>
        <time>2021-06-14T07:31:08.072Z</time>
      </trkpt>
      <trkpt lat="42.56369" lon="1.98721">
        <ele>2102.23</ele>
        <time>2021-06-14T07:31:18.368Z</time>
      </trkpt>
      <trkpt lat="42.5637" lon="1.98714">
        <ele>2114.71</ele>
        <time>2021-06-14T07:31:28.000Z</time>
      </trkpt>
      <trkpt lat="42.56373" lon="1.98704">
        <ele>2119.14</ele>
        <time>2021-06-14T07:31:38.000Z</time>
      </trkpt>
      <trkpt lat="42.56377" lon="1.98697">
        <ele>2118.39</ele>
        <time>2021-06-14T07:31:47.952Z</time>
      </trkpt>
      <trkpt lat="42.56378" lon="1.98694">
        <ele>2109.52</ele>
        <time>2021-06-14T07:31:57.757Z</time>
      </trkpt>
      <trkpt lat="42.56381" lon="1.98688">
        <ele>2125.17</ele>
        <time>2021-06-14T07:32:07.063Z</time>
      </trkpt>
      <trkpt lat="42.56386" lon="1.98683">
        <ele>2102.41</ele>
        <time>2021-06-14T07:32:16.444Z</time>
      </trkpt>
      <trkpt lat="42.5639" lon="1.98679">
        <ele>2117.47</ele>
        <time>2021-06-14T07:32:26.000Z</time>
      </trkpt>
      <trkpt lat="42.56393" lon="1.98666">
        <ele>2100.31</ele>
        <time>2021-06-14T07:32:35.830Z</time>
      </trkpt>
      <trkpt lat="42.56398" lon="1.98655">
        <ele>2126.44</ele>
        <time>2021-06-14T07:32:45.000Z</time>
      </trkpt>
      <trkpt lat="42.56402" lon="1.98651">
        <ele>2102.97</ele>
        <time>2021-06-14T07:32:55.000Z</time>
      </trkpt>
      <trkpt lat="42.56403" lon="1.98652">
        <ele>2098</ele>
        <time>2021-06-14T07:33:04.309Z</time>
      </trkpt>
      <trkpt lat="42.56405" lon="1.98647">
        <ele>2095.06</ele>
        <time>2021-06-14T07:33:13.396Z</time>
      </trkpt>
      <trkpt lat="42.56412" lon="1.98644">
        <ele>2120.14</ele>
        <time>2021-06-14T07:33:23.000Z</time>
      </trkpt>
      <trkpt lat="42.56416" lon="1.98639">
        <ele>2109.77</ele>
        <time>2021-06-14T07:33:33.000Z</time>
      </trkpt>
      <trkpt lat="42.56418" lon="1.98634">
        <ele>2110.04</ele>
        <time>2021-06-14T07:33:43.000Z</time>
      </trkpt>
      <trkpt lat="42.5642" lon="1.98627">
        <ele>2107.59</ele>
        <time>2021-06-14T07:33:53.000Z</time>
      </trkpt>
      <trkpt lat="42.56417" lon="1.98617">
        <ele>2112.81</ele>
        <time>2021-06-14T07:34:02.149Z</time>
      </trkpt>
      <trkpt lat="42.56421" lon="1.98605">
        <ele>2112.37</ele>
        <time>2021-06-14T07:34:12.000Z</time>
      </trkpt>
      <trkpt lat="42.56423" lon="1.98598">
        <ele>2121.2</ele>
        <time>2021-06-14T07:34:21.036Z</time>
      </trkpt>
      <trkpt lat="42.56425" lon="1.98591">
        <ele>2114.78</ele>
        <time>2021-06-14T07:34:30.950Z</time>
      </trkpt>
      <trkpt lat="42.5643" lon="1.98588">
        <ele>2127.13</ele>
        <time>2021-06-14T07:34:40.495Z</time>
      </trkpt>
      <trkpt lat="42.56437" lon="1.98585">
        <ele>2123.25</ele>
        <time>2021-06-14T07:34:50.111Z</time>
      </trkpt>
      <trkpt lat="42.56441" lon="1.98573">
        <ele>2124.44</ele>
        <time>2021-06-14T07:34:59.515Z</time>
      </trkpt>
      <trkpt lat="42.56445" lon="1.98565">
        <ele>2115.35</ele>
        <time>2021-06-14T07:35:09.000Z</time>
      </trkpt>
      <trkpt lat="42.56445" lon="1.98559">
        <ele>2113.98</ele>
        <time>2021-06-14T07:35:19.256Z</time>
      </trkpt>
      <trkpt lat="42.56445" lon="1.98546">
        <ele>2112.26</ele>
        <time>2021-06-14T07:35:29.000Z</time>
      </trkpt>
      <trkpt lat="42.56438" lon="1.98539">
        <ele>2140.9</ele>
        <time>2021-06-14T07:35:39.000Z</time>
      </trkpt>
      <trkpt lat="42.56435" lon="1.98531">
        <ele>2144.55</ele>
        <time>2021-06-14T07:35:48.997Z</time>
      </trkpt>
      <trkpt lat="42.56435" lon="1.98519">
        <ele>2148.81</ele>
        <time>2021-06-14T07:35:58.465Z</time>
      </trkpt>
      <trkpt lat="42.56438" lon="1.98508">
        <ele>2156.18</ele>
        <time>2021-06-14T07:36:08.025Z</time>
      </trkpt>
      <trkpt lat="42.56437" lon="1.98496">
        <ele>2137.02</ele>
        <time>2021-06-14T07:36:18.253Z</time>
      </trkpt>
      <trkpt lat="42.56431" lon="1.98486">
        <ele>2129.49</ele>
        <time>2021-06-14T07:36:28.000Z</time>
      </trkpt>
      <trkpt lat="42.56432" lon="1.98483">
        <ele>2141.7</ele>
        <time>2021-06-14T07:36:38.000Z</time>
      </trkpt>
      <trkpt lat="42.5643" lon="1.98476">
        <ele>2161.76</ele>
        <time>2021-06-14T07:36:48.000Z</time>
      </trkpt>
      <trkpt lat="42.56429" lon="1.98469">
        <ele>2134.47</ele>
        <time>2021-06-14T07:36:57.508Z</time>
      </trkpt>
      <trkpt lat="42.5643" lon="1.98463">
        <ele>2149.77</ele>
        <time>2021-06-14T07:37:06.622Z</time>
      </trkpt>
      <trkpt lat="42.56428" lon="1.98451">
        <ele>2146.72</ele>
        <time>2021-06-14T07:37:16.000Z</time>
      </trkpt>
      <trkpt lat="42.56426" lon="1.98444">
        <ele>2145.6</ele>
        <time>2021-06-14T07:37:25.809Z</time>
      </trkpt>
      <trkpt lat="42.56424" lon="1.98442">
        <ele>2142.31</ele>
        <time>2021-06-14T07:37:35.097Z</time>
      </trkpt>
      <trkpt lat="42.56414" lon="1.98436">
        <ele>2150.92</ele>
        <time>2021-06-14T07:37:44.293Z</time>
      </trkpt>
      <trkpt lat="42.56405" lon="1.98428">
        <ele>2168.31</ele>
        <time>2021-06-14T07:37:54.000Z</time>
      </trkpt>
      <trkpt lat="42.56396" lon="1.98424">
        <ele>2136.2</ele>
        <time>2021-06-14T07:38:04.000Z</time>
      </trkpt>
      <trkpt lat="42.56388" lon="1.98419">
        <ele>2151.53</ele>
        <time>2021-06-14T07:38:13.135Z</time>
      </trkpt>
      <trkpt lat="42.5638" lon="1.98421">
        <ele>2146.98</ele>
        <time>2021-06-14T07:38:22.645Z</time>
      </trkpt>
      <trkpt lat="42.56377" lon="1.98422">
        <ele>2143.22</ele>
        <time>2021-06-14T07:38:32.000Z</time>
      </trkpt>
      <trkpt lat="42.56368" lon="1.98426">
        <ele>2153.88</ele>
        <time>2021-06-14T07:38:41.174Z</time>
      </trkpt>
      <trkpt lat="42.56363" lon="1.98427">
        <ele>2140.71</ele>
        <time>2021-06-14T07:38:51.000Z</time>
      </trkpt>
      <trkpt lat="42.56362" lon="1.98428">
        <ele>2147.94</ele>
        <time>2021-06-14T07:39:01.000Z</time>
      </trkpt>
      <trkpt lat="42.56362" lon="1.98423">
        <ele>2153.63</ele>
        <time>2021-06-14T07:39:11.000Z</time>
      </trkpt>
      <trkpt lat="42.56357" lon="1.98427">
        <ele>2149.07</ele>
        <time>2021-06-14T07:39:21.000Z</time>
      </trkpt>
      <trkpt lat="42.56355" lon="1.98427">
        <ele>2151</ele>
        <time>2021-06-14T07:39:34.000Z</time>
      </trkpt>
      <trkpt lat="42.56356" lon="1.98429">
        <ele>2159.51</ele>
        <time>2021-06-14T07:39:44.000Z</time>
      </trkpt>
      <trkpt lat="42.56359" lon="1.98426">
        <ele>2134.58</ele>
        <time>2021-06-14T07:39:54.000Z</time>
      </trkpt>
      <trkpt lat="42.5636" lon="1.98426">
        <ele>2143.27</ele>
        <time>2021-06-14T07:40:10.000Z</time>
      </trkpt>
      <trkpt lat="42.56357" lon="1.98426">
        <ele>2150</ele>
        <time>2021-06-14T07:40:20.000Z</time>
      </trkpt>
      <trkpt lat="42.56362" lon="1.98427">
        <ele>2145.72</ele>
        <time>2021-06-14T07:40:30.000Z</time>
      </trkpt>
      <trkpt lat="42.56363" lon="1.98427">
        <ele>2166.44</ele>
        <time>2021-06-14T07:40:40.000Z</time>
      </trkpt>
      <trkpt lat="42.56364" lon="1.98429">
        <ele>2148.03</ele>
        <time>2021-06-14T07:40:50.000Z</time>
      </trkpt>
      <trkpt lat="42.56361" lon="1.98429">
        <ele>2162.28</ele>
        <time>2021-06-14T07:41:00.000Z</time>
      </trkpt>
      <trkpt lat="42.56362" lon="1.98431">
        <ele>2130.72</ele>
        <time>2021-06-14T07:41:10.000Z</time>
      </trkpt>
      <trkpt lat="42.56367" lon="1.98431">
        <ele>2159.72</ele>
        <time>2021-06-14T07:41:20.000Z</time>
      </trkpt>
      <trkpt lat="42.56368" lon="1.98434">
        <ele>2171.68</ele>
        <time>2021-06-14T07:41:30.000Z</time>
      </trkpt>
      <trkpt lat="42.56366" lon="1.98432">
        <ele>2146.46</ele>
        <time>2021-06-14T07:41:40.000Z</time>
      </trkpt>
      <trkpt lat="42.56357" lon="1.98431">
        <ele>2153.62</ele>
        <time>2021-06-14T07:41:50.000Z</time>
      </trkpt>
      <trkpt lat="42.56357" lon="1.98405">
        <ele>2133.22</ele>
        <time>2021-06-14T07:42:00.000Z</time>
      </trkpt>
      <trkpt lat="42.56354" lon="1.98423">
        <ele>2148.79</ele>
        <time>2021-06-14T07:42:10.000Z</time>
      </trkpt>
      <trkpt lat="42.56356" lon="1.98425">
        <ele>2147.03</ele>
        <time>2021-06-14T07:42:20.000Z</time>
      </trkpt>
      <trkpt lat="42.56355" lon="1.98428">
        <ele>2147.57</ele>
        <time>2021-06-14T07:42:30.000Z</time>
      </trkpt>
      <trkpt lat="42.56354" lon="1.98427">
        <ele>2128.69</ele>
        <time>2021-06-14T07:42:40.000Z</time>
      </trkpt>
      <trkpt lat="42.56351" lon="1.98426">
        <ele>2139.07</ele>
        <time>2021-06-14T07:42:50.000Z</time>
      </trkpt>
      <trkpt lat="42.56345" lon="1.98425">
        <ele>2157.45</ele>
        <time>2021-06-14T07:42:59.153Z</time>
      </trkpt>
      <trkpt lat="42.56336" lon="1.9843">
        <ele>2143.71</ele>
        <time>2021-06-14T07:43:08.891Z</time>
      </trkpt>
      <trkpt lat="42.56328" lon="1.98432">
        <ele>2167.4</ele>
        <time>2021-06-14T07:43:18.000Z</time>
      </trkpt>
      <trkpt lat="42.56321" lon="1.98431">
        <ele>2139.45</ele>
        <time>2021-06-14T07:43:28.000Z</time>
      </trkpt>
      <trkpt lat="42.56322" lon="1.98429">
        <ele>2140.28</ele>
        <time>2021-06-14T07:43:38.000Z</time>
      </trkpt>
      <trkpt lat="42.56325" lon="1.98426">
        <ele>2155.53</ele>
        <time>2021-06-14T07:43:48.000Z</time>
      </trkpt>
      <trkpt lat="42.56328" lon="1.98425">
        <ele>2156.02</ele>
        <time>2021-06-14T07:43:58.000Z</time>
      </trkpt>
      <trkpt lat="42.56327" lon="1.98425">
        <ele>2154.6</ele>
        <time>2021-06-14T07:44:08.000Z</time>
      </trkpt>
      <trkpt lat="42.56326" lon="1.98426">
        <ele>2155.67</ele>
        <time>2021-06-14T07:44:18.000Z</time>
      </trkpt>
      <trkpt lat="42.56316" lon="1.98425">
        <ele>2141.87</ele>
        <time>2021-06-14T07:44:27.232Z</time>
      </trkpt>
      <trkpt lat="42.56307" lon="1.98437">
        <ele>2164.06</ele>
        <time>2021-06-14T07:44:37.000Z</time>
      </trkpt>
      <trkpt lat="42.56308" lon="1.98439">
        <ele>2142.65</ele>
        <time>2021-06-14T07:44:47.000Z</time>
      </trkpt>
      <trkpt lat="42.56311" lon="1.98439">
        <ele>2144.93</ele>
        <time>2021-06-14T07:44:56.139Z</time>
      </trkpt>
      <trkpt lat="42.56312" lon="1.98435">
        <ele>2150.43</ele>
        <time>2021-06-14T07:45:06.000Z</time>
      </trkpt>
      <trkpt lat="42.56308" lon="1.98442">
        <ele>2137.02</ele>
        <time>2021-06-14T07:45:15.858Z</time>
      </trkpt>
      <trkpt lat="42.56301" lon="1.98447">
        <ele>2160.08</ele>
        <time>2021-06-14T07:45:24.912Z</time>
      </trkpt>
      <trkpt lat="42.56297" lon="1.98458">
        <ele>2150.55</ele>
        <time>2021-06-14T07:45:34.000Z</time>
      </trkpt>
      <trkpt lat="42.56285" lon="1.98468">
        <ele>2162.66</ele>
        <time>2021-06-14T07:45:44.111Z</time>
      </trkpt>
      <trkpt lat="42.56274" lon="1.98474">
        <ele>2140.39</ele>
        <time>2021-06-14T07:45:54.069Z</time>
      </trkpt>
      <trkpt lat="42.56267" lon="1.98482">
        <ele>2154.32</ele>
        <time>2021-06-14T07:46:03.080Z</time>
      </trkpt>
      <trkpt lat="42.56261" lon="1.98482">
        <ele>2157.49</ele>
        <time>2021-06-14T07:46:12.372Z</time>
      </trkpt>
      <trkpt lat="42.56253" lon="1.98481">
        <ele>2146.57</ele>
        <time>2021-06-14T07:46:21.829Z</time>
      </trkpt>
      <trkpt lat="42.56246" lon="1.98473">
        <ele>2155.36</ele>
        <time>2021-06-14T07:46:31.000Z</time>
      </trkpt>
      <trkpt lat="42.56237" lon="1.98471">
        <ele>2138.3</ele>
        <time>2021-06-14T07:46:40.066Z</time>
      </trkpt>
      <trkpt lat="42.56232" lon="1.9847">
        <ele>2148.36</ele>
        <time>2021-06-14T07:46:50.000Z</time>
      </trkpt>
      <trkpt lat="42.56224" lon="1.98456">
        <ele>2151.13</ele>
        <time>2021-06-14T07:46:59.646Z</time>
      </trkpt>
      <trkpt lat="42.56222" lon="1.98456">
        <ele>2143.07</ele>
        <time>2021-06-14T07:47:09.000Z</time>
      </trkpt>
      <trkpt lat="42.56221" lon="1.98458">
        <ele>2135.42</ele>
        <time>2021-06-14T07:47:18.755Z</time>
      </trkpt>
      <trkpt lat="42.56211" lon="1.98444">
        <ele>2128.8</ele>
        <time>2021-06-14T07:47:27.807Z</time>
      </trkpt>
      <trkpt lat="42.56201" lon="1.98435">
        <ele>2153.66</ele>
        <time>2021-06-14T07:47:36.958Z</time>
      </trkpt>
      <trkpt lat="42.56188" lon="1.98439">
        <ele>2133.31</ele>
        <time>2021-06-14T07:47:46.381Z</time>
      </trkpt>
      <trkpt lat="42.56176" lon="1.98441">
        <ele>2132.74</ele>
        <time>2021-06-14T07:47:56.000Z</time>
      </trkpt>
      <trkpt lat="42.56166" lon="1.98432">
        <ele>2143.3</ele>
        <time>2021-06-14T07:48:06.000Z</time>
      </trkpt>
      <trkpt lat="42.56164" lon="1.98432">
        <ele>2149.82</ele>
        <time>2021-06-14T07:48:16.000Z</time>
      </trkpt>
      <trkpt lat="42.56165" lon="1.98432">
        <ele>2155.41</ele>
        <time>2021-06-14T07:48:28.000Z</time>
      </trkpt>
      <trkpt lat="42.56166" lon="1.98429">
        <ele>2154.27</ele>
        <time>2021-06-14T07:48:37.446Z</time>
      </trkpt>
      <trkpt lat="42.56157" lon="1.98427">
        <ele>2149.44</ele>
        <time>2021-06-14T07:48:47.000Z</time>
      </trkpt>
      <trkpt lat="42.56144" lon="1.98413">
        <ele>2138.7</ele>
        <time>2021-06-14T07:48:56.679Z</time>
      </trkpt>
      <trkpt lat="42.56138" lon="1.98398">
        <ele>2118.95</ele>
        <time>2021-06-14T07:49:06.000Z</time>
      </trkpt>
      <trkpt lat="42.56134" lon="1.98399">
        <ele>2136.97</ele>
        <time>2021-06-14T07:49:16.085Z</time>
      </trkpt>
      <trkpt lat="42.56127" lon="1.98395">
        <ele>2143.73</ele>
        <time>2021-06-14T07:49:25.106Z</time>
      </trkpt>
      <trkpt lat="42.56122" lon="1.98381">
        <ele>2132.2</ele>
        <time>2021-06-14T07:49:34.509Z</time>
      </trkpt>
      <trkpt lat="42.56113" lon="1.98372">
        <ele>2138.53</ele>
        <time>2021-06-14T07:49:43.682Z</time>
      </trkpt>
      <trkpt lat="42.56109" lon="1.9836">
        <ele>2145.45</ele>
        <time>2021-06-14T07:49:53.000Z</time>
      </trkpt>
      <trkpt lat="42.56104" lon="1.98351">
        <ele>2122.41</ele>
        <time>2021-06-14T07:50:02.100Z</time>
      </trkpt>
      <trkpt lat="42.56098" lon="1.98346">
        <ele>2128.65</ele>
        <time>2021-06-14T07:50:11.734Z</time>
      </trkpt>
      <trkpt lat="42.56093" lon="1.98334">
        <ele>2145.67</ele>
        <time>2021-06-14T07:50:21.000Z</time>
      </trkpt>
      <trkpt lat="42.56091" lon="1.98323">
        <ele>2130.98</ele>
        <time>2021-06-14T07:50:31.000Z</time>
      </trkpt>
      <trkpt lat="42.5609" lon="1.98314">
        <ele>2133.67</ele>
        <time>2021-06-14T07:50:40.998Z</time>
      </trkpt>
      <trkpt lat="42.56083" lon="1.98306">
        <ele>2129.96</ele>
        <time>2021-06-14T07:50:50.000Z</time>
      </trkpt>
      <trkpt lat="42.5608" lon="1.98294">
        <ele>2133.73</ele>
        <time>2021-06-14T07:51:00.647Z</time>
      </trkpt>
      <trkpt lat="42.56075" lon="1.98289">
        <ele>2138.82</ele>
        <time>2021-06-14T07:51:10.000Z</time>
      </trkpt>
      <trkpt lat="42.56071" lon="1.98286">
        <ele>2138.55</ele>
        <time>2021-06-14T07:51:20.000Z</time>
      </trkpt>
      <trkpt lat="42.56066" lon="1.9828">
        <ele>2137.98</ele>
        <time>2021-06-14T07:51:29.910Z</time>
      </trkpt>
      <trkpt lat="42.56064" lon="1.98277">
        <ele>2134.09</ele>
        <time>2021-06-14T07:51:39.022Z</time>
      </trkpt>
      <trkpt lat="42.56064" lon="1.98275">
        <ele>2129.04</ele>
        <time>2021-06-14T07:51:48.204Z</time>
      </trkpt>
      <trkpt lat="42.56063" lon="1.98276">
        <ele>2142.17</ele>
        <time>2021-06-14T07:51:58.000Z</time>
      </trkpt>
      <trkpt lat="42.56061" lon="1.9827">
        <ele>2139.74</ele>
        <time>2021-06-14T07:52:07.513Z</time>
      </trkpt>
      <trkpt lat="42.56051" lon="1.98264">
        <ele>2163.02</ele>
        <time>2021-06-14T07:52:16.583Z</time>
      </trkpt>
      <trkpt lat="42.56045" lon="1.98255">
        <ele>2140.39</ele>
        <time>2021-06-14T07:52:26.003Z</time>
      </trkpt>
      <trkpt lat="42.56036" lon="1.98255">
        <ele>2150.98</ele>
        <time>2021-06-14T07:52:35.679Z</time>
      </trkpt>
      <trkpt lat="42.56034" lon="1.9825">
        <ele>2158.23</ele>
        <time>2021-06-14T07:52:45.000Z</time>
      </trkpt>
      <trkpt lat="42.56034" lon="1.98242">
        <ele>2162.14</ele>
        <time>2021-06-14T07:52:55.000Z</time>
      </trkpt>
      <trkpt lat="42.56029" lon="1.98226">
        <ele>2144.59</ele>
        <time>2021-06-14T07:53:18.164Z</time>
      </trkpt>
      <trkpt lat="42.56024" lon="1.98215">
        <ele>2127.22</ele>
        <time>2021-06-14T07:53:27.883Z</time>
      </trkpt>
      <trkpt lat="42.56015" lon="1.98212">
        <ele>2145</ele>
        <time>2021-06-14T07:53:37.000Z</time>
      </trkpt>
      <trkpt lat="42.5601" lon="1.98206">
        <ele>2147.61</ele>
        <time>2021-06-14T07:53:47.000Z</time>
      </trkpt>
      <trkpt lat="42.56006" lon="1.98198">
        <ele>2137.29</ele>
        <time>2021-06-14T07:53:56.064Z</time>
      </trkpt>
      <trkpt lat="42.56003" lon="1.98188">
        <ele>2155.5</ele>
        <time>2021-06-14T07:54:05.754Z</time>
      </trkpt>
      <trkpt lat="42.5601" lon="1.98175">
        <ele>2153.47</ele>
        <time>2021-06-14T07:54:15.152Z</time>
      </trkpt>
      <trkpt lat="42.56022" lon="1.98172">
        <ele>2138.46</ele>
        <time>2021-06-14T07:54:25.000Z</time>
      </trkpt>
      <trkpt lat="42.5603" lon="1.98165">
        <ele>2147.47</ele>
        <time>2021-06-14T07:54:35.074Z</time>
      </trkpt>
      <trkpt lat="42.56035" lon="1.98159">
        <ele>2142.65</ele>
        <time>2021-06-14T07:54:45.000Z</time>
      </trkpt>
      <trkpt lat="42.56038" lon="1.98155">
        <ele>2155.04</ele>
        <time>2021-06-14T07:54:54.162Z</time>
      </trkpt>
      <trkpt lat="42.56043" lon="1.98157">
        <ele>2152.58</ele>
        <time>2021-06-14T07:55:04.000Z</time>
      </trkpt>
      <trkpt lat="42.5605" lon="1.98156">
        <ele>2148.8</ele>
        <time>2021-06-14T07:55:13.001Z</time>
      </trkpt>
      <trkpt lat="42.56059" lon="1.98146">
        <ele>2165.89</ele>
        <time>2021-06-14T07:55:23.000Z</time>
      </trkpt>
      <trkpt lat="42.56065" lon="1.98136">
        <ele>2160.7</ele>
        <time>2021-06-14T07:55:32.466Z</time>
      </trkpt>
      <trkpt lat="42.56071" lon="1.98126">
        <ele>2155.24</ele>
        <time>2021-06-14T07:55:42.000Z</time>
      </trkpt>
      <trkpt lat="42.56078" lon="1.98118">
        <ele>2153.47</ele>
        <time>2021-06-14T07:55:52.000Z</time>
      </trkpt>
      <trkpt lat="42.56078" lon="1.98104">
        <ele>2156.68</ele>
        <time>2021-06-14T07:56:02.364Z</time>
      </trkpt>
      <trkpt lat="42.56077" lon="1.98095">
        <ele>2157.73</ele>
        <time>2021-06-14T07:56:12.000Z</time>
      </trkpt>
      <trkpt lat="42.56076" lon="1.98082">
        <ele>2163.52</ele>
        <time>2021-06-14T07:56:22.028Z</time>
      </trkpt>
      <trkpt lat="42.56074" lon="1.98075">
        <ele>2180.49</ele>
        <time>2021-06-14T07:56:32.157Z</time>
      </trkpt>
      <trkpt lat="42.56072" lon="1.98073">
        <ele>2165.78</ele>
        <time>2021-06-14T07:56:42.000Z</time>
      </trkpt>
      <trkpt lat="42.5607" lon="1.98068">
        <ele>2159.82</ele>
        <time>2021-06-14T07:56:51.166Z</time>
      </trkpt>
      <trkpt lat="42.56061" lon="1.98056">
        <ele>2148.66</ele>
        <time>2021-06-14T07:57:00.948Z</time>
      </trkpt>
      <trkpt lat="42.56054" lon="1.98042">
        <ele>2161.15</ele>
        <time>2021-06-14T07:57:10.426Z</time>
      </trkpt>
      <trkpt lat="42.5605" lon="1.98033">
        <ele>2165.35</ele>
        <time>2021-06-14T07:57:19.449Z</time>
      </trkpt>
      <trkpt lat="42.56049" lon="1.98021">
        <ele>2163.04</ele>
        <time>2021-06-14T07:57:29.181Z</time>
      </trkpt>
      <trkpt lat="42.56052" lon="1.98014">
        <ele>2164.08</ele>
        <time>2021-06-14T07:57:38.613Z</time>
      </trkpt>
      <trkpt lat="42.56053" lon="1.98009">
        <ele>2151.93</ele>
        <time>2021-06-14T07:57:48.000Z</time>
      </trkpt>
      <trkpt lat="42.56053" lon="1.98007">
        <ele>2178.88</ele>
        <time>2021-06-14T07:57:57.015Z</time>
      </trkpt>
      <trkpt lat="42.56053" lon="1.97994">
        <ele>2162.96</ele>
        <time>2021-06-14T07:58:06.506Z</time>
      </trkpt>
      <trkpt lat="42.56054" lon="1.97983">
        <ele>2167.35</ele>
        <time>2021-06-14T07:58:15.782Z</time>
      </trkpt>
      <trkpt lat="42.56059" lon="1.97974">
        <ele>2149.87</ele>
        <time>2021-06-14T07:58:25.000Z</time>
      </trkpt>
      <trkpt lat="42.56064" lon="1.97964">
        <ele>2182.58</ele>
        <time>2021-06-14T07:58:34.387Z</time>
      </trkpt>
      <trkpt lat="42.56076" lon="1.97954">
        <ele>2152.81</ele>
        <time>2021-06-14T07:58:44.000Z</time>
      </trkpt>
      <trkpt lat="42.56081" lon="1.97947">
        <ele>2176.66</ele>
        <time>2021-06-14T07:58:53.209Z</time>
      </trkpt>
      <trkpt lat="42.56086" lon="1.9794">
        <ele>2171.19</ele>
        <time>2021-06-14T07:59:02.283Z</time>
      </trkpt>
      <trkpt lat="42.5609" lon="1.97936">
        <ele>2153.12</ele>
        <time>2021-06-14T07:59:12.000Z</time>
      </trkpt>
      <trkpt lat="42.56096" lon="1.97932">
        <ele>2164.98</ele>
        <time>2021-06-14T07:59:22.075Z</time>
      </trkpt>
      <trkpt lat="42.56099" lon="1.97925">
        <ele>2167.67</ele>
        <time>2021-06-14T07:59:31.417Z</time>
      </trkpt>
      <trkpt lat="42.56101" lon="1.97915">
        <ele>2187.61</ele>
        <time>2021-06-14T07:59:40.982Z</time>
      </trkpt>
      <trkpt lat="42.56104" lon="1.97908">
        <ele>2178.01</ele>
        <time>2021-06-14T07:59:50.000Z</time>
      </trkpt>
      <trkpt lat="42.56107" lon="1.97905">
        <ele>2168.98</ele>
        <time>2021-06-14T07:59:59.227Z</time>
      </trkpt>
      <trkpt lat="42.56112" lon="1.979">
        <ele>2146.1</ele>
        <time>2021-06-14T08:00:09.000Z</time>
      </trkpt>
      <trkpt lat="42.5612" lon="1.97895">
        <ele>2163.45</ele>
        <time>2021-06-14T08:00:19.000Z</time>
      </trkpt>
      <trkpt lat="42.56128" lon="1.97884">
        <ele>2148.25</ele>
        <time>2021-06-14T08:00:28.989Z</time>
      </trkpt>
      <trkpt lat="42.5613" lon="1.97879">
        <ele>2149.38</ele>
        <time>2021-06-14T08:00:38.630Z</time>
      </trkpt>
      <trkpt lat="42.56135" lon="1.97873">
        <ele>2160.13</ele>
        <time>2021-06-14T08:00:48.000Z</time>
      </trkpt>
      <trkpt lat="42.56143" lon="1.97864">
        <ele>2160.63</ele>
        <time>2021-06-14T08:00:58.000Z</time>
      </trkpt>
      <trkpt lat="42.5615" lon="1.9786">
        <ele>2159.72</ele>
        <time>2021-06-14T08:01:07.220Z</time>
      </trkpt>
      <trkpt lat="42.56158" lon="1.97856">
        <ele>2145.48</ele>
        <time>2021-06-14T08:01:16.293Z</time>
      </trkpt>
      <trkpt lat="42.56159" lon="1.9785">
        <ele>2139.49</ele>
        <time>2021-06-14T08:01:25.402Z</time>
      </trkpt>
      <trkpt lat="42.56164" lon="1.97846">
        <ele>2142.58</ele>
        <time>2021-06-14T08:01:34.794Z</time>
      </trkpt>
      <trkpt lat="42.56171" lon="1.97837">
        <ele>2141.17</ele>
        <time>2021-06-14T08:01:44.332Z</time>
      </trkpt>
      <trkpt lat="42.56173" lon="1.97822">
        <ele>2153.94</ele>
        <time>2021-06-14T08:01:53.991Z</time>
      </trkpt>
      <trkpt lat="42.56171" lon="1.97812">
        <ele>2166.99</ele>
        <time>2021-06-14T08:02:03.018Z</time>
      </trkpt>
      <trkpt lat="42.5617" lon="1.97806">
        <ele>2154.92</ele>
        <time>2021-06-14T08:02:12.248Z</time>
      </trkpt>
      <trkpt lat="42.56169" lon="1.97797">
        <ele>2159.18</ele>
        <time>2021-06-14T08:02:21.745Z</time>
      </trkpt>
      <trkpt lat="42.5617" lon="1.97791">
        <ele>2154.8</ele>
        <time>2021-06-14T08:02:31.000Z</time>
      </trkpt>
      <trkpt lat="42.5617" lon="1.97789">
        <ele>2152.96</ele>
        <time>2021-06-14T08:02:41.000Z</time>
      </trkpt>
      <trkpt lat="42.56168" lon="1.97789">
        <ele>2148.94</ele>
        <time>2021-06-14T08:02:51.000Z</time>
      </trkpt>
      <trkpt lat="42.56167" lon="1.97779">
        <ele>2149.29</ele>
        <time>2021-06-14T08:03:00.485Z</time>
      </trkpt>
      <trkpt lat="42.56172" lon="1.97763">
        <ele>2165.66</ele>
        <time>2021-06-14T08:03:10.348Z</time>
      </trkpt>
      <trkpt lat="42.56177" lon="1.97755">
        <ele>2150.58</ele>
        <time>2021-06-14T08:03:20.000Z</time>
      </trkpt>
      <trkpt lat="42.56177" lon="1.97754">
        <ele>2165.22</ele>
        <time>2021-06-14T08:03:30.098Z</time>
      </trkpt>
      <trkpt lat="42.5618" lon="1.97736">
        <ele>2140.06</ele>
        <time>2021-06-14T08:03:40.000Z</time>
      </trkpt>
      <trkpt lat="42.56182" lon="1.97721">
        <ele>2147.43</ele>
        <time>2021-06-14T08:03:49.871Z</time>
      </trkpt>
      <trkpt lat="42.56171" lon="1.97715">
        <ele>2158.01</ele>
        <time>2021-06-14T08:03:59.511Z</time>
      </trkpt>
      <trkpt lat="42.56162" lon="1.97712">
        <ele>2147.02</ele>
        <time>2021-06-14T08:04:09.000Z</time>
      </trkpt>
      <trkpt lat="42.56153" lon="1.97709">
        <ele>2151.3</ele>
        <time>2021-06-14T08:04:18.465Z</time>
      </trkpt>
      <trkpt lat="42.56143" lon="1.97704">
        <ele>2156.6</ele>
        <time>2021-06-14T08:04:28.000Z</time>
      </trkpt>
      <trkpt lat="42.56144" lon="1.97703">
        <ele>2149.46</ele>
        <time>2021-06-14T08:04:41.880Z</time>
      </trkpt>
      <trkpt lat="42.56143" lon="1.97691">
        <ele>2168.26</ele>
        <time>2021-06-14T08:04:50.982Z</time>
      </trkpt>
      <trkpt lat="42.56132" lon="1.97674">
        <ele>2144.14</ele>
        <time>2021-06-14T08:05:00.000Z</time>
      </trkpt>
      <trkpt lat="42.5612" lon="1.97663">
        <ele>2155.67</ele>
        <time>2021-06-14T08:05:09.476Z</time>
      </trkpt>
      <trkpt lat="42.56117" lon="1.97646">
        <ele>2168.27</ele>
        <time>2021-06-14T08:05:19.106Z</time>
      </trkpt>
      <trkpt lat="42.56111" lon="1.97641">
        <ele>2169.77</ele>
        <time>2021-06-14T08:05:28.335Z</time>
      </trkpt>
      <trkpt lat="42.56108" lon="1.97636">
        <ele>2155.22</ele>
        <time>2021-06-14T08:05:38.000Z</time>
      </trkpt>
      <trkpt lat="42.56108" lon="1.97624">
        <ele>2159.14</ele>
        <time>2021-06-14T08:05:48.158Z</time>
      </trkpt>
      <trkpt lat="42.56097" lon="1.97626">
        <ele>2160.15</ele>
        <time>2021-06-14T08:05:57.622Z</time>
      </trkpt>
      <trkpt lat="42.56088" lon="1.97617">
        <ele>2161.46</ele>
        <time>2021-06-14T08:06:07.000Z</time>
      </trkpt>
      <trkpt lat="42.56081" lon="1.97606">
        <ele>2160.64</ele>
        <time>2021-06-14T08:06:16.560Z</time>
      </trkpt>
      <trkpt lat="42.56075" lon="1.97595">
        <ele>2164.59</ele>
        <time>2021-06-14T08:06:25.800Z</time>
      </trkpt>
      <trkpt lat="42.56064" lon="1.97591">
        <ele>2152.8</ele>
        <time>2021-06-14T08:06:35.000Z</time>
      </trkpt>
      <trkpt lat="42.56056" lon="1.97582">
        <ele>2147.73</ele>
        <time>2021-06-14T08:06:45.000Z</time>
      </trkpt>
      <trkpt lat="42.56051" lon="1.97576">
        <ele>2149.57</ele>
        <time>2021-06-14T08:06:55.044Z</time>
      </trkpt>
      <trkpt lat="42.56044" lon="1.97564">
        <ele>2139.04</ele>
        <time>2021-06-14T08:07:05.574Z</time>
      </trkpt>
      <trkpt lat="42.56042" lon="1.97552">
        <ele>2154.75</ele>
        <time>2021-06-14T08:07:15.000Z</time>
      </trkpt>
      <trkpt lat="42.56041" lon="1.97546">
        <ele>2141.56</ele>
        <time>2021-06-14T08:07:24.204Z</time>
      </trkpt>
      <trkpt lat="42.56038" lon="1.97537">
        <ele>2134.6</ele>
        <time>2021-06-14T08:07:34.177Z</time>
      </trkpt>
      <trkpt lat="42.56032" lon="1.9753">
        <ele>2175.83</ele>
        <time>2021-06-14T08:07:44.000Z</time>
      </trkpt>
      <trkpt lat="42.56023" lon="1.97522">
        <ele>2151.27</ele>
        <time>2021-06-14T08:07:54.000Z</time>
      </trkpt>
      <trkpt lat="42.56016" lon="1.9751">
        <ele>2154.36</ele>
        <time>2021-06-14T08:08:04.000Z</time>
      </trkpt>
      <trkpt lat="42.56013" lon="1.97509">
        <ele>2165.75</ele>
        <time>2021-06-14T08:08:14.000Z</time>
      </trkpt>
      <trkpt lat="42.56014" lon="1.97507">
        <ele>2151.6</ele>
        <time>2021-06-14T08:08:25.341Z</time>
      </trkpt>
      <trkpt lat="42.56008" lon="1.97493">
        <ele>2157.04</ele>
        <time>2021-06-14T08:08:34.853Z</time>
      </trkpt>
      <trkpt lat="42.55996" lon="1.9748">
        <ele>2155.73</ele>
        <time>2021-06-14T08:08:44.000Z</time>
      </trkpt>
      <trkpt lat="42.55985" lon="1.97469">
        <ele>2136.98</ele>
        <time>2021-06-14T08:08:54.075Z</time>
      </trkpt>
      <trkpt lat="42.55984" lon="1.97464">
        <ele>2148.48</ele>
        <time>2021-06-14T08:09:04.172Z</time>
      </trkpt>
      <trkpt lat="42.5598" lon="1.97459">
        <ele>2142.13</ele>
        <time>2021-06-14T08:09:13.185Z</time>
      </trkpt>
      <trkpt lat="42.55968" lon="1.97464">
        <ele>2140.93</ele>
        <time>2021-06-14T08:09:22.657Z</time>
      </trkpt>
      <trkpt lat="42.55966" lon="1.97466">
        <ele>2127.26</ele>
        <time>2021-06-14T08:09:32.473Z</time>
      </trkpt>
      <trkpt lat="42.5596" lon="1.97464">
        <ele>2133.07</ele>
        <time>2021-06-14T08:09:41.868Z</time>
      </trkpt>
      <trkpt lat="42.55957" lon="1.97454">
        <ele>2150.77</ele>
        <time>2021-06-14T08:09:51.454Z</time>
      </trkpt>
      <trkpt lat="42.5595" lon="1.97442">
        <ele>2136.82</ele>
        <time>2021-06-14T08:10:01.106Z</time>
      </trkpt>
      <trkpt lat="42.5594" lon="1.9744">
        <ele>2127.93</ele>
        <time>2021-06-14T08:10:11.000Z</time>
      </trkpt>
      <trkpt lat="42.55937" lon="1.97437">
        <ele>2127.25</ele>
        <time>2021-06-14T08:10:21.000Z</time>
      </trkpt>
      <trkpt lat="42.55929" lon="1.9743">
        <ele>2134.59</ele>
        <time>2021-06-14T08:10:30.589Z</time>
      </trkpt>
      <trkpt lat="42.55921" lon="1.97423">
        <ele>2147.66</ele>
        <time>2021-06-14T08:10:40.000Z</time>
      </trkpt>
      <trkpt lat="42.55909" lon="1.97419">
        <ele>2121.84</ele>
        <time>2021-06-14T08:10:50.133Z</time>
      </trkpt>
      <trkpt lat="42.55902" lon="1.97421">
        <ele>2133.46</ele>
        <time>2021-06-14T08:11:00.000Z</time>
      </trkpt>
      <trkpt lat="42.55895" lon="1.97419">
        <ele>2134.23</ele>
        <time>2021-06-14T08:11:10.000Z</time>
      </trkpt>
      <trkpt lat="42.55891" lon="1.97412">
        <ele>2124.73</ele>
        <time>2021-06-14T08:11:19.276Z</time>
      </trkpt>
      <trkpt lat="42.55886" lon="1.97401">
        <ele>2136.64</ele>
        <time>2021-06-14T08:11:28.854Z</time>
      </trkpt>
      <trkpt lat="42.55882" lon="1.97395">
        <ele>2134.23</ele>
        <time>2021-06-14T08:11:38.000Z</time>
      </trkpt>
      <trkpt lat="42.55881" lon="1.97388">
        <ele>2140.24</ele>
        <time>2021-06-14T08:11:48.000Z</time>
      </trkpt>
      <trkpt lat="42.5588" lon="1.97377">
        <ele>2120.55</ele>
        <time>2021-06-14T08:11:58.000Z</time>
      </trkpt>
      <trkpt lat="42.55876" lon="1.97367">
        <ele>2138.41</ele>
        <time>2021-06-14T08:12:07.620Z</time>
      </trkpt>
      <trkpt lat="42.55869" lon="1.97364">
        <ele>2137.42</ele>
        <time>2021-06-14T08:12:17.000Z</time>
      </trkpt>
      <trkpt lat="42.55864" lon="1.97359">
        <ele>2157.93</ele>
        <time>2021-06-14T08:12:26.876Z</time>
      </trkpt>
      <trkpt lat="42.55853" lon="1.9735">
        <ele>2153.65</ele>
        <time>2021-06-14T08:12:36.000Z</time>
      </trkpt>
      <trkpt lat="42.55846" lon="1.97347">
        <ele>2145.84</ele>
        <time>2021-06-14T08:12:45.417Z</time>
      </trkpt>
      <trkpt lat="42.55841" lon="1.97336">
        <ele>2138.11</ele>
        <time>2021-06-14T08:12:55.598Z</time>
      </trkpt>
      <trkpt lat="42.55836" lon="1.9733">
        <ele>2138.92</ele>
        <time>2021-06-14T08:13:05.767Z</time>
      </trkpt>
      <trkpt lat="42.55836" lon="1.97327">
        <ele>2134.51</ele>
        <time>2021-06-14T08:13:14.900Z</time>
      </trkpt>
      <trkpt lat="42.55831" lon="1.97316">
        <ele>2132.24</ele>
        <time>2021-06-14T08:13:24.400Z</time>
      </trkpt>
      <trkpt lat="42.55823" lon="1.97302">
        <ele>2141.82</ele>
        <time>2021-06-14T08:13:34.877Z</time>
      </trkpt>
      <trkpt lat="42.55822" lon="1.97289">
        <ele>2141.72</ele>
        <time>2021-06-14T08:13:44.857Z</time>
      </trkpt>
      <trkpt lat="42.5582" lon="1.97283">
        <ele>2132.19</ele>
        <time>2021-06-14T08:13:54.000Z</time>
      </trkpt>
      <trkpt lat="42.5582" lon="1.97282">
        <ele>2141.19</ele>
        <time>2021-06-14T08:14:10.290Z</time>
      </trkpt>
      <trkpt lat="42.55822" lon="1.97282">
        <ele>2139.87</ele>
        <time>2021-06-14T08:14:20.000Z</time>
      </trkpt>
      <trkpt lat="42.5582" lon="1.97282">
        <ele>2159.15</ele>
        <time>2021-06-14T08:14:30.100Z</time>
      </trkpt>
      <trkpt lat="42.55818" lon="1.97284">
        <ele>2136.25</ele>
        <time>2021-06-14T08:14:40.000Z</time>
      </trkpt>
      <trkpt lat="42.55816" lon="1.9728">
        <ele>2139.97</ele>
        <time>2021-06-14T08:14:49.508Z</time>
      </trkpt>
      <trkpt lat="42.55816" lon="1.97277">
        <ele>2132.74</ele>
        <time>2021-06-14T08:14:58.735Z</time>
      </trkpt>
      <trkpt lat="42.5581" lon="1.97268">
        <ele>2134.93</ele>
        <time>2021-06-14T08:15:08.000Z</time>
      </trkpt>
      <trkpt lat="42.55803" lon="1.97254">
        <ele>2155.01</ele>
        <time>2021-06-14T08:15:17.677Z</time>
      </trkpt>
      <trkpt lat="42.55798" lon="1.97245">
        <ele>2133.65</ele>
        <time>2021-06-14T08:15:27.151Z</time>
      </trkpt>
      <trkpt lat="42.5579" lon="1.97236">
        <ele>2135.54</ele>
        <time>2021-06-14T08:15:37.000Z</time>
      </trkpt>
      <trkpt lat="42.5578" lon="1.9723">
        <ele>2148.32</ele>
        <time>2021-06-14T08:15:46.630Z</time>
      </trkpt>
      <trkpt lat="42.5577" lon="1.97225">
        <ele>2142.92</ele>
        <time>2021-06-14T08:15:56.000Z</time>
      </trkpt>
      <trkpt lat="42.5576" lon="1.97224">
        <ele>2143.45</ele>
        <time>2021-06-14T08:16:06.000Z</time>
      </trkpt>
      <trkpt lat="42.55755" lon="1.9722">
        <ele>2130.45</ele>
        <time>2021-06-14T08:16:16.000Z</time>
      </trkpt>
      <trkpt lat="42.55753" lon="1.97217">
        <ele>2141.29</ele>
        <time>2021-06-14T08:16:25.863Z</time>
      </trkpt>
      <trkpt lat="42.55744" lon="1.97209">
        <ele>2137.11</ele>
        <time>2021-06-14T08:16:35.585Z</time>
      </trkpt>
      <trkpt lat="42.55742" lon="1.97205">
        <ele>2143.18</ele>
        <time>2021-06-14T08:16:45.000Z</time>
      </trkpt>
      <trkpt lat="42.5574" lon="1.97199">
        <ele>2130.33</ele>
        <time>2021-06-14T08:16:54.784Z</time>
      </trkpt>
      <trkpt lat="42.55736" lon="1.97187">
        <ele>2133.59</ele>
        <time>2021-06-14T08:17:04.000Z</time>
      </trkpt>
      <trkpt lat="42.55724" lon="1.97177">
        <ele>2138.69</ele>
        <time>2021-06-14T08:17:13.582Z</time>
      </trkpt>
      <trkpt lat="42.55714" lon="1.97176">
        <ele>2132.96</ele>
        <time>2021-06-14T08:17:22.943Z</time>
      </trkpt>
      <trkpt lat="42.55706" lon="1.97178">
        <ele>2141.4</ele>
        <time>2021-06-14T08:17:32.841Z</time>
      </trkpt>
      <trkpt lat="42.55696" lon="1.97177">
        <ele>2134.78</ele>
        <time>2021-06-14T08:17:42.000Z</time>
      </trkpt>
      <trkpt lat="42.55686" lon="1.97183">
        <ele>2123.82</ele>
        <time>2021-06-14T08:17:52.021Z</time>
      </trkpt>
      <trkpt lat="42.55677" lon="1.97181">
        <ele>2134.4</ele>
        <time>2021-06-14T08:18:02.245Z</time>
      </trkpt>
      <trkpt lat="42.5567" lon="1.97171">
        <ele>2135.59</ele>
        <time>2021-06-14T08:18:11.325Z</time>
      </trkpt>
      <trkpt lat="42.5566" lon="1.97159">
        <ele>2117.01</ele>
        <time>2021-06-14T08:18:21.426Z</time>
      </trkpt>
      <trkpt lat="42.55656" lon="1.97152">
        <ele>2127.97</ele>
        <time>2021-06-14T08:18:30.609Z</time>
      </trkpt>
      <trkpt lat="42.55652" lon="1.97144">
        <ele>2130.86</ele>
        <time>2021-06-14T08:18:39.622Z</time>
      </trkpt>
      <trkpt lat="42.55641" lon="1.97138">
        <ele>2132.37</ele>
        <time>2021-06-14T08:18:49.000Z</time>
      </trkpt>
      <trkpt lat="42.55632" lon="1.97132">
        <ele>2132.05</ele>
        <time>2021-06-14T08:18:59.172Z</time>
      </trkpt>
      <trkpt lat="42.55628" lon="1.97125">
        <ele>2129.05</ele>
        <time>2021-06-14T08:19:09.647Z</time>
      </trkpt>
      <trkpt lat="42.55619" lon="1.97124">
        <ele>2134.7</ele>
        <time>2021-06-14T08:19:18.994Z</time>
      </trkpt>
      <trkpt lat="42.55611" lon="1.97121">
        <ele>2106.05</ele>
        <time>2021-06-14T08:19:28.576Z</time>
      </trkpt>
      <trkpt lat="42.55606" lon="1.97116">
        <ele>2126.05</ele>
        <time>2021-06-14T08:19:38.507Z</time>
      </trkpt>
      <trkpt lat="42.55602" lon="1.97106">
        <ele>2122.84</ele>
        <time>2021-06-14T08:19:47.811Z</time>
      </trkpt>
      <trkpt lat="42.55598" lon="1.971">
        <ele>2149.08</ele>
        <time>2021-06-14T08:19:57.000Z</time>
      </trkpt>
      <trkpt lat="42.55586" lon="1.97103">
        <ele>2125.73</ele>
        <time>2021-06-14T08:20:06.138Z</time>
      </trkpt>
      <trkpt lat="42.55574" lon="1.97102">
        <ele>2126.63</ele>
        <time>2021-06-14T08:20:15.575Z</time>
      </trkpt>
      <trkpt lat="42.55569" lon="1.97107">
        <ele>2121.64</ele>
        <time>2021-06-14T08:20:24.617Z</time>
      </trkpt>
      <trkpt lat="42.55559" lon="1.97114">
        <ele>2124.34</ele>
        <time>2021-06-14T08:20:34.000Z</time>
      </trkpt>
      <trkpt lat="42.55551" lon="1.97128">
        <ele>2123.97</ele>
        <time>2021-06-14T08:20:43.617Z</time>
      </trkpt>
      <trkpt lat="42.55548" lon="1.97135">
        <ele>2134.36</ele>
        <time>2021-06-14T08:20:53.150Z</time>
      </trkpt>
      <trkpt lat="42.55548" lon="1.97139">
        <ele>2122.61</ele>
        <time>2021-06-14T08:21:03.000Z</time>
      </trkpt>
      <trkpt lat="42.55547" lon="1.97143">
        <ele>2121.04</ele>
        <time>2021-06-14T08:21:13.687Z</time>
      </trkpt>
      <trkpt lat="42.55541" lon="1.97147">
        <ele>2137.27</ele>
        <time>2021-06-14T08:21:23.000Z</time>
      </trkpt>
      <trkpt lat="42.55533" lon="1.97147">
        <ele>2137.27</ele>
        <time>2021-06-14T08:21:32.315Z</time>
      </trkpt>
      <trkpt lat="42.55527" lon="1.97144">
        <ele>2144.75</ele>
        <time>2021-06-14T08:21:41.516Z</time>
      </trkpt>
      <trkpt lat="42.55522" lon="1.97142">
        <ele>2139.9</ele>
        <time>2021-06-14T08:21:51.000Z</time>
      </trkpt>
      <trkpt lat="42.55518" lon="1.97145">
        <ele>2133.46</ele>
        <time>2021-06-14T08:22:00.625Z</time>
      </trkpt>
      <trkpt lat="42.55516" lon="1.97142">
        <ele>2137.49</ele>
        <time>2021-06-14T08:22:10.000Z</time>
      </trkpt>
      <trkpt lat="42.55515" lon="1.9714">
        <ele>2135.12</ele>
        <time>2021-06-14T08:22:20.000Z</time>
      </trkpt>
      <trkpt lat="42.55504" lon="1.97137">
        <ele>2131.41</ele>
        <time>2021-06-14T08:22:29.549Z</time>
      </trkpt>
      <trkpt lat="42.55498" lon="1.97132">
        <ele>2128.97</ele>
        <time>2021-06-14T08:22:38.565Z</time>
      </trkpt>
      <trkpt lat="42.55489" lon="1.9713">
        <ele>2132.58</ele>
        <time>2021-06-14T08:22:47.781Z</time>
      </trkpt>
      <trkpt lat="42.55475" lon="1.97124">
        <ele>2126.98</ele>
        <time>2021-06-14T08:22:57.000Z</time>
      </trkpt>
      <trkpt lat="42.55467" lon="1.97112">
        <ele>2106.68</ele>
        <time>2021-06-14T08:23:06.126Z</time>
      </trkpt>
      <trkpt lat="42.55461" lon="1.97094">
        <ele>2128.47</ele>
        <time>2021-06-14T08:23:15.715Z</time>
      </trkpt>
      <trkpt lat="42.55452" lon="1.9708">
        <ele>2143.58</ele>
        <time>2021-06-14T08:23:24.915Z</time>
      </trkpt>
      <trkpt lat="42.55451" lon="1.97068">
        <ele>2130.36</ele>
        <time>2021-06-14T08:23:35.000Z</time>
      </trkpt>
      <trkpt lat="42.55447" lon="1.97054">
        <ele>2126.19</ele>
        <time>2021-06-14T08:23:45.000Z</time>
      </trkpt>
      <trkpt lat="42.55441" lon="1.97042">
        <ele>2135.65</ele>
        <time>2021-06-14T08:23:55.000Z</time>
      </trkpt>
      <trkpt lat="42.55439" lon="1.97031">
        <ele>2130.95</ele>
        <time>2021-06-14T08:24:04.466Z</time>
      </trkpt>
      <trkpt lat="42.55433" lon="1.97018">
        <ele>2134.57</ele>
        <time>2021-06-14T08:24:14.000Z</time>
      </trkpt>
      <trkpt lat="42.5543" lon="1.97011">
        <ele>2135.63</ele>
        <time>2021-06-14T08:24:23.367Z</time>
      </trkpt>
      <trkpt lat="42.5543" lon="1.97009">
        <ele>2138.21</ele>
        <time>2021-06-14T08:24:33.000Z</time>
      </trkpt>
      <trkpt lat="42.55427" lon="1.97007">
        <ele>2141.71</ele>
        <time>2021-06-14T08:24:42.568Z</time>
      </trkpt>
      <trkpt lat="42.55417" lon="1.96999">
        <ele>2122.27</ele>
        <time>2021-06-14T08:24:51.787Z</time>
      </trkpt>
      <trkpt lat="42.55414" lon="1.96988">
        <ele>2144.12</ele>
        <time>2021-06-14T08:25:00.846Z</time>
      </trkpt>
      <trkpt lat="42.55406" lon="1.9698">
        <ele>2144.75</ele>
        <time>2021-06-14T08:25:10.245Z</time>
      </trkpt>
      <trkpt lat="42.55397" lon="1.96973">
        <ele>2140.81</ele>
        <time>2021-06-14T08:25:19.546Z</time>
      </trkpt>
      <trkpt lat="42.55396" lon="1.96968">
        <ele>2144.57</ele>
        <time>2021-06-14T08:25:29.000Z</time>
      </trkpt>
      <trkpt lat="42.55393" lon="1.96959">
        <ele>2123.6</ele>
        <time>2021-06-14T08:25:38.876Z</time>
      </trkpt>
      <trkpt lat="42.55389" lon="1.96955">
        <ele>2140.92</ele>
        <time>2021-06-14T08:25:48.737Z</time>
      </trkpt>
      <trkpt lat="42.5538" lon="1.96946">
        <ele>2135.22</ele>
        <time>2021-06-14T08:25:58.000Z</time>
      </trkpt>
      <trkpt lat="42.55375" lon="1.96941">
        <ele>2120.21</ele>
        <time>2021-06-14T08:26:07.657Z</time>
      </trkpt>
      <trkpt lat="42.55359" lon="1.96938">
        <ele>2122.24</ele>
        <time>2021-06-14T08:26:16.736Z</time>
      </trkpt>
      <trkpt lat="42.55344" lon="1.96932">
        <ele>2137.04</ele>
        <time>2021-06-14T08:26:31.000Z</time>
      </trkpt>
      <trkpt lat="42.55339" lon="1.96937">
        <ele>2127.12</ele>
        <time>2021-06-14T08:26:40.857Z</time>
      </trkpt>
      <trkpt lat="42.55323" lon="1.96936">
        <ele>2137.16</ele>
        <time>2021-06-14T08:26:50.000Z</time>
      </trkpt>
      <trkpt lat="42.55313" lon="1.96929">
        <ele>2141.67</ele>
        <time>2021-06-14T08:26:59.277Z</time>
      </trkpt>
      <trkpt lat="42.55306" lon="1.96939">
        <ele>2138.38</ele>
        <time>2021-06-14T08:27:08.466Z</time>
      </trkpt>
      <trkpt lat="42.55298" lon="1.96944">
        <ele>2151.67</ele>
        <time>2021-06-14T08:27:18.577Z</time>
      </trkpt>
      <trkpt lat="42.55287" lon="1.96945">
        <ele>2132.66</ele>
        <time>2021-06-14T08:27:28.386Z</time>
      </trkpt>
      <trkpt lat="42.55276" lon="1.96946">
        <ele>2130.92</ele>
        <time>2021-06-14T08:27:37.476Z</time>
      </trkpt>
      <trkpt lat="42.55264" lon="1.96949">
        <ele>2129.1</ele>
        <time>2021-06-14T08:27:46.987Z</time>
      </trkpt>
      <trkpt lat="42.55255" lon="1.96946">
        <ele>2124.63</ele>
        <time>2021-06-14T08:27:57.077Z</time>
      </trkpt>
      <trkpt lat="42.55253" lon="1.96948">
        <ele>2126.81</ele>
        <time>2021-06-14T08:28:06.777Z</time>
      </trkpt>
      <trkpt lat="42.55248" lon="1.96949">
        <ele>2142.95</ele>
        <time>2021-06-14T08:28:16.000Z</time>
      </trkpt>
      <trkpt lat="42.55239" lon="1.96953">
        <ele>2134.81</ele>
        <time>2021-06-14T08:28:25.096Z</time>
      </trkpt>
      <trkpt lat="42.55229" lon="1.96951">
        <ele>2114.76</ele>
        <time>2021-06-14T08:28:34.808Z</time>
      </trkpt>
      <trkpt lat="42.5522" lon="1.9695">
        <ele>2126.83</ele>
        <time>2021-06-14T08:28:43.942Z</time>
      </trkpt>
      <trkpt lat="42.55218" lon="1.96943">
        <ele>2108.55</ele>
        <time>2021-06-14T08:28:53.365Z</time>
      </trkpt>
      <trkpt lat="42.55215" lon="1.96936">
        <ele>2146.13</ele>
        <time>2021-06-14T08:29:03.564Z</time>
      </trkpt>
      <trkpt lat="42.55212" lon="1.96936">
        <ele>2117.93</ele>
        <time>2021-06-14T08:29:12.656Z</time>
      </trkpt>
      <trkpt lat="42.55203" lon="1.96931">
        <ele>2122.29</ele>
        <time>2021-06-14T08:29:22.404Z</time>
      </trkpt>
      <trkpt lat="42.55194" lon="1.9693">
        <ele>2101.23</ele>
        <time>2021-06-14T08:29:31.793Z</time>
      </trkpt>
      <trkpt lat="42.55186" lon="1.96935">
        <ele>2108.84</ele>
        <time>2021-06-14T08:29:40.918Z</time>
      </trkpt>
      <trkpt lat="42.55177" lon="1.96942">
        <ele>2101.93</ele>
        <time>2021-06-14T08:29:50.000Z</time>
      </trkpt>
      <trkpt lat="42.5517" lon="1.96939">
        <ele>2101.1</ele>
        <time>2021-06-14T08:29:59.327Z</time>
      </trkpt>
      <trkpt lat="42.55166" lon="1.96926">
        <ele>2117.26</ele>
        <time>2021-06-14T08:30:08.614Z</time>
      </trkpt>
      <trkpt lat="42.5516" lon="1.96931">
        <ele>2106.18</ele>
        <time>2021-06-14T08:30:18.000Z</time>
      </trkpt>
      <trkpt lat="42.55157" lon="1.96933">
        <ele>2103.33</ele>
        <time>2021-06-14T08:30:27.135Z</time>
      </trkpt>
      <trkpt lat="42.55149" lon="1.96935">
        <ele>2109.95</ele>
        <time>2021-06-14T08:30:36.846Z</time>
      </trkpt>
      <trkpt lat="42.55143" lon="1.96938">
        <ele>2128.5</ele>
        <time>2021-06-14T08:30:46.665Z</time>
      </trkpt>
      <trkpt lat="42.55134" lon="1.9694">
        <ele>2104.57</ele>
        <time>2021-06-14T08:30:56.426Z</time>
      </trkpt>
      <trkpt lat="42.55125" lon="1.96946">
        <ele>2091.7</ele>
        <time>2021-06-14T08:31:07.129Z</time>
      </trkpt>
      <trkpt lat="42.55116" lon="1.96944">
        <ele>2114.79</ele>
        <time>2021-06-14T08:31:16.746Z</time>
      </trkpt>
      <trkpt lat="42.55109" lon="1.96936">
        <ele>2092.81</ele>
        <time>2021-06-14T08:31:26.416Z</time>
      </trkpt>
      <trkpt lat="42.55107" lon="1.96932">
        <ele>2093.19</ele>
        <time>2021-06-14T08:31:36.556Z</time>
      </trkpt>
      <trkpt lat="42.55098" lon="1.96926">
        <ele>2098.82</ele>
        <time>2021-06-14T08:31:46.000Z</time>
      </trkpt>
      <trkpt lat="42.55095" lon="1.96923">
        <ele>2092.57</ele>
        <time>2021-06-14T08:31:55.075Z</time>
      </trkpt>
      <trkpt lat="42.55087" lon="1.96915">
        <ele>2077.73</ele>
        <time>2021-06-14T08:32:04.317Z</time>
      </trkpt>
      <trkpt lat="42.55082" lon="1.96907">
        <ele>2106.54</ele>
        <time>2021-06-14T08:32:13.397Z</time>
      </trkpt>
      <trkpt lat="42.55074" lon="1.96895">
        <ele>2121.01</ele>
        <time>2021-06-14T08:32:22.836Z</time>
      </trkpt>
      <trkpt lat="42.5507" lon="1.96891">
        <ele>2093.62</ele>
        <time>2021-06-14T08:32:32.000Z</time>
      </trkpt>
      <trkpt lat="42.55071" lon="1.96892">
        <ele>2098.72</ele>
        <time>2021-06-14T08:32:42.000Z</time>
      </trkpt>
      <trkpt lat="42.5507" lon="1.96894">
        <ele>2110.37</ele>
        <time>2021-06-14T08:32:52.675Z</time>
      </trkpt>
      <trkpt lat="42.55063" lon="1.96897">
        <ele>2094.78</ele>
        <time>2021-06-14T08:33:01.775Z</time>
      </trkpt>
      <trkpt lat="42.55059" lon="1.969">
        <ele>2103.82</ele>
        <time>2021-06-14T08:33:10.936Z</time>
      </trkpt>
      <trkpt lat="42.55056" lon="1.96896">
        <ele>2095.79</ele>
        <time>2021-06-14T08:33:20.000Z</time>
      </trkpt>
      <trkpt lat="42.55056" lon="1.96892">
        <ele>2115.66</ele>
        <time>2021-06-14T08:33:30.000Z</time>
      </trkpt>
      <trkpt lat="42.5506" lon="1.96882">
        <ele>2119.17</ele>
        <time>2021-06-14T08:33:40.000Z</time>
      </trkpt>
      <trkpt lat="42.55057" lon="1.96869">
        <ele>2102.39</ele>
        <time>2021-06-14T08:33:49.474Z</time>
      </trkpt>
      <trkpt lat="42.55049" lon="1.96869">
        <ele>2085.91</ele>
        <time>2021-06-14T08:33:59.000Z</time>
      </trkpt>
      <trkpt lat="42.55046" lon="1.96873">
        <ele>2086.25</ele>
        <time>2021-06-14T08:34:08.705Z</time>
      </trkpt>
      <trkpt lat="42.55046" lon="1.9687">
        <ele>2102.55</ele>
        <time>2021-06-14T08:34:17.748Z</time>
      </trkpt>
      <trkpt lat="42.55046" lon="1.96865">
        <ele>2100.27</ele>
        <time>2021-06-14T08:34:28.070Z</time>
      </trkpt>
      <trkpt lat="42.5504" lon="1.96864">
        <ele>2079.6</ele>
        <time>2021-06-14T08:34:37.466Z</time>
      </trkpt>
      <trkpt lat="42.55032" lon="1.96861">
        <ele>2094.19</ele>
        <time>2021-06-14T08:34:46.707Z</time>
      </trkpt>
      <trkpt lat="42.55025" lon="1.96852">
        <ele>2098.44</ele>
        <time>2021-06-14T08:34:55.915Z</time>
      </trkpt>
      <trkpt lat="42.55025" lon="1.96855">
        <ele>2086.16</ele>
        <time>2021-06-14T08:35:05.902Z</time>
      </trkpt>
      <trkpt lat="42.55024" lon="1.96857">
        <ele>2088.94</ele>
        <time>2021-06-14T08:35:16.000Z</time>
      </trkpt>
      <trkpt lat="42.55025" lon="1.96863">
        <ele>2072.66</ele>
        <time>2021-06-14T08:35:26.766Z</time>
      </trkpt>
      <trkpt lat="42.55014" lon="1.96867">
        <ele>2080.71</ele>
        <time>2021-06-14T08:35:35.829Z</time>
      </trkpt>
      <trkpt lat="42.55012" lon="1.96869">
        <ele>2075.28</ele>
        <time>2021-06-14T08:35:45.000Z</time>
      </trkpt>
      <trkpt lat="42.55011" lon="1.96867">
        <ele>2078.06</ele>
        <time>2021-06-14T08:35:56.245Z</time>
      </trkpt>
      <trkpt lat="42.55006" lon="1.96861">
        <ele>2074.83</ele>
        <time>2021-06-14T08:36:06.526Z</time>
      </trkpt>
      <trkpt lat="42.54992" lon="1.9686">
        <ele>2060.43</ele>
        <time>2021-06-14T08:36:16.000Z</time>
      </trkpt>
      <trkpt lat="42.54992" lon="1.96864">
        <ele>2091.66</ele>
        <time>2021-06-14T08:36:26.000Z</time>
      </trkpt>
      <trkpt lat="42.54989" lon="1.96865">
        <ele>2061.51</ele>
        <time>2021-06-14T08:36:37.013Z</time>
      </trkpt>
      <trkpt lat="42.54989" lon="1.96851">
        <ele>2078.86</ele>
        <time>2021-06-14T08:36:46.347Z</time>
      </trkpt>
      <trkpt lat="42.54997" lon="1.96833">
        <ele>2074.58</ele>
        <time>2021-06-14T08:36:56.000Z</time>
      </trkpt>
      <trkpt lat="42.54994" lon="1.96827">
        <ele>2064.46</ele>
        <time>2021-06-14T08:37:05.925Z</time>
      </trkpt>
      <trkpt lat="42.54962" lon="1.96841">
        <ele>2082.47</ele>
        <time>2021-06-14T08:37:15.445Z</time>
      </trkpt>
      <trkpt lat="42.5495" lon="1.96847">
        <ele>2066.76</ele>
        <time>2021-06-14T08:37:25.000Z</time>
      </trkpt>
      <trkpt lat="42.54947" lon="1.96845">
        <ele>2075.83</ele>
        <time>2021-06-14T08:37:35.795Z</time>
      </trkpt>
      <trkpt lat="42.54945" lon="1.96852">
        <ele>2075.28</ele>
        <time>2021-06-14T08:37:45.000Z</time>
      </trkpt>
      <trkpt lat="42.54939" lon="1.96855">
        <ele>2078.62</ele>
        <time>2021-06-14T08:37:56.736Z</time>
      </trkpt>
      <trkpt lat="42.54941" lon="1.96848">
        <ele>2073.43</ele>
        <time>2021-06-14T08:38:06.297Z</time>
      </trkpt>
      <trkpt lat="42.54948" lon="1.96842">
        <ele>2076.69</ele>
        <time>2021-06-14T08:38:15.459Z</time>
      </trkpt>
      <trkpt lat="42.5495" lon="1.96836">
        <ele>2087.26</ele>
        <time>2021-06-14T08:38:25.000Z</time>
      </trkpt>
      <trkpt lat="42.54952" lon="1.9683">
        <ele>2081.62</ele>
        <time>2021-06-14T08:38:35.905Z</time>
      </trkpt>
      <trkpt lat="42.54952" lon="1.96826">
        <ele>2097.06</ele>
        <time>2021-06-14T08:38:45.000Z</time>
      </trkpt>
      <trkpt lat="42.54953" lon="1.96826">
        <ele>2086.14</ele>
        <time>2021-06-14T08:38:54.697Z</time>
      </trkpt>
      <trkpt lat="42.54954" lon="1.96824">
        <ele>2081.22</ele>
        <time>2021-06-14T08:39:03.736Z</time>
      </trkpt>
      <trkpt lat="42.54951" lon="1.96828">
        <ele>2075.71</ele>
        <time>2021-06-14T08:39:13.000Z</time>
      </trkpt>
      <trkpt lat="42.54963" lon="1.96827">
        <ele>2069.45</ele>
        <time>2021-06-14T08:39:22.795Z</time>
      </trkpt>
      <trkpt lat="42.54971" lon="1.96822">
        <ele>2077.88</ele>
        <time>2021-06-14T08:39:32.000Z</time>
      </trkpt>
      <trkpt lat="42.54963" lon="1.96829">
        <ele>2078.37</ele>
        <time>2021-06-14T08:39:41.237Z</time>
      </trkpt>
      <trkpt lat="42.54959" lon="1.96833">
        <ele>2068.08</ele>
        <time>2021-06-14T08:39:50.536Z</time>
      </trkpt>
      <trkpt lat="42.54925" lon="1.96845">
        <ele>2073.47</ele>
        <time>2021-06-14T08:40:00.000Z</time>
      </trkpt>
      <trkpt lat="42.54914" lon="1.96852">
        <ele>2082</ele>
        <time>2021-06-14T08:40:09.596Z</time>
      </trkpt>
      <trkpt lat="42.54908" lon="1.9686">
        <ele>2076.92</ele>
        <time>2021-06-14T08:40:19.000Z</time>
      </trkpt>
      <trkpt lat="42.54905" lon="1.96863">
        <ele>2063.14</ele>
        <time>2021-06-14T08:40:29.655Z</time>
      </trkpt>
      <trkpt lat="42.54901" lon="1.96853">
        <ele>2080.34</ele>
        <time>2021-06-14T08:40:39.000Z</time>
      </trkpt>
      <trkpt lat="42.54896" lon="1.96854">
        <ele>2063.64</ele>
        <time>2021-06-14T08:40:48.482Z</time>
      </trkpt>
      <trkpt lat="42.54892" lon="1.96857">
        <ele>2051.43</ele>
        <time>2021-06-14T08:40:58.000Z</time>
      </trkpt>
      <trkpt lat="42.54891" lon="1.9686">
        <ele>2074.53</ele>
        <time>2021-06-14T08:41:07.936Z</time>
      </trkpt>
      <trkpt lat="42.54887" lon="1.96867">
        <ele>2080.69</ele>
        <time>2021-06-14T08:41:17.597Z</time>
      </trkpt>
      <trkpt lat="42.54881" lon="1.96881">
        <ele>2061.19</ele>
        <time>2021-06-14T08:41:27.855Z</time>
      </trkpt>
      <trkpt lat="42.54879" lon="1.96892">
        <ele>2077.52</ele>
        <time>2021-06-14T08:41:37.000Z</time>
      </trkpt>
      <trkpt lat="42.54878" lon="1.96894">
        <ele>2079.12</ele>
        <time>2021-06-14T08:41:47.000Z</time>
      </trkpt>
      <trkpt lat="42.54872" lon="1.96906">
        <ele>2082.39</ele>
        <time>2021-06-14T08:41:57.000Z</time>
      </trkpt>
      <trkpt lat="42.54872" lon="1.96916">
        <ele>2082.53</ele>
        <time>2021-06-14T08:42:07.000Z</time>
      </trkpt>
      <trkpt lat="42.54865" lon="1.96926">
        <ele>2059.32</ele>
        <time>2021-06-14T08:42:17.062Z</time>
      </trkpt>
      <trkpt lat="42.54862" lon="1.96951">
        <ele>2065.01</ele>
        <time>2021-06-14T08:42:27.070Z</time>
      </trkpt>
      <trkpt lat="42.54855" lon="1.96961">
        <ele>2065.13</ele>
        <time>2021-06-14T08:42:36.194Z</time>
      </trkpt>
      <trkpt lat="42.54852" lon="1.96968">
        <ele>2093.3</ele>
        <time>2021-06-14T08:42:45.582Z</time>
      </trkpt>
      <trkpt lat="42.54848" lon="1.96982">
        <ele>2064.06</ele>
        <time>2021-06-14T08:42:55.125Z</time>
      </trkpt>
      <trkpt lat="42.54845" lon="1.96994">
        <ele>2063.56</ele>
        <time>2021-06-14T08:43:04.526Z</time>
      </trkpt>
      <trkpt lat="42.54842" lon="1.97007">
        <ele>2067.53</ele>
        <time>2021-06-14T08:43:14.826Z</time>
      </trkpt>
      <trkpt lat="42.54836" lon="1.97014">
        <ele>2079.55</ele>
        <time>2021-06-14T08:43:24.158Z</time>
      </trkpt>
      <trkpt lat="42.54835" lon="1.97018">
        <ele>2083.07</ele>
        <time>2021-06-14T08:43:34.000Z</time>
      </trkpt>
      <trkpt lat="42.54833" lon="1.97024">
        <ele>2077.84</ele>
        <time>2021-06-14T08:43:43.586Z</time>
      </trkpt>
      <trkpt lat="42.5483" lon="1.9703">
        <ele>2071.88</ele>
        <time>2021-06-14T08:43:52.587Z</time>
      </trkpt>
      <trkpt lat="42.54828" lon="1.97042">
        <ele>2063.25</ele>
        <time>2021-06-14T08:44:03.133Z</time>
      </trkpt>
      <trkpt lat="42.54825" lon="1.97048">
        <ele>2075.22</ele>
        <time>2021-06-14T08:44:12.369Z</time>
      </trkpt>
      <trkpt lat="42.54821" lon="1.97057">
        <ele>2053.01</ele>
        <time>2021-06-14T08:44:21.685Z</time>
      </trkpt>
      <trkpt lat="42.54816" lon="1.97067">
        <ele>2070.33</ele>
        <time>2021-06-14T08:44:31.000Z</time>
      </trkpt>
      <trkpt lat="42.5481" lon="1.97081">
        <ele>2066.37</ele>
        <time>2021-06-14T08:44:40.807Z</time>
      </trkpt>
      <trkpt lat="42.54803" lon="1.97088">
        <ele>2071.61</ele>
        <time>2021-06-14T08:44:50.285Z</time>
      </trkpt>
      <trkpt lat="42.54793" lon="1.97089">
        <ele>2063.52</ele>
        <time>2021-06-14T08:45:01.211Z</time>
      </trkpt>
      <trkpt lat="42.54793" lon="1.97086">
        <ele>2068.2</ele>
        <time>2021-06-14T08:45:11.000Z</time>
      </trkpt>
      <trkpt lat="42.54792" lon="1.97087">
        <ele>2065.59</ele>
        <time>2021-06-14T08:45:22.205Z</time>
      </trkpt>
      <trkpt lat="42.54787" lon="1.97087">
        <ele>2051.49</ele>
        <time>2021-06-14T08:45:32.000Z</time>
      </trkpt>
      <trkpt lat="42.5478" lon="1.97085">
        <ele>2068.58</ele>
        <time>2021-06-14T08:45:42.000Z</time>
      </trkpt>
      <trkpt lat="42.54769" lon="1.97077">
        <ele>2054.79</ele>
        <time>2021-06-14T08:45:51.224Z</time>
      </trkpt>
      <trkpt lat="42.54753" lon="1.97077">
        <ele>2081.58</ele>
        <time>2021-06-14T08:46:01.206Z</time>
      </trkpt>
      <trkpt lat="42.54743" lon="1.97092">
        <ele>2057.22</ele>
        <time>2021-06-14T08:46:10.585Z</time>
      </trkpt>
      <trkpt lat="42.54729" lon="1.97081">
        <ele>2062.47</ele>
        <time>2021-06-14T08:46:20.000Z</time>
      </trkpt>
      <trkpt lat="42.54728" lon="1.97076">
        <ele>2058.79</ele>
        <time>2021-06-14T08:46:30.000Z</time>
      </trkpt>
      <trkpt lat="42.54728" lon="1.97072">
        <ele>2060.21</ele>
        <time>2021-06-14T08:46:40.003Z</time>
      </trkpt>
      <trkpt lat="42.54734" lon="1.97069">
        <ele>2075.35</ele>
        <time>2021-06-14T08:46:49.924Z</time>
      </trkpt>
      <trkpt lat="42.5472" lon="1.97041">
        <ele>2061.04</ele>
        <time>2021-06-14T08:46:59.624Z</time>
      </trkpt>
      <trkpt lat="42.54699" lon="1.9704">
        <ele>2063.27</ele>
        <time>2021-06-14T08:47:09.000Z</time>
      </trkpt>
      <trkpt lat="42.54682" lon="1.97057">
        <ele>2058.21</ele>
        <time>2021-06-14T08:47:19.648Z</time>
      </trkpt>
      <trkpt lat="42.54677" lon="1.97062">
        <ele>2062.05</ele>
        <time>2021-06-14T08:47:29.000Z</time>
      </trkpt>
      <trkpt lat="42.54682" lon="1.97053">
        <ele>2071.66</ele>
        <time>2021-06-14T08:47:39.000Z</time>
      </trkpt>
      <trkpt lat="42.54688" lon="1.97043">
        <ele>2058.83</ele>
        <time>2021-06-14T08:47:49.000Z</time>
      </trkpt>
      <trkpt lat="42.54691" lon="1.97034">
        <ele>2060.2</ele>
        <time>2021-06-14T08:47:59.000Z</time>
      </trkpt>
      <trkpt lat="42.54693" lon="1.97033">
        <ele>2050.66</ele>
        <time>2021-06-14T08:48:09.000Z</time>
      </trkpt>
      <trkpt lat="42.54692" lon="1.97031">
        <ele>2063.96</ele>
        <time>2021-06-14T08:48:19.000Z</time>
      </trkpt>
      <trkpt lat="42.54697" lon="1.97026">
        <ele>2061.8</ele>
        <time>2021-06-14T08:48:28.614Z</time>
      </trkpt>
      <trkpt lat="42.54694" lon="1.97019">
        <ele>2054.48</ele>
        <time>2021-06-14T08:48:38.000Z</time>
      </trkpt>
      <trkpt lat="42.54694" lon="1.97016">
        <ele>2052.67</ele>
        <time>2021-06-14T08:48:48.000Z</time>
      </trkpt>
      <trkpt lat="42.54689" lon="1.97006">
        <ele>2047.99</ele>
        <time>2021-06-14T08:48:57.804Z</time>
      </trkpt>
      <trkpt lat="42.5468" lon="1.96989">
        <ele>2050.21</ele>
        <time>2021-06-14T08:49:07.327Z</time>
      </trkpt>
      <trkpt lat="42.54671" lon="1.96978">
        <ele>2058.39</ele>
        <time>2021-06-14T08:49:16.504Z</time>
      </trkpt>
      <trkpt lat="42.54662" lon="1.96973">
        <ele>2061.02</ele>
        <time>2021-06-14T08:49:25.844Z</time>
      </trkpt>
      <trkpt lat="42.54659" lon="1.96964">
        <ele>2055.38</ele>
        <time>2021-06-14T08:49:36.070Z</time>
      </trkpt>
      <trkpt lat="42.5465" lon="1.96963">
        <ele>2065.56</ele>
        <time>2021-06-14T08:49:46.566Z</time>
      </trkpt>
      <trkpt lat="42.5464" lon="1.96972">
        <ele>2050.25</ele>
        <time>2021-06-14T08:49:56.000Z</time>
      </trkpt>
      <trkpt lat="42.54633" lon="1.96978">
        <ele>2069.43</ele>
        <time>2021-06-14T08:50:05.725Z</time>
      </trkpt>
      <trkpt lat="42.54624" lon="1.9698">
        <ele>2048.46</ele>
        <time>2021-06-14T08:50:15.000Z</time>
      </trkpt>
      <trkpt lat="42.54614" lon="1.96972">
        <ele>2047.15</ele>
        <time>2021-06-14T08:50:24.427Z</time>
      </trkpt>
      <trkpt lat="42.54604" lon="1.96967">
        <ele>2059.73</ele>
        <time>2021-06-14T08:50:33.787Z</time>
      </trkpt>
      <trkpt lat="42.54596" lon="1.96967">
        <ele>2051.2</ele>
        <time>2021-06-14T08:50:43.029Z</time>
      </trkpt>
      <trkpt lat="42.54588" lon="1.96967">
        <ele>2045.25</ele>
        <time>2021-06-14T08:50:52.516Z</time>
      </trkpt>
      <trkpt lat="42.54578" lon="1.96971">
        <ele>2037.3</ele>
        <time>2021-06-14T08:51:01.814Z</time>
      </trkpt>
      <trkpt lat="42.54566" lon="1.96974">
        <ele>2052.23</ele>
        <time>2021-06-14T08:51:11.890Z</time>
      </trkpt>
      <trkpt lat="42.54557" lon="1.96972">
        <ele>2056.96</ele>
        <time>2021-06-14T08:51:21.143Z</time>
      </trkpt>
      <trkpt lat="42.54544" lon="1.96976">
        <ele>2057.64</ele>
        <time>2021-06-14T08:51:31.488Z</time>
      </trkpt>
      <trkpt lat="42.54535" lon="1.9698">
        <ele>2067.43</ele>
        <time>2021-06-14T08:51:41.654Z</time>
      </trkpt>
      <trkpt lat="42.54524" lon="1.96985">
        <ele>2059.23</ele>
        <time>2021-06-14T08:51:51.944Z</time>
      </trkpt>
      <trkpt lat="42.54514" lon="1.9699">
        <ele>2046.28</ele>
        <time>2021-06-14T08:52:01.000Z</time>
      </trkpt>
      <trkpt lat="42.54505" lon="1.96989">
        <ele>2046.07</ele>
        <time>2021-06-14T08:52:10.685Z</time>
      </trkpt>
      <trkpt lat="42.54496" lon="1.96994">
        <ele>2029.44</ele>
        <time>2021-06-14T08:52:20.868Z</time>
      </trkpt>
      <trkpt lat="42.54487" lon="1.97003">
        <ele>2048.46</ele>
        <time>2021-06-14T08:52:30.072Z</time>
      </trkpt>
      <trkpt lat="42.54478" lon="1.97009">
        <ele>2060.52</ele>
        <time>2021-06-14T08:52:40.757Z</time>
      </trkpt>
      <trkpt lat="42.54473" lon="1.9701">
        <ele>2048.37</ele>
        <time>2021-06-14T08:52:49.866Z</time>
      </trkpt>
      <trkpt lat="42.54465" lon="1.97021">
        <ele>2038.43</ele>
        <time>2021-06-14T08:52:59.915Z</time>
      </trkpt>
      <trkpt lat="42.54455" lon="1.9702">
        <ele>2053.44</ele>
        <time>2021-06-14T08:53:09.726Z</time>
      </trkpt>
      <trkpt lat="42.54445" lon="1.97026">
        <ele>2038.99</ele>
        <time>2021-06-14T08:53:19.131Z</time>
      </trkpt>
      <trkpt lat="42.54436" lon="1.97028">
        <ele>2040.59</ele>
        <time>2021-06-14T08:53:28.687Z</time>
      </trkpt>
      <trkpt lat="42.54426" lon="1.97028">
        <ele>2057.9</ele>
        <time>2021-06-14T08:53:37.935Z</time>
      </trkpt>
      <trkpt lat="42.54415" lon="1.97031">
        <ele>2030.64</ele>
        <time>2021-06-14T08:53:48.595Z</time>
      </trkpt>
      <trkpt lat="42.54406" lon="1.97033">
        <ele>2040.26</ele>
        <time>2021-06-14T08:53:58.335Z</time>
      </trkpt>
      <trkpt lat="42.54399" lon="1.97034">
        <ele>2038</ele>
        <time>2021-06-14T08:54:08.130Z</time>
      </trkpt>
      <trkpt lat="42.54389" lon="1.97037">
        <ele>2038.22</ele>
        <time>2021-06-14T08:54:18.658Z</time>
      </trkpt>
      <trkpt lat="42.54379" lon="1.97035">
        <ele>2040.33</ele>
        <time>2021-06-14T08:54:27.905Z</time>
      </trkpt>
      <trkpt lat="42.54371" lon="1.97048">
        <ele>2044.49</ele>
        <time>2021-06-14T08:54:36.926Z</time>
      </trkpt>
      <trkpt lat="42.5436" lon="1.97049">
        <ele>2047.87</ele>
        <time>2021-06-14T08:54:46.000Z</time>
      </trkpt>
      <trkpt lat="42.54356" lon="1.97055">
        <ele>2032.94</ele>
        <time>2021-06-14T08:54:56.000Z</time>
      </trkpt>
      <trkpt lat="42.54354" lon="1.97053">
        <ele>2037.92</ele>
        <time>2021-06-14T08:55:06.000Z</time>
      </trkpt>
      <trkpt lat="42.5435" lon="1.97049">
        <ele>2032.31</ele>
        <time>2021-06-14T08:55:16.000Z</time>
      </trkpt>
      <trkpt lat="42.54347" lon="1.9705">
        <ele>2032.06</ele>
        <time>2021-06-14T08:55:26.800Z</time>
      </trkpt>
      <trkpt lat="42.54348" lon="1.97046">
        <ele>2029.78</ele>
        <time>2021-06-14T08:55:36.000Z</time>
      </trkpt>
      <trkpt lat="42.54352" lon="1.97047">
        <ele>2046.28</ele>
        <time>2021-06-14T08:55:45.516Z</time>
      </trkpt>
      <trkpt lat="42.54353" lon="1.97047">
        <ele>2034.98</ele>
        <time>2021-06-14T08:55:55.000Z</time>
      </trkpt>
      <trkpt lat="42.54352" lon="1.97046">
        <ele>2033.78</ele>
        <time>2021-06-14T08:56:05.000Z</time>
      </trkpt>
      <trkpt lat="42.54357" lon="1.97043">
        <ele>2030.13</ele>
        <time>2021-06-14T08:56:15.000Z</time>
      </trkpt>
      <trkpt lat="42.54357" lon="1.97045">
        <ele>2031.04</ele>
        <time>2021-06-14T08:56:25.000Z</time>
      </trkpt>
      <trkpt lat="42.54357" lon="1.97046">
        <ele>2029.04</ele>
        <time>2021-06-14T08:56:35.000Z</time>
      </trkpt>
      <trkpt lat="42.54355" lon="1.97047">
        <ele>2037.59</ele>
        <time>2021-06-14T08:56:45.000Z</time>
      </trkpt>
      <trkpt lat="42.54354" lon="1.97044">
        <ele>2045.95</ele>
        <time>2021-06-14T08:56:55.000Z</time>
      </trkpt>
      <trkpt lat="42.54356" lon="1.97045">
        <ele>2031.05</ele>
        <time>2021-06-14T08:57:05.000Z</time>
      </trkpt>
      <trkpt lat="42.54354" lon="1.97048">
        <ele>2029.05</ele>
        <time>2021-06-14T08:57:15.000Z</time>
      </trkpt>
      <trkpt lat="42.54354" lon="1.9705">
        <ele>2036.9</ele>
        <time>2021-06-14T08:57:25.000Z</time>
      </trkpt>
      <trkpt lat="42.54352" lon="1.9705">
        <ele>2040.19</ele>
        <time>2021-06-14T08:57:35.000Z</time>
      </trkpt>
      <trkpt lat="42.54353" lon="1.97053">
        <ele>2024.09</ele>
        <time>2021-06-14T08:57:45.000Z</time>
      </trkpt>
      <trkpt lat="42.54352" lon="1.97047">
        <ele>2039.84</ele>
        <time>2021-06-14T08:57:55.000Z</time>
      </trkpt>
      <trkpt lat="42.54349" lon="1.97047">
        <ele>2036.47</ele>
        <time>2021-06-14T08:58:05.000Z</time>
      </trkpt>
      <trkpt lat="42.54351" lon="1.97048">
        <ele>2042.55</ele>
        <time>2021-06-14T08:58:15.000Z</time>
      </trkpt>
      <trkpt lat="42.54353" lon="1.97048">
        <ele>2045.07</ele>
        <time>2021-06-14T08:58:25.000Z</time>
      </trkpt>
      <trkpt lat="42.54353" lon="1.97051">
        <ele>2035.72</ele>
        <time>2021-06-14T08:58:35.000Z</time>
      </trkpt>
      <trkpt lat="42.54354" lon="1.97053">
        <ele>2046.08</ele>
        <time>2021-06-14T08:58:45.000Z</time>
      </trkpt>
      <trkpt lat="42.54353" lon="1.97051">
        <ele>2047.26</ele>
        <time>2021-06-14T08:58:55.000Z</time>
      </trkpt>
      <trkpt lat="42.54351" lon="1.97051">
        <ele>2050.92</ele>
        <time>2021-06-14T08:59:25.000Z</time>
      </trkpt>
      <trkpt lat="42.54351" lon="1.97052">
        <ele>2037.28</ele>
        <time>2021-06-14T08:59:49.000Z</time>
      </trkpt>
      <trkpt lat="42.5435" lon="1.9705">
        <ele>2032.47</ele>
        <time>2021-06-14T08:59:59.000Z</time>
      </trkpt>
      <trkpt lat="42.54351" lon="1.97054">
        <ele>2039.2</ele>
        <time>2021-06-14T09:00:09.000Z</time>
      </trkpt>
      <trkpt lat="42.5435" lon="1.9705">
        <ele>2031.99</ele>
        <time>2021-06-14T09:00:19.000Z</time>
      </trkpt>
      <trkpt lat="42.54349" lon="1.97051">
        <ele>2025.43</ele>
        <time>2021-06-14T09:00:32.000Z</time>
      </trkpt>
      <trkpt lat="42.54349" lon="1.97049">
        <ele>2040.63</ele>
        <time>2021-06-14T09:00:42.000Z</time>
      </trkpt>
      <trkpt lat="42.54346" lon="1.97049">
        <ele>2021.2</ele>
        <time>2021-06-14T09:00:52.000Z</time>
      </trkpt>
      <trkpt lat="42.54349" lon="1.97048">
        <ele>2036.74</ele>
        <time>2021-06-14T09:01:02.000Z</time>
      </trkpt>
      <trkpt lat="42.5435" lon="1.97047">
        <ele>2021.4</ele>
        <time>2021-06-14T09:01:12.000Z</time>
      </trkpt>
      <trkpt lat="42.5435" lon="1.97048">
        <ele>2032.5</ele>
        <time>2021-06-14T09:01:32.000Z</time>
      </trkpt>
      <trkpt lat="42.54351" lon="1.97048">
        <ele>2035.11</ele>
        <time>2021-06-14T09:01:42.000Z</time>
      </trkpt>
      <trkpt lat="42.5435" lon="1.9705">
        <ele>2019.34</ele>
        <time>2021-06-14T09:01:52.000Z</time>
      </trkpt>
      <trkpt lat="42.5435" lon="1.97053">
        <ele>2021.09</ele>
        <time>2021-06-14T09:02:02.000Z</time>
      </trkpt>
      <trkpt lat="42.54352" lon="1.97056">
        <ele>2042.27</ele>
        <time>2021-06-14T09:02:12.000Z</time>
      </trkpt>
      <trkpt lat="42.54351" lon="1.97052">
        <ele>2030.06</ele>
        <time>2021-06-14T09:02:22.000Z</time>
      </trkpt>
      <trkpt lat="42.5435" lon="1.97051">
        <ele>2020.71</ele>
        <time>2021-06-14T09:02:35.000Z</time>
      </trkpt>
      <trkpt lat="42.54348" lon="1.97052">
        <ele>2024.98</ele>
        <time>2021-06-14T09:03:01.000Z</time>
      </trkpt>
      <trkpt lat="42.54347" lon="1.97052">
        <ele>2021.63</ele>
        <time>2021-06-14T09:03:11.000Z</time>
      </trkpt>
      <trkpt lat="42.54348" lon="1.97053">
        <ele>2015.75</ele>
        <time>2021-06-14T09:03:23.000Z</time>
      </trkpt>
      <trkpt lat="42.54349" lon="1.97053">
        <ele>2035.03</ele>
        <time>2021-06-14T09:03:34.000Z</time>
      </trkpt>
      <trkpt lat="42.54349" lon="1.97051">
        <ele>2038.57</ele>
        <time>2021-06-14T09:03:44.000Z</time>
      </trkpt>
      <trkpt lat="42.5435" lon="1.97051">
        <ele>2051.11</ele>
        <time>2021-06-14T09:03:54.000Z</time>
      </trkpt>
      <trkpt lat="42.54351" lon="1.97051">
        <ele>2031.83</ele>
        <time>2021-06-14T09:04:04.000Z</time>
      </trkpt>
      <trkpt lat="42.54352" lon="1.97052">
        <ele>2043.1</ele>
        <time>2021-06-14T09:04:15.000Z</time>
      </trkpt>
      <trkpt lat="42.54351" lon="1.97051">
        <ele>2031.18</ele>
        <time>2021-06-14T09:04:32.000Z</time>
      </trkpt>
      <trkpt lat="42.54349" lon="1.97049">
        <ele>2033.56</ele>
        <time>2021-06-14T09:04:42.000Z</time>
      </trkpt>
      <trkpt lat="42.54351" lon="1.9705">
        <ele>2043.85</ele>
        <time>2021-06-14T09:04:52.000Z</time>
      </trkpt>
      <trkpt lat="42.54352" lon="1.97049">
        <ele>2036.24</ele>
        <time>2021-06-14T09:05:06.000Z</time>
      </trkpt>
      <trkpt lat="42.54351" lon="1.97048">
        <ele>2040.45</ele>
        <time>2021-06-14T09:05:17.000Z</time>
      </trkpt>
      <trkpt lat="42.5435" lon="1.97046">
        <ele>2047.24</ele>
        <time>2021-06-14T09:05:27.000Z</time>
      </trkpt>
      <trkpt lat="42.5435" lon="1.97047">
        <ele>2029.57</ele>
        <time>2021-06-14T09:05:52.000Z</time>
      </trkpt>
      <trkpt lat="42.5435" lon="1.9705">
        <ele>2038.47</ele>
        <time>2021-06-14T09:06:02.000Z</time>
      </trkpt>
      <trkpt lat="42.54349" lon="1.97049">
        <ele>2035.93</ele>
        <time>2021-06-14T09:06:15.000Z</time>
      </trkpt>
      <trkpt lat="42.54349" lon="1.97047">
        <ele>2034.06</ele>
        <time>2021-06-14T09:06:25.000Z</time>
      </trkpt>
      <trkpt lat="42.5435" lon="1.97044">
        <ele>2015.27</ele>
        <time>2021-06-14T09:06:35.000Z</time>
      </trkpt>
      <trkpt lat="42.54351" lon="1.97045">
        <ele>2036.12</ele>
        <time>2021-06-14T09:06:45.000Z</time>
      </trkpt>
      <trkpt lat="42.5435" lon="1.97045">
        <ele>2036.59</ele>
        <time>2021-06-14T09:06:57.000Z</time>
      </trkpt>
      <trkpt lat="42.54349" lon="1.97048">
        <ele>2035.39</ele>
        <time>2021-06-14T09:07:07.000Z</time>
      </trkpt>
      <trkpt lat="42.54349" lon="1.9705">
        <ele>2050.16</ele>
        <time>2021-06-14T09:07:17.000Z</time>
      </trkpt>
      <trkpt lat="42.54348" lon="1.9705">
        <ele>2027.7</ele>
        <time>2021-06-14T09:07:28.000Z</time>
      </trkpt>
      <trkpt lat="42.5435" lon="1.97051">
        <ele>2030.85</ele>
        <time>2021-06-14T09:07:38.000Z</time>
      </trkpt>
      <trkpt lat="42.5435" lon="1.97053">
        <ele>2025.82</ele>
        <time>2021-06-14T09:07:48.000Z</time>
      </trkpt>
      <trkpt lat="42.54349" lon="1.97052">
        <ele>2031.64</ele>
        <time>2021-06-14T09:08:04.000Z</time>
      </trkpt>
      <trkpt lat="42.54348" lon="1.97054">
        <ele>2019.34</ele>
        <time>2021-06-14T09:08:14.000Z</time>
      </trkpt>
      <trkpt lat="42.54349" lon="1.97053">
        <ele>2051.39</ele>
        <time>2021-06-14T09:08:27.000Z</time>
      </trkpt>
      <trkpt lat="42.5435" lon="1.97052">
        <ele>2022.84</ele>
        <time>2021-06-14T09:08:37.000Z</time>
      </trkpt>
      <trkpt lat="42.5435" lon="1.97051">
        <ele>2026.55</ele>
        <time>2021-06-14T09:08:47.000Z</time>
      </trkpt>
      <trkpt lat="42.5435" lon="1.97047">
        <ele>2023.61</ele>
        <time>2021-06-14T09:08:57.000Z</time>
      </trkpt>
      <trkpt lat="42.54349" lon="1.97047">
        <ele>2034.62</ele>
        <time>2021-06-14T09:09:12.000Z</time>
      </trkpt>
      <trkpt lat="42.54348" lon="1.97046">
        <ele>2029.79</ele>
        <time>2021-06-14T09:09:22.000Z</time>
      </trkpt>
      <trkpt lat="42.54347" lon="1.97048">
        <ele>2031.09</ele>
        <time>2021-06-14T09:09:32.000Z</time>
      </trkpt>
      <trkpt lat="42.54346" lon="1.97048">
        <ele>2027.55</ele>
        <time>2021-06-14T09:09:43.000Z</time>
      </trkpt>
      <trkpt lat="42.54345" lon="1.97049">
        <ele>2015</ele>
        <time>2021-06-14T09:09:53.000Z</time>
      </trkpt>
      <trkpt lat="42.54343" lon="1.97052">
        <ele>2033.7</ele>
        <time>2021-06-14T09:10:03.000Z</time>
      </trkpt>
      <trkpt lat="42.54343" lon="1.9705">
        <ele>2041.24</ele>
        <time>2021-06-14T09:10:13.000Z</time>
      </trkpt>
      <trkpt lat="42.54345" lon="1.97045">
        <ele>2037.69</ele>
        <time>2021-06-14T09:10:23.000Z</time>
      </trkpt>
      <trkpt lat="42.54346" lon="1.97044">
        <ele>2034.06</ele>
        <time>2021-06-14T09:10:33.000Z</time>
      </trkpt>
      <trkpt lat="42.54346" lon="1.97042">
        <ele>2041.79</ele>
        <time>2021-06-14T09:10:43.000Z</time>
      </trkpt>
      <trkpt lat="42.54347" lon="1.97043">
        <ele>2037.68</ele>
        <time>2021-06-14T09:10:54.000Z</time>
      </trkpt>
      <trkpt lat="42.5435" lon="1.97046">
        <ele>2035.92</ele>
        <time>2021-06-14T09:11:04.000Z</time>
      </trkpt>
      <trkpt lat="42.54349" lon="1.97045">
        <ele>2034.01</ele>
        <time>2021-06-14T09:11:38.000Z</time>
      </trkpt>
      <trkpt lat="42.54348" lon="1.97045">
        <ele>2031.89</ele>
        <time>2021-06-14T09:12:11.000Z</time>
      </trkpt>
      <trkpt lat="42.54349" lon="1.97046">
        <ele>2037.82</ele>
        <time>2021-06-14T09:12:28.000Z</time>
      </trkpt>
      <trkpt lat="42.5435" lon="1.97051">
        <ele>2049.44</ele>
        <time>2021-06-14T09:12:38.000Z</time>
      </trkpt>
      <trkpt lat="42.54351" lon="1.97048">
        <ele>2035.45</ele>
        <time>2021-06-14T09:12:48.000Z</time>
      </trkpt>
      <trkpt lat="42.5435" lon="1.97046">
        <ele>2056.75</ele>
        <time>2021-06-14T09:13:02.000Z</time>
      </trkpt>
      <trkpt lat="42.54347" lon="1.97043">
        <ele>2072.49</ele>
        <time>2021-06-14T09:13:12.000Z</time>
      </trkpt>
      <trkpt lat="42.54347" lon="1.97044">
        <ele>2042.46</ele>
        <time>2021-06-14T09:13:22.000Z</time>
      </trkpt>
      <trkpt lat="42.54348" lon="1.97043">
        <ele>2039.77</ele>
        <time>2021-06-14T09:13:40.000Z</time>
      </trkpt>
      <trkpt lat="42.5435" lon="1.97043">
        <ele>2039.06</ele>
        <time>2021-06-14T09:13:50.000Z</time>
      </trkpt>
      <trkpt lat="42.54351" lon="1.97045">
        <ele>2039.02</ele>
        <time>2021-06-14T09:14:00.000Z</time>
      </trkpt>
      <trkpt lat="42.54352" lon="1.97044">
        <ele>2047.8</ele>
        <time>2021-06-14T09:14:11.000Z</time>
      </trkpt>
      <trkpt lat="42.54352" lon="1.97042">
        <ele>2048.58</ele>
        <time>2021-06-14T09:14:21.000Z</time>
      </trkpt>
      <trkpt lat="42.54349" lon="1.97042">
        <ele>2037.67</ele>
        <time>2021-06-14T09:14:31.000Z</time>
      </trkpt>
      <trkpt lat="42.54349" lon="1.97041">
        <ele>2033.17</ele>
        <time>2021-06-14T09:14:41.000Z</time>
      </trkpt>
      <trkpt lat="42.5435" lon="1.97043">
        <ele>2050.48</ele>
        <time>2021-06-14T09:14:51.000Z</time>
      </trkpt>
      <trkpt lat="42.54349" lon="1.97044">
        <ele>2032.94</ele>
        <time>2021-06-14T09:15:01.000Z</time>
      </trkpt>
      <trkpt lat="42.54349" lon="1.97046">
        <ele>2023.95</ele>
        <time>2021-06-14T09:15:18.000Z</time>
      </trkpt>
      <trkpt lat="42.5435" lon="1.97047">
        <ele>2043.85</ele>
        <time>2021-06-14T09:15:28.000Z</time>
      </trkpt>
      <trkpt lat="42.54351" lon="1.97048">
        <ele>2019.28</ele>
        <time>2021-06-14T09:15:40.000Z</time>
      </trkpt>
      <trkpt lat="42.54351" lon="1.97047">
        <ele>2027.68</ele>
        <time>2021-06-14T09:15:50.000Z</time>
      </trkpt>
      <trkpt lat="42.5435" lon="1.97046">
        <ele>2040.16</ele>
        <time>2021-06-14T09:16:03.000Z</time>
      </trkpt>
      <trkpt lat="42.5435" lon="1.97045">
        <ele>2032.28</ele>
        <time>2021-06-14T09:16:13.000Z</time>
      </trkpt>
      <trkpt lat="42.54351" lon="1.97044">
        <ele>2048.12</ele>
        <time>2021-06-14T09:16:56.000Z</time>
      </trkpt>
      <trkpt lat="42.5435" lon="1.97045">
        <ele>2054.8</ele>
        <time>2021-06-14T09:17:08.000Z</time>
      </trkpt>
      <trkpt lat="42.54349" lon="1.97045">
        <ele>2034.94</ele>
        <time>2021-06-14T09:17:21.000Z</time>
      </trkpt>
      <trkpt lat="42.54348" lon="1.97044">
        <ele>2031.24</ele>
        <time>2021-06-14T09:17:31.000Z</time>
      </trkpt>
      <trkpt lat="42.54346" lon="1.97037">
        <ele>2033.86</ele>
        <time>2021-06-14T09:17:41.000Z</time>
      </trkpt>
      <trkpt lat="42.54347" lon="1.97038">
        <ele>2020.75</ele>
        <time>2021-06-14T09:17:51.000Z</time>
      </trkpt>
      <trkpt lat="42.5435" lon="1.97039">
        <ele>2036.63</ele>
        <time>2021-06-14T09:18:01.000Z</time>
      </trkpt>
      <trkpt lat="42.54351" lon="1.97037">
        <ele>2029.39</ele>
        <time>2021-06-14T09:18:11.000Z</time>
      </trkpt>
      <trkpt lat="42.5435" lon="1.97036">
        <ele>2015.42</ele>
        <time>2021-06-14T09:18:22.000Z</time>
      </trkpt>
      <trkpt lat="42.54347" lon="1.97032">
        <ele>2037.67</ele>
        <time>2021-06-14T09:18:32.000Z</time>
      </trkpt>
      <trkpt lat="42.54346" lon="1.97036">
        <ele>2032.1</ele>
        <time>2021-06-14T09:18:42.000Z</time>
      </trkpt>
      <trkpt lat="42.54345" lon="1.97039">
        <ele>2025.7</ele>
        <time>2021-06-14T09:18:52.000Z</time>
      </trkpt>
      <trkpt lat="42.54347" lon="1.97038">
        <ele>2018.13</ele>
        <time>2021-06-14T09:19:02.000Z</time>
      </trkpt>
      <trkpt lat="42.54348" lon="1.97039">
        <ele>2023.96</ele>
        <time>2021-06-14T09:19:14.000Z</time>
      </trkpt>
      <trkpt lat="42.54346" lon="1.97045">
        <ele>2032.71</ele>
        <time>2021-06-14T09:19:24.000Z</time>
      </trkpt>
      <trkpt lat="42.54347" lon="1.97043">
        <ele>2026.02</ele>
        <time>2021-06-14T09:19:34.000Z</time>
      </trkpt>
      <trkpt lat="42.54348" lon="1.97043">
        <ele>2042.58</ele>
        <time>2021-06-14T09:19:52.000Z</time>
      </trkpt>
      <trkpt lat="42.54348" lon="1.97042">
        <ele>2012.82</ele>
        <time>2021-06-14T09:20:08.000Z</time>
      </trkpt>
      <trkpt lat="42.5435" lon="1.97038">
        <ele>2034.28</ele>
        <time>2021-06-14T09:20:18.000Z</time>
      </trkpt>
      <trkpt lat="42.54348" lon="1.97038">
        <ele>2032.68</ele>
        <time>2021-06-14T09:20:28.000Z</time>
      </trkpt>
      <trkpt lat="42.54347" lon="1.97039">
        <ele>2027.37</ele>
        <time>2021-06-14T09:20:39.000Z</time>
      </trkpt>
      <trkpt lat="42.54346" lon="1.97036">
        <ele>2035.25</ele>
        <time>2021-06-14T09:20:49.000Z</time>
      </trkpt>
      <trkpt lat="42.54345" lon="1.97039">
        <ele>2024.72</ele>
        <time>2021-06-14T09:20:59.000Z</time>
      </trkpt>
      <trkpt lat="42.54343" lon="1.97039">
        <ele>2027.03</ele>
        <time>2021-06-14T09:21:09.000Z</time>
      </trkpt>
      <trkpt lat="42.54344" lon="1.97037">
        <ele>2023.02</ele>
        <time>2021-06-14T09:21:20.000Z</time>
      </trkpt>
      <trkpt lat="42.54345" lon="1.97038">
        <ele>2041.6</ele>
        <time>2021-06-14T09:21:30.000Z</time>
      </trkpt>
      <trkpt lat="42.54346" lon="1.9704">
        <ele>2026.51</ele>
        <time>2021-06-14T09:21:50.000Z</time>
      </trkpt>
      <trkpt lat="42.54347" lon="1.97042">
        <ele>2042.51</ele>
        <time>2021-06-14T09:22:00.000Z</time>
      </trkpt>
      <trkpt lat="42.54347" lon="1.9704">
        <ele>2042.33</ele>
        <time>2021-06-14T09:22:10.000Z</time>
      </trkpt>
      <trkpt lat="42.54348" lon="1.97039">
        <ele>2031.06</ele>
        <time>2021-06-14T09:22:20.000Z</time>
      </trkpt>
      <trkpt lat="42.54347" lon="1.97039">
        <ele>2036.12</ele>
        <time>2021-06-14T09:22:57.000Z</time>
      </trkpt>
      <trkpt lat="42.54344" lon="1.97044">
        <ele>2023.39</ele>
        <time>2021-06-14T09:23:07.000Z</time>
      </trkpt>
      <trkpt lat="42.54345" lon="1.97045">
        <ele>2036.41</ele>
        <time>2021-06-14T09:23:27.000Z</time>
      </trkpt>
      <trkpt lat="42.54346" lon="1.97043">
        <ele>2053.17</ele>
        <time>2021-06-14T09:23:37.000Z</time>
      </trkpt>
      <trkpt lat="42.54347" lon="1.97042">
        <ele>2044.72</ele>
        <time>2021-06-14T09:24:04.000Z</time>
      </trkpt>
      <trkpt lat="42.54348" lon="1.97043">
        <ele>2033.82</ele>
        <time>2021-06-14T09:24:38.000Z</time>
      </trkpt>
      <trkpt lat="42.54347" lon="1.97043">
        <ele>2027.41</ele>
        <time>2021-06-14T09:25:00.000Z</time>
      </trkpt>
      <trkpt lat="42.54348" lon="1.97043">
        <ele>2027.56</ele>
        <time>2021-06-14T09:25:48.000Z</time>
      </trkpt>
      <trkpt lat="42.54349" lon="1.97044">
        <ele>2028.87</ele>
        <time>2021-06-14T09:25:58.000Z</time>
      </trkpt>
      <trkpt lat="42.54348" lon="1.97042">
        <ele>2027.33</ele>
        <time>2021-06-14T09:26:08.000Z</time>
      </trkpt>
      <trkpt lat="42.54347" lon="1.97042">
        <ele>2036.58</ele>
        <time>2021-06-14T09:26:25.000Z</time>
      </trkpt>
      <trkpt lat="42.54346" lon="1.97044">
        <ele>2036.64</ele>
        <time>2021-06-14T09:26:35.000Z</time>
      </trkpt>
      <trkpt lat="42.54346" lon="1.97045">
        <ele>2008.62</ele>
        <time>2021-06-14T09:26:48.000Z</time>
      </trkpt>
      <trkpt lat="42.54346" lon="1.97047">
        <ele>2025.69</ele>
        <time>2021-06-14T09:26:58.000Z</time>
      </trkpt>
      <trkpt lat="42.54347" lon="1.97048">
        <ele>2050.24</ele>
        <time>2021-06-14T09:27:25.000Z</time>
      </trkpt>
      <trkpt lat="42.54347" lon="1.97047">
        <ele>2033</ele>
        <time>2021-06-14T09:27:41.000Z</time>
      </trkpt>
      <trkpt lat="42.54347" lon="1.97045">
        <ele>2047.32</ele>
        <time>2021-06-14T09:27:56.000Z</time>
      </trkpt>
      <trkpt lat="42.54345" lon="1.97051">
        <ele>2041.89</ele>
        <time>2021-06-14T09:28:06.000Z</time>
      </trkpt>
      <trkpt lat="42.54345" lon="1.97049">
        <ele>2047.51</ele>
        <time>2021-06-14T09:28:16.000Z</time>
      </trkpt>
      <trkpt lat="42.54345" lon="1.97049">
        <ele>2036.31</ele>
        <time>2021-06-14T09:28:41.000Z</time>
      </trkpt>
      <trkpt lat="42.54346" lon="1.97049">
        <ele>2032.85</ele>
        <time>2021-06-14T09:28:51.000Z</time>
      </trkpt>
      <trkpt lat="42.54347" lon="1.97047">
        <ele>2018.92</ele>
        <time>2021-06-14T09:29:01.000Z</time>
      </trkpt>
      <trkpt lat="42.54345" lon="1.97044">
        <ele>2038.69</ele>
        <time>2021-06-14T09:29:11.000Z</time>
      </trkpt>
      <trkpt lat="42.54346" lon="1.97045">
        <ele>2026.64</ele>
        <time>2021-06-14T09:29:21.000Z</time>
      </trkpt>
      <trkpt lat="42.54344" lon="1.97043">
        <ele>2018.99</ele>
        <time>2021-06-14T09:29:31.000Z</time>
      </trkpt>
      <trkpt lat="42.54343" lon="1.97042">
        <ele>2017.89</ele>
        <time>2021-06-14T09:29:41.000Z</time>
      </trkpt>
      <trkpt lat="42.54344" lon="1.97043">
        <ele>2026.73</ele>
        <time>2021-06-14T09:29:51.000Z</time>
      </trkpt>
      <trkpt lat="42.54344" lon="1.97042">
        <ele>2027.43</ele>
        <time>2021-06-14T09:30:20.000Z</time>
      </trkpt>
      <trkpt lat="42.54344" lon="1.97041">
        <ele>2033.77</ele>
        <time>2021-06-14T09:30:33.000Z</time>
      </trkpt>
      <trkpt lat="42.54345" lon="1.97039">
        <ele>2025.65</ele>
        <time>2021-06-14T09:30:49.000Z</time>
      </trkpt>
      <trkpt lat="42.54343" lon="1.97039">
        <ele>2019.71</ele>
        <time>2021-06-14T09:30:59.000Z</time>
      </trkpt>
      <trkpt lat="42.54341" lon="1.9704">
        <ele>2030.8</ele>
        <time>2021-06-14T09:31:09.000Z</time>
      </trkpt>
      <trkpt lat="42.54344" lon="1.97042">
        <ele>2037.85</ele>
        <time>2021-06-14T09:31:19.000Z</time>
      </trkpt>
      <trkpt lat="42.54345" lon="1.97042">
        <ele>2018.05</ele>
        <time>2021-06-14T09:31:29.000Z</time>
      </trkpt>
      <trkpt lat="42.54348" lon="1.97043">
        <ele>2028.53</ele>
        <time>2021-06-14T09:31:39.000Z</time>
      </trkpt>
      <trkpt lat="42.54349" lon="1.97044">
        <ele>2042.56</ele>
        <time>2021-06-14T09:31:49.000Z</time>
      </trkpt>
      <trkpt lat="42.54349" lon="1.97043">
        <ele>2032.18</ele>
        <time>2021-06-14T09:32:01.000Z</time>
      </trkpt>
      <trkpt lat="42.5435" lon="1.97047">
        <ele>2029.82</ele>
        <time>2021-06-14T09:32:11.000Z</time>
      </trkpt>
      <trkpt lat="42.5435" lon="1.97046">
        <ele>2035.01</ele>
        <time>2021-06-14T09:32:21.000Z</time>
      </trkpt>
      <trkpt lat="42.54348" lon="1.97047">
        <ele>2030.35</ele>
        <time>2021-06-14T09:32:31.000Z</time>
      </trkpt>
      <trkpt lat="42.54348" lon="1.97042">
        <ele>2038.99</ele>
        <time>2021-06-14T09:32:41.000Z</time>
      </trkpt>
      <trkpt lat="42.54347" lon="1.97043">
        <ele>2035.99</ele>
        <time>2021-06-14T09:32:51.000Z</time>
      </trkpt>
      <trkpt lat="42.54348" lon="1.97044">
        <ele>2028.14</ele>
        <time>2021-06-14T09:33:01.000Z</time>
      </trkpt>
      <trkpt lat="42.54345" lon="1.97051">
        <ele>2032.83</ele>
        <time>2021-06-14T09:33:11.000Z</time>
      </trkpt>
      <trkpt lat="42.54344" lon="1.9705">
        <ele>2035.91</ele>
        <time>2021-06-14T09:33:24.000Z</time>
      </trkpt>
      <trkpt lat="42.54345" lon="1.9705">
        <ele>2038.3</ele>
        <time>2021-06-14T09:33:40.000Z</time>
      </trkpt>
      <trkpt lat="42.54343" lon="1.97048">
        <ele>2042.55</ele>
        <time>2021-06-14T09:33:50.000Z</time>
      </trkpt>
      <trkpt lat="42.54344" lon="1.97049">
        <ele>2030.03</ele>
        <time>2021-06-14T09:34:00.000Z</time>
      </trkpt>
      <trkpt lat="42.54343" lon="1.97047">
        <ele>2040.53</ele>
        <time>2021-06-14T09:34:10.000Z</time>
      </trkpt>
      <trkpt lat="42.54342" lon="1.97048">
        <ele>2026.29</ele>
        <time>2021-06-14T09:34:20.000Z</time>
      </trkpt>
      <trkpt lat="42.54342" lon="1.97049">
        <ele>2030.86</ele>
        <time>2021-06-14T09:34:45.000Z</time>
      </trkpt>
      <trkpt lat="42.5434" lon="1.97052">
        <ele>2050.69</ele>
        <time>2021-06-14T09:34:55.000Z</time>
      </trkpt>
      <trkpt lat="42.54345" lon="1.97054">
        <ele>2043.52</ele>
        <time>2021-06-14T09:35:05.000Z</time>
      </trkpt>
      <trkpt lat="42.54347" lon="1.97054">
        <ele>2045.27</ele>
        <time>2021-06-14T09:35:15.000Z</time>
      </trkpt>
      <trkpt lat="42.54346" lon="1.97054">
        <ele>2022.06</ele>
        <time>2021-06-14T09:35:36.000Z</time>
      </trkpt>
      <trkpt lat="42.54346" lon="1.97052">
        <ele>2053.75</ele>
        <time>2021-06-14T09:35:46.000Z</time>
      </trkpt>
      <trkpt lat="42.54351" lon="1.9705">
        <ele>2032.22</ele>
        <time>2021-06-14T09:35:56.000Z</time>
      </trkpt>
      <trkpt lat="42.54349" lon="1.9705">
        <ele>2039.64</ele>
        <time>2021-06-14T09:36:06.000Z</time>
      </trkpt>
      <trkpt lat="42.54351" lon="1.97048">
        <ele>2056.23</ele>
        <time>2021-06-14T09:36:16.000Z</time>
      </trkpt>
      <trkpt lat="42.54351" lon="1.97047">
        <ele>2034.26</ele>
        <time>2021-06-14T09:36:28.000Z</time>
      </trkpt>
      <trkpt lat="42.54352" lon="1.97047">
        <ele>2029.13</ele>
        <time>2021-06-14T09:36:39.000Z</time>
      </trkpt>
      <trkpt lat="42.54351" lon="1.97045">
        <ele>2041.63</ele>
        <time>2021-06-14T09:36:49.000Z</time>
      </trkpt>
      <trkpt lat="42.54355" lon="1.97048">
        <ele>2034.45</ele>
        <time>2021-06-14T09:36:59.000Z</time>
      </trkpt>
      <trkpt lat="42.54354" lon="1.97046">
        <ele>2018.96</ele>
        <time>2021-06-14T09:37:09.000Z</time>
      </trkpt>
      <trkpt lat="42.54353" lon="1.97046">
        <ele>2011.17</ele>
        <time>2021-06-14T09:37:19.000Z</time>
      </trkpt>
      <trkpt lat="42.54355" lon="1.97047">
        <ele>2034.41</ele>
        <time>2021-06-14T09:37:29.000Z</time>
      </trkpt>
      <trkpt lat="42.54354" lon="1.97047">
        <ele>2015.98</ele>
        <time>2021-06-14T09:37:41.000Z</time>
      </trkpt>
      <trkpt lat="42.54353" lon="1.97049">
        <ele>2029.77</ele>
        <time>2021-06-14T09:37:57.000Z</time>
      </trkpt>
      <trkpt lat="42.54353" lon="1.97051">
        <ele>2041.98</ele>
        <time>2021-06-14T09:38:07.000Z</time>
      </trkpt>
      <trkpt lat="42.54352" lon="1.97048">
        <ele>2038.52</ele>
        <time>2021-06-14T09:38:17.000Z</time>
      </trkpt>
      <trkpt lat="42.54351" lon="1.97048">
        <ele>2015.45</ele>
        <time>2021-06-14T09:38:27.000Z</time>
      </trkpt>
      <trkpt lat="42.54349" lon="1.97048">
        <ele>2017.04</ele>
        <time>2021-06-14T09:38:37.000Z</time>
      </trkpt>
      <trkpt lat="42.54348" lon="1.97045">
        <ele>2022.64</ele>
        <time>2021-06-14T09:38:47.000Z</time>
      </trkpt>
      <trkpt lat="42.54349" lon="1.97044">
        <ele>2036.55</ele>
        <time>2021-06-14T09:38:57.000Z</time>
      </trkpt>
      <trkpt lat="42.54346" lon="1.97047">
        <ele>2034.76</ele>
        <time>2021-06-14T09:39:07.000Z</time>
      </trkpt>
      <trkpt lat="42.54345" lon="1.97046">
        <ele>2034.02</ele>
        <time>2021-06-14T09:39:18.000Z</time>
      </trkpt>
      <trkpt lat="42.54345" lon="1.97044">
        <ele>2037.39</ele>
        <time>2021-06-14T09:39:28.000Z</time>
      </trkpt>
      <trkpt lat="42.54344" lon="1.97043">
        <ele>2036.71</ele>
        <time>2021-06-14T09:39:39.000Z</time>
      </trkpt>
      <trkpt lat="42.54344" lon="1.97046">
        <ele>2037.54</ele>
        <time>2021-06-14T09:39:53.000Z</time>
      </trkpt>
      <trkpt lat="42.54344" lon="1.97048">
        <ele>2034.2</ele>
        <time>2021-06-14T09:40:03.000Z</time>
      </trkpt>
      <trkpt lat="42.54344" lon="1.97045">
        <ele>2020.6</ele>
        <time>2021-06-14T09:40:13.000Z</time>
      </trkpt>
      <trkpt lat="42.54343" lon="1.97048">
        <ele>2032.87</ele>
        <time>2021-06-14T09:40:23.000Z</time>
      </trkpt>
      <trkpt lat="42.54341" lon="1.97048">
        <ele>2035.32</ele>
        <time>2021-06-14T09:41:00.000Z</time>
      </trkpt>
      <trkpt lat="42.54343" lon="1.97048">
        <ele>2040.48</ele>
        <time>2021-06-14T09:41:10.000Z</time>
      </trkpt>
      <trkpt lat="42.54346" lon="1.97047">
        <ele>2052.54</ele>
        <time>2021-06-14T09:41:20.000Z</time>
      </trkpt>
      <trkpt lat="42.54346" lon="1.97046">
        <ele>2042.7</ele>
        <time>2021-06-14T09:41:30.128Z</time>
      </trkpt>
      <trkpt lat="42.54332" lon="1.97048">
        <ele>2038.29</ele>
        <time>2021-06-14T09:41:40.126Z</time>
      </trkpt>
      <trkpt lat="42.54333" lon="1.97057">
        <ele>2021.89</ele>
        <time>2021-06-14T09:41:49.736Z</time>
      </trkpt>
      <trkpt lat="42.54335" lon="1.9706">
        <ele>2037.96</ele>
        <time>2021-06-14T09:41:59.000Z</time>
      </trkpt>
      <trkpt lat="42.54337" lon="1.97055">
        <ele>2018.06</ele>
        <time>2021-06-14T09:42:09.000Z</time>
      </trkpt>
      <trkpt lat="42.54334" lon="1.97049">
        <ele>2015.02</ele>
        <time>2021-06-14T09:42:19.000Z</time>
      </trkpt>
      <trkpt lat="42.54334" lon="1.97052">
        <ele>2031.61</ele>
        <time>2021-06-14T09:42:29.000Z</time>
      </trkpt>
      <trkpt lat="42.54334" lon="1.97053">
        <ele>2027</ele>
        <time>2021-06-14T09:42:39.000Z</time>
      </trkpt>
      <trkpt lat="42.54334" lon="1.97057">
        <ele>2024.95</ele>
        <time>2021-06-14T09:42:49.000Z</time>
      </trkpt>
      <trkpt lat="42.54332" lon="1.97056">
        <ele>2016.6</ele>
        <time>2021-06-14T09:42:59.000Z</time>
      </trkpt>
      <trkpt lat="42.5433" lon="1.97052">
        <ele>2018.35</ele>
        <time>2021-06-14T09:43:09.000Z</time>
      </trkpt>
      <trkpt lat="42.54335" lon="1.97055">
        <ele>2015.75</ele>
        <time>2021-06-14T09:43:18.806Z</time>
      </trkpt>
      <trkpt lat="42.54342" lon="1.97056">
        <ele>2027.77</ele>
        <time>2021-06-14T09:43:27.925Z</time>
      </trkpt>
      <trkpt lat="42.54343" lon="1.97052">
        <ele>2028.08</ele>
        <time>2021-06-14T09:43:37.139Z</time>
      </trkpt>
      <trkpt lat="42.5434" lon="1.97052">
        <ele>2028.33</ele>
        <time>2021-06-14T09:43:47.000Z</time>
      </trkpt>
      <trkpt lat="42.54341" lon="1.97039">
        <ele>2019.83</ele>
        <time>2021-06-14T09:43:57.907Z</time>
      </trkpt>
      <trkpt lat="42.54345" lon="1.97032">
        <ele>2028.04</ele>
        <time>2021-06-14T09:44:08.119Z</time>
      </trkpt>
      <trkpt lat="42.54358" lon="1.97038">
        <ele>2016.52</ele>
        <time>2021-06-14T09:44:17.685Z</time>
      </trkpt>
      <trkpt lat="42.54365" lon="1.9704">
        <ele>2043.43</ele>
        <time>2021-06-14T09:44:27.933Z</time>
      </trkpt>
      <trkpt lat="42.54364" lon="1.97044">
        <ele>2041.56</ele>
        <time>2021-06-14T09:44:37.128Z</time>
      </trkpt>
      <trkpt lat="42.54347" lon="1.97041">
        <ele>2032.74</ele>
        <time>2021-06-14T09:44:46.588Z</time>
      </trkpt>
      <trkpt lat="42.54338" lon="1.97034">
        <ele>2034.97</ele>
        <time>2021-06-14T09:44:55.890Z</time>
      </trkpt>
      <trkpt lat="42.54336" lon="1.97026">
        <ele>2021.18</ele>
        <time>2021-06-14T09:45:05.000Z</time>
      </trkpt>
      <trkpt lat="42.54332" lon="1.97025">
        <ele>2038.86</ele>
        <time>2021-06-14T09:45:15.745Z</time>
      </trkpt>
      <trkpt lat="42.54323" lon="1.97027">
        <ele>2045.82</ele>
        <time>2021-06-14T09:45:26.746Z</time>
      </trkpt>
      <trkpt lat="42.54321" lon="1.97026">
        <ele>2035.41</ele>
        <time>2021-06-14T09:45:36.000Z</time>
      </trkpt>
      <trkpt lat="42.5432" lon="1.97023">
        <ele>2048.93</ele>
        <time>2021-06-14T09:45:55.000Z</time>
      </trkpt>
      <trkpt lat="42.54319" lon="1.97021">
        <ele>2046.77</ele>
        <time>2021-06-14T09:46:05.000Z</time>
      </trkpt>
      <trkpt lat="42.54318" lon="1.97023">
        <ele>2041.93</ele>
        <time>2021-06-14T09:46:14.475Z</time>
      </trkpt>
      <trkpt lat="42.54309" lon="1.97018">
        <ele>2049.6</ele>
        <time>2021-06-14T09:46:23.801Z</time>
      </trkpt>
      <trkpt lat="42.543" lon="1.97009">
        <ele>2056.47</ele>
        <time>2021-06-14T09:46:33.707Z</time>
      </trkpt>
      <trkpt lat="42.54297" lon="1.96994">
        <ele>2047.61</ele>
        <time>2021-06-14T09:46:44.074Z</time>
      </trkpt>
      <trkpt lat="42.54288" lon="1.96983">
        <ele>2046.13</ele>
        <time>2021-06-14T09:46:54.000Z</time>
      </trkpt>
      <trkpt lat="42.54282" lon="1.96978">
        <ele>2027.48</ele>
        <time>2021-06-14T09:47:03.598Z</time>
      </trkpt>
      <trkpt lat="42.54279" lon="1.96969">
        <ele>2042.78</ele>
        <time>2021-06-14T09:47:12.859Z</time>
      </trkpt>
      <trkpt lat="42.54277" lon="1.96972">
        <ele>2026.43</ele>
        <time>2021-06-14T09:47:22.918Z</time>
      </trkpt>
      <trkpt lat="42.54276" lon="1.96971">
        <ele>2053.82</ele>
        <time>2021-06-14T09:47:33.538Z</time>
      </trkpt>
      <trkpt lat="42.54265" lon="1.96963">
        <ele>2029.42</ele>
        <time>2021-06-14T09:47:42.922Z</time>
      </trkpt>
      <trkpt lat="42.54251" lon="1.96966">
        <ele>2037.64</ele>
        <time>2021-06-14T09:47:52.898Z</time>
      </trkpt>
      <trkpt lat="42.54244" lon="1.96957">
        <ele>2027.55</ele>
        <time>2021-06-14T09:48:02.000Z</time>
      </trkpt>
      <trkpt lat="42.54247" lon="1.96949">
        <ele>2033.92</ele>
        <time>2021-06-14T09:48:12.000Z</time>
      </trkpt>
      <trkpt lat="42.54246" lon="1.96945">
        <ele>2037.29</ele>
        <time>2021-06-14T09:48:22.000Z</time>
      </trkpt>
      <trkpt lat="42.54246" lon="1.96953">
        <ele>2045.54</ele>
        <time>2021-06-14T09:48:32.000Z</time>
      </trkpt>
      <trkpt lat="42.54246" lon="1.96965">
        <ele>2027.28</ele>
        <time>2021-06-14T09:48:41.339Z</time>
      </trkpt>
      <trkpt lat="42.54247" lon="1.96968">
        <ele>2032</ele>
        <time>2021-06-14T09:48:51.000Z</time>
      </trkpt>
      <trkpt lat="42.54245" lon="1.96965">
        <ele>2020.68</ele>
        <time>2021-06-14T09:49:01.006Z</time>
      </trkpt>
      <trkpt lat="42.54246" lon="1.9696">
        <ele>2044.31</ele>
        <time>2021-06-14T09:49:11.515Z</time>
      </trkpt>
      <trkpt lat="42.54242" lon="1.96957">
        <ele>2037.57</ele>
        <time>2021-06-14T09:49:20.616Z</time>
      </trkpt>
      <trkpt lat="42.5424" lon="1.96944">
        <ele>2033.92</ele>
        <time>2021-06-14T09:49:30.575Z</time>
      </trkpt>
      <trkpt lat="42.54237" lon="1.96931">
        <ele>2037.26</ele>
        <time>2021-06-14T09:49:39.776Z</time>
      </trkpt>
      <trkpt lat="42.54219" lon="1.9691">
        <ele>2021.45</ele>
        <time>2021-06-14T09:49:50.000Z</time>
      </trkpt>
      <trkpt lat="42.54206" lon="1.96907">
        <ele>2030.58</ele>
        <time>2021-06-14T09:49:59.746Z</time>
      </trkpt>
      <trkpt lat="42.54191" lon="1.96911">
        <ele>2034.86</ele>
        <time>2021-06-14T09:50:09.466Z</time>
      </trkpt>
      <trkpt lat="42.54178" lon="1.96915">
        <ele>2028.03</ele>
        <time>2021-06-14T09:50:19.427Z</time>
      </trkpt>
      <trkpt lat="42.54173" lon="1.96906">
        <ele>2031.29</ele>
        <time>2021-06-14T09:50:28.535Z</time>
      </trkpt>
      <trkpt lat="42.5416" lon="1.96909">
        <ele>2034.56</ele>
        <time>2021-06-14T09:50:38.000Z</time>
      </trkpt>
      <trkpt lat="42.54151" lon="1.96916">
        <ele>2024.34</ele>
        <time>2021-06-14T09:50:47.396Z</time>
      </trkpt>
      <trkpt lat="42.54141" lon="1.96912">
        <ele>2023.11</ele>
        <time>2021-06-14T09:50:56.637Z</time>
      </trkpt>
      <trkpt lat="42.54132" lon="1.96914">
        <ele>2020.41</ele>
        <time>2021-06-14T09:51:06.000Z</time>
      </trkpt>
      <trkpt lat="42.54135" lon="1.969">
        <ele>2035.12</ele>
        <time>2021-06-14T09:51:16.000Z</time>
      </trkpt>
      <trkpt lat="42.54125" lon="1.96893">
        <ele>2032.3</ele>
        <time>2021-06-14T09:51:26.000Z</time>
      </trkpt>
      <trkpt lat="42.54118" lon="1.96884">
        <ele>2020.4</ele>
        <time>2021-06-14T09:51:36.000Z</time>
      </trkpt>
      <trkpt lat="42.54116" lon="1.96867">
        <ele>2029.33</ele>
        <time>2021-06-14T09:51:46.000Z</time>
      </trkpt>
      <trkpt lat="42.54113" lon="1.96852">
        <ele>2030.74</ele>
        <time>2021-06-14T09:51:55.401Z</time>
      </trkpt>
      <trkpt lat="42.54113" lon="1.96842">
        <ele>2039.54</ele>
        <time>2021-06-14T09:52:05.000Z</time>
      </trkpt>
      <trkpt lat="42.54113" lon="1.96839">
        <ele>2038.84</ele>
        <time>2021-06-14T09:52:15.000Z</time>
      </trkpt>
      <trkpt lat="42.54113" lon="1.96841">
        <ele>2031.91</ele>
        <time>2021-06-14T09:52:25.000Z</time>
      </trkpt>
      <trkpt lat="42.54116" lon="1.96841">
        <ele>2032.71</ele>
        <time>2021-06-14T09:52:34.450Z</time>
      </trkpt>
      <trkpt lat="42.54126" lon="1.96852">
        <ele>2023.94</ele>
        <time>2021-06-14T09:52:44.000Z</time>
      </trkpt>
      <trkpt lat="42.54121" lon="1.96828">
        <ele>2038.42</ele>
        <time>2021-06-14T09:52:54.511Z</time>
      </trkpt>
      <trkpt lat="42.54113" lon="1.96816">
        <ele>2033.71</ele>
        <time>2021-06-14T09:53:04.000Z</time>
      </trkpt>
      <trkpt lat="42.54108" lon="1.96802">
        <ele>2020.57</ele>
        <time>2021-06-14T09:53:13.086Z</time>
      </trkpt>
      <trkpt lat="42.54099" lon="1.96792">
        <ele>2022.87</ele>
        <time>2021-06-14T09:53:22.230Z</time>
      </trkpt>
      <trkpt lat="42.54086" lon="1.96795">
        <ele>2039.1</ele>
        <time>2021-06-14T09:53:32.000Z</time>
      </trkpt>
      <trkpt lat="42.54076" lon="1.96794">
        <ele>2026.4</ele>
        <time>2021-06-14T09:53:41.551Z</time>
      </trkpt>
      <trkpt lat="42.54067" lon="1.96782">
        <ele>2032.54</ele>
        <time>2021-06-14T09:53:51.095Z</time>
      </trkpt>
      <trkpt lat="42.54057" lon="1.96778">
        <ele>2016.17</ele>
        <time>2021-06-14T09:54:01.083Z</time>
      </trkpt>
      <trkpt lat="42.5405" lon="1.96774">
        <ele>2025.04</ele>
        <time>2021-06-14T09:54:11.000Z</time>
      </trkpt>
      <trkpt lat="42.54049" lon="1.96774">
        <ele>2034.97</ele>
        <time>2021-06-14T09:54:23.000Z</time>
      </trkpt>
      <trkpt lat="42.54043" lon="1.96772">
        <ele>2046</ele>
        <time>2021-06-14T09:54:33.000Z</time>
      </trkpt>
      <trkpt lat="42.54043" lon="1.9677">
        <ele>2040.64</ele>
        <time>2021-06-14T09:54:49.000Z</time>
      </trkpt>
      <trkpt lat="42.5404" lon="1.96762">
        <ele>2035.49</ele>
        <time>2021-06-14T09:54:59.000Z</time>
      </trkpt>
      <trkpt lat="42.54042" lon="1.96754">
        <ele>2036.31</ele>
        <time>2021-06-14T09:55:09.000Z</time>
      </trkpt>
      <trkpt lat="42.54035" lon="1.96736">
        <ele>2034.54</ele>
        <time>2021-06-14T09:55:18.465Z</time>
      </trkpt>
      <trkpt lat="42.54033" lon="1.96748">
        <ele>2040.43</ele>
        <time>2021-06-14T09:55:28.000Z</time>
      </trkpt>
      <trkpt lat="42.54024" lon="1.96751">
        <ele>2023.47</ele>
        <time>2021-06-14T09:55:37.737Z</time>
      </trkpt>
      <trkpt lat="42.54021" lon="1.96753">
        <ele>2052.63</ele>
        <time>2021-06-14T09:55:48.694Z</time>
      </trkpt>
      <trkpt lat="42.54027" lon="1.96759">
        <ele>2031.99</ele>
        <time>2021-06-14T09:55:57.696Z</time>
      </trkpt>
      <trkpt lat="42.54034" lon="1.96759">
        <ele>2048.83</ele>
        <time>2021-06-14T09:56:06.905Z</time>
      </trkpt>
      <trkpt lat="42.54038" lon="1.96752">
        <ele>2058.07</ele>
        <time>2021-06-14T09:56:16.746Z</time>
      </trkpt>
      <trkpt lat="42.54044" lon="1.96737">
        <ele>2044.19</ele>
        <time>2021-06-14T09:56:26.497Z</time>
      </trkpt>
      <trkpt lat="42.54041" lon="1.9672">
        <ele>2039.97</ele>
        <time>2021-06-14T09:56:36.534Z</time>
      </trkpt>
      <trkpt lat="42.54033" lon="1.96714">
        <ele>2028.53</ele>
        <time>2021-06-14T09:56:45.776Z</time>
      </trkpt>
      <trkpt lat="42.54022" lon="1.96711">
        <ele>2039.62</ele>
        <time>2021-06-14T09:56:55.368Z</time>
      </trkpt>
      <trkpt lat="42.54019" lon="1.96716">
        <ele>2050.13</ele>
        <time>2021-06-14T09:57:04.868Z</time>
      </trkpt>
      <trkpt lat="42.54013" lon="1.96725">
        <ele>2036.18</ele>
        <time>2021-06-14T09:57:15.066Z</time>
      </trkpt>
      <trkpt lat="42.54014" lon="1.96733">
        <ele>2040.32</ele>
        <time>2021-06-14T09:57:25.000Z</time>
      </trkpt>
      <trkpt lat="42.54014" lon="1.96731">
        <ele>2037.25</ele>
        <time>2021-06-14T09:57:35.000Z</time>
      </trkpt>
      <trkpt lat="42.54013" lon="1.9673">
        <ele>2033.57</ele>
        <time>2021-06-14T09:57:46.000Z</time>
      </trkpt>
      <trkpt lat="42.54012" lon="1.96735">
        <ele>2032.05</ele>
        <time>2021-06-14T09:57:56.000Z</time>
      </trkpt>
      <trkpt lat="42.54015" lon="1.96736">
        <ele>2045.11</ele>
        <time>2021-06-14T09:58:06.000Z</time>
      </trkpt>
      <trkpt lat="42.54016" lon="1.96735">
        <ele>2052.02</ele>
        <time>2021-06-14T09:58:17.000Z</time>
      </trkpt>
      <trkpt lat="42.54011" lon="1.96736">
        <ele>2044.33</ele>
        <time>2021-06-14T09:58:28.116Z</time>
      </trkpt>
      <trkpt lat="42.53996" lon="1.96739">
        <ele>2031.52</ele>
        <time>2021-06-14T09:58:37.656Z</time>
      </trkpt>
      <trkpt lat="42.53984" lon="1.96738">
        <ele>2038.49</ele>
        <time>2021-06-14T09:58:46.846Z</time>
      </trkpt>
      <trkpt lat="42.53977" lon="1.96728">
        <ele>2029.07</ele>
        <time>2021-06-14T09:58:56.656Z</time>
      </trkpt>
      <trkpt lat="42.53971" lon="1.96709">
        <ele>2037.13</ele>
        <time>2021-06-14T09:59:05.675Z</time>
      </trkpt>
      <trkpt lat="42.53965" lon="1.96692">
        <ele>2044.91</ele>
        <time>2021-06-14T09:59:15.000Z</time>
      </trkpt>
      <trkpt lat="42.53957" lon="1.96684">
        <ele>2042.54</ele>
        <time>2021-06-14T09:59:25.000Z</time>
      </trkpt>
      <trkpt lat="42.53948" lon="1.96673">
        <ele>2013.5</ele>
        <time>2021-06-14T09:59:35.000Z</time>
      </trkpt>
      <trkpt lat="42.53946" lon="1.96674">
        <ele>2031.54</ele>
        <time>2021-06-14T09:59:44.617Z</time>
      </trkpt>
      <trkpt lat="42.53943" lon="1.96664">
        <ele>2023.65</ele>
        <time>2021-06-14T09:59:54.072Z</time>
      </trkpt>
      <trkpt lat="42.53937" lon="1.96657">
        <ele>2017.67</ele>
        <time>2021-06-14T10:00:03.316Z</time>
      </trkpt>
      <trkpt lat="42.53931" lon="1.9666">
        <ele>2025.33</ele>
        <time>2021-06-14T10:00:14.074Z</time>
      </trkpt>
      <trkpt lat="42.53926" lon="1.96649">
        <ele>2044.45</ele>
        <time>2021-06-14T10:00:24.702Z</time>
      </trkpt>
      <trkpt lat="42.53925" lon="1.96636">
        <ele>2048.7</ele>
        <time>2021-06-14T10:00:34.000Z</time>
      </trkpt>
      <trkpt lat="42.53923" lon="1.96627">
        <ele>2019.12</ele>
        <time>2021-06-14T10:00:43.689Z</time>
      </trkpt>
      <trkpt lat="42.5391" lon="1.9663">
        <ele>2049.01</ele>
        <time>2021-06-14T10:00:53.445Z</time>
      </trkpt>
      <trkpt lat="42.53899" lon="1.96643">
        <ele>2032.45</ele>
        <time>2021-06-14T10:01:02.619Z</time>
      </trkpt>
      <trkpt lat="42.53891" lon="1.96648">
        <ele>2036.8</ele>
        <time>2021-06-14T10:01:12.107Z</time>
      </trkpt>
      <trkpt lat="42.5388" lon="1.96654">
        <ele>2017.97</ele>
        <time>2021-06-14T10:01:21.936Z</time>
      </trkpt>
      <trkpt lat="42.5387" lon="1.96662">
        <ele>2039.55</ele>
        <time>2021-06-14T10:01:32.506Z</time>
      </trkpt>
      <trkpt lat="42.53869" lon="1.96663">
        <ele>2034.16</ele>
        <time>2021-06-14T10:01:42.000Z</time>
      </trkpt>
      <trkpt lat="42.53869" lon="1.96656">
        <ele>2038.05</ele>
        <time>2021-06-14T10:01:52.000Z</time>
      </trkpt>
      <trkpt lat="42.53868" lon="1.96628">
        <ele>2035.12</ele>
        <time>2021-06-14T10:02:02.782Z</time>
      </trkpt>
      <trkpt lat="42.53856" lon="1.96646">
        <ele>2026.07</ele>
        <time>2021-06-14T10:02:12.000Z</time>
      </trkpt>
      <trkpt lat="42.53849" lon="1.96658">
        <ele>2029.29</ele>
        <time>2021-06-14T10:02:22.000Z</time>
      </trkpt>
      <trkpt lat="42.53846" lon="1.96667">
        <ele>2026.69</ele>
        <time>2021-06-14T10:02:31.584Z</time>
      </trkpt>
      <trkpt lat="42.53837" lon="1.9667">
        <ele>2032.62</ele>
        <time>2021-06-14T10:02:40.588Z</time>
      </trkpt>
      <trkpt lat="42.53831" lon="1.96676">
        <ele>2039.96</ele>
        <time>2021-06-14T10:02:50.000Z</time>
      </trkpt>
      <trkpt lat="42.53831" lon="1.96689">
        <ele>2046.25</ele>
        <time>2021-06-14T10:02:59.243Z</time>
      </trkpt>
      <trkpt lat="42.53818" lon="1.96702">
        <ele>2036.77</ele>
        <time>2021-06-14T10:03:09.122Z</time>
      </trkpt>
      <trkpt lat="42.53812" lon="1.96705">
        <ele>2032.83</ele>
        <time>2021-06-14T10:03:19.000Z</time>
      </trkpt>
      <trkpt lat="42.53813" lon="1.96704">
        <ele>2044.43</ele>
        <time>2021-06-14T10:03:28.365Z</time>
      </trkpt>
      <trkpt lat="42.53807" lon="1.96707">
        <ele>2038.53</ele>
        <time>2021-06-14T10:03:37.402Z</time>
      </trkpt>
      <trkpt lat="42.53793" lon="1.96726">
        <ele>2048.6</ele>
        <time>2021-06-14T10:03:46.602Z</time>
      </trkpt>
      <trkpt lat="42.53781" lon="1.96726">
        <ele>2025.6</ele>
        <time>2021-06-14T10:03:55.622Z</time>
      </trkpt>
      <trkpt lat="42.5378" lon="1.96728">
        <ele>2032.11</ele>
        <time>2021-06-14T10:04:06.006Z</time>
      </trkpt>
      <trkpt lat="42.53774" lon="1.96727">
        <ele>2037.66</ele>
        <time>2021-06-14T10:04:15.143Z</time>
      </trkpt>
      <trkpt lat="42.53761" lon="1.96736">
        <ele>2033.03</ele>
        <time>2021-06-14T10:04:24.436Z</time>
      </trkpt>
      <trkpt lat="42.53749" lon="1.96744">
        <ele>2041.37</ele>
        <time>2021-06-14T10:04:33.805Z</time>
      </trkpt>
      <trkpt lat="42.53738" lon="1.96749">
        <ele>2026.46</ele>
        <time>2021-06-14T10:04:43.605Z</time>
      </trkpt>
      <trkpt lat="42.5373" lon="1.96755">
        <ele>2038.61</ele>
        <time>2021-06-14T10:04:53.000Z</time>
      </trkpt>
      <trkpt lat="42.53732" lon="1.96753">
        <ele>2038.03</ele>
        <time>2021-06-14T10:05:03.815Z</time>
      </trkpt>
      <trkpt lat="42.53746" lon="1.96738">
        <ele>2045.22</ele>
        <time>2021-06-14T10:05:13.000Z</time>
      </trkpt>
      <trkpt lat="42.5372" lon="1.9674">
        <ele>2032.51</ele>
        <time>2021-06-14T10:05:23.000Z</time>
      </trkpt>
      <trkpt lat="42.53712" lon="1.96754">
        <ele>2038.32</ele>
        <time>2021-06-14T10:05:33.794Z</time>
      </trkpt>
      <trkpt lat="42.53698" lon="1.96765">
        <ele>2041.36</ele>
        <time>2021-06-14T10:05:43.837Z</time>
      </trkpt>
      <trkpt lat="42.53689" lon="1.96768">
        <ele>2061.94</ele>
        <time>2021-06-14T10:05:53.876Z</time>
      </trkpt>
      <trkpt lat="42.53684" lon="1.96769">
        <ele>2035.6</ele>
        <time>2021-06-14T10:06:03.000Z</time>
      </trkpt>
      <trkpt lat="42.53687" lon="1.96768">
        <ele>2028.14</ele>
        <time>2021-06-14T10:06:13.000Z</time>
      </trkpt>
      <trkpt lat="42.53686" lon="1.96769">
        <ele>2042.19</ele>
        <time>2021-06-14T10:06:23.000Z</time>
      </trkpt>
      <trkpt lat="42.53689" lon="1.9677">
        <ele>2026.32</ele>
        <time>2021-06-14T10:06:33.000Z</time>
      </trkpt>
      <trkpt lat="42.537" lon="1.96766">
        <ele>2047.75</ele>
        <time>2021-06-14T10:06:42.375Z</time>
      </trkpt>
      <trkpt lat="42.53703" lon="1.96749">
        <ele>2026.36</ele>
        <time>2021-06-14T10:06:51.535Z</time>
      </trkpt>
      <trkpt lat="42.53692" lon="1.96749">
        <ele>2036.92</ele>
        <time>2021-06-14T10:07:01.000Z</time>
      </trkpt>
      <trkpt lat="42.53684" lon="1.96753">
        <ele>2016.33</ele>
        <time>2021-06-14T10:07:11.000Z</time>
      </trkpt>
      <trkpt lat="42.53681" lon="1.96757">
        <ele>2026.6</ele>
        <time>2021-06-14T10:07:21.000Z</time>
      </trkpt>
      <trkpt lat="42.53679" lon="1.96751">
        <ele>2029.67</ele>
        <time>2021-06-14T10:07:31.000Z</time>
      </trkpt>
      <trkpt lat="42.5368" lon="1.96749">
        <ele>2039.49</ele>
        <time>2021-06-14T10:07:41.825Z</time>
      </trkpt>
      <trkpt lat="42.53684" lon="1.96739">
        <ele>2026.06</ele>
        <time>2021-06-14T10:07:51.000Z</time>
      </trkpt>
      <trkpt lat="42.53664" lon="1.96718">
        <ele>2036.9</ele>
        <time>2021-06-14T10:08:01.950Z</time>
      </trkpt>
      <trkpt lat="42.53655" lon="1.96715">
        <ele>2042.27</ele>
        <time>2021-06-14T10:08:12.077Z</time>
      </trkpt>
      <trkpt lat="42.53657" lon="1.96716">
        <ele>2039.07</ele>
        <time>2021-06-14T10:08:22.656Z</time>
      </trkpt>
      <trkpt lat="42.5365" lon="1.96717">
        <ele>2038.64</ele>
        <time>2021-06-14T10:08:32.604Z</time>
      </trkpt>
      <trkpt lat="42.53641" lon="1.96712">
        <ele>2032.69</ele>
        <time>2021-06-14T10:08:41.711Z</time>
      </trkpt>
      <trkpt lat="42.53634" lon="1.96702">
        <ele>2061.01</ele>
        <time>2021-06-14T10:08:50.856Z</time>
      </trkpt>
      <trkpt lat="42.53619" lon="1.967">
        <ele>2039.97</ele>
        <time>2021-06-14T10:09:00.000Z</time>
      </trkpt>
      <trkpt lat="42.5361" lon="1.96696">
        <ele>2033.37</ele>
        <time>2021-06-14T10:09:09.467Z</time>
      </trkpt>
      <trkpt lat="42.53593" lon="1.96693">
        <ele>2056.42</ele>
        <time>2021-06-14T10:09:18.565Z</time>
      </trkpt>
      <trkpt lat="42.53588" lon="1.96685">
        <ele>2044.86</ele>
        <time>2021-06-14T10:09:28.068Z</time>
      </trkpt>
      <trkpt lat="42.5359" lon="1.96665">
        <ele>2039.82</ele>
        <time>2021-06-14T10:09:37.488Z</time>
      </trkpt>
      <trkpt lat="42.53589" lon="1.96648">
        <ele>2041.84</ele>
        <time>2021-06-14T10:09:46.595Z</time>
      </trkpt>
      <trkpt lat="42.53587" lon="1.96627">
        <ele>2044.86</ele>
        <time>2021-06-14T10:09:57.486Z</time>
      </trkpt>
      <trkpt lat="42.53587" lon="1.96611">
        <ele>2048.52</ele>
        <time>2021-06-14T10:10:06.605Z</time>
      </trkpt>
      <trkpt lat="42.53586" lon="1.96597">
        <ele>2057.24</ele>
        <time>2021-06-14T10:10:15.706Z</time>
      </trkpt>
      <trkpt lat="42.53587" lon="1.96581">
        <ele>2057.74</ele>
        <time>2021-06-14T10:10:24.886Z</time>
      </trkpt>
      <trkpt lat="42.53586" lon="1.96568">
        <ele>2042.73</ele>
        <time>2021-06-14T10:10:34.624Z</time>
      </trkpt>
      <trkpt lat="42.53576" lon="1.9655">
        <ele>2053.43</ele>
        <time>2021-06-14T10:10:43.956Z</time>
      </trkpt>
      <trkpt lat="42.5357" lon="1.96535">
        <ele>2044.28</ele>
        <time>2021-06-14T10:10:53.879Z</time>
      </trkpt>
      <trkpt lat="42.53565" lon="1.9652">
        <ele>2051.19</ele>
        <time>2021-06-14T10:11:03.075Z</time>
      </trkpt>
      <trkpt lat="42.53556" lon="1.96509">
        <ele>2052.47</ele>
        <time>2021-06-14T10:11:12.775Z</time>
      </trkpt>
      <trkpt lat="42.53546" lon="1.965">
        <ele>2035.18</ele>
        <time>2021-06-14T10:11:22.766Z</time>
      </trkpt>
      <trkpt lat="42.53534" lon="1.96489">
        <ele>2053.07</ele>
        <time>2021-06-14T10:11:31.813Z</time>
      </trkpt>
      <trkpt lat="42.53525" lon="1.96475">
        <ele>2053.27</ele>
        <time>2021-06-14T10:11:41.838Z</time>
      </trkpt>
      <trkpt lat="42.53515" lon="1.9646">
        <ele>2060.04</ele>
        <time>2021-06-14T10:11:50.859Z</time>
      </trkpt>
      <trkpt lat="42.53507" lon="1.96448">
        <ele>2044.31</ele>
        <time>2021-06-14T10:12:00.635Z</time>
      </trkpt>
      <trkpt lat="42.53497" lon="1.9644">
        <ele>2055.25</ele>
        <time>2021-06-14T10:12:10.134Z</time>
      </trkpt>
      <trkpt lat="42.53483" lon="1.96427">
        <ele>2051.87</ele>
        <time>2021-06-14T10:12:20.000Z</time>
      </trkpt>
      <trkpt lat="42.53475" lon="1.96417">
        <ele>2058.61</ele>
        <time>2021-06-14T10:12:29.147Z</time>
      </trkpt>
      <trkpt lat="42.53472" lon="1.96418">
        <ele>2054.11</ele>
        <time>2021-06-14T10:12:39.000Z</time>
      </trkpt>
      <trkpt lat="42.5347" lon="1.96418">
        <ele>2059.62</ele>
        <time>2021-06-14T10:12:49.153Z</time>
      </trkpt>
      <trkpt lat="42.5347" lon="1.96401">
        <ele>2056.54</ele>
        <time>2021-06-14T10:12:58.816Z</time>
      </trkpt>
      <trkpt lat="42.53465" lon="1.9639">
        <ele>2077.14</ele>
        <time>2021-06-14T10:13:08.066Z</time>
      </trkpt>
      <trkpt lat="42.5346" lon="1.96388">
        <ele>2044.25</ele>
        <time>2021-06-14T10:13:18.000Z</time>
      </trkpt>
      <trkpt lat="42.53457" lon="1.96383">
        <ele>2065.38</ele>
        <time>2021-06-14T10:13:27.495Z</time>
      </trkpt>
      <trkpt lat="42.53445" lon="1.96371">
        <ele>2076.3</ele>
        <time>2021-06-14T10:13:36.997Z</time>
      </trkpt>
      <trkpt lat="42.53432" lon="1.96364">
        <ele>2052.61</ele>
        <time>2021-06-14T10:13:46.586Z</time>
      </trkpt>
      <trkpt lat="42.5342" lon="1.9636">
        <ele>2066.32</ele>
        <time>2021-06-14T10:13:56.345Z</time>
      </trkpt>
      <trkpt lat="42.53413" lon="1.96358">
        <ele>2064.31</ele>
        <time>2021-06-14T10:14:06.000Z</time>
      </trkpt>
      <trkpt lat="42.53412" lon="1.96358">
        <ele>2076.3</ele>
        <time>2021-06-14T10:14:15.065Z</time>
      </trkpt>
      <trkpt lat="42.53399" lon="1.96347">
        <ele>2082.3</ele>
        <time>2021-06-14T10:14:24.587Z</time>
      </trkpt>
      <trkpt lat="42.53392" lon="1.96334">
        <ele>2087.43</ele>
        <time>2021-06-14T10:14:33.907Z</time>
      </trkpt>
      <trkpt lat="42.53377" lon="1.96324">
        <ele>2085.65</ele>
        <time>2021-06-14T10:14:43.447Z</time>
      </trkpt>
      <trkpt lat="42.53369" lon="1.9631">
        <ele>2076.18</ele>
        <time>2021-06-14T10:14:52.735Z</time>
      </trkpt>
      <trkpt lat="42.53369" lon="1.96312">
        <ele>2073.67</ele>
        <time>2021-06-14T10:15:08.397Z</time>
      </trkpt>
      <trkpt lat="42.53361" lon="1.96312">
        <ele>2080.08</ele>
        <time>2021-06-14T10:15:18.368Z</time>
      </trkpt>
      <trkpt lat="42.53355" lon="1.96297">
        <ele>2085.7</ele>
        <time>2021-06-14T10:15:28.667Z</time>
      </trkpt>
      <trkpt lat="42.53344" lon="1.96285">
        <ele>2089.88</ele>
        <time>2021-06-14T10:15:38.716Z</time>
      </trkpt>
      <trkpt lat="42.5333" lon="1.96279">
        <ele>2068.19</ele>
        <time>2021-06-14T10:15:48.445Z</time>
      </trkpt>
      <trkpt lat="42.53319" lon="1.96274">
        <ele>2079.78</ele>
        <time>2021-06-14T10:15:57.805Z</time>
      </trkpt>
      <trkpt lat="42.5331" lon="1.96269">
        <ele>2092.86</ele>
        <time>2021-06-14T10:16:08.176Z</time>
      </trkpt>
      <trkpt lat="42.5331" lon="1.9628">
        <ele>2063.08</ele>
        <time>2021-06-14T10:16:17.515Z</time>
      </trkpt>
      <trkpt lat="42.533" lon="1.96285">
        <ele>2072.98</ele>
        <time>2021-06-14T10:16:27.395Z</time>
      </trkpt>
      <trkpt lat="42.53289" lon="1.96288">
        <ele>2076.7</ele>
        <time>2021-06-14T10:16:37.000Z</time>
      </trkpt>
      <trkpt lat="42.53286" lon="1.96291">
        <ele>2059.48</ele>
        <time>2021-06-14T10:16:47.544Z</time>
      </trkpt>
      <trkpt lat="42.53288" lon="1.96287">
        <ele>2080.74</ele>
        <time>2021-06-14T10:16:57.000Z</time>
      </trkpt>
      <trkpt lat="42.53297" lon="1.96284">
        <ele>2080.42</ele>
        <time>2021-06-14T10:17:07.000Z</time>
      </trkpt>
      <trkpt lat="42.53296" lon="1.96286">
        <ele>2078.86</ele>
        <time>2021-06-14T10:17:17.000Z</time>
      </trkpt>
      <trkpt lat="42.53295" lon="1.96286">
        <ele>2077.65</ele>
        <time>2021-06-14T10:17:28.000Z</time>
      </trkpt>
      <trkpt lat="42.53296" lon="1.96286">
        <ele>2093.42</ele>
        <time>2021-06-14T10:17:46.000Z</time>
      </trkpt>
      <trkpt lat="42.53296" lon="1.96288">
        <ele>2088.13</ele>
        <time>2021-06-14T10:17:56.000Z</time>
      </trkpt>
      <trkpt lat="42.53294" lon="1.96287">
        <ele>2068.44</ele>
        <time>2021-06-14T10:18:06.000Z</time>
      </trkpt>
      <trkpt lat="42.53292" lon="1.96288">
        <ele>2081.46</ele>
        <time>2021-06-14T10:18:16.000Z</time>
      </trkpt>
      <trkpt lat="42.5329" lon="1.9629">
        <ele>2081.9</ele>
        <time>2021-06-14T10:18:26.000Z</time>
      </trkpt>
      <trkpt lat="42.53288" lon="1.96286">
        <ele>2098.72</ele>
        <time>2021-06-14T10:18:36.000Z</time>
      </trkpt>
      <trkpt lat="42.5329" lon="1.96284">
        <ele>2073.44</ele>
        <time>2021-06-14T10:18:46.000Z</time>
      </trkpt>
      <trkpt lat="42.53291" lon="1.96286">
        <ele>2070.82</ele>
        <time>2021-06-14T10:18:56.000Z</time>
      </trkpt>
      <trkpt lat="42.53286" lon="1.96291">
        <ele>2077.3</ele>
        <time>2021-06-14T10:19:06.000Z</time>
      </trkpt>
      <trkpt lat="42.53292" lon="1.96286">
        <ele>2082.35</ele>
        <time>2021-06-14T10:19:16.000Z</time>
      </trkpt>
      <trkpt lat="42.53294" lon="1.96284">
        <ele>2079.63</ele>
        <time>2021-06-14T10:19:26.000Z</time>
      </trkpt>
      <trkpt lat="42.53293" lon="1.96285">
        <ele>2072.01</ele>
        <time>2021-06-14T10:19:36.000Z</time>
      </trkpt>
      <trkpt lat="42.53292" lon="1.96284">
        <ele>2067.74</ele>
        <time>2021-06-14T10:19:50.000Z</time>
      </trkpt>
      <trkpt lat="42.53288" lon="1.96288">
        <ele>2073.27</ele>
        <time>2021-06-14T10:20:00.000Z</time>
      </trkpt>
      <trkpt lat="42.53292" lon="1.96286">
        <ele>2061.01</ele>
        <time>2021-06-14T10:20:10.000Z</time>
      </trkpt>
      <trkpt lat="42.53289" lon="1.96286">
        <ele>2065.63</ele>
        <time>2021-06-14T10:20:20.000Z</time>
      </trkpt>
      <trkpt lat="42.53288" lon="1.96285">
        <ele>2070.8</ele>
        <time>2021-06-14T10:20:30.000Z</time>
      </trkpt>
      <trkpt lat="42.53287" lon="1.96286">
        <ele>2056.38</ele>
        <time>2021-06-14T10:20:44.000Z</time>
      </trkpt>
      <trkpt lat="42.53286" lon="1.96287">
        <ele>2059.85</ele>
        <time>2021-06-14T10:20:54.000Z</time>
      </trkpt>
      <trkpt lat="42.53289" lon="1.96284">
        <ele>2051.8</ele>
        <time>2021-06-14T10:21:04.000Z</time>
      </trkpt>
      <trkpt lat="42.53288" lon="1.96287">
        <ele>2078.48</ele>
        <time>2021-06-14T10:21:14.000Z</time>
      </trkpt>
      <trkpt lat="42.53287" lon="1.96287">
        <ele>2079.25</ele>
        <time>2021-06-14T10:21:24.000Z</time>
      </trkpt>
      <trkpt lat="42.53287" lon="1.96285">
        <ele>2078.24</ele>
        <time>2021-06-14T10:21:34.000Z</time>
      </trkpt>
      <trkpt lat="42.53292" lon="1.96285">
        <ele>2077.41</ele>
        <time>2021-06-14T10:21:44.000Z</time>
      </trkpt>
      <trkpt lat="42.53293" lon="1.96283">
        <ele>2068.75</ele>
        <time>2021-06-14T10:21:54.000Z</time>
      </trkpt>
      <trkpt lat="42.53294" lon="1.96284">
        <ele>2070.87</ele>
        <time>2021-06-14T10:22:04.000Z</time>
      </trkpt>
      <trkpt lat="42.53294" lon="1.96286">
        <ele>2070.68</ele>
        <time>2021-06-14T10:22:18.000Z</time>
      </trkpt>
      <trkpt lat="42.53291" lon="1.96287">
        <ele>2070.92</ele>
        <time>2021-06-14T10:22:28.000Z</time>
      </trkpt>
      <trkpt lat="42.53291" lon="1.96285">
        <ele>2066.68</ele>
        <time>2021-06-14T10:22:41.000Z</time>
      </trkpt>
      <trkpt lat="42.5329" lon="1.96288">
        <ele>2068.82</ele>
        <time>2021-06-14T10:22:51.000Z</time>
      </trkpt>
      <trkpt lat="42.53286" lon="1.96292">
        <ele>2066.64</ele>
        <time>2021-06-14T10:23:01.000Z</time>
      </trkpt>
      <trkpt lat="42.53287" lon="1.96291">
        <ele>2060.33</ele>
        <time>2021-06-14T10:23:11.000Z</time>
      </trkpt>
      <trkpt lat="42.53288" lon="1.96288">
        <ele>2073.45</ele>
        <time>2021-06-14T10:23:21.000Z</time>
      </trkpt>
      <trkpt lat="42.53286" lon="1.96289">
        <ele>2079.62</ele>
        <time>2021-06-14T10:23:31.000Z</time>
      </trkpt>
      <trkpt lat="42.53285" lon="1.96287">
        <ele>2067.48</ele>
        <time>2021-06-14T10:23:41.000Z</time>
      </trkpt>
      <trkpt lat="42.53288" lon="1.96286">
        <ele>2061.48</ele>
        <time>2021-06-14T10:23:51.000Z</time>
      </trkpt>
      <trkpt lat="42.53287" lon="1.96288">
        <ele>2074.91</ele>
        <time>2021-06-14T10:24:01.000Z</time>
      </trkpt>
      <trkpt lat="42.53291" lon="1.96286">
        <ele>2074.45</ele>
        <time>2021-06-14T10:24:11.000Z</time>
      </trkpt>
      <trkpt lat="42.5329" lon="1.9629">
        <ele>2058.17</ele>
        <time>2021-06-14T10:24:21.000Z</time>
      </trkpt>
      <trkpt lat="42.53285" lon="1.96289">
        <ele>2058.2</ele>
        <time>2021-06-14T10:24:31.000Z</time>
      </trkpt>
      <trkpt lat="42.53288" lon="1.9629">
        <ele>2049.73</ele>
        <time>2021-06-14T10:24:41.000Z</time>
      </trkpt>
      <trkpt lat="42.53288" lon="1.96287">
        <ele>2066.91</ele>
        <time>2021-06-14T10:24:51.000Z</time>
      </trkpt>
      <trkpt lat="42.53289" lon="1.96287">
        <ele>2070.13</ele>
        <time>2021-06-14T10:25:01.000Z</time>
      </trkpt>
      <trkpt lat="42.53292" lon="1.96288">
        <ele>2077.05</ele>
        <time>2021-06-14T10:25:11.000Z</time>
      </trkpt>
      <trkpt lat="42.53292" lon="1.96286">
        <ele>2059.52</ele>
        <time>2021-06-14T10:25:21.000Z</time>
      </trkpt>
      <trkpt lat="42.53292" lon="1.96283">
        <ele>2068.46</ele>
        <time>2021-06-14T10:25:31.000Z</time>
      </trkpt>
      <trkpt lat="42.53291" lon="1.96284">
        <ele>2064.4</ele>
        <time>2021-06-14T10:25:43.000Z</time>
      </trkpt>
      <trkpt lat="42.53286" lon="1.96285">
        <ele>2064.14</ele>
        <time>2021-06-14T10:25:53.000Z</time>
      </trkpt>
      <trkpt lat="42.53289" lon="1.96285">
        <ele>2079.77</ele>
        <time>2021-06-14T10:26:03.000Z</time>
      </trkpt>
      <trkpt lat="42.53294" lon="1.96282">
        <ele>2066.49</ele>
        <time>2021-06-14T10:26:13.000Z</time>
      </trkpt>
      <trkpt lat="42.53295" lon="1.9628">
        <ele>2050.02</ele>
        <time>2021-06-14T10:26:23.000Z</time>
      </trkpt>
      <trkpt lat="42.53293" lon="1.96281">
        <ele>2073.13</ele>
        <time>2021-06-14T10:26:33.000Z</time>
      </trkpt>
      <trkpt lat="42.53296" lon="1.96281">
        <ele>2078.06</ele>
        <time>2021-06-14T10:26:43.000Z</time>
      </trkpt>
      <trkpt lat="42.53298" lon="1.96281">
        <ele>2070.79</ele>
        <time>2021-06-14T10:26:53.000Z</time>
      </trkpt>
      <trkpt lat="42.53297" lon="1.96284">
        <ele>2058.05</ele>
        <time>2021-06-14T10:27:03.000Z</time>
      </trkpt>
      <trkpt lat="42.53297" lon="1.96281">
        <ele>2067.67</ele>
        <time>2021-06-14T10:27:13.000Z</time>
      </trkpt>
      <trkpt lat="42.53296" lon="1.96283">
        <ele>2085.75</ele>
        <time>2021-06-14T10:27:23.000Z</time>
      </trkpt>
      <trkpt lat="42.53293" lon="1.96281">
        <ele>2075.2</ele>
        <time>2021-06-14T10:27:33.000Z</time>
      </trkpt>
      <trkpt lat="42.53296" lon="1.9628">
        <ele>2057.8</ele>
        <time>2021-06-14T10:27:43.000Z</time>
      </trkpt>
      <trkpt lat="42.53293" lon="1.96284">
        <ele>2061.03</ele>
        <time>2021-06-14T10:27:53.000Z</time>
      </trkpt>
      <trkpt lat="42.53292" lon="1.9629">
        <ele>2074.07</ele>
        <time>2021-06-14T10:28:03.000Z</time>
      </trkpt>
      <trkpt lat="42.53283" lon="1.96298">
        <ele>2058.7</ele>
        <time>2021-06-14T10:28:13.000Z</time>
      </trkpt>
      <trkpt lat="42.53281" lon="1.96302">
        <ele>2076.42</ele>
        <time>2021-06-14T10:28:23.000Z</time>
      </trkpt>
      <trkpt lat="42.53289" lon="1.96296">
        <ele>2050.2</ele>
        <time>2021-06-14T10:28:33.000Z</time>
      </trkpt>
      <trkpt lat="42.53286" lon="1.96295">
        <ele>2058.59</ele>
        <time>2021-06-14T10:28:43.000Z</time>
      </trkpt>
      <trkpt lat="42.53286" lon="1.96302">
        <ele>2061.83</ele>
        <time>2021-06-14T10:28:53.000Z</time>
      </trkpt>
      <trkpt lat="42.53289" lon="1.96293">
        <ele>2060.55</ele>
        <time>2021-06-14T10:29:03.000Z</time>
      </trkpt>
      <trkpt lat="42.53296" lon="1.96284">
        <ele>2089.9</ele>
        <time>2021-06-14T10:29:13.000Z</time>
      </trkpt>
      <trkpt lat="42.53292" lon="1.96286">
        <ele>2079.93</ele>
        <time>2021-06-14T10:29:23.000Z</time>
      </trkpt>
      <trkpt lat="42.5329" lon="1.96288">
        <ele>2067.11</ele>
        <time>2021-06-14T10:29:33.000Z</time>
      </trkpt>
      <trkpt lat="42.53289" lon="1.96289">
        <ele>2062.63</ele>
        <time>2021-06-14T10:29:43.000Z</time>
      </trkpt>
      <trkpt lat="42.53287" lon="1.96288">
        <ele>2059.56</ele>
        <time>2021-06-14T10:29:53.000Z</time>
      </trkpt>
      <trkpt lat="42.53289" lon="1.9629">
        <ele>2064.45</ele>
        <time>2021-06-14T10:30:03.000Z</time>
      </trkpt>
      <trkpt lat="42.53295" lon="1.96283">
        <ele>2062.79</ele>
        <time>2021-06-14T10:30:13.000Z</time>
      </trkpt>
      <trkpt lat="42.53295" lon="1.96288">
        <ele>2076.12</ele>
        <time>2021-06-14T10:30:23.000Z</time>
      </trkpt>
      <trkpt lat="42.53293" lon="1.9629">
        <ele>2071.96</ele>
        <time>2021-06-14T10:30:33.000Z</time>
      </trkpt>
      <trkpt lat="42.53291" lon="1.96291">
        <ele>2087.39</ele>
        <time>2021-06-14T10:30:43.000Z</time>
      </trkpt>
      <trkpt lat="42.53291" lon="1.9629">
        <ele>2068.38</ele>
        <time>2021-06-14T10:30:53.000Z</time>
      </trkpt>
      <trkpt lat="42.53292" lon="1.96289">
        <ele>2064.63</ele>
        <time>2021-06-14T10:31:03.000Z</time>
      </trkpt>
      <trkpt lat="42.53294" lon="1.96289">
        <ele>2069.01</ele>
        <time>2021-06-14T10:31:13.000Z</time>
      </trkpt>
      <trkpt lat="42.53294" lon="1.96288">
        <ele>2082.62</ele>
        <time>2021-06-14T10:31:26.000Z</time>
      </trkpt>
      <trkpt lat="42.53318" lon="1.96286">
        <ele>2025.34</ele>
        <time>2021-06-14T10:31:53.000Z</time>
      </trkpt>
      <trkpt lat="42.53309" lon="1.9628">
        <ele>2020.15</ele>
        <time>2021-06-14T10:32:03.000Z</time>
      </trkpt>
      <trkpt lat="42.53308" lon="1.96281">
        <ele>2035.93</ele>
        <time>2021-06-14T10:32:16.000Z</time>
      </trkpt>
      <trkpt lat="42.53303" lon="1.96279">
        <ele>2025.47</ele>
        <time>2021-06-14T10:32:26.000Z</time>
      </trkpt>
      <trkpt lat="42.533" lon="1.96283">
        <ele>2028.92</ele>
        <time>2021-06-14T10:32:36.000Z</time>
      </trkpt>
      <trkpt lat="42.53296" lon="1.96289">
        <ele>2038.7</ele>
        <time>2021-06-14T10:32:46.000Z</time>
      </trkpt>
      <trkpt lat="42.53296" lon="1.96296">
        <ele>2030.23</ele>
        <time>2021-06-14T10:32:56.000Z</time>
      </trkpt>
      <trkpt lat="42.53297" lon="1.96295">
        <ele>2032.2</ele>
        <time>2021-06-14T10:33:06.000Z</time>
      </trkpt>
      <trkpt lat="42.53296" lon="1.9629">
        <ele>2050.81</ele>
        <time>2021-06-14T10:33:16.000Z</time>
      </trkpt>
      <trkpt lat="42.53294" lon="1.96292">
        <ele>2060.1</ele>
        <time>2021-06-14T10:33:26.000Z</time>
      </trkpt>
      <trkpt lat="42.53294" lon="1.9629">
        <ele>2055.81</ele>
        <time>2021-06-14T10:33:36.000Z</time>
      </trkpt>
      <trkpt lat="42.53292" lon="1.96292">
        <ele>2060.71</ele>
        <time>2021-06-14T10:33:46.000Z</time>
      </trkpt>
      <trkpt lat="42.53292" lon="1.9629">
        <ele>2051.02</ele>
        <time>2021-06-14T10:33:56.000Z</time>
      </trkpt>
      <trkpt lat="42.53292" lon="1.96296">
        <ele>2071.99</ele>
        <time>2021-06-14T10:34:06.000Z</time>
      </trkpt>
      <trkpt lat="42.53293" lon="1.96298">
        <ele>2053.92</ele>
        <time>2021-06-14T10:34:16.000Z</time>
      </trkpt>
      <trkpt lat="42.53301" lon="1.96298">
        <ele>2048.93</ele>
        <time>2021-06-14T10:34:26.000Z</time>
      </trkpt>
      <trkpt lat="42.53302" lon="1.96296">
        <ele>2071.24</ele>
        <time>2021-06-14T10:34:36.000Z</time>
      </trkpt>
      <trkpt lat="42.53302" lon="1.96292">
        <ele>2055.89</ele>
        <time>2021-06-14T10:34:46.000Z</time>
      </trkpt>
      <trkpt lat="42.53305" lon="1.96287">
        <ele>2055.26</ele>
        <time>2021-06-14T10:34:56.000Z</time>
      </trkpt>
      <trkpt lat="42.53305" lon="1.96284">
        <ele>2051.97</ele>
        <time>2021-06-14T10:35:06.000Z</time>
      </trkpt>
      <trkpt lat="42.53301" lon="1.96283">
        <ele>2047.07</ele>
        <time>2021-06-14T10:35:16.000Z</time>
      </trkpt>
      <trkpt lat="42.53297" lon="1.9628">
        <ele>2064.75</ele>
        <time>2021-06-14T10:35:26.000Z</time>
      </trkpt>
      <trkpt lat="42.53295" lon="1.96278">
        <ele>2058.09</ele>
        <time>2021-06-14T10:35:36.000Z</time>
      </trkpt>
      <trkpt lat="42.53294" lon="1.96278">
        <ele>2074.84</ele>
        <time>2021-06-14T10:35:46.000Z</time>
      </trkpt>
      <trkpt lat="42.53291" lon="1.96282">
        <ele>2045.89</ele>
        <time>2021-06-14T10:35:56.000Z</time>
      </trkpt>
      <trkpt lat="42.53289" lon="1.96284">
        <ele>2054.66</ele>
        <time>2021-06-14T10:36:06.000Z</time>
      </trkpt>
      <trkpt lat="42.53294" lon="1.9628">
        <ele>2063.27</ele>
        <time>2021-06-14T10:36:16.000Z</time>
      </trkpt>
      <trkpt lat="42.53292" lon="1.96283">
        <ele>2064.69</ele>
        <time>2021-06-14T10:36:26.000Z</time>
      </trkpt>
      <trkpt lat="42.53298" lon="1.96282">
        <ele>2062.73</ele>
        <time>2021-06-14T10:36:36.000Z</time>
      </trkpt>
      <trkpt lat="42.53295" lon="1.96281">
        <ele>2070.36</ele>
        <time>2021-06-14T10:36:46.000Z</time>
      </trkpt>
      <trkpt lat="42.5329" lon="1.9629">
        <ele>2050.62</ele>
        <time>2021-06-14T10:36:56.000Z</time>
      </trkpt>
      <trkpt lat="42.53287" lon="1.96291">
        <ele>2058.73</ele>
        <time>2021-06-14T10:37:06.000Z</time>
      </trkpt>
      <trkpt lat="42.53284" lon="1.96292">
        <ele>2061.57</ele>
        <time>2021-06-14T10:37:16.000Z</time>
      </trkpt>
      <trkpt lat="42.53286" lon="1.96291">
        <ele>2045.65</ele>
        <time>2021-06-14T10:37:26.000Z</time>
      </trkpt>
      <trkpt lat="42.53288" lon="1.9629">
        <ele>2070.45</ele>
        <time>2021-06-14T10:37:36.000Z</time>
      </trkpt>
      <trkpt lat="42.53288" lon="1.96288">
        <ele>2064.13</ele>
        <time>2021-06-14T10:37:46.000Z</time>
      </trkpt>
      <trkpt lat="42.53289" lon="1.96286">
        <ele>2074.13</ele>
        <time>2021-06-14T10:37:56.000Z</time>
      </trkpt>
      <trkpt lat="42.53288" lon="1.96286">
        <ele>2069.84</ele>
        <time>2021-06-14T10:38:23.000Z</time>
      </trkpt>
      <trkpt lat="42.53288" lon="1.96288">
        <ele>2072.78</ele>
        <time>2021-06-14T10:38:33.000Z</time>
      </trkpt>
      <trkpt lat="42.53288" lon="1.96292">
        <ele>2068.19</ele>
        <time>2021-06-14T10:38:43.000Z</time>
      </trkpt>
      <trkpt lat="42.53292" lon="1.96285">
        <ele>2085.87</ele>
        <time>2021-06-14T10:38:53.000Z</time>
      </trkpt>
      <trkpt lat="42.53291" lon="1.96288">
        <ele>2082.18</ele>
        <time>2021-06-14T10:39:03.000Z</time>
      </trkpt>
      <trkpt lat="42.53288" lon="1.96289">
        <ele>2067.25</ele>
        <time>2021-06-14T10:39:13.000Z</time>
      </trkpt>
      <trkpt lat="42.53289" lon="1.96289">
        <ele>2072.72</ele>
        <time>2021-06-14T10:39:23.000Z</time>
      </trkpt>
      <trkpt lat="42.53286" lon="1.96289">
        <ele>2072.44</ele>
        <time>2021-06-14T10:39:33.000Z</time>
      </trkpt>
      <trkpt lat="42.53288" lon="1.96287">
        <ele>2071.38</ele>
        <time>2021-06-14T10:39:43.000Z</time>
      </trkpt>
      <trkpt lat="42.53289" lon="1.96287">
        <ele>2063.02</ele>
        <time>2021-06-14T10:39:59.000Z</time>
      </trkpt>
      <trkpt lat="42.53285" lon="1.96288">
        <ele>2074.91</ele>
        <time>2021-06-14T10:40:09.000Z</time>
      </trkpt>
      <trkpt lat="42.53287" lon="1.96288">
        <ele>2065.68</ele>
        <time>2021-06-14T10:40:20.000Z</time>
      </trkpt>
      <trkpt lat="42.53287" lon="1.96287">
        <ele>2070.2</ele>
        <time>2021-06-14T10:40:30.000Z</time>
      </trkpt>
      <trkpt lat="42.53288" lon="1.96289">
        <ele>2069.09</ele>
        <time>2021-06-14T10:40:40.000Z</time>
      </trkpt>
      <trkpt lat="42.53288" lon="1.96289">
        <ele>2079.68</ele>
        <time>2021-06-14T10:40:58.000Z</time>
      </trkpt>
      <trkpt lat="42.5329" lon="1.96289">
        <ele>2056.86</ele>
        <time>2021-06-14T10:41:08.000Z</time>
      </trkpt>
      <trkpt lat="42.53292" lon="1.9629">
        <ele>2053.56</ele>
        <time>2021-06-14T10:41:19.000Z</time>
      </trkpt>
      <trkpt lat="42.53292" lon="1.96288">
        <ele>2064.02</ele>
        <time>2021-06-14T10:41:29.000Z</time>
      </trkpt>
      <trkpt lat="42.53292" lon="1.96287">
        <ele>2069.9</ele>
        <time>2021-06-14T10:41:40.000Z</time>
      </trkpt>
      <trkpt lat="42.53291" lon="1.96286">
        <ele>2063.58</ele>
        <time>2021-06-14T10:41:50.000Z</time>
      </trkpt>
      <trkpt lat="42.5329" lon="1.96288">
        <ele>2078.53</ele>
        <time>2021-06-14T10:42:00.000Z</time>
      </trkpt>
      <trkpt lat="42.53291" lon="1.96292">
        <ele>2074.74</ele>
        <time>2021-06-14T10:42:10.000Z</time>
      </trkpt>
      <trkpt lat="42.53292" lon="1.96293">
        <ele>2074.55</ele>
        <time>2021-06-14T10:42:20.000Z</time>
      </trkpt>
      <trkpt lat="42.53293" lon="1.9629">
        <ele>2068.01</ele>
        <time>2021-06-14T10:42:30.000Z</time>
      </trkpt>
      <trkpt lat="42.5329" lon="1.96288">
        <ele>2066.22</ele>
        <time>2021-06-14T10:42:40.000Z</time>
      </trkpt>
      <trkpt lat="42.53289" lon="1.96285">
        <ele>2057.21</ele>
        <time>2021-06-14T10:42:50.000Z</time>
      </trkpt>
      <trkpt lat="42.53288" lon="1.96283">
        <ele>2080.05</ele>
        <time>2021-06-14T10:43:00.000Z</time>
      </trkpt>
      <trkpt lat="42.53289" lon="1.96284">
        <ele>2083.91</ele>
        <time>2021-06-14T10:43:21.000Z</time>
      </trkpt>
      <trkpt lat="42.5329" lon="1.96283">
        <ele>2049.57</ele>
        <time>2021-06-14T10:43:31.000Z</time>
      </trkpt>
      <trkpt lat="42.5329" lon="1.96281">
        <ele>2079.58</ele>
        <time>2021-06-14T10:43:41.000Z</time>
      </trkpt>
      <trkpt lat="42.5329" lon="1.9628">
        <ele>2053.25</ele>
        <time>2021-06-14T10:43:58.000Z</time>
      </trkpt>
      <trkpt lat="42.53291" lon="1.96286">
        <ele>2059.26</ele>
        <time>2021-06-14T10:44:08.000Z</time>
      </trkpt>
      <trkpt lat="42.5329" lon="1.96288">
        <ele>2071.78</ele>
        <time>2021-06-14T10:44:18.000Z</time>
      </trkpt>
      <trkpt lat="42.5328" lon="1.96273">
        <ele>2058.21</ele>
        <time>2021-06-14T10:44:28.000Z</time>
      </trkpt>
      <trkpt lat="42.53283" lon="1.96283">
        <ele>2075.25</ele>
        <time>2021-06-14T10:44:38.000Z</time>
      </trkpt>
      <trkpt lat="42.53283" lon="1.96281">
        <ele>2056.26</ele>
        <time>2021-06-14T10:44:48.000Z</time>
      </trkpt>
      <trkpt lat="42.53288" lon="1.96277">
        <ele>2066.44</ele>
        <time>2021-06-14T10:44:58.000Z</time>
      </trkpt>
      <trkpt lat="42.53285" lon="1.96282">
        <ele>2070.33</ele>
        <time>2021-06-14T10:45:08.000Z</time>
      </trkpt>
      <trkpt lat="42.5329" lon="1.96281">
        <ele>2082.73</ele>
        <time>2021-06-14T10:45:18.000Z</time>
      </trkpt>
      <trkpt lat="42.53291" lon="1.96279">
        <ele>2091.94</ele>
        <time>2021-06-14T10:45:29.000Z</time>
      </trkpt>
      <trkpt lat="42.53291" lon="1.96281">
        <ele>2083</ele>
        <time>2021-06-14T10:45:39.000Z</time>
      </trkpt>
      <trkpt lat="42.53291" lon="1.9628">
        <ele>2077.33</ele>
        <time>2021-06-14T10:45:56.000Z</time>
      </trkpt>
      <trkpt lat="42.53294" lon="1.96283">
        <ele>2079.13</ele>
        <time>2021-06-14T10:46:05.425Z</time>
      </trkpt>
      <trkpt lat="42.533" lon="1.96282">
        <ele>2069.81</ele>
        <time>2021-06-14T10:46:15.000Z</time>
      </trkpt>
      <trkpt lat="42.53308" lon="1.96273">
        <ele>2058.63</ele>
        <time>2021-06-14T10:46:24.644Z</time>
      </trkpt>
      <trkpt lat="42.53308" lon="1.96261">
        <ele>2074.43</ele>
        <time>2021-06-14T10:46:33.935Z</time>
      </trkpt>
      <trkpt lat="42.53316" lon="1.96256">
        <ele>2070.07</ele>
        <time>2021-06-14T10:46:43.876Z</time>
      </trkpt>
      <trkpt lat="42.53326" lon="1.96251">
        <ele>2073.91</ele>
        <time>2021-06-14T10:46:53.765Z</time>
      </trkpt>
      <trkpt lat="42.53333" lon="1.96246">
        <ele>2058.73</ele>
        <time>2021-06-14T10:47:02.816Z</time>
      </trkpt>
      <trkpt lat="42.5334" lon="1.96237">
        <ele>2069.32</ele>
        <time>2021-06-14T10:47:13.063Z</time>
      </trkpt>
      <trkpt lat="42.53346" lon="1.9623">
        <ele>2076.63</ele>
        <time>2021-06-14T10:47:22.837Z</time>
      </trkpt>
      <trkpt lat="42.53355" lon="1.96221">
        <ele>2064.47</ele>
        <time>2021-06-14T10:47:32.685Z</time>
      </trkpt>
      <trkpt lat="42.53356" lon="1.96207">
        <ele>2078.25</ele>
        <time>2021-06-14T10:47:42.505Z</time>
      </trkpt>
      <trkpt lat="42.53359" lon="1.96192">
        <ele>2091.58</ele>
        <time>2021-06-14T10:47:52.000Z</time>
      </trkpt>
      <trkpt lat="42.53358" lon="1.96179">
        <ele>2092.85</ele>
        <time>2021-06-14T10:48:01.587Z</time>
      </trkpt>
      <trkpt lat="42.53358" lon="1.96164">
        <ele>2086.73</ele>
        <time>2021-06-14T10:48:10.816Z</time>
      </trkpt>
      <trkpt lat="42.53358" lon="1.96146">
        <ele>2087</ele>
        <time>2021-06-14T10:48:20.774Z</time>
      </trkpt>
      <trkpt lat="42.53354" lon="1.96126">
        <ele>2098.47</ele>
        <time>2021-06-14T10:48:31.156Z</time>
      </trkpt>
      <trkpt lat="42.53356" lon="1.96106">
        <ele>2079.58</ele>
        <time>2021-06-14T10:48:40.385Z</time>
      </trkpt>
      <trkpt lat="42.53363" lon="1.96089">
        <ele>2087.16</ele>
        <time>2021-06-14T10:48:49.656Z</time>
      </trkpt>
      <trkpt lat="42.5336" lon="1.96074">
        <ele>2093.92</ele>
        <time>2021-06-14T10:48:58.825Z</time>
      </trkpt>
      <trkpt lat="42.5335" lon="1.9606">
        <ele>2075.91</ele>
        <time>2021-06-14T10:49:08.073Z</time>
      </trkpt>
      <trkpt lat="42.53343" lon="1.96046">
        <ele>2072.55</ele>
        <time>2021-06-14T10:49:17.354Z</time>
      </trkpt>
      <trkpt lat="42.53338" lon="1.9603">
        <ele>2085.76</ele>
        <time>2021-06-14T10:49:26.634Z</time>
      </trkpt>
      <trkpt lat="42.53334" lon="1.96014">
        <ele>2094.46</ele>
        <time>2021-06-14T10:49:35.749Z</time>
      </trkpt>
      <trkpt lat="42.5333" lon="1.95996">
        <ele>2090.45</ele>
        <time>2021-06-14T10:49:45.554Z</time>
      </trkpt>
      <trkpt lat="42.53318" lon="1.95976">
        <ele>2098.76</ele>
        <time>2021-06-14T10:49:55.507Z</time>
      </trkpt>
      <trkpt lat="42.53308" lon="1.95958">
        <ele>2080.94</ele>
        <time>2021-06-14T10:50:06.074Z</time>
      </trkpt>
      <trkpt lat="42.53299" lon="1.95939">
        <ele>2083.43</ele>
        <time>2021-06-14T10:50:15.638Z</time>
      </trkpt>
      <trkpt lat="42.53287" lon="1.95926">
        <ele>2089.42</ele>
        <time>2021-06-14T10:50:25.455Z</time>
      </trkpt>
      <trkpt lat="42.53275" lon="1.95913">
        <ele>2078.57</ele>
        <time>2021-06-14T10:50:35.454Z</time>
      </trkpt>
      <trkpt lat="42.53264" lon="1.959">
        <ele>2104.26</ele>
        <time>2021-06-14T10:50:45.073Z</time>
      </trkpt>
      <trkpt lat="42.53249" lon="1.95894">
        <ele>2085.2</ele>
        <time>2021-06-14T10:50:54.106Z</time>
      </trkpt>
      <trkpt lat="42.53229" lon="1.95894">
        <ele>2090.29</ele>
        <time>2021-06-14T10:51:04.000Z</time>
      </trkpt>
      <trkpt lat="42.53217" lon="1.95882">
        <ele>2083</ele>
        <time>2021-06-14T10:51:13.935Z</time>
      </trkpt>
      <trkpt lat="42.53208" lon="1.95873">
        <ele>2092.76</ele>
        <time>2021-06-14T10:51:23.316Z</time>
      </trkpt>
      <trkpt lat="42.53199" lon="1.95859">
        <ele>2082</ele>
        <time>2021-06-14T10:51:33.062Z</time>
      </trkpt>
      <trkpt lat="42.53184" lon="1.95851">
        <ele>2084.21</ele>
        <time>2021-06-14T10:51:43.065Z</time>
      </trkpt>
      <trkpt lat="42.53168" lon="1.9584">
        <ele>2109.26</ele>
        <time>2021-06-14T10:51:53.460Z</time>
      </trkpt>
      <trkpt lat="42.53153" lon="1.95833">
        <ele>2081.05</ele>
        <time>2021-06-14T10:52:02.825Z</time>
      </trkpt>
      <trkpt lat="42.53129" lon="1.95827">
        <ele>2078.25</ele>
        <time>2021-06-14T10:52:12.000Z</time>
      </trkpt>
      <trkpt lat="42.53108" lon="1.9582">
        <ele>2100.59</ele>
        <time>2021-06-14T10:52:22.150Z</time>
      </trkpt>
      <trkpt lat="42.53102" lon="1.95806">
        <ele>2093.61</ele>
        <time>2021-06-14T10:52:31.507Z</time>
      </trkpt>
      <trkpt lat="42.53096" lon="1.95795">
        <ele>2083.7</ele>
        <time>2021-06-14T10:52:40.756Z</time>
      </trkpt>
      <trkpt lat="42.53085" lon="1.95787">
        <ele>2091.42</ele>
        <time>2021-06-14T10:52:50.605Z</time>
      </trkpt>
      <trkpt lat="42.53073" lon="1.95778">
        <ele>2095.67</ele>
        <time>2021-06-14T10:53:01.078Z</time>
      </trkpt>
      <trkpt lat="42.53065" lon="1.95771">
        <ele>2092.82</ele>
        <time>2021-06-14T10:53:11.075Z</time>
      </trkpt>
      <trkpt lat="42.53052" lon="1.95771">
        <ele>2076.31</ele>
        <time>2021-06-14T10:53:20.864Z</time>
      </trkpt>
      <trkpt lat="42.53038" lon="1.95752">
        <ele>2081.03</ele>
        <time>2021-06-14T10:53:30.367Z</time>
      </trkpt>
      <trkpt lat="42.53027" lon="1.95735">
        <ele>2082.73</ele>
        <time>2021-06-14T10:53:39.697Z</time>
      </trkpt>
      <trkpt lat="42.53011" lon="1.95721">
        <ele>2088.26</ele>
        <time>2021-06-14T10:53:49.000Z</time>
      </trkpt>
      <trkpt lat="42.53003" lon="1.95714">
        <ele>2083.29</ele>
        <time>2021-06-14T10:53:58.844Z</time>
      </trkpt>
      <trkpt lat="42.52992" lon="1.957">
        <ele>2068.42</ele>
        <time>2021-06-14T10:54:08.846Z</time>
      </trkpt>
      <trkpt lat="42.52982" lon="1.95689">
        <ele>2069.48</ele>
        <time>2021-06-14T10:54:18.106Z</time>
      </trkpt>
      <trkpt lat="42.52974" lon="1.95677">
        <ele>2059.1</ele>
        <time>2021-06-14T10:54:27.857Z</time>
      </trkpt>
      <trkpt lat="42.52964" lon="1.95679">
        <ele>2061.2</ele>
        <time>2021-06-14T10:54:37.000Z</time>
      </trkpt>
      <trkpt lat="42.52956" lon="1.95677">
        <ele>2057.77</ele>
        <time>2021-06-14T10:54:47.067Z</time>
      </trkpt>
      <trkpt lat="42.52945" lon="1.95644">
        <ele>2053.08</ele>
        <time>2021-06-14T10:54:56.436Z</time>
      </trkpt>
      <trkpt lat="42.5294" lon="1.95632">
        <ele>2072.79</ele>
        <time>2021-06-14T10:55:06.000Z</time>
      </trkpt>
      <trkpt lat="42.5293" lon="1.95617">
        <ele>2047.09</ele>
        <time>2021-06-14T10:55:16.000Z</time>
      </trkpt>
      <trkpt lat="42.52923" lon="1.95604">
        <ele>2059.01</ele>
        <time>2021-06-14T10:55:26.000Z</time>
      </trkpt>
      <trkpt lat="42.5293" lon="1.95602">
        <ele>2044.67</ele>
        <time>2021-06-14T10:55:36.000Z</time>
      </trkpt>
      <trkpt lat="42.52926" lon="1.95604">
        <ele>2055.46</ele>
        <time>2021-06-14T10:55:46.000Z</time>
      </trkpt>
      <trkpt lat="42.52925" lon="1.95604">
        <ele>2039.19</ele>
        <time>2021-06-14T10:56:00.000Z</time>
      </trkpt>
      <trkpt lat="42.52923" lon="1.95602">
        <ele>2047.25</ele>
        <time>2021-06-14T10:56:10.000Z</time>
      </trkpt>
      <trkpt lat="42.5292" lon="1.956">
        <ele>2039.9</ele>
        <time>2021-06-14T10:56:20.000Z</time>
      </trkpt>
      <trkpt lat="42.52918" lon="1.95603">
        <ele>2046.99</ele>
        <time>2021-06-14T10:56:30.000Z</time>
      </trkpt>
      <trkpt lat="42.52922" lon="1.95599">
        <ele>2040.77</ele>
        <time>2021-06-14T10:56:40.000Z</time>
      </trkpt>
      <trkpt lat="42.52915" lon="1.95577">
        <ele>2028.25</ele>
        <time>2021-06-14T10:56:50.000Z</time>
      </trkpt>
      <trkpt lat="42.52906" lon="1.95559">
        <ele>2045.26</ele>
        <time>2021-06-14T10:56:59.916Z</time>
      </trkpt>
      <trkpt lat="42.52901" lon="1.95538">
        <ele>2023.87</ele>
        <time>2021-06-14T10:57:09.585Z</time>
      </trkpt>
      <trkpt lat="42.529" lon="1.95511">
        <ele>2043.3</ele>
        <time>2021-06-14T10:57:20.148Z</time>
      </trkpt>
      <trkpt lat="42.52903" lon="1.95492">
        <ele>2035.26</ele>
        <time>2021-06-14T10:57:29.414Z</time>
      </trkpt>
      <trkpt lat="42.52902" lon="1.95476">
        <ele>2043.25</ele>
        <time>2021-06-14T10:57:39.000Z</time>
      </trkpt>
      <trkpt lat="42.52899" lon="1.95458">
        <ele>2036.06</ele>
        <time>2021-06-14T10:57:49.067Z</time>
      </trkpt>
      <trkpt lat="42.52899" lon="1.95436">
        <ele>2018.98</ele>
        <time>2021-06-14T10:57:58.595Z</time>
      </trkpt>
      <trkpt lat="42.52905" lon="1.95412">
        <ele>2029.42</ele>
        <time>2021-06-14T10:58:08.000Z</time>
      </trkpt>
      <trkpt lat="42.52908" lon="1.95398">
        <ele>2020.8</ele>
        <time>2021-06-14T10:58:17.651Z</time>
      </trkpt>
      <trkpt lat="42.52906" lon="1.95377">
        <ele>2020.96</ele>
        <time>2021-06-14T10:58:27.090Z</time>
      </trkpt>
      <trkpt lat="42.529" lon="1.95354">
        <ele>2039.07</ele>
        <time>2021-06-14T10:58:37.935Z</time>
      </trkpt>
      <trkpt lat="42.52892" lon="1.9534">
        <ele>2011.72</ele>
        <time>2021-06-14T10:58:47.467Z</time>
      </trkpt>
      <trkpt lat="42.52887" lon="1.95322">
        <ele>2017.96</ele>
        <time>2021-06-14T10:58:57.000Z</time>
      </trkpt>
      <trkpt lat="42.52883" lon="1.95324">
        <ele>2030.06</ele>
        <time>2021-06-14T10:59:07.000Z</time>
      </trkpt>
      <trkpt lat="42.52875" lon="1.9533">
        <ele>2028.84</ele>
        <time>2021-06-14T10:59:17.000Z</time>
      </trkpt>
      <trkpt lat="42.52876" lon="1.95331">
        <ele>2020.06</ele>
        <time>2021-06-14T10:59:26.577Z</time>
      </trkpt>
      <trkpt lat="42.52871" lon="1.95338">
        <ele>2011.21</ele>
        <time>2021-06-14T10:59:36.579Z</time>
      </trkpt>
      <trkpt lat="42.52865" lon="1.95356">
        <ele>2017.19</ele>
        <time>2021-06-14T10:59:46.000Z</time>
      </trkpt>
      <trkpt lat="42.52864" lon="1.95373">
        <ele>2011.83</ele>
        <time>2021-06-14T10:59:55.475Z</time>
      </trkpt>
      <trkpt lat="42.52857" lon="1.95392">
        <ele>2009.25</ele>
        <time>2021-06-14T11:00:06.081Z</time>
      </trkpt>
      <trkpt lat="42.52849" lon="1.95416">
        <ele>2015.24</ele>
        <time>2021-06-14T11:00:16.000Z</time>
      </trkpt>
      <trkpt lat="42.52846" lon="1.95431">
        <ele>2005.06</ele>
        <time>2021-06-14T11:00:25.686Z</time>
      </trkpt>
      <trkpt lat="42.52839" lon="1.95444">
        <ele>2009.8</ele>
        <time>2021-06-14T11:00:34.775Z</time>
      </trkpt>
      <trkpt lat="42.52832" lon="1.95448">
        <ele>1982.92</ele>
        <time>2021-06-14T11:00:44.000Z</time>
      </trkpt>
      <trkpt lat="42.52833" lon="1.9545">
        <ele>1988.95</ele>
        <time>2021-06-14T11:00:54.000Z</time>
      </trkpt>
      <trkpt lat="42.52838" lon="1.95445">
        <ele>1995.37</ele>
        <time>2021-06-14T11:01:04.000Z</time>
      </trkpt>
      <trkpt lat="42.52839" lon="1.95451">
        <ele>1995.86</ele>
        <time>2021-06-14T11:01:13.511Z</time>
      </trkpt>
      <trkpt lat="42.52824" lon="1.95465">
        <ele>2001.2</ele>
        <time>2021-06-14T11:01:23.670Z</time>
      </trkpt>
      <trkpt lat="42.52817" lon="1.95491">
        <ele>1994.92</ele>
        <time>2021-06-14T11:01:33.000Z</time>
      </trkpt>
      <trkpt lat="42.52808" lon="1.95506">
        <ele>1978.93</ele>
        <time>2021-06-14T11:01:42.744Z</time>
      </trkpt>
      <trkpt lat="42.52805" lon="1.95526">
        <ele>2008.32</ele>
        <time>2021-06-14T11:01:52.704Z</time>
      </trkpt>
      <trkpt lat="42.528" lon="1.95547">
        <ele>1997.72</ele>
        <time>2021-06-14T11:02:02.334Z</time>
      </trkpt>
      <trkpt lat="42.52801" lon="1.95567">
        <ele>1993.45</ele>
        <time>2021-06-14T11:02:11.815Z</time>
      </trkpt>
      <trkpt lat="42.52796" lon="1.95588">
        <ele>1997.66</ele>
        <time>2021-06-14T11:02:21.065Z</time>
      </trkpt>
      <trkpt lat="42.52794" lon="1.95609">
        <ele>2005.09</ele>
        <time>2021-06-14T11:02:30.755Z</time>
      </trkpt>
      <trkpt lat="42.52783" lon="1.95621">
        <ele>2007.3</ele>
        <time>2021-06-14T11:02:40.427Z</time>
      </trkpt>
      <trkpt lat="42.52781" lon="1.95647">
        <ele>1981.25</ele>
        <time>2021-06-14T11:02:50.416Z</time>
      </trkpt>
      <trkpt lat="42.5278" lon="1.95667">
        <ele>1987.94</ele>
        <time>2021-06-14T11:02:59.805Z</time>
      </trkpt>
      <trkpt lat="42.52776" lon="1.95683">
        <ele>1994.15</ele>
        <time>2021-06-14T11:03:09.625Z</time>
      </trkpt>
      <trkpt lat="42.52769" lon="1.95663">
        <ele>1980.97</ele>
        <time>2021-06-14T11:03:18.645Z</time>
      </trkpt>
      <trkpt lat="42.52768" lon="1.95641">
        <ele>1976.03</ele>
        <time>2021-06-14T11:03:28.000Z</time>
      </trkpt>
      <trkpt lat="42.52763" lon="1.95625">
        <ele>1997.93</ele>
        <time>2021-06-14T11:03:38.724Z</time>
      </trkpt>
      <trkpt lat="42.5276" lon="1.95604">
        <ele>1995.15</ele>
        <time>2021-06-14T11:03:48.120Z</time>
      </trkpt>
      <trkpt lat="42.52755" lon="1.95587">
        <ele>1966.67</ele>
        <time>2021-06-14T11:03:57.397Z</time>
      </trkpt>
      <trkpt lat="42.52749" lon="1.95569">
        <ele>1983.92</ele>
        <time>2021-06-14T11:04:06.797Z</time>
      </trkpt>
      <trkpt lat="42.52744" lon="1.95546">
        <ele>1975.74</ele>
        <time>2021-06-14T11:04:16.432Z</time>
      </trkpt>
      <trkpt lat="42.52738" lon="1.95526">
        <ele>1964.86</ele>
        <time>2021-06-14T11:04:25.466Z</time>
      </trkpt>
      <trkpt lat="42.52733" lon="1.95512">
        <ele>1975.79</ele>
        <time>2021-06-14T11:04:34.606Z</time>
      </trkpt>
      <trkpt lat="42.52732" lon="1.95494">
        <ele>1981.65</ele>
        <time>2021-06-14T11:04:44.567Z</time>
      </trkpt>
      <trkpt lat="42.52733" lon="1.95476">
        <ele>1963.36</ele>
        <time>2021-06-14T11:04:53.888Z</time>
      </trkpt>
      <trkpt lat="42.52739" lon="1.95456">
        <ele>1963.82</ele>
        <time>2021-06-14T11:05:03.683Z</time>
      </trkpt>
      <trkpt lat="42.52741" lon="1.95433">
        <ele>1970.15</ele>
        <time>2021-06-14T11:05:12.915Z</time>
      </trkpt>
      <trkpt lat="42.52739" lon="1.95418">
        <ele>1979.7</ele>
        <time>2021-06-14T11:05:22.386Z</time>
      </trkpt>
      <trkpt lat="42.52734" lon="1.95393">
        <ele>1969.17</ele>
        <time>2021-06-14T11:05:32.044Z</time>
      </trkpt>
      <trkpt lat="42.52733" lon="1.95373">
        <ele>1962</ele>
        <time>2021-06-14T11:05:41.066Z</time>
      </trkpt>
      <trkpt lat="42.52732" lon="1.95358">
        <ele>1975.3</ele>
        <time>2021-06-14T11:05:50.769Z</time>
      </trkpt>
      <trkpt lat="42.52728" lon="1.95338">
        <ele>1965.69</ele>
        <time>2021-06-14T11:06:00.920Z</time>
      </trkpt>
      <trkpt lat="42.52724" lon="1.95319">
        <ele>1951.38</ele>
        <time>2021-06-14T11:06:10.787Z</time>
      </trkpt>
      <trkpt lat="42.52728" lon="1.95294">
        <ele>1959.09</ele>
        <time>2021-06-14T11:06:20.488Z</time>
      </trkpt>
      <trkpt lat="42.52725" lon="1.95278">
        <ele>1968.33</ele>
        <time>2021-06-14T11:06:30.082Z</time>
      </trkpt>
      <trkpt lat="42.5272" lon="1.95261">
        <ele>1951.91</ele>
        <time>2021-06-14T11:06:39.346Z</time>
      </trkpt>
      <trkpt lat="42.52716" lon="1.95233">
        <ele>1938.81</ele>
        <time>2021-06-14T11:06:49.756Z</time>
      </trkpt>
      <trkpt lat="42.52707" lon="1.95217">
        <ele>1943.94</ele>
        <time>2021-06-14T11:06:59.616Z</time>
      </trkpt>
      <trkpt lat="42.52699" lon="1.95198">
        <ele>1943.71</ele>
        <time>2021-06-14T11:07:09.124Z</time>
      </trkpt>
      <trkpt lat="42.52684" lon="1.95167">
        <ele>1962.66</ele>
        <time>2021-06-14T11:07:18.649Z</time>
      </trkpt>
      <trkpt lat="42.52673" lon="1.95156">
        <ele>1939.03</ele>
        <time>2021-06-14T11:07:28.467Z</time>
      </trkpt>
      <trkpt lat="42.52663" lon="1.95143">
        <ele>1945.1</ele>
        <time>2021-06-14T11:07:37.747Z</time>
      </trkpt>
      <trkpt lat="42.52655" lon="1.95131">
        <ele>1935.58</ele>
        <time>2021-06-14T11:07:47.365Z</time>
      </trkpt>
      <trkpt lat="42.52648" lon="1.95115">
        <ele>1948.7</ele>
        <time>2021-06-14T11:07:56.728Z</time>
      </trkpt>
      <trkpt lat="42.52637" lon="1.95101">
        <ele>1951.68</ele>
        <time>2021-06-14T11:08:06.688Z</time>
      </trkpt>
      <trkpt lat="42.52627" lon="1.95085">
        <ele>1940.32</ele>
        <time>2021-06-14T11:08:16.855Z</time>
      </trkpt>
      <trkpt lat="42.52617" lon="1.95076">
        <ele>1936.7</ele>
        <time>2021-06-14T11:08:26.516Z</time>
      </trkpt>
      <trkpt lat="42.52601" lon="1.95064">
        <ele>1955.86</ele>
        <time>2021-06-14T11:08:36.000Z</time>
      </trkpt>
      <trkpt lat="42.52596" lon="1.9505">
        <ele>1944.06</ele>
        <time>2021-06-14T11:08:45.135Z</time>
      </trkpt>
      <trkpt lat="42.52585" lon="1.95042">
        <ele>1934.09</ele>
        <time>2021-06-14T11:08:56.127Z</time>
      </trkpt>
      <trkpt lat="42.52571" lon="1.95052">
        <ele>1931.35</ele>
        <time>2021-06-14T11:09:06.139Z</time>
      </trkpt>
      <trkpt lat="42.52562" lon="1.95067">
        <ele>1936.73</ele>
        <time>2021-06-14T11:09:15.933Z</time>
      </trkpt>
      <trkpt lat="42.52555" lon="1.95086">
        <ele>1928.94</ele>
        <time>2021-06-14T11:09:26.126Z</time>
      </trkpt>
      <trkpt lat="42.52543" lon="1.95102">
        <ele>1935.21</ele>
        <time>2021-06-14T11:09:36.724Z</time>
      </trkpt>
      <trkpt lat="42.52535" lon="1.9512">
        <ele>1940.98</ele>
        <time>2021-06-14T11:09:46.522Z</time>
      </trkpt>
      <trkpt lat="42.52529" lon="1.9514">
        <ele>1935.88</ele>
        <time>2021-06-14T11:09:56.487Z</time>
      </trkpt>
      <trkpt lat="42.52519" lon="1.95159">
        <ele>1932.79</ele>
        <time>2021-06-14T11:10:05.878Z</time>
      </trkpt>
      <trkpt lat="42.5251" lon="1.95172">
        <ele>1946.29</ele>
        <time>2021-06-14T11:10:15.073Z</time>
      </trkpt>
      <trkpt lat="42.52499" lon="1.9519">
        <ele>1932.42</ele>
        <time>2021-06-14T11:10:24.545Z</time>
      </trkpt>
      <trkpt lat="42.52491" lon="1.95212">
        <ele>1946.5</ele>
        <time>2021-06-14T11:10:34.419Z</time>
      </trkpt>
      <trkpt lat="42.52484" lon="1.95224">
        <ele>1940.26</ele>
        <time>2021-06-14T11:10:43.707Z</time>
      </trkpt>
      <trkpt lat="42.52478" lon="1.95232">
        <ele>1920.46</ele>
        <time>2021-06-14T11:10:52.726Z</time>
      </trkpt>
      <trkpt lat="42.52464" lon="1.95241">
        <ele>1936.28</ele>
        <time>2021-06-14T11:11:02.000Z</time>
      </trkpt>
      <trkpt lat="42.52455" lon="1.95256">
        <ele>1937.9</ele>
        <time>2021-06-14T11:11:11.886Z</time>
      </trkpt>
      <trkpt lat="42.5244" lon="1.95263">
        <ele>1922.86</ele>
        <time>2021-06-14T11:11:21.133Z</time>
      </trkpt>
      <trkpt lat="42.52426" lon="1.95268">
        <ele>1935.79</ele>
        <time>2021-06-14T11:11:30.658Z</time>
      </trkpt>
      <trkpt lat="42.52408" lon="1.95268">
        <ele>1920.99</ele>
        <time>2021-06-14T11:11:40.794Z</time>
      </trkpt>
      <trkpt lat="42.52394" lon="1.95271">
        <ele>1915.72</ele>
        <time>2021-06-14T11:11:50.218Z</time>
      </trkpt>
      <trkpt lat="42.52383" lon="1.95277">
        <ele>1923.98</ele>
        <time>2021-06-14T11:11:59.726Z</time>
      </trkpt>
      <trkpt lat="42.52365" lon="1.95285">
        <ele>1908.77</ele>
        <time>2021-06-14T11:12:09.000Z</time>
      </trkpt>
      <trkpt lat="42.52353" lon="1.95295">
        <ele>1908.61</ele>
        <time>2021-06-14T11:12:18.595Z</time>
      </trkpt>
      <trkpt lat="42.52336" lon="1.95297">
        <ele>1916.33</ele>
        <time>2021-06-14T11:12:28.000Z</time>
      </trkpt>
      <trkpt lat="42.52322" lon="1.95304">
        <ele>1911.49</ele>
        <time>2021-06-14T11:12:37.947Z</time>
      </trkpt>
      <trkpt lat="42.5231" lon="1.95318">
        <ele>1910.56</ele>
        <time>2021-06-14T11:12:47.245Z</time>
      </trkpt>
      <trkpt lat="42.52301" lon="1.95333">
        <ele>1907.12</ele>
        <time>2021-06-14T11:12:56.728Z</time>
      </trkpt>
      <trkpt lat="42.52296" lon="1.9535">
        <ele>1896.86</ele>
        <time>2021-06-14T11:13:06.271Z</time>
      </trkpt>
      <trkpt lat="42.52283" lon="1.95363">
        <ele>1898.25</ele>
        <time>2021-06-14T11:13:15.936Z</time>
      </trkpt>
      <trkpt lat="42.52267" lon="1.95376">
        <ele>1896.86</ele>
        <time>2021-06-14T11:13:25.000Z</time>
      </trkpt>
      <trkpt lat="42.52254" lon="1.95388">
        <ele>1907.86</ele>
        <time>2021-06-14T11:13:34.666Z</time>
      </trkpt>
      <trkpt lat="42.52236" lon="1.95392">
        <ele>1910.91</ele>
        <time>2021-06-14T11:13:44.000Z</time>
      </trkpt>
      <trkpt lat="42.52221" lon="1.9539">
        <ele>1900.44</ele>
        <time>2021-06-14T11:13:54.121Z</time>
      </trkpt>
      <trkpt lat="42.52207" lon="1.95387">
        <ele>1890.67</ele>
        <time>2021-06-14T11:14:03.426Z</time>
      </trkpt>
      <trkpt lat="42.52196" lon="1.95388">
        <ele>1902.29</ele>
        <time>2021-06-14T11:14:13.000Z</time>
      </trkpt>
      <trkpt lat="42.52197" lon="1.9539">
        <ele>1901.95</ele>
        <time>2021-06-14T11:14:23.000Z</time>
      </trkpt>
      <trkpt lat="42.52211" lon="1.95384">
        <ele>1885.24</ele>
        <time>2021-06-14T11:14:33.000Z</time>
      </trkpt>
      <trkpt lat="42.52205" lon="1.95382">
        <ele>1883.69</ele>
        <time>2021-06-14T11:14:43.000Z</time>
      </trkpt>
      <trkpt lat="42.52202" lon="1.95389">
        <ele>1889.43</ele>
        <time>2021-06-14T11:14:53.000Z</time>
      </trkpt>
      <trkpt lat="42.522" lon="1.95389">
        <ele>1881.94</ele>
        <time>2021-06-14T11:15:03.000Z</time>
      </trkpt>
      <trkpt lat="42.52198" lon="1.95394">
        <ele>1895.38</ele>
        <time>2021-06-14T11:15:13.000Z</time>
      </trkpt>
      <trkpt lat="42.52197" lon="1.95395">
        <ele>1880.41</ele>
        <time>2021-06-14T11:15:23.000Z</time>
      </trkpt>
      <trkpt lat="42.52194" lon="1.95392">
        <ele>1892.57</ele>
        <time>2021-06-14T11:15:33.000Z</time>
      </trkpt>
      <trkpt lat="42.52193" lon="1.95392">
        <ele>1882.14</ele>
        <time>2021-06-14T11:15:44.000Z</time>
      </trkpt>
      <trkpt lat="42.52187" lon="1.9538">
        <ele>1890.6</ele>
        <time>2021-06-14T11:15:53.825Z</time>
      </trkpt>
      <trkpt lat="42.52173" lon="1.95366">
        <ele>1883.45</ele>
        <time>2021-06-14T11:16:04.072Z</time>
      </trkpt>
      <trkpt lat="42.52163" lon="1.95351">
        <ele>1872.73</ele>
        <time>2021-06-14T11:16:13.859Z</time>
      </trkpt>
      <trkpt lat="42.52158" lon="1.95344">
        <ele>1904.35</ele>
        <time>2021-06-14T11:16:23.000Z</time>
      </trkpt>
      <trkpt lat="42.52158" lon="1.95342">
        <ele>1898.06</ele>
        <time>2021-06-14T11:16:38.794Z</time>
      </trkpt>
      <trkpt lat="42.52162" lon="1.95331">
        <ele>1869.65</ele>
        <time>2021-06-14T11:16:48.627Z</time>
      </trkpt>
      <trkpt lat="42.5214" lon="1.95309">
        <ele>1878.58</ele>
        <time>2021-06-14T11:16:57.796Z</time>
      </trkpt>
      <trkpt lat="42.52124" lon="1.95283">
        <ele>1887.91</ele>
        <time>2021-06-14T11:17:07.000Z</time>
      </trkpt>
      <trkpt lat="42.52116" lon="1.95271">
        <ele>1895.75</ele>
        <time>2021-06-14T11:17:16.072Z</time>
      </trkpt>
      <trkpt lat="42.52103" lon="1.95253">
        <ele>1887.83</ele>
        <time>2021-06-14T11:17:25.350Z</time>
      </trkpt>
      <trkpt lat="42.52092" lon="1.95248">
        <ele>1878.6</ele>
        <time>2021-06-14T11:17:34.446Z</time>
      </trkpt>
      <trkpt lat="42.52079" lon="1.95245">
        <ele>1875.59</ele>
        <time>2021-06-14T11:17:43.773Z</time>
      </trkpt>
      <trkpt lat="42.52065" lon="1.95251">
        <ele>1881.1</ele>
        <time>2021-06-14T11:17:53.100Z</time>
      </trkpt>
      <trkpt lat="42.5205" lon="1.95251">
        <ele>1877.1</ele>
        <time>2021-06-14T11:18:02.515Z</time>
      </trkpt>
      <trkpt lat="42.52033" lon="1.95249">
        <ele>1888.81</ele>
        <time>2021-06-14T11:18:12.000Z</time>
      </trkpt>
      <trkpt lat="42.52021" lon="1.9525">
        <ele>1887.26</ele>
        <time>2021-06-14T11:18:21.365Z</time>
      </trkpt>
      <trkpt lat="42.52003" lon="1.95254">
        <ele>1879.02</ele>
        <time>2021-06-14T11:18:30.996Z</time>
      </trkpt>
      <trkpt lat="42.51991" lon="1.95256">
        <ele>1864.24</ele>
        <time>2021-06-14T11:18:40.071Z</time>
      </trkpt>
      <trkpt lat="42.51972" lon="1.95258">
        <ele>1863.42</ele>
        <time>2021-06-14T11:18:50.073Z</time>
      </trkpt>
      <trkpt lat="42.51958" lon="1.95248">
        <ele>1863.17</ele>
        <time>2021-06-14T11:18:59.993Z</time>
      </trkpt>
      <trkpt lat="42.5196" lon="1.95248">
        <ele>1872.06</ele>
        <time>2021-06-14T11:19:09.000Z</time>
      </trkpt>
      <trkpt lat="42.51976" lon="1.95241">
        <ele>1857.78</ele>
        <time>2021-06-14T11:19:19.000Z</time>
      </trkpt>
      <trkpt lat="42.51967" lon="1.9525">
        <ele>1884.05</ele>
        <time>2021-06-14T11:19:29.000Z</time>
      </trkpt>
      <trkpt lat="42.51964" lon="1.95247">
        <ele>1865.16</ele>
        <time>2021-06-14T11:19:39.444Z</time>
      </trkpt>
      <trkpt lat="42.51963" lon="1.95242">
        <ele>1860.49</ele>
        <time>2021-06-14T11:19:50.000Z</time>
      </trkpt>
      <trkpt lat="42.51957" lon="1.95229">
        <ele>1873.33</ele>
        <time>2021-06-14T11:20:00.000Z</time>
      </trkpt>
      <trkpt lat="42.5195" lon="1.95219">
        <ele>1857.15</ele>
        <time>2021-06-14T11:20:10.000Z</time>
      </trkpt>
      <trkpt lat="42.51946" lon="1.95218">
        <ele>1866.42</ele>
        <time>2021-06-14T11:20:21.000Z</time>
      </trkpt>
      <trkpt lat="42.51944" lon="1.9521">
        <ele>1864.27</ele>
        <time>2021-06-14T11:20:31.000Z</time>
      </trkpt>
      <trkpt lat="42.51929" lon="1.95206">
        <ele>1866.37</ele>
        <time>2021-06-14T11:20:40.705Z</time>
      </trkpt>
      <trkpt lat="42.51916" lon="1.95198">
        <ele>1865.67</ele>
        <time>2021-06-14T11:20:50.000Z</time>
      </trkpt>
      <trkpt lat="42.51895" lon="1.95201">
        <ele>1870.14</ele>
        <time>2021-06-14T11:20:59.927Z</time>
      </trkpt>
      <trkpt lat="42.5188" lon="1.95204">
        <ele>1872.63</ele>
        <time>2021-06-14T11:21:09.000Z</time>
      </trkpt>
      <trkpt lat="42.51867" lon="1.95209">
        <ele>1862.41</ele>
        <time>2021-06-14T11:21:19.000Z</time>
      </trkpt>
      <trkpt lat="42.5185" lon="1.95214">
        <ele>1877.5</ele>
        <time>2021-06-14T11:21:28.906Z</time>
      </trkpt>
      <trkpt lat="42.51841" lon="1.9522">
        <ele>1862.93</ele>
        <time>2021-06-14T11:21:39.064Z</time>
      </trkpt>
      <trkpt lat="42.51836" lon="1.95223">
        <ele>1854.81</ele>
        <time>2021-06-14T11:21:48.069Z</time>
      </trkpt>
      <trkpt lat="42.51824" lon="1.95214">
        <ele>1865</ele>
        <time>2021-06-14T11:21:58.000Z</time>
      </trkpt>
      <trkpt lat="42.51815" lon="1.95208">
        <ele>1864.28</ele>
        <time>2021-06-14T11:22:07.145Z</time>
      </trkpt>
      <trkpt lat="42.51813" lon="1.95206">
        <ele>1881.41</ele>
        <time>2021-06-14T11:22:17.000Z</time>
      </trkpt>
      <trkpt lat="42.51815" lon="1.95205">
        <ele>1872.99</ele>
        <time>2021-06-14T11:22:26.005Z</time>
      </trkpt>
      <trkpt lat="42.5181" lon="1.95183">
        <ele>1858.62</ele>
        <time>2021-06-14T11:22:36.000Z</time>
      </trkpt>
      <trkpt lat="42.51795" lon="1.95175">
        <ele>1852.45</ele>
        <time>2021-06-14T11:22:45.831Z</time>
      </trkpt>
      <trkpt lat="42.51782" lon="1.95176">
        <ele>1872.83</ele>
        <time>2021-06-14T11:22:54.904Z</time>
      </trkpt>
      <trkpt lat="42.5177" lon="1.95176">
        <ele>1856.23</ele>
        <time>2021-06-14T11:23:03.915Z</time>
      </trkpt>
      <trkpt lat="42.51757" lon="1.9516">
        <ele>1865.12</ele>
        <time>2021-06-14T11:23:13.000Z</time>
      </trkpt>
      <trkpt lat="42.51746" lon="1.95149">
        <ele>1855.59</ele>
        <time>2021-06-14T11:23:22.656Z</time>
      </trkpt>
      <trkpt lat="42.51735" lon="1.95131">
        <ele>1845.7</ele>
        <time>2021-06-14T11:23:31.824Z</time>
      </trkpt>
      <trkpt lat="42.51721" lon="1.95119">
        <ele>1845.05</ele>
        <time>2021-06-14T11:23:42.070Z</time>
      </trkpt>
      <trkpt lat="42.5171" lon="1.95102">
        <ele>1848.53</ele>
        <time>2021-06-14T11:23:52.000Z</time>
      </trkpt>
      <trkpt lat="42.51703" lon="1.95089">
        <ele>1845.39</ele>
        <time>2021-06-14T11:24:01.066Z</time>
      </trkpt>
      <trkpt lat="42.51686" lon="1.95088">
        <ele>1850.08</ele>
        <time>2021-06-14T11:24:11.068Z</time>
      </trkpt>
      <trkpt lat="42.51672" lon="1.95079">
        <ele>1850.91</ele>
        <time>2021-06-14T11:24:20.174Z</time>
      </trkpt>
      <trkpt lat="42.51655" lon="1.95069">
        <ele>1845.14</ele>
        <time>2021-06-14T11:24:29.646Z</time>
      </trkpt>
      <trkpt lat="42.51641" lon="1.95062">
        <ele>1831.36</ele>
        <time>2021-06-14T11:24:40.041Z</time>
      </trkpt>
      <trkpt lat="42.51627" lon="1.95052">
        <ele>1849.91</ele>
        <time>2021-06-14T11:24:49.676Z</time>
      </trkpt>
      <trkpt lat="42.51613" lon="1.95042">
        <ele>1838.3</ele>
        <time>2021-06-14T11:24:59.071Z</time>
      </trkpt>
      <trkpt lat="42.51596" lon="1.95027">
        <ele>1837.08</ele>
        <time>2021-06-14T11:25:09.000Z</time>
      </trkpt>
      <trkpt lat="42.51586" lon="1.95015">
        <ele>1845.12</ele>
        <time>2021-06-14T11:25:19.074Z</time>
      </trkpt>
      <trkpt lat="42.51575" lon="1.95">
        <ele>1833.51</ele>
        <time>2021-06-14T11:25:28.676Z</time>
      </trkpt>
      <trkpt lat="42.51566" lon="1.94994">
        <ele>1834.81</ele>
        <time>2021-06-14T11:25:38.000Z</time>
      </trkpt>
      <trkpt lat="42.51569" lon="1.94994">
        <ele>1822.7</ele>
        <time>2021-06-14T11:25:48.000Z</time>
      </trkpt>
      <trkpt lat="42.5157" lon="1.94985">
        <ele>1830.88</ele>
        <time>2021-06-14T11:25:57.435Z</time>
      </trkpt>
      <trkpt lat="42.51558" lon="1.94969">
        <ele>1833.64</ele>
        <time>2021-06-14T11:26:07.627Z</time>
      </trkpt>
      <trkpt lat="42.51547" lon="1.94949">
        <ele>1824.11</ele>
        <time>2021-06-14T11:26:17.059Z</time>
      </trkpt>
      <trkpt lat="42.51543" lon="1.94929">
        <ele>1820.31</ele>
        <time>2021-06-14T11:26:27.071Z</time>
      </trkpt>
      <trkpt lat="42.51532" lon="1.94909">
        <ele>1832.32</ele>
        <time>2021-06-14T11:26:36.777Z</time>
      </trkpt>
      <trkpt lat="42.51518" lon="1.94902">
        <ele>1820.24</ele>
        <time>2021-06-14T11:26:45.805Z</time>
      </trkpt>
      <trkpt lat="42.51498" lon="1.94896">
        <ele>1808.39</ele>
        <time>2021-06-14T11:26:55.656Z</time>
      </trkpt>
      <trkpt lat="42.51484" lon="1.94894">
        <ele>1813.85</ele>
        <time>2021-06-14T11:27:05.000Z</time>
      </trkpt>
      <trkpt lat="42.51473" lon="1.94889">
        <ele>1805.99</ele>
        <time>2021-06-14T11:27:15.706Z</time>
      </trkpt>
      <trkpt lat="42.5146" lon="1.94883">
        <ele>1820.55</ele>
        <time>2021-06-14T11:27:25.296Z</time>
      </trkpt>
      <trkpt lat="42.51447" lon="1.94882">
        <ele>1811.18</ele>
        <time>2021-06-14T11:27:34.399Z</time>
      </trkpt>
      <trkpt lat="42.51434" lon="1.94877">
        <ele>1828.61</ele>
        <time>2021-06-14T11:27:43.934Z</time>
      </trkpt>
      <trkpt lat="42.51419" lon="1.94877">
        <ele>1803.52</ele>
        <time>2021-06-14T11:27:53.073Z</time>
      </trkpt>
      <trkpt lat="42.51402" lon="1.94875">
        <ele>1836.75</ele>
        <time>2021-06-14T11:28:02.696Z</time>
      </trkpt>
      <trkpt lat="42.51387" lon="1.94863">
        <ele>1813.24</ele>
        <time>2021-06-14T11:28:13.073Z</time>
      </trkpt>
      <trkpt lat="42.51374" lon="1.94854">
        <ele>1806.77</ele>
        <time>2021-06-14T11:28:22.427Z</time>
      </trkpt>
      <trkpt lat="42.51363" lon="1.94842">
        <ele>1806.97</ele>
        <time>2021-06-14T11:28:31.926Z</time>
      </trkpt>
      <trkpt lat="42.51348" lon="1.94839">
        <ele>1803.81</ele>
        <time>2021-06-14T11:28:41.647Z</time>
      </trkpt>
      <trkpt lat="42.5133" lon="1.94833">
        <ele>1806.05</ele>
        <time>2021-06-14T11:28:51.127Z</time>
      </trkpt>
      <trkpt lat="42.51313" lon="1.9483">
        <ele>1829.16</ele>
        <time>2021-06-14T11:29:00.375Z</time>
      </trkpt>
      <trkpt lat="42.513" lon="1.94827">
        <ele>1822.22</ele>
        <time>2021-06-14T11:29:09.716Z</time>
      </trkpt>
      <trkpt lat="42.51287" lon="1.94823">
        <ele>1820.22</ele>
        <time>2021-06-14T11:29:18.959Z</time>
      </trkpt>
      <trkpt lat="42.51273" lon="1.94823">
        <ele>1799.34</ele>
        <time>2021-06-14T11:29:28.278Z</time>
      </trkpt>
      <trkpt lat="42.51257" lon="1.94818">
        <ele>1814.46</ele>
        <time>2021-06-14T11:29:38.072Z</time>
      </trkpt>
      <trkpt lat="42.5124" lon="1.94831">
        <ele>1802.92</ele>
        <time>2021-06-14T11:29:48.000Z</time>
      </trkpt>
      <trkpt lat="42.51229" lon="1.9484">
        <ele>1808.69</ele>
        <time>2021-06-14T11:29:57.470Z</time>
      </trkpt>
      <trkpt lat="42.51215" lon="1.94848">
        <ele>1809.45</ele>
        <time>2021-06-14T11:30:06.967Z</time>
      </trkpt>
      <trkpt lat="42.51206" lon="1.9486">
        <ele>1791.77</ele>
        <time>2021-06-14T11:30:16.516Z</time>
      </trkpt>
      <trkpt lat="42.51189" lon="1.94867">
        <ele>1780.86</ele>
        <time>2021-06-14T11:30:26.068Z</time>
      </trkpt>
      <trkpt lat="42.51178" lon="1.94877">
        <ele>1793.19</ele>
        <time>2021-06-14T11:30:35.435Z</time>
      </trkpt>
      <trkpt lat="42.51164" lon="1.94885">
        <ele>1777.43</ele>
        <time>2021-06-14T11:30:45.068Z</time>
      </trkpt>
      <trkpt lat="42.51147" lon="1.949">
        <ele>1797.05</ele>
        <time>2021-06-14T11:30:55.846Z</time>
      </trkpt>
      <trkpt lat="42.51135" lon="1.94909">
        <ele>1783.24</ele>
        <time>2021-06-14T11:31:05.489Z</time>
      </trkpt>
      <trkpt lat="42.51119" lon="1.94921">
        <ele>1785.2</ele>
        <time>2021-06-14T11:31:15.949Z</time>
      </trkpt>
      <trkpt lat="42.51107" lon="1.94933">
        <ele>1794.01</ele>
        <time>2021-06-14T11:31:25.736Z</time>
      </trkpt>
      <trkpt lat="42.51096" lon="1.94951">
        <ele>1779.15</ele>
        <time>2021-06-14T11:31:35.000Z</time>
      </trkpt>
      <trkpt lat="42.5109" lon="1.94964">
        <ele>1783.14</ele>
        <time>2021-06-14T11:31:44.087Z</time>
      </trkpt>
      <trkpt lat="42.51079" lon="1.94981">
        <ele>1790.92</ele>
        <time>2021-06-14T11:31:53.485Z</time>
      </trkpt>
      <trkpt lat="42.51074" lon="1.94988">
        <ele>1781.91</ele>
        <time>2021-06-14T11:32:03.000Z</time>
      </trkpt>
      <trkpt lat="42.51069" lon="1.94984">
        <ele>1791.96</ele>
        <time>2021-06-14T11:32:13.000Z</time>
      </trkpt>
      <trkpt lat="42.51074" lon="1.9497">
        <ele>1780.43</ele>
        <time>2021-06-14T11:32:22.914Z</time>
      </trkpt>
      <trkpt lat="42.51069" lon="1.9498">
        <ele>1758.03</ele>
        <time>2021-06-14T11:32:32.000Z</time>
      </trkpt>
      <trkpt lat="42.51067" lon="1.94983">
        <ele>1782.33</ele>
        <time>2021-06-14T11:32:42.000Z</time>
      </trkpt>
      <trkpt lat="42.51066" lon="1.94988">
        <ele>1767.24</ele>
        <time>2021-06-14T11:32:52.000Z</time>
      </trkpt>
      <trkpt lat="42.51066" lon="1.9499">
        <ele>1788.53</ele>
        <time>2021-06-14T11:33:02.000Z</time>
      </trkpt>
      <trkpt lat="42.51065" lon="1.94993">
        <ele>1767.75</ele>
        <time>2021-06-14T11:33:12.000Z</time>
      </trkpt>
      <trkpt lat="42.51056" lon="1.95006">
        <ele>1758.49</ele>
        <time>2021-06-14T11:33:21.574Z</time>
      </trkpt>
      <trkpt lat="42.51046" lon="1.95026">
        <ele>1779.64</ele>
        <time>2021-06-14T11:33:31.000Z</time>
      </trkpt>
      <trkpt lat="42.51047" lon="1.95017">
        <ele>1778.8</ele>
        <time>2021-06-14T11:33:41.000Z</time>
      </trkpt>
      <trkpt lat="42.51043" lon="1.9502">
        <ele>1764.98</ele>
        <time>2021-06-14T11:33:50.135Z</time>
      </trkpt>
      <trkpt lat="42.51036" lon="1.95038">
        <ele>1776.14</ele>
        <time>2021-06-14T11:34:00.071Z</time>
      </trkpt>
      <trkpt lat="42.51039" lon="1.95064">
        <ele>1777.62</ele>
        <time>2021-06-14T11:34:09.636Z</time>
      </trkpt>
      <trkpt lat="42.5104" lon="1.95063">
        <ele>1776.17</ele>
        <time>2021-06-14T11:34:19.000Z</time>
      </trkpt>
      <trkpt lat="42.5104" lon="1.95062">
        <ele>1782.71</ele>
        <time>2021-06-14T11:34:29.000Z</time>
      </trkpt>
      <trkpt lat="42.5104" lon="1.95058">
        <ele>1782.84</ele>
        <time>2021-06-14T11:34:39.000Z</time>
      </trkpt>
      <trkpt lat="42.51041" lon="1.95057">
        <ele>1753.38</ele>
        <time>2021-06-14T11:35:06.000Z</time>
      </trkpt>
      <trkpt lat="42.51044" lon="1.95058">
        <ele>1786.74</ele>
        <time>2021-06-14T11:35:16.000Z</time>
      </trkpt>
      <trkpt lat="42.51046" lon="1.95062">
        <ele>1778.4</ele>
        <time>2021-06-14T11:35:26.000Z</time>
      </trkpt>
      <trkpt lat="42.51058" lon="1.95082">
        <ele>1771.48</ele>
        <time>2021-06-14T11:35:36.000Z</time>
      </trkpt>
      <trkpt lat="42.51064" lon="1.95079">
        <ele>1779.26</ele>
        <time>2021-06-14T11:35:46.000Z</time>
      </trkpt>
      <trkpt lat="42.51066" lon="1.95082">
        <ele>1765.8</ele>
        <time>2021-06-14T11:35:56.000Z</time>
      </trkpt>
      <trkpt lat="42.51072" lon="1.95087">
        <ele>1787.98</ele>
        <time>2021-06-14T11:36:06.000Z</time>
      </trkpt>
      <trkpt lat="42.5107" lon="1.95082">
        <ele>1766.11</ele>
        <time>2021-06-14T11:36:16.000Z</time>
      </trkpt>
      <trkpt lat="42.51066" lon="1.95075">
        <ele>1764.4</ele>
        <time>2021-06-14T11:36:26.000Z</time>
      </trkpt>
      <trkpt lat="42.51057" lon="1.95064">
        <ele>1775.02</ele>
        <time>2021-06-14T11:36:36.000Z</time>
      </trkpt>
      <trkpt lat="42.51052" lon="1.9506">
        <ele>1772.8</ele>
        <time>2021-06-14T11:36:46.000Z</time>
      </trkpt>
      <trkpt lat="42.51047" lon="1.95055">
        <ele>1769.71</ele>
        <time>2021-06-14T11:36:56.000Z</time>
      </trkpt>
      <trkpt lat="42.51043" lon="1.95054">
        <ele>1771.98</ele>
        <time>2021-06-14T11:37:06.000Z</time>
      </trkpt>
      <trkpt lat="42.51041" lon="1.95053">
        <ele>1756.36</ele>
        <time>2021-06-14T11:37:16.000Z</time>
      </trkpt>
      <trkpt lat="42.51041" lon="1.95051">
        <ele>1766.29</ele>
        <time>2021-06-14T11:37:26.000Z</time>
      </trkpt>
      <trkpt lat="42.5104" lon="1.95053">
        <ele>1761.38</ele>
        <time>2021-06-14T11:37:36.000Z</time>
      </trkpt>
      <trkpt lat="42.51039" lon="1.95053">
        <ele>1773</ele>
        <time>2021-06-14T11:37:46.000Z</time>
      </trkpt>
      <trkpt lat="42.51041" lon="1.95055">
        <ele>1780.33</ele>
        <time>2021-06-14T11:37:56.000Z</time>
      </trkpt>
      <trkpt lat="42.51041" lon="1.95057">
        <ele>1787.89</ele>
        <time>2021-06-14T11:38:06.000Z</time>
      </trkpt>
      <trkpt lat="42.51041" lon="1.95055">
        <ele>1777.83</ele>
        <time>2021-06-14T11:38:16.000Z</time>
      </trkpt>
      <trkpt lat="42.5104" lon="1.95055">
        <ele>1765.4</ele>
        <time>2021-06-14T11:38:37.000Z</time>
      </trkpt>
      <trkpt lat="42.51044" lon="1.95056">
        <ele>1772.07</ele>
        <time>2021-06-14T11:38:47.000Z</time>
      </trkpt>
      <trkpt lat="42.51044" lon="1.95053">
        <ele>1777.35</ele>
        <time>2021-06-14T11:38:57.000Z</time>
      </trkpt>
      <trkpt lat="42.51038" lon="1.95046">
        <ele>1772.69</ele>
        <time>2021-06-14T11:39:06.266Z</time>
      </trkpt>
      <trkpt lat="42.51029" lon="1.95048">
        <ele>1767.73</ele>
        <time>2021-06-14T11:39:16.000Z</time>
      </trkpt>
      <trkpt lat="42.51016" lon="1.95062">
        <ele>1765.85</ele>
        <time>2021-06-14T11:39:25.672Z</time>
      </trkpt>
      <trkpt lat="42.51002" lon="1.95063">
        <ele>1775.83</ele>
        <time>2021-06-14T11:39:36.000Z</time>
      </trkpt>
      <trkpt lat="42.50985" lon="1.9507">
        <ele>1782.71</ele>
        <time>2021-06-14T11:39:47.000Z</time>
      </trkpt>
      <trkpt lat="42.50973" lon="1.95084">
        <ele>1776.35</ele>
        <time>2021-06-14T11:39:57.000Z</time>
      </trkpt>
      <trkpt lat="42.50961" lon="1.95096">
        <ele>1766.56</ele>
        <time>2021-06-14T11:40:06.350Z</time>
      </trkpt>
      <trkpt lat="42.50952" lon="1.95114">
        <ele>1760.9</ele>
        <time>2021-06-14T11:40:15.633Z</time>
      </trkpt>
      <trkpt lat="42.50941" lon="1.95124">
        <ele>1768.36</ele>
        <time>2021-06-14T11:40:26.000Z</time>
      </trkpt>
      <trkpt lat="42.50923" lon="1.95134">
        <ele>1757.27</ele>
        <time>2021-06-14T11:40:37.000Z</time>
      </trkpt>
      <trkpt lat="42.50915" lon="1.9515">
        <ele>1755.48</ele>
        <time>2021-06-14T11:40:46.114Z</time>
      </trkpt>
      <trkpt lat="42.50906" lon="1.95168">
        <ele>1765.71</ele>
        <time>2021-06-14T11:40:55.439Z</time>
      </trkpt>
      <trkpt lat="42.5089" lon="1.95174">
        <ele>1760.8</ele>
        <time>2021-06-14T11:41:05.147Z</time>
      </trkpt>
      <trkpt lat="42.50881" lon="1.95188">
        <ele>1763.65</ele>
        <time>2021-06-14T11:41:15.000Z</time>
      </trkpt>
      <trkpt lat="42.50864" lon="1.95195">
        <ele>1761.51</ele>
        <time>2021-06-14T11:41:24.001Z</time>
      </trkpt>
      <trkpt lat="42.50852" lon="1.95198">
        <ele>1757.84</ele>
        <time>2021-06-14T11:41:33.182Z</time>
      </trkpt>
      <trkpt lat="42.50843" lon="1.95211">
        <ele>1747.66</ele>
        <time>2021-06-14T11:41:44.000Z</time>
      </trkpt>
      <trkpt lat="42.50825" lon="1.95214">
        <ele>1748.99</ele>
        <time>2021-06-14T11:41:53.685Z</time>
      </trkpt>
      <trkpt lat="42.50814" lon="1.95217">
        <ele>1751.65</ele>
        <time>2021-06-14T11:42:03.000Z</time>
      </trkpt>
      <trkpt lat="42.50801" lon="1.9522">
        <ele>1750.64</ele>
        <time>2021-06-14T11:42:12.735Z</time>
      </trkpt>
      <trkpt lat="42.50788" lon="1.95225">
        <ele>1734.48</ele>
        <time>2021-06-14T11:42:23.000Z</time>
      </trkpt>
      <trkpt lat="42.50772" lon="1.95241">
        <ele>1729.75</ele>
        <time>2021-06-14T11:42:33.183Z</time>
      </trkpt>
      <trkpt lat="42.50759" lon="1.95245">
        <ele>1714.5</ele>
        <time>2021-06-14T11:42:44.000Z</time>
      </trkpt>
      <trkpt lat="42.50743" lon="1.95247">
        <ele>1738.11</ele>
        <time>2021-06-14T11:42:53.068Z</time>
      </trkpt>
      <trkpt lat="42.50729" lon="1.95248">
        <ele>1719.92</ele>
        <time>2021-06-14T11:43:04.000Z</time>
      </trkpt>
      <trkpt lat="42.50712" lon="1.95255">
        <ele>1733.55</ele>
        <time>2021-06-14T11:43:16.000Z</time>
      </trkpt>
      <trkpt lat="42.50696" lon="1.95264">
        <ele>1730.01</ele>
        <time>2021-06-14T11:43:25.686Z</time>
      </trkpt>
      <trkpt lat="42.50686" lon="1.95276">
        <ele>1725.46</ele>
        <time>2021-06-14T11:43:35.169Z</time>
      </trkpt>
      <trkpt lat="42.50665" lon="1.95281">
        <ele>1718.96</ele>
        <time>2021-06-14T11:43:44.991Z</time>
      </trkpt>
      <trkpt lat="42.50656" lon="1.9528">
        <ele>1734.96</ele>
        <time>2021-06-14T11:43:54.000Z</time>
      </trkpt>
      <trkpt lat="42.5064" lon="1.95294">
        <ele>1735.23</ele>
        <time>2021-06-14T11:44:04.068Z</time>
      </trkpt>
      <trkpt lat="42.50627" lon="1.95299">
        <ele>1713.52</ele>
        <time>2021-06-14T11:44:14.000Z</time>
      </trkpt>
      <trkpt lat="42.50612" lon="1.95311">
        <ele>1735.26</ele>
        <time>2021-06-14T11:44:23.634Z</time>
      </trkpt>
      <trkpt lat="42.50602" lon="1.95318">
        <ele>1726.33</ele>
        <time>2021-06-14T11:44:33.000Z</time>
      </trkpt>
      <trkpt lat="42.50584" lon="1.95326">
        <ele>1715.71</ele>
        <time>2021-06-14T11:44:44.000Z</time>
      </trkpt>
      <trkpt lat="42.50564" lon="1.95327">
        <ele>1730.91</ele>
        <time>2021-06-14T11:44:53.383Z</time>
      </trkpt>
      <trkpt lat="42.50547" lon="1.95334">
        <ele>1711.12</ele>
        <time>2021-06-14T11:45:02.422Z</time>
      </trkpt>
      <trkpt lat="42.5053" lon="1.95338">
        <ele>1720.09</ele>
        <time>2021-06-14T11:45:12.142Z</time>
      </trkpt>
      <trkpt lat="42.50516" lon="1.95346">
        <ele>1725.93</ele>
        <time>2021-06-14T11:45:21.919Z</time>
      </trkpt>
      <trkpt lat="42.50502" lon="1.95353">
        <ele>1716.21</ele>
        <time>2021-06-14T11:45:31.000Z</time>
      </trkpt>
      <trkpt lat="42.50487" lon="1.95363">
        <ele>1728.39</ele>
        <time>2021-06-14T11:45:40.277Z</time>
      </trkpt>
      <trkpt lat="42.50473" lon="1.95365">
        <ele>1713.63</ele>
        <time>2021-06-14T11:45:52.000Z</time>
      </trkpt>
      <trkpt lat="42.50457" lon="1.95365">
        <ele>1737.01</ele>
        <time>2021-06-14T11:46:02.000Z</time>
      </trkpt>
      <trkpt lat="42.50443" lon="1.95371">
        <ele>1726.64</ele>
        <time>2021-06-14T11:46:13.000Z</time>
      </trkpt>
      <trkpt lat="42.50427" lon="1.9537">
        <ele>1700.31</ele>
        <time>2021-06-14T11:46:24.000Z</time>
      </trkpt>
      <trkpt lat="42.50404" lon="1.95374">
        <ele>1717.54</ele>
        <time>2021-06-14T11:46:33.807Z</time>
      </trkpt>
      <trkpt lat="42.50392" lon="1.95375">
        <ele>1716.01</ele>
        <time>2021-06-14T11:46:43.000Z</time>
      </trkpt>
      <trkpt lat="42.50378" lon="1.95378">
        <ele>1699.89</ele>
        <time>2021-06-14T11:46:53.000Z</time>
      </trkpt>
      <trkpt lat="42.5036" lon="1.95382">
        <ele>1706.5</ele>
        <time>2021-06-14T11:47:02.122Z</time>
      </trkpt>
      <trkpt lat="42.50346" lon="1.95377">
        <ele>1712.34</ele>
        <time>2021-06-14T11:47:12.000Z</time>
      </trkpt>
      <trkpt lat="42.50331" lon="1.95364">
        <ele>1708.72</ele>
        <time>2021-06-14T11:47:21.065Z</time>
      </trkpt>
      <trkpt lat="42.5032" lon="1.95354">
        <ele>1710.66</ele>
        <time>2021-06-14T11:47:32.000Z</time>
      </trkpt>
      <trkpt lat="42.50306" lon="1.95347">
        <ele>1702.41</ele>
        <time>2021-06-14T11:47:42.000Z</time>
      </trkpt>
      <trkpt lat="42.50293" lon="1.9533">
        <ele>1707.28</ele>
        <time>2021-06-14T11:47:52.000Z</time>
      </trkpt>
      <trkpt lat="42.50274" lon="1.95317">
        <ele>1709.78</ele>
        <time>2021-06-14T11:48:03.000Z</time>
      </trkpt>
      <trkpt lat="42.50262" lon="1.95303">
        <ele>1706.2</ele>
        <time>2021-06-14T11:48:12.476Z</time>
      </trkpt>
      <trkpt lat="42.50255" lon="1.95288">
        <ele>1705.48</ele>
        <time>2021-06-14T11:48:22.025Z</time>
      </trkpt>
      <trkpt lat="42.50245" lon="1.95277">
        <ele>1702.32</ele>
        <time>2021-06-14T11:48:33.000Z</time>
      </trkpt>
      <trkpt lat="42.50225" lon="1.95279">
        <ele>1703.19</ele>
        <time>2021-06-14T11:48:44.000Z</time>
      </trkpt>
      <trkpt lat="42.50212" lon="1.95279">
        <ele>1698.53</ele>
        <time>2021-06-14T11:48:54.000Z</time>
      </trkpt>
      <trkpt lat="42.50197" lon="1.95279">
        <ele>1705.37</ele>
        <time>2021-06-14T11:49:03.110Z</time>
      </trkpt>
      <trkpt lat="42.50181" lon="1.95279">
        <ele>1690.37</ele>
        <time>2021-06-14T11:49:12.306Z</time>
      </trkpt>
      <trkpt lat="42.50172" lon="1.9528">
        <ele>1685.54</ele>
        <time>2021-06-14T11:49:22.000Z</time>
      </trkpt>
      <trkpt lat="42.5017" lon="1.95284">
        <ele>1705.7</ele>
        <time>2021-06-14T11:49:32.000Z</time>
      </trkpt>
      <trkpt lat="42.50167" lon="1.9528">
        <ele>1698.49</ele>
        <time>2021-06-14T11:49:42.000Z</time>
      </trkpt>
      <trkpt lat="42.50168" lon="1.95287">
        <ele>1689.03</ele>
        <time>2021-06-14T11:49:52.000Z</time>
      </trkpt>
      <trkpt lat="42.50157" lon="1.95275">
        <ele>1691.18</ele>
        <time>2021-06-14T11:50:02.350Z</time>
      </trkpt>
      <trkpt lat="42.50153" lon="1.9528">
        <ele>1692.69</ele>
        <time>2021-06-14T11:50:11.986Z</time>
      </trkpt>
      <trkpt lat="42.50142" lon="1.95285">
        <ele>1693.69</ele>
        <time>2021-06-14T11:50:21.000Z</time>
      </trkpt>
      <trkpt lat="42.50126" lon="1.95287">
        <ele>1698.85</ele>
        <time>2021-06-14T11:50:31.000Z</time>
      </trkpt>
      <trkpt lat="42.50114" lon="1.95283">
        <ele>1690.76</ele>
        <time>2021-06-14T11:50:41.000Z</time>
      </trkpt>
      <trkpt lat="42.50099" lon="1.95291">
        <ele>1685.89</ele>
        <time>2021-06-14T11:50:52.000Z</time>
      </trkpt>
      <trkpt lat="42.50088" lon="1.95289">
        <ele>1694.8</ele>
        <time>2021-06-14T11:51:02.000Z</time>
      </trkpt>
      <trkpt lat="42.50075" lon="1.95297">
        <ele>1689.15</ele>
        <time>2021-06-14T11:51:12.104Z</time>
      </trkpt>
      <trkpt lat="42.50059" lon="1.953">
        <ele>1691.96</ele>
        <time>2021-06-14T11:51:23.000Z</time>
      </trkpt>
      <trkpt lat="42.50041" lon="1.95307">
        <ele>1682.97</ele>
        <time>2021-06-14T11:51:32.186Z</time>
      </trkpt>
      <trkpt lat="42.5003" lon="1.95303">
        <ele>1690.12</ele>
        <time>2021-06-14T11:51:42.000Z</time>
      </trkpt>
      <trkpt lat="42.50021" lon="1.95298">
        <ele>1676.22</ele>
        <time>2021-06-14T11:51:53.000Z</time>
      </trkpt>
      <trkpt lat="42.50001" lon="1.95305">
        <ele>1686.57</ele>
        <time>2021-06-14T11:52:06.000Z</time>
      </trkpt>
      <trkpt lat="42.49983" lon="1.95306">
        <ele>1672.77</ele>
        <time>2021-06-14T11:52:17.000Z</time>
      </trkpt>
      <trkpt lat="42.49959" lon="1.95311">
        <ele>1688.86</ele>
        <time>2021-06-14T11:52:26.767Z</time>
      </trkpt>
      <trkpt lat="42.49948" lon="1.95312">
        <ele>1693.47</ele>
        <time>2021-06-14T11:52:36.000Z</time>
      </trkpt>
      <trkpt lat="42.4993" lon="1.9531">
        <ele>1685.8</ele>
        <time>2021-06-14T11:52:45.267Z</time>
      </trkpt>
      <trkpt lat="42.4992" lon="1.95317">
        <ele>1680.18</ele>
        <time>2021-06-14T11:52:55.000Z</time>
      </trkpt>
      <trkpt lat="42.49913" lon="1.95312">
        <ele>1678.2</ele>
        <time>2021-06-14T11:53:05.000Z</time>
      </trkpt>
      <trkpt lat="42.49916" lon="1.95312">
        <ele>1687.8</ele>
        <time>2021-06-14T11:53:14.776Z</time>
      </trkpt>
      <trkpt lat="42.49914" lon="1.95298">
        <ele>1690.23</ele>
        <time>2021-06-14T11:53:25.000Z</time>
      </trkpt>
      <trkpt lat="42.49909" lon="1.95288">
        <ele>1687.64</ele>
        <time>2021-06-14T11:53:34.370Z</time>
      </trkpt>
      <trkpt lat="42.49907" lon="1.95292">
        <ele>1661.29</ele>
        <time>2021-06-14T11:53:44.000Z</time>
      </trkpt>
      <trkpt lat="42.49903" lon="1.95295">
        <ele>1698.09</ele>
        <time>2021-06-14T11:53:54.000Z</time>
      </trkpt>
      <trkpt lat="42.49905" lon="1.95304">
        <ele>1685.59</ele>
        <time>2021-06-14T11:54:04.214Z</time>
      </trkpt>
      <trkpt lat="42.4992" lon="1.9531">
        <ele>1672.51</ele>
        <time>2021-06-14T11:54:15.000Z</time>
      </trkpt>
      <trkpt lat="42.4991" lon="1.95324">
        <ele>1680.26</ele>
        <time>2021-06-14T11:54:26.000Z</time>
      </trkpt>
      <trkpt lat="42.49902" lon="1.95337">
        <ele>1680.95</ele>
        <time>2021-06-14T11:54:36.000Z</time>
      </trkpt>
      <trkpt lat="42.49897" lon="1.9535">
        <ele>1673.36</ele>
        <time>2021-06-14T11:54:45.193Z</time>
      </trkpt>
      <trkpt lat="42.49888" lon="1.95356">
        <ele>1665.44</ele>
        <time>2021-06-14T11:54:55.000Z</time>
      </trkpt>
      <trkpt lat="42.49872" lon="1.95362">
        <ele>1669.61</ele>
        <time>2021-06-14T11:55:05.000Z</time>
      </trkpt>
      <trkpt lat="42.49858" lon="1.95361">
        <ele>1676.28</ele>
        <time>2021-06-14T11:55:15.000Z</time>
      </trkpt>
      <trkpt lat="42.49843" lon="1.95359">
        <ele>1664.15</ele>
        <time>2021-06-14T11:55:25.000Z</time>
      </trkpt>
      <trkpt lat="42.49827" lon="1.95357">
        <ele>1665.77</ele>
        <time>2021-06-14T11:55:34.089Z</time>
      </trkpt>
      <trkpt lat="42.49812" lon="1.95354">
        <ele>1657.31</ele>
        <time>2021-06-14T11:55:44.148Z</time>
      </trkpt>
      <trkpt lat="42.49799" lon="1.95357">
        <ele>1667.41</ele>
        <time>2021-06-14T11:55:54.000Z</time>
      </trkpt>
      <trkpt lat="42.49783" lon="1.95367">
        <ele>1673.84</ele>
        <time>2021-06-14T11:56:03.397Z</time>
      </trkpt>
      <trkpt lat="42.49776" lon="1.95373">
        <ele>1664.24</ele>
        <time>2021-06-14T11:56:13.065Z</time>
      </trkpt>
      <trkpt lat="42.49765" lon="1.95386">
        <ele>1650.79</ele>
        <time>2021-06-14T11:56:22.812Z</time>
      </trkpt>
      <trkpt lat="42.49759" lon="1.95401">
        <ele>1643.57</ele>
        <time>2021-06-14T11:56:33.000Z</time>
      </trkpt>
      <trkpt lat="42.49757" lon="1.95403">
        <ele>1654.83</ele>
        <time>2021-06-14T11:56:45.000Z</time>
      </trkpt>
      <trkpt lat="42.49748" lon="1.95412">
        <ele>1640.35</ele>
        <time>2021-06-14T11:56:56.000Z</time>
      </trkpt>
      <trkpt lat="42.49737" lon="1.95415">
        <ele>1643.98</ele>
        <time>2021-06-14T11:57:06.000Z</time>
      </trkpt>
      <trkpt lat="42.49723" lon="1.9542">
        <ele>1668.58</ele>
        <time>2021-06-14T11:57:16.000Z</time>
      </trkpt>
      <trkpt lat="42.49717" lon="1.95425">
        <ele>1650.14</ele>
        <time>2021-06-14T11:57:26.260Z</time>
      </trkpt>
      <trkpt lat="42.49709" lon="1.95426">
        <ele>1652.67</ele>
        <time>2021-06-14T11:57:36.000Z</time>
      </trkpt>
      <trkpt lat="42.497" lon="1.95437">
        <ele>1646.6</ele>
        <time>2021-06-14T11:57:47.000Z</time>
      </trkpt>
      <trkpt lat="42.49689" lon="1.95436">
        <ele>1640.22</ele>
        <time>2021-06-14T11:57:57.000Z</time>
      </trkpt>
      <trkpt lat="42.49676" lon="1.95433">
        <ele>1652.88</ele>
        <time>2021-06-14T11:58:08.000Z</time>
      </trkpt>
      <trkpt lat="42.49664" lon="1.95439">
        <ele>1656.52</ele>
        <time>2021-06-14T11:58:17.859Z</time>
      </trkpt>
      <trkpt lat="42.49653" lon="1.95441">
        <ele>1643.35</ele>
        <time>2021-06-14T11:58:26.866Z</time>
      </trkpt>
      <trkpt lat="42.4964" lon="1.95447">
        <ele>1652.84</ele>
        <time>2021-06-14T11:58:36.093Z</time>
      </trkpt>
      <trkpt lat="42.49636" lon="1.95464">
        <ele>1636.16</ele>
        <time>2021-06-14T11:58:46.045Z</time>
      </trkpt>
      <trkpt lat="42.49632" lon="1.95464">
        <ele>1626.39</ele>
        <time>2021-06-14T11:58:56.000Z</time>
      </trkpt>
      <trkpt lat="42.49632" lon="1.95461">
        <ele>1639.35</ele>
        <time>2021-06-14T11:59:06.000Z</time>
      </trkpt>
      <trkpt lat="42.49621" lon="1.95458">
        <ele>1629.74</ele>
        <time>2021-06-14T11:59:17.000Z</time>
      </trkpt>
      <trkpt lat="42.49605" lon="1.95457">
        <ele>1632.01</ele>
        <time>2021-06-14T11:59:26.086Z</time>
      </trkpt>
      <trkpt lat="42.4959" lon="1.95458">
        <ele>1636.33</ele>
        <time>2021-06-14T11:59:37.000Z</time>
      </trkpt>
      <trkpt lat="42.49579" lon="1.9546">
        <ele>1620.99</ele>
        <time>2021-06-14T11:59:48.000Z</time>
      </trkpt>
      <trkpt lat="42.49572" lon="1.95477">
        <ele>1632.83</ele>
        <time>2021-06-14T11:59:58.000Z</time>
      </trkpt>
      <trkpt lat="42.49563" lon="1.95486">
        <ele>1618.6</ele>
        <time>2021-06-14T12:00:09.000Z</time>
      </trkpt>
      <trkpt lat="42.49554" lon="1.95487">
        <ele>1639.16</ele>
        <time>2021-06-14T12:00:19.349Z</time>
      </trkpt>
      <trkpt lat="42.49549" lon="1.95488">
        <ele>1641.72</ele>
        <time>2021-06-14T12:00:28.758Z</time>
      </trkpt>
      <trkpt lat="42.4954" lon="1.95488">
        <ele>1620.52</ele>
        <time>2021-06-14T12:00:38.450Z</time>
      </trkpt>
      <trkpt lat="42.4953" lon="1.95495">
        <ele>1604.28</ele>
        <time>2021-06-14T12:00:47.505Z</time>
      </trkpt>
      <trkpt lat="42.49523" lon="1.95496">
        <ele>1614.11</ele>
        <time>2021-06-14T12:00:57.504Z</time>
      </trkpt>
      <trkpt lat="42.4952" lon="1.955">
        <ele>1617.15</ele>
        <time>2021-06-14T12:01:07.000Z</time>
      </trkpt>
      <trkpt lat="42.4951" lon="1.95509">
        <ele>1615.58</ele>
        <time>2021-06-14T12:01:17.000Z</time>
      </trkpt>
      <trkpt lat="42.495" lon="1.95517">
        <ele>1603.18</ele>
        <time>2021-06-14T12:01:27.000Z</time>
      </trkpt>
      <trkpt lat="42.49497" lon="1.9553">
        <ele>1608.26</ele>
        <time>2021-06-14T12:01:36.183Z</time>
      </trkpt>
      <trkpt lat="42.49488" lon="1.95529">
        <ele>1601.03</ele>
        <time>2021-06-14T12:01:47.000Z</time>
      </trkpt>
      <trkpt lat="42.49479" lon="1.95521">
        <ele>1595.91</ele>
        <time>2021-06-14T12:01:57.000Z</time>
      </trkpt>
      <trkpt lat="42.49472" lon="1.95526">
        <ele>1586.3</ele>
        <time>2021-06-14T12:02:06.289Z</time>
      </trkpt>
      <trkpt lat="42.49461" lon="1.9554">
        <ele>1588.62</ele>
        <time>2021-06-14T12:02:16.292Z</time>
      </trkpt>
      <trkpt lat="42.49449" lon="1.95535">
        <ele>1595.25</ele>
        <time>2021-06-14T12:02:28.000Z</time>
      </trkpt>
      <trkpt lat="42.49435" lon="1.95534">
        <ele>1579.65</ele>
        <time>2021-06-14T12:02:38.269Z</time>
      </trkpt>
      <trkpt lat="42.49426" lon="1.95536">
        <ele>1579.49</ele>
        <time>2021-06-14T12:02:48.104Z</time>
      </trkpt>
      <trkpt lat="42.4942" lon="1.9554">
        <ele>1598.33</ele>
        <time>2021-06-14T12:02:59.000Z</time>
      </trkpt>
      <trkpt lat="42.49404" lon="1.95538">
        <ele>1586.14</ele>
        <time>2021-06-14T12:03:10.000Z</time>
      </trkpt>
      <trkpt lat="42.49391" lon="1.95542">
        <ele>1562.23</ele>
        <time>2021-06-14T12:03:20.000Z</time>
      </trkpt>
      <trkpt lat="42.49379" lon="1.95547">
        <ele>1586.29</ele>
        <time>2021-06-14T12:03:29.165Z</time>
      </trkpt>
      <trkpt lat="42.49368" lon="1.9555">
        <ele>1575.23</ele>
        <time>2021-06-14T12:03:38.625Z</time>
      </trkpt>
      <trkpt lat="42.49363" lon="1.95549">
        <ele>1551.52</ele>
        <time>2021-06-14T12:03:48.000Z</time>
      </trkpt>
      <trkpt lat="42.49364" lon="1.9555">
        <ele>1577.84</ele>
        <time>2021-06-14T12:03:58.000Z</time>
      </trkpt>
      <trkpt lat="42.4936" lon="1.95537">
        <ele>1577.24</ele>
        <time>2021-06-14T12:04:10.000Z</time>
      </trkpt>
      <trkpt lat="42.49411" lon="1.95473">
        <ele>1576.99</ele>
        <time>2021-06-14T12:04:20.000Z</time>
      </trkpt>
      <trkpt lat="42.4939" lon="1.95503">
        <ele>1583.85</ele>
        <time>2021-06-14T12:04:30.000Z</time>
      </trkpt>
      <trkpt lat="42.49378" lon="1.95534">
        <ele>1561.87</ele>
        <time>2021-06-14T12:04:40.000Z</time>
      </trkpt>
      <trkpt lat="42.49374" lon="1.95551">
        <ele>1562.92</ele>
        <time>2021-06-14T12:04:50.000Z</time>
      </trkpt>
      <trkpt lat="42.49372" lon="1.95549">
        <ele>1575.11</ele>
        <time>2021-06-14T12:05:00.000Z</time>
      </trkpt>
      <trkpt lat="42.49368" lon="1.95557">
        <ele>1548.66</ele>
        <time>2021-06-14T12:05:10.000Z</time>
      </trkpt>
      <trkpt lat="42.49375" lon="1.95547">
        <ele>1562.71</ele>
        <time>2021-06-14T12:05:20.000Z</time>
      </trkpt>
      <trkpt lat="42.49372" lon="1.9552">
        <ele>1549.35</ele>
        <time>2021-06-14T12:05:30.000Z</time>
      </trkpt>
      <trkpt lat="42.49378" lon="1.95516">
        <ele>1554.3</ele>
        <time>2021-06-14T12:05:40.000Z</time>
      </trkpt>
      <trkpt lat="42.49383" lon="1.95506">
        <ele>1578.79</ele>
        <time>2021-06-14T12:05:50.000Z</time>
      </trkpt>
      <trkpt lat="42.49379" lon="1.95493">
        <ele>1569.86</ele>
        <time>2021-06-14T12:05:59.886Z</time>
      </trkpt>
      <trkpt lat="42.49366" lon="1.95492">
        <ele>1553.81</ele>
        <time>2021-06-14T12:06:09.148Z</time>
      </trkpt>
      <trkpt lat="42.49354" lon="1.95493">
        <ele>1568.14</ele>
        <time>2021-06-14T12:06:20.000Z</time>
      </trkpt>
      <trkpt lat="42.49347" lon="1.95499">
        <ele>1567.42</ele>
        <time>2021-06-14T12:06:30.000Z</time>
      </trkpt>
      <trkpt lat="42.49341" lon="1.95501">
        <ele>1548.5</ele>
        <time>2021-06-14T12:06:40.248Z</time>
      </trkpt>
      <trkpt lat="42.49333" lon="1.95495">
        <ele>1552.73</ele>
        <time>2021-06-14T12:06:51.000Z</time>
      </trkpt>
      <trkpt lat="42.49332" lon="1.95494">
        <ele>1561.4</ele>
        <time>2021-06-14T12:07:05.000Z</time>
      </trkpt>
      <trkpt lat="42.49338" lon="1.95492">
        <ele>1560.09</ele>
        <time>2021-06-14T12:07:15.000Z</time>
      </trkpt>
      <trkpt lat="42.49328" lon="1.95494">
        <ele>1561.83</ele>
        <time>2021-06-14T12:07:24.170Z</time>
      </trkpt>
      <trkpt lat="42.49314" lon="1.95498">
        <ele>1533.85</ele>
        <time>2021-06-14T12:07:33.661Z</time>
      </trkpt>
      <trkpt lat="42.49309" lon="1.95496">
        <ele>1559.99</ele>
        <time>2021-06-14T12:07:43.000Z</time>
      </trkpt>
      <trkpt lat="42.49308" lon="1.95495">
        <ele>1549.23</ele>
        <time>2021-06-14T12:07:53.000Z</time>
      </trkpt>
      <trkpt lat="42.49296" lon="1.9549">
        <ele>1552.83</ele>
        <time>2021-06-14T12:08:02.148Z</time>
      </trkpt>
      <trkpt lat="42.49283" lon="1.95499">
        <ele>1548.76</ele>
        <time>2021-06-14T12:08:11.620Z</time>
      </trkpt>
      <trkpt lat="42.4927" lon="1.95501">
        <ele>1550.65</ele>
        <time>2021-06-14T12:08:22.000Z</time>
      </trkpt>
      <trkpt lat="42.49254" lon="1.95505">
        <ele>1528.21</ele>
        <time>2021-06-14T12:08:32.000Z</time>
      </trkpt>
      <trkpt lat="42.49242" lon="1.95513">
        <ele>1542</ele>
        <time>2021-06-14T12:08:43.000Z</time>
      </trkpt>
      <trkpt lat="42.49229" lon="1.95516">
        <ele>1540.09</ele>
        <time>2021-06-14T12:08:53.000Z</time>
      </trkpt>
      <trkpt lat="42.49216" lon="1.95513">
        <ele>1550.28</ele>
        <time>2021-06-14T12:09:02.043Z</time>
      </trkpt>
      <trkpt lat="42.49209" lon="1.95516">
        <ele>1526.41</ele>
        <time>2021-06-14T12:09:12.000Z</time>
      </trkpt>
      <trkpt lat="42.49208" lon="1.95517">
        <ele>1516.78</ele>
        <time>2021-06-14T12:09:28.000Z</time>
      </trkpt>
      <trkpt lat="42.49202" lon="1.9552">
        <ele>1526.95</ele>
        <time>2021-06-14T12:09:38.000Z</time>
      </trkpt>
      <trkpt lat="42.49192" lon="1.95516">
        <ele>1540.22</ele>
        <time>2021-06-14T12:09:48.000Z</time>
      </trkpt>
      <trkpt lat="42.49188" lon="1.95513">
        <ele>1522.63</ele>
        <time>2021-06-14T12:09:58.000Z</time>
      </trkpt>
      <trkpt lat="42.49185" lon="1.95511">
        <ele>1531.59</ele>
        <time>2021-06-14T12:10:08.000Z</time>
      </trkpt>
      <trkpt lat="42.49192" lon="1.95513">
        <ele>1523.52</ele>
        <time>2021-06-14T12:10:18.000Z</time>
      </trkpt>
      <trkpt lat="42.49199" lon="1.9552">
        <ele>1521.51</ele>
        <time>2021-06-14T12:10:28.000Z</time>
      </trkpt>
      <trkpt lat="42.49195" lon="1.95567">
        <ele>1512.83</ele>
        <time>2021-06-14T12:10:38.000Z</time>
      </trkpt>
      <trkpt lat="42.49187" lon="1.95546">
        <ele>1504.91</ele>
        <time>2021-06-14T12:10:48.000Z</time>
      </trkpt>
      <trkpt lat="42.49187" lon="1.9553">
        <ele>1521.71</ele>
        <time>2021-06-14T12:10:58.000Z</time>
      </trkpt>
      <trkpt lat="42.49183" lon="1.95522">
        <ele>1507.14</ele>
        <time>2021-06-14T12:11:08.000Z</time>
      </trkpt>
      <trkpt lat="42.49184" lon="1.95521">
        <ele>1526.96</ele>
        <time>2021-06-14T12:11:18.000Z</time>
      </trkpt>
      <trkpt lat="42.49196" lon="1.95519">
        <ele>1519.29</ele>
        <time>2021-06-14T12:11:28.000Z</time>
      </trkpt>
      <trkpt lat="42.49209" lon="1.95518">
        <ele>1528.3</ele>
        <time>2021-06-14T12:11:39.000Z</time>
      </trkpt>
      <trkpt lat="42.49212" lon="1.95518">
        <ele>1516.85</ele>
        <time>2021-06-14T12:11:49.000Z</time>
      </trkpt>
      <trkpt lat="42.49212" lon="1.95519">
        <ele>1516.48</ele>
        <time>2021-06-14T12:12:05.000Z</time>
      </trkpt>
      <trkpt lat="42.4922" lon="1.95516">
        <ele>1525.4</ele>
        <time>2021-06-14T12:12:15.000Z</time>
      </trkpt>
      <trkpt lat="42.49229" lon="1.95515">
        <ele>1534.34</ele>
        <time>2021-06-14T12:12:25.000Z</time>
      </trkpt>
      <trkpt lat="42.4924" lon="1.95513">
        <ele>1514.01</ele>
        <time>2021-06-14T12:12:36.000Z</time>
      </trkpt>
      <trkpt lat="42.49244" lon="1.95517">
        <ele>1528.01</ele>
        <time>2021-06-14T12:12:47.000Z</time>
      </trkpt>
      <trkpt lat="42.49251" lon="1.9552">
        <ele>1515.65</ele>
        <time>2021-06-14T12:12:58.000Z</time>
      </trkpt>
      <trkpt lat="42.49262" lon="1.95496">
        <ele>1532.33</ele>
        <time>2021-06-14T12:13:08.000Z</time>
      </trkpt>
      <trkpt lat="42.49269" lon="1.955">
        <ele>1545.57</ele>
        <time>2021-06-14T12:13:18.000Z</time>
      </trkpt>
      <trkpt lat="42.49267" lon="1.95504">
        <ele>1521.75</ele>
        <time>2021-06-14T12:13:28.172Z</time>
      </trkpt>
      <trkpt lat="42.49273" lon="1.95505">
        <ele>1515.65</ele>
        <time>2021-06-14T12:13:38.000Z</time>
      </trkpt>
      <trkpt lat="42.49281" lon="1.95496">
        <ele>1543.52</ele>
        <time>2021-06-14T12:13:47.619Z</time>
      </trkpt>
      <trkpt lat="42.49282" lon="1.95489">
        <ele>1528.85</ele>
        <time>2021-06-14T12:13:57.000Z</time>
      </trkpt>
      <trkpt lat="42.49278" lon="1.95489">
        <ele>1531.75</ele>
        <time>2021-06-14T12:14:07.000Z</time>
      </trkpt>
      <trkpt lat="42.49277" lon="1.95491">
        <ele>1534.67</ele>
        <time>2021-06-14T12:14:17.000Z</time>
      </trkpt>
      <trkpt lat="42.49272" lon="1.95485">
        <ele>1526.24</ele>
        <time>2021-06-14T12:14:27.000Z</time>
      </trkpt>
      <trkpt lat="42.49271" lon="1.95482">
        <ele>1536.71</ele>
        <time>2021-06-14T12:14:37.000Z</time>
      </trkpt>
      <trkpt lat="42.49268" lon="1.95477">
        <ele>1528.39</ele>
        <time>2021-06-14T12:14:47.000Z</time>
      </trkpt>
      <trkpt lat="42.49263" lon="1.95476">
        <ele>1528.7</ele>
        <time>2021-06-14T12:14:57.000Z</time>
      </trkpt>
      <trkpt lat="42.49264" lon="1.95481">
        <ele>1509.46</ele>
        <time>2021-06-14T12:15:07.000Z</time>
      </trkpt>
      <trkpt lat="42.49267" lon="1.95483">
        <ele>1521.87</ele>
        <time>2021-06-14T12:15:17.000Z</time>
      </trkpt>
      <trkpt lat="42.49266" lon="1.9548">
        <ele>1535.52</ele>
        <time>2021-06-14T12:15:27.000Z</time>
      </trkpt>
      <trkpt lat="42.49267" lon="1.95481">
        <ele>1531.74</ele>
        <time>2021-06-14T12:15:40.000Z</time>
      </trkpt>
      <trkpt lat="42.4927" lon="1.95484">
        <ele>1543.72</ele>
        <time>2021-06-14T12:15:50.000Z</time>
      </trkpt>
      <trkpt lat="42.4927" lon="1.95482">
        <ele>1522.31</ele>
        <time>2021-06-14T12:16:14.000Z</time>
      </trkpt>
      <trkpt lat="42.49268" lon="1.95483">
        <ele>1544.94</ele>
        <time>2021-06-14T12:16:24.000Z</time>
      </trkpt>
      <trkpt lat="42.49266" lon="1.95484">
        <ele>1547.66</ele>
        <time>2021-06-14T12:16:35.000Z</time>
      </trkpt>
      <trkpt lat="42.49266" lon="1.95485">
        <ele>1520.92</ele>
        <time>2021-06-14T12:16:45.000Z</time>
      </trkpt>
      <trkpt lat="42.49267" lon="1.95483">
        <ele>1526.43</ele>
        <time>2021-06-14T12:16:55.000Z</time>
      </trkpt>
      <trkpt lat="42.49266" lon="1.95485">
        <ele>1534.8</ele>
        <time>2021-06-14T12:17:05.000Z</time>
      </trkpt>
      <trkpt lat="42.49269" lon="1.95487">
        <ele>1537.1</ele>
        <time>2021-06-14T12:17:15.234Z</time>
      </trkpt>
      <trkpt lat="42.49275" lon="1.95489">
        <ele>1516.62</ele>
        <time>2021-06-14T12:17:26.000Z</time>
      </trkpt>
      <trkpt lat="42.49282" lon="1.95494">
        <ele>1540.26</ele>
        <time>2021-06-14T12:17:37.000Z</time>
      </trkpt>
      <trkpt lat="42.49289" lon="1.95485">
        <ele>1534.19</ele>
        <time>2021-06-14T12:17:47.000Z</time>
      </trkpt>
      <trkpt lat="42.49293" lon="1.9548">
        <ele>1533.22</ele>
        <time>2021-06-14T12:17:57.000Z</time>
      </trkpt>
      <trkpt lat="42.493" lon="1.95486">
        <ele>1552.58</ele>
        <time>2021-06-14T12:18:06.001Z</time>
      </trkpt>
      <trkpt lat="42.49312" lon="1.95496">
        <ele>1531.8</ele>
        <time>2021-06-14T12:18:16.102Z</time>
      </trkpt>
      <trkpt lat="42.4932" lon="1.95501">
        <ele>1539.82</ele>
        <time>2021-06-14T12:18:27.000Z</time>
      </trkpt>
      <trkpt lat="42.49326" lon="1.95502">
        <ele>1543.77</ele>
        <time>2021-06-14T12:18:36.384Z</time>
      </trkpt>
      <trkpt lat="42.49331" lon="1.95502">
        <ele>1532.59</ele>
        <time>2021-06-14T12:18:47.000Z</time>
      </trkpt>
      <trkpt lat="42.49339" lon="1.95501">
        <ele>1531.22</ele>
        <time>2021-06-14T12:18:57.000Z</time>
      </trkpt>
      <trkpt lat="42.49353" lon="1.955">
        <ele>1538.56</ele>
        <time>2021-06-14T12:19:07.000Z</time>
      </trkpt>
      <trkpt lat="42.49371" lon="1.955">
        <ele>1549.17</ele>
        <time>2021-06-14T12:19:16.652Z</time>
      </trkpt>
      <trkpt lat="42.49381" lon="1.95504">
        <ele>1553.14</ele>
        <time>2021-06-14T12:19:26.000Z</time>
      </trkpt>
      <trkpt lat="42.49385" lon="1.95501">
        <ele>1553.44</ele>
        <time>2021-06-14T12:19:36.000Z</time>
      </trkpt>
      <trkpt lat="42.49386" lon="1.95502">
        <ele>1550.19</ele>
        <time>2021-06-14T12:19:45.007Z</time>
      </trkpt>
      <trkpt lat="42.49386" lon="1.95507">
        <ele>1554.83</ele>
        <time>2021-06-14T12:19:55.000Z</time>
      </trkpt>
      <trkpt lat="42.49387" lon="1.95512">
        <ele>1543.71</ele>
        <time>2021-06-14T12:20:05.000Z</time>
      </trkpt>
      <trkpt lat="42.49383" lon="1.9553">
        <ele>1547.72</ele>
        <time>2021-06-14T12:20:15.000Z</time>
      </trkpt>
      <trkpt lat="42.49367" lon="1.95542">
        <ele>1545.22</ele>
        <time>2021-06-14T12:20:26.000Z</time>
      </trkpt>
      <trkpt lat="42.49358" lon="1.95549">
        <ele>1553.84</ele>
        <time>2021-06-14T12:20:36.000Z</time>
      </trkpt>
      <trkpt lat="42.4936" lon="1.95558">
        <ele>1567.49</ele>
        <time>2021-06-14T12:20:45.087Z</time>
      </trkpt>
      <trkpt lat="42.49377" lon="1.95561">
        <ele>1558.14</ele>
        <time>2021-06-14T12:20:55.000Z</time>
      </trkpt>
      <trkpt lat="42.49387" lon="1.95555">
        <ele>1564.38</ele>
        <time>2021-06-14T12:21:05.000Z</time>
      </trkpt>
      <trkpt lat="42.49397" lon="1.95544">
        <ele>1552.41</ele>
        <time>2021-06-14T12:21:15.000Z</time>
      </trkpt>
      <trkpt lat="42.4941" lon="1.95546">
        <ele>1556.33</ele>
        <time>2021-06-14T12:21:24.082Z</time>
      </trkpt>
      <trkpt lat="42.49416" lon="1.95545">
        <ele>1574.35</ele>
        <time>2021-06-14T12:21:33.302Z</time>
      </trkpt>
      <trkpt lat="42.49423" lon="1.95542">
        <ele>1564.88</ele>
        <time>2021-06-14T12:21:42.362Z</time>
      </trkpt>
      <trkpt lat="42.4943" lon="1.95531">
        <ele>1569.8</ele>
        <time>2021-06-14T12:21:52.045Z</time>
      </trkpt>
      <trkpt lat="42.49438" lon="1.95522">
        <ele>1561.21</ele>
        <time>2021-06-14T12:22:03.000Z</time>
      </trkpt>
      <trkpt lat="42.49452" lon="1.95526">
        <ele>1563.7</ele>
        <time>2021-06-14T12:22:12.633Z</time>
      </trkpt>
      <trkpt lat="42.49463" lon="1.95526">
        <ele>1569.99</ele>
        <time>2021-06-14T12:22:24.000Z</time>
      </trkpt>
      <trkpt lat="42.49472" lon="1.95525">
        <ele>1563.22</ele>
        <time>2021-06-14T12:22:34.000Z</time>
      </trkpt>
      <trkpt lat="42.49477" lon="1.95526">
        <ele>1576.08</ele>
        <time>2021-06-14T12:22:43.310Z</time>
      </trkpt>
      <trkpt lat="42.49482" lon="1.95528">
        <ele>1559.64</ele>
        <time>2021-06-14T12:22:53.316Z</time>
      </trkpt>
      <trkpt lat="42.49488" lon="1.95531">
        <ele>1570.74</ele>
        <time>2021-06-14T12:23:05.000Z</time>
      </trkpt>
      <trkpt lat="42.49489" lon="1.95532">
        <ele>1575.12</ele>
        <time>2021-06-14T12:23:15.000Z</time>
      </trkpt>
      <trkpt lat="42.49494" lon="1.95529">
        <ele>1559.94</ele>
        <time>2021-06-14T12:23:24.292Z</time>
      </trkpt>
      <trkpt lat="42.49501" lon="1.95523">
        <ele>1575.95</ele>
        <time>2021-06-14T12:23:34.000Z</time>
      </trkpt>
      <trkpt lat="42.49512" lon="1.95513">
        <ele>1571.91</ele>
        <time>2021-06-14T12:23:45.000Z</time>
      </trkpt>
      <trkpt lat="42.49521" lon="1.95504">
        <ele>1578.97</ele>
        <time>2021-06-14T12:23:55.000Z</time>
      </trkpt>
      <trkpt lat="42.4953" lon="1.955">
        <ele>1592.23</ele>
        <time>2021-06-14T12:24:04.226Z</time>
      </trkpt>
      <trkpt lat="42.49542" lon="1.95496">
        <ele>1596.81</ele>
        <time>2021-06-14T12:24:14.459Z</time>
      </trkpt>
      <trkpt lat="42.49548" lon="1.95496">
        <ele>1572.52</ele>
        <time>2021-06-14T12:24:24.000Z</time>
      </trkpt>
      <trkpt lat="42.49552" lon="1.95495">
        <ele>1591.46</ele>
        <time>2021-06-14T12:24:35.000Z</time>
      </trkpt>
      <trkpt lat="42.4956" lon="1.95487">
        <ele>1590.81</ele>
        <time>2021-06-14T12:24:45.000Z</time>
      </trkpt>
      <trkpt lat="42.49565" lon="1.95477">
        <ele>1590.2</ele>
        <time>2021-06-14T12:24:54.174Z</time>
      </trkpt>
      <trkpt lat="42.49576" lon="1.95466">
        <ele>1593.38</ele>
        <time>2021-06-14T12:25:04.184Z</time>
      </trkpt>
      <trkpt lat="42.49585" lon="1.95471">
        <ele>1597.97</ele>
        <time>2021-06-14T12:25:14.000Z</time>
      </trkpt>
      <trkpt lat="42.49596" lon="1.95465">
        <ele>1606.83</ele>
        <time>2021-06-14T12:25:25.000Z</time>
      </trkpt>
      <trkpt lat="42.49602" lon="1.95457">
        <ele>1615.32</ele>
        <time>2021-06-14T12:25:34.003Z</time>
      </trkpt>
      <trkpt lat="42.49612" lon="1.95452">
        <ele>1615.53</ele>
        <time>2021-06-14T12:25:44.000Z</time>
      </trkpt>
      <trkpt lat="42.49626" lon="1.95454">
        <ele>1611.3</ele>
        <time>2021-06-14T12:25:53.222Z</time>
      </trkpt>
      <trkpt lat="42.49635" lon="1.95449">
        <ele>1599.97</ele>
        <time>2021-06-14T12:26:03.222Z</time>
      </trkpt>
      <trkpt lat="42.49649" lon="1.95447">
        <ele>1623.03</ele>
        <time>2021-06-14T12:26:12.336Z</time>
      </trkpt>
      <trkpt lat="42.49662" lon="1.95444">
        <ele>1619.34</ele>
        <time>2021-06-14T12:26:23.000Z</time>
      </trkpt>
      <trkpt lat="42.49674" lon="1.95438">
        <ele>1602.73</ele>
        <time>2021-06-14T12:26:32.438Z</time>
      </trkpt>
      <trkpt lat="42.49678" lon="1.95428">
        <ele>1621.58</ele>
        <time>2021-06-14T12:26:44.000Z</time>
      </trkpt>
      <trkpt lat="42.49692" lon="1.95441">
        <ele>1606.2</ele>
        <time>2021-06-14T12:26:53.652Z</time>
      </trkpt>
      <trkpt lat="42.49701" lon="1.95439">
        <ele>1625.17</ele>
        <time>2021-06-14T12:27:03.000Z</time>
      </trkpt>
      <trkpt lat="42.49714" lon="1.95436">
        <ele>1610.43</ele>
        <time>2021-06-14T12:27:14.000Z</time>
      </trkpt>
      <trkpt lat="42.49726" lon="1.95433">
        <ele>1628.5</ele>
        <time>2021-06-14T12:27:24.066Z</time>
      </trkpt>
      <trkpt lat="42.49732" lon="1.95428">
        <ele>1642.85</ele>
        <time>2021-06-14T12:27:34.007Z</time>
      </trkpt>
      <trkpt lat="42.49742" lon="1.9542">
        <ele>1630.23</ele>
        <time>2021-06-14T12:27:43.095Z</time>
      </trkpt>
      <trkpt lat="42.4975" lon="1.95409">
        <ele>1618.21</ele>
        <time>2021-06-14T12:27:53.000Z</time>
      </trkpt>
      <trkpt lat="42.49756" lon="1.95402">
        <ele>1637.99</ele>
        <time>2021-06-14T12:28:04.000Z</time>
      </trkpt>
      <trkpt lat="42.49765" lon="1.95391">
        <ele>1619.33</ele>
        <time>2021-06-14T12:28:15.000Z</time>
      </trkpt>
      <trkpt lat="42.49775" lon="1.95378">
        <ele>1650</ele>
        <time>2021-06-14T12:28:26.000Z</time>
      </trkpt>
      <trkpt lat="42.49786" lon="1.9536">
        <ele>1661.43</ele>
        <time>2021-06-14T12:28:36.075Z</time>
      </trkpt>
      <trkpt lat="42.49795" lon="1.95357">
        <ele>1644.13</ele>
        <time>2021-06-14T12:28:46.000Z</time>
      </trkpt>
      <trkpt lat="42.49807" lon="1.95355">
        <ele>1643.77</ele>
        <time>2021-06-14T12:28:55.173Z</time>
      </trkpt>
      <trkpt lat="42.49819" lon="1.95354">
        <ele>1641.59</ele>
        <time>2021-06-14T12:29:04.331Z</time>
      </trkpt>
      <trkpt lat="42.49831" lon="1.95355">
        <ele>1659.51</ele>
        <time>2021-06-14T12:29:13.351Z</time>
      </trkpt>
      <trkpt lat="42.49842" lon="1.95359">
        <ele>1643.11</ele>
        <time>2021-06-14T12:29:23.000Z</time>
      </trkpt>
      <trkpt lat="42.49854" lon="1.95364">
        <ele>1670.04</ele>
        <time>2021-06-14T12:29:32.096Z</time>
      </trkpt>
      <trkpt lat="42.49866" lon="1.95362">
        <ele>1657.11</ele>
        <time>2021-06-14T12:29:43.000Z</time>
      </trkpt>
      <trkpt lat="42.49867" lon="1.95361">
        <ele>1660.39</ele>
        <time>2021-06-14T12:29:52.093Z</time>
      </trkpt>
      <trkpt lat="42.49881" lon="1.95355">
        <ele>1652.14</ele>
        <time>2021-06-14T12:30:03.000Z</time>
      </trkpt>
      <trkpt lat="42.49893" lon="1.95357">
        <ele>1649.14</ele>
        <time>2021-06-14T12:30:12.249Z</time>
      </trkpt>
      <trkpt lat="42.49899" lon="1.95347">
        <ele>1644.77</ele>
        <time>2021-06-14T12:30:23.000Z</time>
      </trkpt>
      <trkpt lat="42.49901" lon="1.95331">
        <ele>1664.56</ele>
        <time>2021-06-14T12:30:32.072Z</time>
      </trkpt>
      <trkpt lat="42.49906" lon="1.95317">
        <ele>1659.97</ele>
        <time>2021-06-14T12:30:41.312Z</time>
      </trkpt>
      <trkpt lat="42.49919" lon="1.95313">
        <ele>1665</ele>
        <time>2021-06-14T12:30:53.000Z</time>
      </trkpt>
      <trkpt lat="42.49938" lon="1.95308">
        <ele>1657.31</ele>
        <time>2021-06-14T12:31:02.604Z</time>
      </trkpt>
      <trkpt lat="42.49954" lon="1.95308">
        <ele>1679.76</ele>
        <time>2021-06-14T12:31:11.655Z</time>
      </trkpt>
      <trkpt lat="42.49963" lon="1.95305">
        <ele>1680.91</ele>
        <time>2021-06-14T12:31:21.000Z</time>
      </trkpt>
      <trkpt lat="42.49976" lon="1.95301">
        <ele>1676.38</ele>
        <time>2021-06-14T12:31:31.000Z</time>
      </trkpt>
      <trkpt lat="42.49991" lon="1.95294">
        <ele>1665.92</ele>
        <time>2021-06-14T12:31:41.000Z</time>
      </trkpt>
      <trkpt lat="42.50006" lon="1.95293">
        <ele>1682.75</ele>
        <time>2021-06-14T12:31:51.000Z</time>
      </trkpt>
      <trkpt lat="42.5002" lon="1.95292">
        <ele>1680.06</ele>
        <time>2021-06-14T12:32:02.000Z</time>
      </trkpt>
      <trkpt lat="42.50032" lon="1.95289">
        <ele>1669.56</ele>
        <time>2021-06-14T12:32:11.074Z</time>
      </trkpt>
      <trkpt lat="42.5004" lon="1.95278">
        <ele>1671.47</ele>
        <time>2021-06-14T12:32:21.000Z</time>
      </trkpt>
      <trkpt lat="42.50049" lon="1.95264">
        <ele>1660.96</ele>
        <time>2021-06-14T12:32:31.000Z</time>
      </trkpt>
      <trkpt lat="42.50065" lon="1.95256">
        <ele>1670.61</ele>
        <time>2021-06-14T12:32:41.000Z</time>
      </trkpt>
      <trkpt lat="42.50067" lon="1.95256">
        <ele>1678.23</ele>
        <time>2021-06-14T12:32:51.000Z</time>
      </trkpt>
      <trkpt lat="42.50068" lon="1.95257">
        <ele>1689.19</ele>
        <time>2021-06-14T12:33:00.066Z</time>
      </trkpt>
      <trkpt lat="42.50076" lon="1.95256">
        <ele>1685.17</ele>
        <time>2021-06-14T12:33:09.307Z</time>
      </trkpt>
      <trkpt lat="42.5009" lon="1.95255">
        <ele>1682.17</ele>
        <time>2021-06-14T12:33:21.000Z</time>
      </trkpt>
      <trkpt lat="42.50106" lon="1.95261">
        <ele>1660.8</ele>
        <time>2021-06-14T12:33:31.510Z</time>
      </trkpt>
      <trkpt lat="42.50122" lon="1.95261">
        <ele>1678.6</ele>
        <time>2021-06-14T12:33:40.539Z</time>
      </trkpt>
      <trkpt lat="42.50135" lon="1.95262">
        <ele>1677.76</ele>
        <time>2021-06-14T12:33:50.000Z</time>
      </trkpt>
      <trkpt lat="42.50152" lon="1.95264">
        <ele>1665.92</ele>
        <time>2021-06-14T12:33:59.206Z</time>
      </trkpt>
      <trkpt lat="42.50164" lon="1.95272">
        <ele>1668.01</ele>
        <time>2021-06-14T12:34:09.071Z</time>
      </trkpt>
      <trkpt lat="42.50175" lon="1.95285">
        <ele>1677.06</ele>
        <time>2021-06-14T12:34:18.485Z</time>
      </trkpt>
      <trkpt lat="42.50184" lon="1.953">
        <ele>1679.7</ele>
        <time>2021-06-14T12:34:27.949Z</time>
      </trkpt>
      <trkpt lat="42.50194" lon="1.95306">
        <ele>1670.16</ele>
        <time>2021-06-14T12:34:39.000Z</time>
      </trkpt>
      <trkpt lat="42.50205" lon="1.9532">
        <ele>1681.51</ele>
        <time>2021-06-14T12:34:50.000Z</time>
      </trkpt>
      <trkpt lat="42.50215" lon="1.95341">
        <ele>1678.28</ele>
        <time>2021-06-14T12:34:59.456Z</time>
      </trkpt>
      <trkpt lat="42.50226" lon="1.95351">
        <ele>1683.79</ele>
        <time>2021-06-14T12:35:09.000Z</time>
      </trkpt>
      <trkpt lat="42.50242" lon="1.95361">
        <ele>1676.56</ele>
        <time>2021-06-14T12:35:18.273Z</time>
      </trkpt>
      <trkpt lat="42.50251" lon="1.95371">
        <ele>1682.09</ele>
        <time>2021-06-14T12:35:27.637Z</time>
      </trkpt>
      <trkpt lat="42.5026" lon="1.95379">
        <ele>1682.44</ele>
        <time>2021-06-14T12:35:37.093Z</time>
      </trkpt>
      <trkpt lat="42.5027" lon="1.95389">
        <ele>1666.71</ele>
        <time>2021-06-14T12:35:48.000Z</time>
      </trkpt>
      <trkpt lat="42.50283" lon="1.95396">
        <ele>1703.22</ele>
        <time>2021-06-14T12:35:57.073Z</time>
      </trkpt>
      <trkpt lat="42.50296" lon="1.95404">
        <ele>1669.91</ele>
        <time>2021-06-14T12:36:07.000Z</time>
      </trkpt>
      <trkpt lat="42.50309" lon="1.95415">
        <ele>1685.09</ele>
        <time>2021-06-14T12:36:18.000Z</time>
      </trkpt>
      <trkpt lat="42.50322" lon="1.95428">
        <ele>1669.6</ele>
        <time>2021-06-14T12:36:28.000Z</time>
      </trkpt>
      <trkpt lat="42.50337" lon="1.95433">
        <ele>1664.89</ele>
        <time>2021-06-14T12:36:37.251Z</time>
      </trkpt>
      <trkpt lat="42.50348" lon="1.95443">
        <ele>1659.37</ele>
        <time>2021-06-14T12:36:48.000Z</time>
      </trkpt>
      <trkpt lat="42.50361" lon="1.95458">
        <ele>1665.93</ele>
        <time>2021-06-14T12:36:57.646Z</time>
      </trkpt>
      <trkpt lat="42.50371" lon="1.95469">
        <ele>1664.01</ele>
        <time>2021-06-14T12:37:06.810Z</time>
      </trkpt>
      <trkpt lat="42.50382" lon="1.95479">
        <ele>1668.75</ele>
        <time>2021-06-14T12:37:17.000Z</time>
      </trkpt>
      <trkpt lat="42.50391" lon="1.95493">
        <ele>1662.96</ele>
        <time>2021-06-14T12:37:26.125Z</time>
      </trkpt>
      <trkpt lat="42.50404" lon="1.95499">
        <ele>1681.95</ele>
        <time>2021-06-14T12:37:35.880Z</time>
      </trkpt>
      <trkpt lat="42.50414" lon="1.95507">
        <ele>1653.3</ele>
        <time>2021-06-14T12:37:45.210Z</time>
      </trkpt>
      <trkpt lat="42.50419" lon="1.9551">
        <ele>1662.8</ele>
        <time>2021-06-14T12:37:55.000Z</time>
      </trkpt>
      <trkpt lat="42.5042" lon="1.95507">
        <ele>1653.48</ele>
        <time>2021-06-14T12:38:05.000Z</time>
      </trkpt>
      <trkpt lat="42.50425" lon="1.95505">
        <ele>1653.17</ele>
        <time>2021-06-14T12:38:15.000Z</time>
      </trkpt>
      <trkpt lat="42.50427" lon="1.95469">
        <ele>1664.84</ele>
        <time>2021-06-14T12:38:25.000Z</time>
      </trkpt>
      <trkpt lat="42.50444" lon="1.95458">
        <ele>1647.4</ele>
        <time>2021-06-14T12:38:35.000Z</time>
      </trkpt>
      <trkpt lat="42.50442" lon="1.95465">
        <ele>1649.25</ele>
        <time>2021-06-14T12:38:45.000Z</time>
      </trkpt>
      <trkpt lat="42.50438" lon="1.95462">
        <ele>1651.01</ele>
        <time>2021-06-14T12:38:55.000Z</time>
      </trkpt>
      <trkpt lat="42.50457" lon="1.95472">
        <ele>1659.4</ele>
        <time>2021-06-14T12:39:05.000Z</time>
      </trkpt>
      <trkpt lat="42.5047" lon="1.95513">
        <ele>1662.27</ele>
        <time>2021-06-14T12:39:17.000Z</time>
      </trkpt>
      <trkpt lat="42.50483" lon="1.95523">
        <ele>1673.85</ele>
        <time>2021-06-14T12:39:27.000Z</time>
      </trkpt>
      <trkpt lat="42.50495" lon="1.95529">
        <ele>1660.06</ele>
        <time>2021-06-14T12:39:36.270Z</time>
      </trkpt>
      <trkpt lat="42.50506" lon="1.95528">
        <ele>1648.31</ele>
        <time>2021-06-14T12:39:46.000Z</time>
      </trkpt>
      <trkpt lat="42.50518" lon="1.95526">
        <ele>1642.92</ele>
        <time>2021-06-14T12:39:56.000Z</time>
      </trkpt>
      <trkpt lat="42.5053" lon="1.95528">
        <ele>1634.38</ele>
        <time>2021-06-14T12:40:06.000Z</time>
      </trkpt>
      <trkpt lat="42.5054" lon="1.9553">
        <ele>1650.07</ele>
        <time>2021-06-14T12:40:16.000Z</time>
      </trkpt>
      <trkpt lat="42.50555" lon="1.95532">
        <ele>1647.66</ele>
        <time>2021-06-14T12:40:26.000Z</time>
      </trkpt>
      <trkpt lat="42.50571" lon="1.95533">
        <ele>1648.4</ele>
        <time>2021-06-14T12:40:36.000Z</time>
      </trkpt>
      <trkpt lat="42.50586" lon="1.95528">
        <ele>1652.2</ele>
        <time>2021-06-14T12:40:45.924Z</time>
      </trkpt>
      <trkpt lat="42.50593" lon="1.95526">
        <ele>1642.49</ele>
        <time>2021-06-14T12:40:57.000Z</time>
      </trkpt>
      <trkpt lat="42.50604" lon="1.9552">
        <ele>1665.62</ele>
        <time>2021-06-14T12:41:08.000Z</time>
      </trkpt>
      <trkpt lat="42.5062" lon="1.9552">
        <ele>1635.75</ele>
        <time>2021-06-14T12:41:17.308Z</time>
      </trkpt>
      <trkpt lat="42.50629" lon="1.95522">
        <ele>1634.32</ele>
        <time>2021-06-14T12:41:27.067Z</time>
      </trkpt>
      <trkpt lat="42.50641" lon="1.95533">
        <ele>1639.37</ele>
        <time>2021-06-14T12:41:37.072Z</time>
      </trkpt>
      <trkpt lat="42.50655" lon="1.95534">
        <ele>1640.07</ele>
        <time>2021-06-14T12:41:48.000Z</time>
      </trkpt>
      <trkpt lat="42.50667" lon="1.95532">
        <ele>1627.61</ele>
        <time>2021-06-14T12:41:58.000Z</time>
      </trkpt>
      <trkpt lat="42.50666" lon="1.95533">
        <ele>1627.53</ele>
        <time>2021-06-14T12:42:08.000Z</time>
      </trkpt>
      <trkpt lat="42.50662" lon="1.95529">
        <ele>1632.13</ele>
        <time>2021-06-14T12:42:17.621Z</time>
      </trkpt>
      <trkpt lat="42.50651" lon="1.95532">
        <ele>1632.13</ele>
        <time>2021-06-14T12:42:27.599Z</time>
      </trkpt>
      <trkpt lat="42.50643" lon="1.95548">
        <ele>1632.13</ele>
        <time>2021-06-14T12:42:36.746Z</time>
      </trkpt>
      <trkpt lat="42.50666" lon="1.95561">
        <ele>1611.21</ele>
        <time>2021-06-14T12:42:46.119Z</time>
      </trkpt>
      <trkpt lat="42.50732" lon="1.95543">
        <ele>1624.44</ele>
        <time>2021-06-14T12:42:56.000Z</time>
      </trkpt>
      <trkpt lat="42.50762" lon="1.95522">
        <ele>1623.32</ele>
        <time>2021-06-14T12:43:05.070Z</time>
      </trkpt>
      <trkpt lat="42.50776" lon="1.95527">
        <ele>1631.76</ele>
        <time>2021-06-14T12:43:17.000Z</time>
      </trkpt>
      <trkpt lat="42.50795" lon="1.95534">
        <ele>1622.16</ele>
        <time>2021-06-14T12:43:28.000Z</time>
      </trkpt>
      <trkpt lat="42.50811" lon="1.95537">
        <ele>1608.63</ele>
        <time>2021-06-14T12:43:37.685Z</time>
      </trkpt>
      <trkpt lat="42.50826" lon="1.95536">
        <ele>1619.39</ele>
        <time>2021-06-14T12:43:47.188Z</time>
      </trkpt>
      <trkpt lat="42.5084" lon="1.95536">
        <ele>1609.02</ele>
        <time>2021-06-14T12:43:57.066Z</time>
      </trkpt>
      <trkpt lat="42.50852" lon="1.95541">
        <ele>1611.7</ele>
        <time>2021-06-14T12:44:06.668Z</time>
      </trkpt>
      <trkpt lat="42.50862" lon="1.95544">
        <ele>1607.06</ele>
        <time>2021-06-14T12:44:16.000Z</time>
      </trkpt>
      <trkpt lat="42.50882" lon="1.95547">
        <ele>1613.15</ele>
        <time>2021-06-14T12:44:25.584Z</time>
      </trkpt>
      <trkpt lat="42.50893" lon="1.9555">
        <ele>1606.43</ele>
        <time>2021-06-14T12:44:35.000Z</time>
      </trkpt>
      <trkpt lat="42.50912" lon="1.95554">
        <ele>1616.27</ele>
        <time>2021-06-14T12:44:46.000Z</time>
      </trkpt>
      <trkpt lat="42.50925" lon="1.95558">
        <ele>1609.15</ele>
        <time>2021-06-14T12:44:57.000Z</time>
      </trkpt>
      <trkpt lat="42.50939" lon="1.95551">
        <ele>1601.98</ele>
        <time>2021-06-14T12:45:06.247Z</time>
      </trkpt>
      <trkpt lat="42.50953" lon="1.95538">
        <ele>1590.6</ele>
        <time>2021-06-14T12:45:15.627Z</time>
      </trkpt>
      <trkpt lat="42.50961" lon="1.95531">
        <ele>1606.57</ele>
        <time>2021-06-14T12:45:25.124Z</time>
      </trkpt>
      <trkpt lat="42.50972" lon="1.9553">
        <ele>1605.61</ele>
        <time>2021-06-14T12:45:35.000Z</time>
      </trkpt>
      <trkpt lat="42.50988" lon="1.95528">
        <ele>1607.02</ele>
        <time>2021-06-14T12:45:44.247Z</time>
      </trkpt>
      <trkpt lat="42.51007" lon="1.95537">
        <ele>1598.81</ele>
        <time>2021-06-14T12:45:53.947Z</time>
      </trkpt>
      <trkpt lat="42.51019" lon="1.95537">
        <ele>1603.37</ele>
        <time>2021-06-14T12:46:04.000Z</time>
      </trkpt>
      <trkpt lat="42.51034" lon="1.95528">
        <ele>1597.26</ele>
        <time>2021-06-14T12:46:14.000Z</time>
      </trkpt>
      <trkpt lat="42.5105" lon="1.95527">
        <ele>1599.51</ele>
        <time>2021-06-14T12:46:25.000Z</time>
      </trkpt>
      <trkpt lat="42.51067" lon="1.95517">
        <ele>1601.89</ele>
        <time>2021-06-14T12:46:34.776Z</time>
      </trkpt>
      <trkpt lat="42.5108" lon="1.95517">
        <ele>1586.2</ele>
        <time>2021-06-14T12:46:45.000Z</time>
      </trkpt>
      <trkpt lat="42.51097" lon="1.95511">
        <ele>1590.61</ele>
        <time>2021-06-14T12:46:54.486Z</time>
      </trkpt>
      <trkpt lat="42.51114" lon="1.95514">
        <ele>1584.4</ele>
        <time>2021-06-14T12:47:03.489Z</time>
      </trkpt>
      <trkpt lat="42.5113" lon="1.95516">
        <ele>1599.17</ele>
        <time>2021-06-14T12:47:13.175Z</time>
      </trkpt>
      <trkpt lat="42.51145" lon="1.95521">
        <ele>1590.09</ele>
        <time>2021-06-14T12:47:22.269Z</time>
      </trkpt>
      <trkpt lat="42.51161" lon="1.95528">
        <ele>1579.83</ele>
        <time>2021-06-14T12:47:31.757Z</time>
      </trkpt>
      <trkpt lat="42.51176" lon="1.95525">
        <ele>1596.69</ele>
        <time>2021-06-14T12:47:42.000Z</time>
      </trkpt>
      <trkpt lat="42.51194" lon="1.95519">
        <ele>1599.15</ele>
        <time>2021-06-14T12:47:52.075Z</time>
      </trkpt>
      <trkpt lat="42.51205" lon="1.95517">
        <ele>1580.53</ele>
        <time>2021-06-14T12:48:03.000Z</time>
      </trkpt>
      <trkpt lat="42.51224" lon="1.95517">
        <ele>1583.15</ele>
        <time>2021-06-14T12:48:12.063Z</time>
      </trkpt>
      <trkpt lat="42.51238" lon="1.95528">
        <ele>1580.99</ele>
        <time>2021-06-14T12:48:22.000Z</time>
      </trkpt>
      <trkpt lat="42.51251" lon="1.95533">
        <ele>1574.55</ele>
        <time>2021-06-14T12:48:32.000Z</time>
      </trkpt>
      <trkpt lat="42.51253" lon="1.95534">
        <ele>1576.29</ele>
        <time>2021-06-14T12:48:42.000Z</time>
      </trkpt>
      <trkpt lat="42.5127" lon="1.95533">
        <ele>1576.68</ele>
        <time>2021-06-14T12:48:51.266Z</time>
      </trkpt>
      <trkpt lat="42.51283" lon="1.95529">
        <ele>1591.54</ele>
        <time>2021-06-14T12:49:01.193Z</time>
      </trkpt>
      <trkpt lat="42.51289" lon="1.95523">
        <ele>1594.11</ele>
        <time>2021-06-14T12:49:10.348Z</time>
      </trkpt>
      <trkpt lat="42.51302" lon="1.95532">
        <ele>1584.97</ele>
        <time>2021-06-14T12:49:20.203Z</time>
      </trkpt>
      <trkpt lat="42.51314" lon="1.95542">
        <ele>1569.72</ele>
        <time>2021-06-14T12:49:31.000Z</time>
      </trkpt>
      <trkpt lat="42.51327" lon="1.95545">
        <ele>1579.86</ele>
        <time>2021-06-14T12:49:40.415Z</time>
      </trkpt>
      <trkpt lat="42.51342" lon="1.95546">
        <ele>1565.11</ele>
        <time>2021-06-14T12:49:50.438Z</time>
      </trkpt>
      <trkpt lat="42.51353" lon="1.9555">
        <ele>1575.04</ele>
        <time>2021-06-14T12:50:01.000Z</time>
      </trkpt>
      <trkpt lat="42.5137" lon="1.95552">
        <ele>1570.66</ele>
        <time>2021-06-14T12:50:10.406Z</time>
      </trkpt>
      <trkpt lat="42.51385" lon="1.95554">
        <ele>1571.13</ele>
        <time>2021-06-14T12:50:20.142Z</time>
      </trkpt>
      <trkpt lat="42.51399" lon="1.95552">
        <ele>1570.98</ele>
        <time>2021-06-14T12:50:29.850Z</time>
      </trkpt>
      <trkpt lat="42.51412" lon="1.95547">
        <ele>1570.16</ele>
        <time>2021-06-14T12:50:40.000Z</time>
      </trkpt>
      <trkpt lat="42.51431" lon="1.95547">
        <ele>1563.64</ele>
        <time>2021-06-14T12:50:51.000Z</time>
      </trkpt>
      <trkpt lat="42.51442" lon="1.95546">
        <ele>1571.91</ele>
        <time>2021-06-14T12:51:02.000Z</time>
      </trkpt>
      <trkpt lat="42.51453" lon="1.95549">
        <ele>1568.77</ele>
        <time>2021-06-14T12:51:14.000Z</time>
      </trkpt>
      <trkpt lat="42.51468" lon="1.95558">
        <ele>1568.5</ele>
        <time>2021-06-14T12:51:23.425Z</time>
      </trkpt>
      <trkpt lat="42.51481" lon="1.95563">
        <ele>1538.48</ele>
        <time>2021-06-14T12:51:32.468Z</time>
      </trkpt>
      <trkpt lat="42.51497" lon="1.95574">
        <ele>1567.82</ele>
        <time>2021-06-14T12:51:42.119Z</time>
      </trkpt>
      <trkpt lat="42.51505" lon="1.9558">
        <ele>1565.23</ele>
        <time>2021-06-14T12:51:52.000Z</time>
      </trkpt>
      <trkpt lat="42.51512" lon="1.95582">
        <ele>1566.25</ele>
        <time>2021-06-14T12:52:01.911Z</time>
      </trkpt>
      <trkpt lat="42.5152" lon="1.95606">
        <ele>1577.94</ele>
        <time>2021-06-14T12:52:13.000Z</time>
      </trkpt>
      <trkpt lat="42.51531" lon="1.95626">
        <ele>1571.22</ele>
        <time>2021-06-14T12:52:24.000Z</time>
      </trkpt>
      <trkpt lat="42.51537" lon="1.95648">
        <ele>1560.17</ele>
        <time>2021-06-14T12:52:35.000Z</time>
      </trkpt>
      <trkpt lat="42.51539" lon="1.95653">
        <ele>1578.66</ele>
        <time>2021-06-14T12:52:45.000Z</time>
      </trkpt>
      <trkpt lat="42.51545" lon="1.95656">
        <ele>1569.55</ele>
        <time>2021-06-14T12:52:55.122Z</time>
      </trkpt>
      <trkpt lat="42.5156" lon="1.95655">
        <ele>1572.48</ele>
        <time>2021-06-14T12:53:05.398Z</time>
      </trkpt>
      <trkpt lat="42.51561" lon="1.95651">
        <ele>1593.12</ele>
        <time>2021-06-14T12:53:15.000Z</time>
      </trkpt>
      <trkpt lat="42.51561" lon="1.95652">
        <ele>1585.85</ele>
        <time>2021-06-14T12:53:28.000Z</time>
      </trkpt>
      <trkpt lat="42.51563" lon="1.95652">
        <ele>1583.88</ele>
        <time>2021-06-14T12:53:38.000Z</time>
      </trkpt>
      <trkpt lat="42.51563" lon="1.95649">
        <ele>1579.69</ele>
        <time>2021-06-14T12:53:48.000Z</time>
      </trkpt>
      <trkpt lat="42.51557" lon="1.95656">
        <ele>1556.94</ele>
        <time>2021-06-14T12:53:58.000Z</time>
      </trkpt>
      <trkpt lat="42.51557" lon="1.95651">
        <ele>1580.96</ele>
        <time>2021-06-14T12:54:08.000Z</time>
      </trkpt>
      <trkpt lat="42.51566" lon="1.95649">
        <ele>1572.09</ele>
        <time>2021-06-14T12:54:18.000Z</time>
      </trkpt>
      <trkpt lat="42.51582" lon="1.95632">
        <ele>1579.37</ele>
        <time>2021-06-14T12:54:28.000Z</time>
      </trkpt>
      <trkpt lat="42.51596" lon="1.95623">
        <ele>1570.66</ele>
        <time>2021-06-14T12:54:37.053Z</time>
      </trkpt>
      <trkpt lat="42.51604" lon="1.95619">
        <ele>1583.17</ele>
        <time>2021-06-14T12:54:47.000Z</time>
      </trkpt>
      <trkpt lat="42.51605" lon="1.95617">
        <ele>1576.86</ele>
        <time>2021-06-14T12:54:57.000Z</time>
      </trkpt>
      <trkpt lat="42.51612" lon="1.95612">
        <ele>1588.17</ele>
        <time>2021-06-14T12:55:07.000Z</time>
      </trkpt>
      <trkpt lat="42.51613" lon="1.95612">
        <ele>1578.07</ele>
        <time>2021-06-14T12:55:17.000Z</time>
      </trkpt>
      <trkpt lat="42.51623" lon="1.95609">
        <ele>1588.79</ele>
        <time>2021-06-14T12:55:27.026Z</time>
      </trkpt>
      <trkpt lat="42.51627" lon="1.95604">
        <ele>1580</ele>
        <time>2021-06-14T12:55:37.000Z</time>
      </trkpt>
      <trkpt lat="42.51628" lon="1.95595">
        <ele>1570.25</ele>
        <time>2021-06-14T12:55:47.000Z</time>
      </trkpt>
      <trkpt lat="42.51625" lon="1.95592">
        <ele>1582.05</ele>
        <time>2021-06-14T12:55:57.000Z</time>
      </trkpt>
      <trkpt lat="42.5162" lon="1.95587">
        <ele>1587.39</ele>
        <time>2021-06-14T12:56:07.000Z</time>
      </trkpt>
      <trkpt lat="42.51618" lon="1.95586">
        <ele>1592.05</ele>
        <time>2021-06-14T12:56:17.000Z</time>
      </trkpt>
      <trkpt lat="42.51621" lon="1.95584">
        <ele>1587</ele>
        <time>2021-06-14T12:56:27.000Z</time>
      </trkpt>
      <trkpt lat="42.51617" lon="1.95567">
        <ele>1589.89</ele>
        <time>2021-06-14T12:56:37.065Z</time>
      </trkpt>
      <trkpt lat="42.51611" lon="1.95558">
        <ele>1585.49</ele>
        <time>2021-06-14T12:56:47.000Z</time>
      </trkpt>
      <trkpt lat="42.51608" lon="1.95562">
        <ele>1592.56</ele>
        <time>2021-06-14T12:56:57.000Z</time>
      </trkpt>
      <trkpt lat="42.51604" lon="1.95563">
        <ele>1580.83</ele>
        <time>2021-06-14T12:57:06.570Z</time>
      </trkpt>
      <trkpt lat="42.51602" lon="1.95562">
        <ele>1587.84</ele>
        <time>2021-06-14T12:57:18.000Z</time>
      </trkpt>
      <trkpt lat="42.51596" lon="1.95571">
        <ele>1581.98</ele>
        <time>2021-06-14T12:57:28.000Z</time>
      </trkpt>
      <trkpt lat="42.51595" lon="1.95582">
        <ele>1576.86</ele>
        <time>2021-06-14T12:57:38.000Z</time>
      </trkpt>
      <trkpt lat="42.51587" lon="1.95582">
        <ele>1580.44</ele>
        <time>2021-06-14T12:57:48.000Z</time>
      </trkpt>
      <trkpt lat="42.51572" lon="1.95585">
        <ele>1583.47</ele>
        <time>2021-06-14T12:57:58.000Z</time>
      </trkpt>
      <trkpt lat="42.51575" lon="1.95554">
        <ele>1585.5</ele>
        <time>2021-06-14T12:58:08.000Z</time>
      </trkpt>
      <trkpt lat="42.51575" lon="1.95525">
        <ele>1574.91</ele>
        <time>2021-06-14T12:58:21.000Z</time>
      </trkpt>
      <trkpt lat="42.51578" lon="1.95525">
        <ele>1583.13</ele>
        <time>2021-06-14T12:58:31.000Z</time>
      </trkpt>
      <trkpt lat="42.51578" lon="1.95532">
        <ele>1585.06</ele>
        <time>2021-06-14T12:58:41.000Z</time>
      </trkpt>
      <trkpt lat="42.51576" lon="1.95533">
        <ele>1587.63</ele>
        <time>2021-06-14T12:58:51.000Z</time>
      </trkpt>
      <trkpt lat="42.51579" lon="1.95537">
        <ele>1578.2</ele>
        <time>2021-06-14T12:59:01.000Z</time>
      </trkpt>
      <trkpt lat="42.51585" lon="1.95533">
        <ele>1576.9</ele>
        <time>2021-06-14T12:59:11.000Z</time>
      </trkpt>
      <trkpt lat="42.51588" lon="1.95527">
        <ele>1577.19</ele>
        <time>2021-06-14T12:59:21.000Z</time>
      </trkpt>
      <trkpt lat="42.51581" lon="1.95542">
        <ele>1654.13</ele>
        <time>2021-06-14T12:59:43.000Z</time>
      </trkpt>
      <trkpt lat="42.51587" lon="1.9554">
        <ele>1660.88</ele>
        <time>2021-06-14T12:59:53.000Z</time>
      </trkpt>
      <trkpt lat="42.5157" lon="1.95534">
        <ele>1681.53</ele>
        <time>2021-06-14T13:00:03.000Z</time>
      </trkpt>
      <trkpt lat="42.51559" lon="1.95523">
        <ele>1663.39</ele>
        <time>2021-06-14T13:00:13.000Z</time>
      </trkpt>
      <trkpt lat="42.51582" lon="1.95524">
        <ele>1651.71</ele>
        <time>2021-06-14T13:00:23.000Z</time>
      </trkpt>
      <trkpt lat="42.51624" lon="1.9548">
        <ele>1640.08</ele>
        <time>2021-06-14T13:00:33.000Z</time>
      </trkpt>
      <trkpt lat="42.5164" lon="1.95403">
        <ele>1610.31</ele>
        <time>2021-06-14T13:00:43.000Z</time>
      </trkpt>
      <trkpt lat="42.51619" lon="1.9545">
        <ele>1606.79</ele>
        <time>2021-06-14T13:00:53.000Z</time>
      </trkpt>
      <trkpt lat="42.51602" lon="1.95522">
        <ele>1611.46</ele>
        <time>2021-06-14T13:01:04.000Z</time>
      </trkpt>
      <trkpt lat="42.51604" lon="1.95556">
        <ele>1622.53</ele>
        <time>2021-06-14T13:01:13.498Z</time>
      </trkpt>
      <trkpt lat="42.51612" lon="1.95562">
        <ele>1590.96</ele>
        <time>2021-06-14T13:01:23.000Z</time>
      </trkpt>
      <trkpt lat="42.5162" lon="1.95568">
        <ele>1589.74</ele>
        <time>2021-06-14T13:01:33.000Z</time>
      </trkpt>
      <trkpt lat="42.51634" lon="1.95583">
        <ele>1597.66</ele>
        <time>2021-06-14T13:01:42.314Z</time>
      </trkpt>
      <trkpt lat="42.51643" lon="1.95597">
        <ele>1591.31</ele>
        <time>2021-06-14T13:01:52.000Z</time>
      </trkpt>
      <trkpt lat="42.51651" lon="1.95611">
        <ele>1615.26</ele>
        <time>2021-06-14T13:02:01.368Z</time>
      </trkpt>
      <trkpt lat="42.51659" lon="1.95624">
        <ele>1599.14</ele>
        <time>2021-06-14T13:02:12.000Z</time>
      </trkpt>
      <trkpt lat="42.51667" lon="1.95631">
        <ele>1606.97</ele>
        <time>2021-06-14T13:02:22.000Z</time>
      </trkpt>
      <trkpt lat="42.51668" lon="1.9563">
        <ele>1608.84</ele>
        <time>2021-06-14T13:02:35.000Z</time>
      </trkpt>
      <trkpt lat="42.51665" lon="1.95633">
        <ele>1596.28</ele>
        <time>2021-06-14T13:02:45.000Z</time>
      </trkpt>
      <trkpt lat="42.51666" lon="1.95632">
        <ele>1587.59</ele>
        <time>2021-06-14T13:02:55.000Z</time>
      </trkpt>
      <trkpt lat="42.51664" lon="1.95629">
        <ele>1588.54</ele>
        <time>2021-06-14T13:03:05.000Z</time>
      </trkpt>
      <trkpt lat="42.51663" lon="1.95632">
        <ele>1593.65</ele>
        <time>2021-06-14T13:03:15.000Z</time>
      </trkpt>
      <trkpt lat="42.51671" lon="1.95631">
        <ele>1611.68</ele>
        <time>2021-06-14T13:03:25.000Z</time>
      </trkpt>
      <trkpt lat="42.51669" lon="1.95626">
        <ele>1590.71</ele>
        <time>2021-06-14T13:03:35.000Z</time>
      </trkpt>
      <trkpt lat="42.51663" lon="1.9563">
        <ele>1594.68</ele>
        <time>2021-06-14T13:03:45.000Z</time>
      </trkpt>
      <trkpt lat="42.51662" lon="1.95632">
        <ele>1603.25</ele>
        <time>2021-06-14T13:03:55.000Z</time>
      </trkpt>
      <trkpt lat="42.51665" lon="1.9562">
        <ele>1610.54</ele>
        <time>2021-06-14T13:04:05.000Z</time>
      </trkpt>
      <trkpt lat="42.51668" lon="1.95622">
        <ele>1610.49</ele>
        <time>2021-06-14T13:04:15.000Z</time>
      </trkpt>
      <trkpt lat="42.51665" lon="1.95628">
        <ele>1603.35</ele>
        <time>2021-06-14T13:04:25.000Z</time>
      </trkpt>
      <trkpt lat="42.51665" lon="1.95633">
        <ele>1593.7</ele>
        <time>2021-06-14T13:04:35.000Z</time>
      </trkpt>
      <trkpt lat="42.51664" lon="1.95635">
        <ele>1603.27</ele>
        <time>2021-06-14T13:04:45.000Z</time>
      </trkpt>
      <trkpt lat="42.51661" lon="1.95635">
        <ele>1602.47</ele>
        <time>2021-06-14T13:04:55.000Z</time>
      </trkpt>
      <trkpt lat="42.51664" lon="1.95637">
        <ele>1587.27</ele>
        <time>2021-06-14T13:05:05.000Z</time>
      </trkpt>
      <trkpt lat="42.51666" lon="1.9564">
        <ele>1588.71</ele>
        <time>2021-06-14T13:05:15.000Z</time>
      </trkpt>
      <trkpt lat="42.51669" lon="1.95648">
        <ele>1602.85</ele>
        <time>2021-06-14T13:05:24.074Z</time>
      </trkpt>
      <trkpt lat="42.51674" lon="1.95655">
        <ele>1595.92</ele>
        <time>2021-06-14T13:05:33.459Z</time>
      </trkpt>
      <trkpt lat="42.51678" lon="1.95659">
        <ele>1594.47</ele>
        <time>2021-06-14T13:05:43.273Z</time>
      </trkpt>
      <trkpt lat="42.51682" lon="1.95663">
        <ele>1583.6</ele>
        <time>2021-06-14T13:05:53.343Z</time>
      </trkpt>
      <trkpt lat="42.51684" lon="1.95666">
        <ele>1596.01</ele>
        <time>2021-06-14T13:06:03.323Z</time>
      </trkpt>
      <trkpt lat="42.51689" lon="1.95674">
        <ele>1594.25</ele>
        <time>2021-06-14T13:06:13.350Z</time>
      </trkpt>
      <trkpt lat="42.51693" lon="1.95683">
        <ele>1581.82</ele>
        <time>2021-06-14T13:06:23.000Z</time>
      </trkpt>
      <trkpt lat="42.51702" lon="1.95687">
        <ele>1601.12</ele>
        <time>2021-06-14T13:06:32.215Z</time>
      </trkpt>
      <trkpt lat="42.51708" lon="1.95686">
        <ele>1617.83</ele>
        <time>2021-06-14T13:06:42.000Z</time>
      </trkpt>
      <trkpt lat="42.51717" lon="1.95687">
        <ele>1594</ele>
        <time>2021-06-14T13:06:53.000Z</time>
      </trkpt>
      <trkpt lat="42.51728" lon="1.95687">
        <ele>1599.21</ele>
        <time>2021-06-14T13:07:02.133Z</time>
      </trkpt>
      <trkpt lat="42.51737" lon="1.95689">
        <ele>1601.22</ele>
        <time>2021-06-14T13:07:13.000Z</time>
      </trkpt>
      <trkpt lat="42.51747" lon="1.95687">
        <ele>1600.85</ele>
        <time>2021-06-14T13:07:23.055Z</time>
      </trkpt>
      <trkpt lat="42.51754" lon="1.95687">
        <ele>1603.03</ele>
        <time>2021-06-14T13:07:34.000Z</time>
      </trkpt>
      <trkpt lat="42.51764" lon="1.95691">
        <ele>1608.7</ele>
        <time>2021-06-14T13:07:43.516Z</time>
      </trkpt>
      <trkpt lat="42.5177" lon="1.95697">
        <ele>1606.65</ele>
        <time>2021-06-14T13:07:53.000Z</time>
      </trkpt>
      <trkpt lat="42.51774" lon="1.95702">
        <ele>1612.09</ele>
        <time>2021-06-14T13:08:02.214Z</time>
      </trkpt>
      <trkpt lat="42.51781" lon="1.95709">
        <ele>1600.34</ele>
        <time>2021-06-14T13:08:11.692Z</time>
      </trkpt>
      <trkpt lat="42.51785" lon="1.95724">
        <ele>1624.58</ele>
        <time>2021-06-14T13:08:21.415Z</time>
      </trkpt>
      <trkpt lat="42.51787" lon="1.95728">
        <ele>1634.69</ele>
        <time>2021-06-14T13:08:30.453Z</time>
      </trkpt>
      <trkpt lat="42.51792" lon="1.95738">
        <ele>1619.43</ele>
        <time>2021-06-14T13:08:42.000Z</time>
      </trkpt>
      <trkpt lat="42.518" lon="1.95751">
        <ele>1623.37</ele>
        <time>2021-06-14T13:08:51.414Z</time>
      </trkpt>
      <trkpt lat="42.51809" lon="1.95762">
        <ele>1621.32</ele>
        <time>2021-06-14T13:09:01.000Z</time>
      </trkpt>
      <trkpt lat="42.51812" lon="1.95763">
        <ele>1606.36</ele>
        <time>2021-06-14T13:09:11.000Z</time>
      </trkpt>
      <trkpt lat="42.51814" lon="1.95767">
        <ele>1618.98</ele>
        <time>2021-06-14T13:09:20.194Z</time>
      </trkpt>
      <trkpt lat="42.51821" lon="1.95774">
        <ele>1615.33</ele>
        <time>2021-06-14T13:09:29.214Z</time>
      </trkpt>
      <trkpt lat="42.51829" lon="1.95783">
        <ele>1623.23</ele>
        <time>2021-06-14T13:09:38.313Z</time>
      </trkpt>
      <trkpt lat="42.51833" lon="1.95793">
        <ele>1617.64</ele>
        <time>2021-06-14T13:09:47.486Z</time>
      </trkpt>
      <trkpt lat="42.51837" lon="1.95807">
        <ele>1608.99</ele>
        <time>2021-06-14T13:09:56.489Z</time>
      </trkpt>
      <trkpt lat="42.51842" lon="1.95828">
        <ele>1624.75</ele>
        <time>2021-06-14T13:10:06.386Z</time>
      </trkpt>
      <trkpt lat="42.51848" lon="1.95848">
        <ele>1629.33</ele>
        <time>2021-06-14T13:10:15.894Z</time>
      </trkpt>
      <trkpt lat="42.51857" lon="1.95863">
        <ele>1631.09</ele>
        <time>2021-06-14T13:10:25.935Z</time>
      </trkpt>
      <trkpt lat="42.51871" lon="1.95876">
        <ele>1635.56</ele>
        <time>2021-06-14T13:10:35.274Z</time>
      </trkpt>
      <trkpt lat="42.51876" lon="1.95884">
        <ele>1663</ele>
        <time>2021-06-14T13:10:45.173Z</time>
      </trkpt>
      <trkpt lat="42.51887" lon="1.95889">
        <ele>1628.26</ele>
        <time>2021-06-14T13:10:54.413Z</time>
      </trkpt>
      <trkpt lat="42.51897" lon="1.95893">
        <ele>1644.79</ele>
        <time>2021-06-14T13:11:04.068Z</time>
      </trkpt>
      <trkpt lat="42.51909" lon="1.95895">
        <ele>1617.51</ele>
        <time>2021-06-14T13:11:15.000Z</time>
      </trkpt>
      <trkpt lat="42.51918" lon="1.95903">
        <ele>1613.7</ele>
        <time>2021-06-14T13:11:24.939Z</time>
      </trkpt>
      <trkpt lat="42.5192" lon="1.95911">
        <ele>1629.63</ele>
        <time>2021-06-14T13:11:34.000Z</time>
      </trkpt>
      <trkpt lat="42.51925" lon="1.95926">
        <ele>1618.52</ele>
        <time>2021-06-14T13:11:43.381Z</time>
      </trkpt>
      <trkpt lat="42.51929" lon="1.95935">
        <ele>1635.26</ele>
        <time>2021-06-14T13:11:53.000Z</time>
      </trkpt>
      <trkpt lat="42.5193" lon="1.9595">
        <ele>1628.23</ele>
        <time>2021-06-14T13:12:03.000Z</time>
      </trkpt>
      <trkpt lat="42.51928" lon="1.95954">
        <ele>1615.63</ele>
        <time>2021-06-14T13:12:13.000Z</time>
      </trkpt>
      <trkpt lat="42.5193" lon="1.95974">
        <ele>1634.59</ele>
        <time>2021-06-14T13:12:22.024Z</time>
      </trkpt>
      <trkpt lat="42.51933" lon="1.9599">
        <ele>1624.52</ele>
        <time>2021-06-14T13:12:34.000Z</time>
      </trkpt>
      <trkpt lat="42.51932" lon="1.95999">
        <ele>1615.56</ele>
        <time>2021-06-14T13:12:43.134Z</time>
      </trkpt>
      <trkpt lat="42.51936" lon="1.96019">
        <ele>1639.08</ele>
        <time>2021-06-14T13:12:52.386Z</time>
      </trkpt>
      <trkpt lat="42.51938" lon="1.9603">
        <ele>1623.9</ele>
        <time>2021-06-14T13:13:02.188Z</time>
      </trkpt>
      <trkpt lat="42.51934" lon="1.96049">
        <ele>1629.35</ele>
        <time>2021-06-14T13:13:11.979Z</time>
      </trkpt>
      <trkpt lat="42.51933" lon="1.96065">
        <ele>1620.2</ele>
        <time>2021-06-14T13:13:21.393Z</time>
      </trkpt>
      <trkpt lat="42.51935" lon="1.96079">
        <ele>1625.32</ele>
        <time>2021-06-14T13:13:32.000Z</time>
      </trkpt>
      <trkpt lat="42.51946" lon="1.96099">
        <ele>1641.58</ele>
        <time>2021-06-14T13:13:41.912Z</time>
      </trkpt>
      <trkpt lat="42.51955" lon="1.96114">
        <ele>1625.89</ele>
        <time>2021-06-14T13:13:51.103Z</time>
      </trkpt>
      <trkpt lat="42.51958" lon="1.96123">
        <ele>1634.13</ele>
        <time>2021-06-14T13:14:01.000Z</time>
      </trkpt>
      <trkpt lat="42.51962" lon="1.96134">
        <ele>1638.97</ele>
        <time>2021-06-14T13:14:10.390Z</time>
      </trkpt>
      <trkpt lat="42.51966" lon="1.96141">
        <ele>1632.91</ele>
        <time>2021-06-14T13:14:20.000Z</time>
      </trkpt>
      <trkpt lat="42.51975" lon="1.9615">
        <ele>1639.25</ele>
        <time>2021-06-14T13:14:29.181Z</time>
      </trkpt>
      <trkpt lat="42.51982" lon="1.96159">
        <ele>1629.95</ele>
        <time>2021-06-14T13:14:39.000Z</time>
      </trkpt>
      <trkpt lat="42.51992" lon="1.96161">
        <ele>1630.26</ele>
        <time>2021-06-14T13:14:48.163Z</time>
      </trkpt>
      <trkpt lat="42.52004" lon="1.96159">
        <ele>1638.93</ele>
        <time>2021-06-14T13:14:58.000Z</time>
      </trkpt>
      <trkpt lat="42.52015" lon="1.96171">
        <ele>1639.91</ele>
        <time>2021-06-14T13:15:07.196Z</time>
      </trkpt>
      <trkpt lat="42.52025" lon="1.96168">
        <ele>1647.11</ele>
        <time>2021-06-14T13:15:18.000Z</time>
      </trkpt>
      <trkpt lat="42.5204" lon="1.96168">
        <ele>1645.39</ele>
        <time>2021-06-14T13:15:27.320Z</time>
      </trkpt>
      <trkpt lat="42.52053" lon="1.96164">
        <ele>1655.33</ele>
        <time>2021-06-14T13:15:37.000Z</time>
      </trkpt>
      <trkpt lat="42.52065" lon="1.9616">
        <ele>1647.52</ele>
        <time>2021-06-14T13:15:46.160Z</time>
      </trkpt>
      <trkpt lat="42.52069" lon="1.9616">
        <ele>1656.88</ele>
        <time>2021-06-14T13:15:56.000Z</time>
      </trkpt>
      <trkpt lat="42.52075" lon="1.96165">
        <ele>1657.85</ele>
        <time>2021-06-14T13:16:06.000Z</time>
      </trkpt>
      <trkpt lat="42.52088" lon="1.96161">
        <ele>1663.13</ele>
        <time>2021-06-14T13:16:16.000Z</time>
      </trkpt>
      <trkpt lat="42.5209" lon="1.96158">
        <ele>1665.81</ele>
        <time>2021-06-14T13:16:25.285Z</time>
      </trkpt>
      <trkpt lat="42.52095" lon="1.96163">
        <ele>1640.95</ele>
        <time>2021-06-14T13:16:35.000Z</time>
      </trkpt>
      <trkpt lat="42.52097" lon="1.96168">
        <ele>1640.39</ele>
        <time>2021-06-14T13:16:45.000Z</time>
      </trkpt>
      <trkpt lat="42.52099" lon="1.96169">
        <ele>1639.86</ele>
        <time>2021-06-14T13:16:55.000Z</time>
      </trkpt>
      <trkpt lat="42.52098" lon="1.96165">
        <ele>1635.74</ele>
        <time>2021-06-14T13:17:05.000Z</time>
      </trkpt>
      <trkpt lat="42.52089" lon="1.96166">
        <ele>1641.68</ele>
        <time>2021-06-14T13:17:15.000Z</time>
      </trkpt>
      <trkpt lat="42.52092" lon="1.96164">
        <ele>1658.82</ele>
        <time>2021-06-14T13:17:25.000Z</time>
      </trkpt>
      <trkpt lat="42.52094" lon="1.96168">
        <ele>1632.8</ele>
        <time>2021-06-14T13:17:35.000Z</time>
      </trkpt>
      <trkpt lat="42.52097" lon="1.96179">
        <ele>1653.07</ele>
        <time>2021-06-14T13:17:45.000Z</time>
      </trkpt>
      <trkpt lat="42.52099" lon="1.96189">
        <ele>1649.76</ele>
        <time>2021-06-14T13:17:55.000Z</time>
      </trkpt>
      <trkpt lat="42.52099" lon="1.96186">
        <ele>1635.54</ele>
        <time>2021-06-14T13:18:06.000Z</time>
      </trkpt>
      <trkpt lat="42.52101" lon="1.96185">
        <ele>1648.3</ele>
        <time>2021-06-14T13:18:16.000Z</time>
      </trkpt>
      <trkpt lat="42.52108" lon="1.9619">
        <ele>1637.67</ele>
        <time>2021-06-14T13:18:26.000Z</time>
      </trkpt>
      <trkpt lat="42.52111" lon="1.962">
        <ele>1652.77</ele>
        <time>2021-06-14T13:18:36.000Z</time>
      </trkpt>
      <trkpt lat="42.52114" lon="1.96204">
        <ele>1641.68</ele>
        <time>2021-06-14T13:18:46.000Z</time>
      </trkpt>
      <trkpt lat="42.52118" lon="1.96207">
        <ele>1635.88</ele>
        <time>2021-06-14T13:18:56.000Z</time>
      </trkpt>
      <trkpt lat="42.5212" lon="1.96211">
        <ele>1643.68</ele>
        <time>2021-06-14T13:19:06.000Z</time>
      </trkpt>
      <trkpt lat="42.52122" lon="1.96219">
        <ele>1646.3</ele>
        <time>2021-06-14T13:19:16.000Z</time>
      </trkpt>
      <trkpt lat="42.52123" lon="1.96229">
        <ele>1663.65</ele>
        <time>2021-06-14T13:19:25.268Z</time>
      </trkpt>
      <trkpt lat="42.5213" lon="1.96242">
        <ele>1646.8</ele>
        <time>2021-06-14T13:19:35.204Z</time>
      </trkpt>
      <trkpt lat="42.52137" lon="1.96253">
        <ele>1657.9</ele>
        <time>2021-06-14T13:19:46.000Z</time>
      </trkpt>
      <trkpt lat="42.52151" lon="1.96263">
        <ele>1653.05</ele>
        <time>2021-06-14T13:19:57.000Z</time>
      </trkpt>
      <trkpt lat="42.52163" lon="1.96271">
        <ele>1666.05</ele>
        <time>2021-06-14T13:20:06.975Z</time>
      </trkpt>
      <trkpt lat="42.52173" lon="1.96275">
        <ele>1663.65</ele>
        <time>2021-06-14T13:20:16.478Z</time>
      </trkpt>
      <trkpt lat="42.52177" lon="1.96287">
        <ele>1659.14</ele>
        <time>2021-06-14T13:20:26.000Z</time>
      </trkpt>
      <trkpt lat="42.52189" lon="1.96292">
        <ele>1653.75</ele>
        <time>2021-06-14T13:20:37.000Z</time>
      </trkpt>
      <trkpt lat="42.52201" lon="1.96306">
        <ele>1646.21</ele>
        <time>2021-06-14T13:20:46.269Z</time>
      </trkpt>
      <trkpt lat="42.52208" lon="1.96312">
        <ele>1647.95</ele>
        <time>2021-06-14T13:20:56.000Z</time>
      </trkpt>
      <trkpt lat="42.52214" lon="1.96328">
        <ele>1663</ele>
        <time>2021-06-14T13:21:07.000Z</time>
      </trkpt>
      <trkpt lat="42.52217" lon="1.9634">
        <ele>1663.53</ele>
        <time>2021-06-14T13:21:16.340Z</time>
      </trkpt>
      <trkpt lat="42.52219" lon="1.9635">
        <ele>1654.78</ele>
        <time>2021-06-14T13:21:26.003Z</time>
      </trkpt>
      <trkpt lat="42.52223" lon="1.96363">
        <ele>1664.15</ele>
        <time>2021-06-14T13:21:35.510Z</time>
      </trkpt>
      <trkpt lat="42.52228" lon="1.96375">
        <ele>1656.24</ele>
        <time>2021-06-14T13:21:47.000Z</time>
      </trkpt>
      <trkpt lat="42.52245" lon="1.96384">
        <ele>1690.51</ele>
        <time>2021-06-14T13:21:58.000Z</time>
      </trkpt>
      <trkpt lat="42.52254" lon="1.964">
        <ele>1681.14</ele>
        <time>2021-06-14T13:22:07.581Z</time>
      </trkpt>
      <trkpt lat="42.52263" lon="1.96406">
        <ele>1678.87</ele>
        <time>2021-06-14T13:22:17.000Z</time>
      </trkpt>
      <trkpt lat="42.52265" lon="1.96415">
        <ele>1670.24</ele>
        <time>2021-06-14T13:22:27.000Z</time>
      </trkpt>
      <trkpt lat="42.5227" lon="1.96426">
        <ele>1673.36</ele>
        <time>2021-06-14T13:22:36.640Z</time>
      </trkpt>
      <trkpt lat="42.52276" lon="1.9644">
        <ele>1683.96</ele>
        <time>2021-06-14T13:22:47.000Z</time>
      </trkpt>
      <trkpt lat="42.52285" lon="1.96454">
        <ele>1681.36</ele>
        <time>2021-06-14T13:22:57.000Z</time>
      </trkpt>
      <trkpt lat="42.52288" lon="1.9646">
        <ele>1674.09</ele>
        <time>2021-06-14T13:23:08.000Z</time>
      </trkpt>
      <trkpt lat="42.52299" lon="1.96475">
        <ele>1683.17</ele>
        <time>2021-06-14T13:23:18.000Z</time>
      </trkpt>
      <trkpt lat="42.52306" lon="1.96482">
        <ele>1695.28</ele>
        <time>2021-06-14T13:23:27.922Z</time>
      </trkpt>
      <trkpt lat="42.52319" lon="1.96492">
        <ele>1692.24</ele>
        <time>2021-06-14T13:23:37.311Z</time>
      </trkpt>
      <trkpt lat="42.5233" lon="1.96504">
        <ele>1677.85</ele>
        <time>2021-06-14T13:23:48.000Z</time>
      </trkpt>
      <trkpt lat="42.52341" lon="1.96518">
        <ele>1691.97</ele>
        <time>2021-06-14T13:23:57.423Z</time>
      </trkpt>
      <trkpt lat="42.52355" lon="1.96525">
        <ele>1700.06</ele>
        <time>2021-06-14T13:24:06.522Z</time>
      </trkpt>
      <trkpt lat="42.52365" lon="1.96531">
        <ele>1696.28</ele>
        <time>2021-06-14T13:24:16.000Z</time>
      </trkpt>
      <trkpt lat="42.5237" lon="1.96547">
        <ele>1708.76</ele>
        <time>2021-06-14T13:24:26.000Z</time>
      </trkpt>
      <trkpt lat="42.52377" lon="1.96559">
        <ele>1709.7</ele>
        <time>2021-06-14T13:24:36.000Z</time>
      </trkpt>
      <trkpt lat="42.52387" lon="1.96564">
        <ele>1699.35</ele>
        <time>2021-06-14T13:24:47.000Z</time>
      </trkpt>
      <trkpt lat="42.52394" lon="1.96576">
        <ele>1704.96</ele>
        <time>2021-06-14T13:24:57.000Z</time>
      </trkpt>
      <trkpt lat="42.52397" lon="1.96576">
        <ele>1708.6</ele>
        <time>2021-06-14T13:25:07.000Z</time>
      </trkpt>
      <trkpt lat="42.52405" lon="1.9658">
        <ele>1721.13</ele>
        <time>2021-06-14T13:25:16.467Z</time>
      </trkpt>
      <trkpt lat="42.52418" lon="1.96586">
        <ele>1702.31</ele>
        <time>2021-06-14T13:25:25.497Z</time>
      </trkpt>
      <trkpt lat="42.5243" lon="1.9659">
        <ele>1702.76</ele>
        <time>2021-06-14T13:25:35.247Z</time>
      </trkpt>
      <trkpt lat="42.52431" lon="1.96609">
        <ele>1706.08</ele>
        <time>2021-06-14T13:25:45.070Z</time>
      </trkpt>
      <trkpt lat="42.52435" lon="1.9662">
        <ele>1707.16</ele>
        <time>2021-06-14T13:25:55.000Z</time>
      </trkpt>
      <trkpt lat="42.52443" lon="1.96632">
        <ele>1688.27</ele>
        <time>2021-06-14T13:26:05.000Z</time>
      </trkpt>
      <trkpt lat="42.52458" lon="1.96639">
        <ele>1700.49</ele>
        <time>2021-06-14T13:26:16.000Z</time>
      </trkpt>
      <trkpt lat="42.52463" lon="1.96644">
        <ele>1714.48</ele>
        <time>2021-06-14T13:26:25.389Z</time>
      </trkpt>
      <trkpt lat="42.52464" lon="1.96661">
        <ele>1696.47</ele>
        <time>2021-06-14T13:26:36.000Z</time>
      </trkpt>
      <trkpt lat="42.52462" lon="1.96676">
        <ele>1712.45</ele>
        <time>2021-06-14T13:26:47.000Z</time>
      </trkpt>
      <trkpt lat="42.52474" lon="1.96685">
        <ele>1694.95</ele>
        <time>2021-06-14T13:26:57.000Z</time>
      </trkpt>
      <trkpt lat="42.52483" lon="1.96701">
        <ele>1708.39</ele>
        <time>2021-06-14T13:27:06.063Z</time>
      </trkpt>
      <trkpt lat="42.5249" lon="1.9671">
        <ele>1703.64</ele>
        <time>2021-06-14T13:27:17.000Z</time>
      </trkpt>
      <trkpt lat="42.525" lon="1.96719">
        <ele>1717.37</ele>
        <time>2021-06-14T13:27:26.294Z</time>
      </trkpt>
      <trkpt lat="42.52507" lon="1.96735">
        <ele>1717.4</ele>
        <time>2021-06-14T13:27:35.349Z</time>
      </trkpt>
      <trkpt lat="42.52515" lon="1.96748">
        <ele>1716.2</ele>
        <time>2021-06-14T13:27:45.000Z</time>
      </trkpt>
      <trkpt lat="42.52519" lon="1.96765">
        <ele>1703.82</ele>
        <time>2021-06-14T13:27:56.000Z</time>
      </trkpt>
      <trkpt lat="42.52523" lon="1.96774">
        <ele>1718.79</ele>
        <time>2021-06-14T13:28:05.229Z</time>
      </trkpt>
      <trkpt lat="42.52536" lon="1.9678">
        <ele>1701.76</ele>
        <time>2021-06-14T13:28:16.000Z</time>
      </trkpt>
      <trkpt lat="42.52547" lon="1.96782">
        <ele>1710.79</ele>
        <time>2021-06-14T13:28:25.275Z</time>
      </trkpt>
      <trkpt lat="42.52559" lon="1.96795">
        <ele>1700.97</ele>
        <time>2021-06-14T13:28:35.215Z</time>
      </trkpt>
      <trkpt lat="42.52561" lon="1.96803">
        <ele>1706.53</ele>
        <time>2021-06-14T13:28:45.000Z</time>
      </trkpt>
      <trkpt lat="42.52562" lon="1.96808">
        <ele>1704.68</ele>
        <time>2021-06-14T13:28:56.000Z</time>
      </trkpt>
      <trkpt lat="42.52567" lon="1.9681">
        <ele>1708.9</ele>
        <time>2021-06-14T13:29:05.098Z</time>
      </trkpt>
      <trkpt lat="42.52575" lon="1.96811">
        <ele>1695.16</ele>
        <time>2021-06-14T13:29:14.784Z</time>
      </trkpt>
      <trkpt lat="42.52583" lon="1.96815">
        <ele>1694.53</ele>
        <time>2021-06-14T13:29:25.000Z</time>
      </trkpt>
      <trkpt lat="42.52592" lon="1.96819">
        <ele>1705.69</ele>
        <time>2021-06-14T13:29:34.677Z</time>
      </trkpt>
      <trkpt lat="42.52601" lon="1.96817">
        <ele>1702.07</ele>
        <time>2021-06-14T13:29:44.086Z</time>
      </trkpt>
      <trkpt lat="42.5261" lon="1.96818">
        <ele>1702.31</ele>
        <time>2021-06-14T13:29:54.000Z</time>
      </trkpt>
      <trkpt lat="42.52615" lon="1.96818">
        <ele>1702.27</ele>
        <time>2021-06-14T13:30:03.324Z</time>
      </trkpt>
      <trkpt lat="42.52622" lon="1.96819">
        <ele>1707.54</ele>
        <time>2021-06-14T13:30:13.000Z</time>
      </trkpt>
      <trkpt lat="42.52632" lon="1.96829">
        <ele>1692.39</ele>
        <time>2021-06-14T13:30:24.000Z</time>
      </trkpt>
      <trkpt lat="42.52638" lon="1.9684">
        <ele>1707.1</ele>
        <time>2021-06-14T13:30:35.000Z</time>
      </trkpt>
      <trkpt lat="42.52651" lon="1.96848">
        <ele>1728.05</ele>
        <time>2021-06-14T13:30:44.873Z</time>
      </trkpt>
      <trkpt lat="42.52656" lon="1.96852">
        <ele>1701.89</ele>
        <time>2021-06-14T13:30:54.000Z</time>
      </trkpt>
      <trkpt lat="42.52666" lon="1.96852">
        <ele>1701.69</ele>
        <time>2021-06-14T13:31:03.454Z</time>
      </trkpt>
      <trkpt lat="42.5267" lon="1.96859">
        <ele>1706.31</ele>
        <time>2021-06-14T13:31:12.727Z</time>
      </trkpt>
      <trkpt lat="42.52671" lon="1.96871">
        <ele>1714.43</ele>
        <time>2021-06-14T13:31:22.086Z</time>
      </trkpt>
      <trkpt lat="42.52673" lon="1.96885">
        <ele>1714.32</ele>
        <time>2021-06-14T13:31:31.244Z</time>
      </trkpt>
      <trkpt lat="42.52672" lon="1.96887">
        <ele>1722.6</ele>
        <time>2021-06-14T13:31:41.000Z</time>
      </trkpt>
      <trkpt lat="42.5268" lon="1.96892">
        <ele>1719.42</ele>
        <time>2021-06-14T13:31:51.000Z</time>
      </trkpt>
      <trkpt lat="42.52678" lon="1.96893">
        <ele>1708.18</ele>
        <time>2021-06-14T13:32:01.000Z</time>
      </trkpt>
      <trkpt lat="42.52667" lon="1.96888">
        <ele>1719.16</ele>
        <time>2021-06-14T13:32:11.000Z</time>
      </trkpt>
      <trkpt lat="42.52662" lon="1.96887">
        <ele>1711.25</ele>
        <time>2021-06-14T13:32:21.000Z</time>
      </trkpt>
      <trkpt lat="42.5266" lon="1.96889">
        <ele>1729.75</ele>
        <time>2021-06-14T13:32:31.000Z</time>
      </trkpt>
      <trkpt lat="42.52665" lon="1.96895">
        <ele>1703.54</ele>
        <time>2021-06-14T13:32:40.338Z</time>
      </trkpt>
      <trkpt lat="42.52677" lon="1.96914">
        <ele>1727.04</ele>
        <time>2021-06-14T13:32:49.410Z</time>
      </trkpt>
      <trkpt lat="42.52698" lon="1.96916">
        <ele>1718.27</ele>
        <time>2021-06-14T13:32:59.000Z</time>
      </trkpt>
      <trkpt lat="42.52706" lon="1.96919">
        <ele>1704.55</ele>
        <time>2021-06-14T13:33:09.000Z</time>
      </trkpt>
      <trkpt lat="42.52712" lon="1.96926">
        <ele>1709.44</ele>
        <time>2021-06-14T13:33:20.000Z</time>
      </trkpt>
      <trkpt lat="42.52719" lon="1.96941">
        <ele>1719.51</ele>
        <time>2021-06-14T13:33:29.129Z</time>
      </trkpt>
      <trkpt lat="42.52721" lon="1.96948">
        <ele>1722.92</ele>
        <time>2021-06-14T13:33:38.791Z</time>
      </trkpt>
      <trkpt lat="42.52727" lon="1.96958">
        <ele>1725.78</ele>
        <time>2021-06-14T13:33:48.199Z</time>
      </trkpt>
      <trkpt lat="42.52732" lon="1.96962">
        <ele>1702.49</ele>
        <time>2021-06-14T13:33:58.000Z</time>
      </trkpt>
      <trkpt lat="42.52732" lon="1.96973">
        <ele>1724.85</ele>
        <time>2021-06-14T13:34:09.000Z</time>
      </trkpt>
      <trkpt lat="42.5273" lon="1.96989">
        <ele>1727.02</ele>
        <time>2021-06-14T13:34:19.000Z</time>
      </trkpt>
      <trkpt lat="42.52726" lon="1.97001">
        <ele>1732.32</ele>
        <time>2021-06-14T13:34:28.773Z</time>
      </trkpt>
      <trkpt lat="42.52726" lon="1.97007">
        <ele>1745.39</ele>
        <time>2021-06-14T13:34:39.000Z</time>
      </trkpt>
      <trkpt lat="42.52731" lon="1.97013">
        <ele>1724.85</ele>
        <time>2021-06-14T13:34:49.000Z</time>
      </trkpt>
      <trkpt lat="42.5273" lon="1.9702">
        <ele>1722.95</ele>
        <time>2021-06-14T13:35:00.000Z</time>
      </trkpt>
      <trkpt lat="42.5273" lon="1.97022">
        <ele>1703.28</ele>
        <time>2021-06-14T13:35:10.000Z</time>
      </trkpt>
      <trkpt lat="42.52734" lon="1.97009">
        <ele>1721.28</ele>
        <time>2021-06-14T13:35:19.130Z</time>
      </trkpt>
      <trkpt lat="42.52729" lon="1.97009">
        <ele>1689.88</ele>
        <time>2021-06-14T13:35:29.000Z</time>
      </trkpt>
      <trkpt lat="42.52728" lon="1.97033">
        <ele>1713.04</ele>
        <time>2021-06-14T13:35:40.000Z</time>
      </trkpt>
      <trkpt lat="42.52736" lon="1.97055">
        <ele>1718.23</ele>
        <time>2021-06-14T13:35:50.000Z</time>
      </trkpt>
      <trkpt lat="42.52746" lon="1.97068">
        <ele>1709.99</ele>
        <time>2021-06-14T13:36:00.000Z</time>
      </trkpt>
      <trkpt lat="42.52754" lon="1.97071">
        <ele>1733.35</ele>
        <time>2021-06-14T13:36:10.000Z</time>
      </trkpt>
      <trkpt lat="42.52763" lon="1.97082">
        <ele>1718.41</ele>
        <time>2021-06-14T13:36:21.000Z</time>
      </trkpt>
      <trkpt lat="42.52768" lon="1.97092">
        <ele>1725.18</ele>
        <time>2021-06-14T13:36:30.992Z</time>
      </trkpt>
      <trkpt lat="42.5277" lon="1.97096">
        <ele>1724.81</ele>
        <time>2021-06-14T13:36:42.000Z</time>
      </trkpt>
      <trkpt lat="42.52774" lon="1.9711">
        <ele>1712.02</ele>
        <time>2021-06-14T13:36:52.111Z</time>
      </trkpt>
      <trkpt lat="42.52764" lon="1.97144">
        <ele>1729.45</ele>
        <time>2021-06-14T13:37:04.000Z</time>
      </trkpt>
      <trkpt lat="42.52764" lon="1.97153">
        <ele>1734.94</ele>
        <time>2021-06-14T13:37:13.233Z</time>
      </trkpt>
      <trkpt lat="42.52766" lon="1.97163">
        <ele>1728.78</ele>
        <time>2021-06-14T13:37:24.000Z</time>
      </trkpt>
      <trkpt lat="42.52768" lon="1.97167">
        <ele>1732.86</ele>
        <time>2021-06-14T13:37:33.057Z</time>
      </trkpt>
      <trkpt lat="42.52771" lon="1.97172">
        <ele>1737.09</ele>
        <time>2021-06-14T13:37:44.000Z</time>
      </trkpt>
      <trkpt lat="42.52774" lon="1.97183">
        <ele>1744.89</ele>
        <time>2021-06-14T13:37:53.098Z</time>
      </trkpt>
      <trkpt lat="42.52776" lon="1.97192">
        <ele>1717.56</ele>
        <time>2021-06-14T13:38:02.240Z</time>
      </trkpt>
      <trkpt lat="42.52793" lon="1.97239">
        <ele>1738.39</ele>
        <time>2021-06-14T13:38:12.000Z</time>
      </trkpt>
      <trkpt lat="42.52792" lon="1.97253">
        <ele>1744.85</ele>
        <time>2021-06-14T13:38:21.250Z</time>
      </trkpt>
      <trkpt lat="42.52795" lon="1.97258">
        <ele>1741.66</ele>
        <time>2021-06-14T13:38:30.889Z</time>
      </trkpt>
      <trkpt lat="42.52798" lon="1.97258">
        <ele>1756.21</ele>
        <time>2021-06-14T13:38:40.000Z</time>
      </trkpt>
      <trkpt lat="42.52802" lon="1.97261">
        <ele>1751.95</ele>
        <time>2021-06-14T13:38:51.000Z</time>
      </trkpt>
      <trkpt lat="42.52807" lon="1.97266">
        <ele>1746.94</ele>
        <time>2021-06-14T13:39:01.000Z</time>
      </trkpt>
      <trkpt lat="42.52814" lon="1.97277">
        <ele>1749.79</ele>
        <time>2021-06-14T13:39:10.329Z</time>
      </trkpt>
      <trkpt lat="42.52817" lon="1.97293">
        <ele>1753.26</ele>
        <time>2021-06-14T13:39:20.270Z</time>
      </trkpt>
      <trkpt lat="42.52817" lon="1.97304">
        <ele>1751.29</ele>
        <time>2021-06-14T13:39:29.930Z</time>
      </trkpt>
      <trkpt lat="42.52815" lon="1.97319">
        <ele>1785.82</ele>
        <time>2021-06-14T13:39:39.000Z</time>
      </trkpt>
      <trkpt lat="42.52799" lon="1.97341">
        <ele>1780.77</ele>
        <time>2021-06-14T13:39:48.674Z</time>
      </trkpt>
      <trkpt lat="42.52804" lon="1.97354">
        <ele>1792.03</ele>
        <time>2021-06-14T13:39:59.000Z</time>
      </trkpt>
      <trkpt lat="42.52812" lon="1.97359">
        <ele>1767.79</ele>
        <time>2021-06-14T13:40:09.000Z</time>
      </trkpt>
      <trkpt lat="42.52814" lon="1.97371">
        <ele>1783.18</ele>
        <time>2021-06-14T13:40:18.515Z</time>
      </trkpt>
      <trkpt lat="42.52816" lon="1.97373">
        <ele>1785.71</ele>
        <time>2021-06-14T13:40:29.000Z</time>
      </trkpt>
      <trkpt lat="42.52822" lon="1.97382">
        <ele>1764.63</ele>
        <time>2021-06-14T13:40:38.376Z</time>
      </trkpt>
      <trkpt lat="42.52825" lon="1.9739">
        <ele>1769.23</ele>
        <time>2021-06-14T13:40:48.000Z</time>
      </trkpt>
      <trkpt lat="42.52835" lon="1.97408">
        <ele>1761.42</ele>
        <time>2021-06-14T13:40:57.095Z</time>
      </trkpt>
      <trkpt lat="42.52842" lon="1.97414">
        <ele>1776.42</ele>
        <time>2021-06-14T13:41:07.000Z</time>
      </trkpt>
      <trkpt lat="42.52844" lon="1.97418">
        <ele>1763.33</ele>
        <time>2021-06-14T13:41:17.000Z</time>
      </trkpt>
      <trkpt lat="42.52844" lon="1.97423">
        <ele>1775.96</ele>
        <time>2021-06-14T13:41:27.000Z</time>
      </trkpt>
      <trkpt lat="42.52847" lon="1.97425">
        <ele>1780.25</ele>
        <time>2021-06-14T13:41:37.000Z</time>
      </trkpt>
      <trkpt lat="42.52844" lon="1.97429">
        <ele>1780.92</ele>
        <time>2021-06-14T13:41:47.000Z</time>
      </trkpt>
      <trkpt lat="42.52837" lon="1.97456">
        <ele>1792.07</ele>
        <time>2021-06-14T13:41:57.000Z</time>
      </trkpt>
      <trkpt lat="42.52833" lon="1.97456">
        <ele>1771.75</ele>
        <time>2021-06-14T13:42:07.000Z</time>
      </trkpt>
      <trkpt lat="42.52834" lon="1.97447">
        <ele>1765.07</ele>
        <time>2021-06-14T13:42:17.000Z</time>
      </trkpt>
      <trkpt lat="42.52839" lon="1.97443">
        <ele>1782.17</ele>
        <time>2021-06-14T13:42:27.000Z</time>
      </trkpt>
      <trkpt lat="42.52838" lon="1.97441">
        <ele>1782.97</ele>
        <time>2021-06-14T13:42:38.000Z</time>
      </trkpt>
      <trkpt lat="42.52838" lon="1.97437">
        <ele>1796.44</ele>
        <time>2021-06-14T13:42:48.000Z</time>
      </trkpt>
      <trkpt lat="42.52839" lon="1.97435">
        <ele>1786.04</ele>
        <time>2021-06-14T13:42:59.000Z</time>
      </trkpt>
      <trkpt lat="42.52846" lon="1.97426">
        <ele>1788.45</ele>
        <time>2021-06-14T13:43:09.000Z</time>
      </trkpt>
      <trkpt lat="42.52843" lon="1.97426">
        <ele>1774.99</ele>
        <time>2021-06-14T13:43:19.000Z</time>
      </trkpt>
      <trkpt lat="42.52856" lon="1.9743">
        <ele>1750.85</ele>
        <time>2021-06-14T13:43:29.000Z</time>
      </trkpt>
      <trkpt lat="42.52857" lon="1.97437">
        <ele>1772.48</ele>
        <time>2021-06-14T13:43:39.000Z</time>
      </trkpt>
      <trkpt lat="42.52858" lon="1.97437">
        <ele>1784.12</ele>
        <time>2021-06-14T13:43:49.000Z</time>
      </trkpt>
      <trkpt lat="42.52863" lon="1.97435">
        <ele>1766.76</ele>
        <time>2021-06-14T13:43:59.000Z</time>
      </trkpt>
      <trkpt lat="42.52874" lon="1.97433">
        <ele>1760.83</ele>
        <time>2021-06-14T13:44:10.000Z</time>
      </trkpt>
      <trkpt lat="42.52878" lon="1.97437">
        <ele>1777.95</ele>
        <time>2021-06-14T13:44:19.359Z</time>
      </trkpt>
      <trkpt lat="42.52882" lon="1.97439">
        <ele>1776.06</ele>
        <time>2021-06-14T13:44:29.000Z</time>
      </trkpt>
      <trkpt lat="42.52885" lon="1.97441">
        <ele>1771.67</ele>
        <time>2021-06-14T13:44:39.000Z</time>
      </trkpt>
      <trkpt lat="42.52892" lon="1.97447">
        <ele>1775.63</ele>
        <time>2021-06-14T13:44:49.000Z</time>
      </trkpt>
      <trkpt lat="42.52903" lon="1.97453">
        <ele>1767.96</ele>
        <time>2021-06-14T13:44:58.387Z</time>
      </trkpt>
      <trkpt lat="42.5291" lon="1.97455">
        <ele>1777.89</ele>
        <time>2021-06-14T13:45:09.000Z</time>
      </trkpt>
      <trkpt lat="42.5292" lon="1.97458">
        <ele>1788.01</ele>
        <time>2021-06-14T13:45:21.000Z</time>
      </trkpt>
      <trkpt lat="42.52933" lon="1.97452">
        <ele>1756.1</ele>
        <time>2021-06-14T13:45:30.395Z</time>
      </trkpt>
      <trkpt lat="42.52937" lon="1.97456">
        <ele>1763.38</ele>
        <time>2021-06-14T13:45:39.809Z</time>
      </trkpt>
      <trkpt lat="42.52953" lon="1.97466">
        <ele>1814.77</ele>
        <time>2021-06-14T13:45:49.127Z</time>
      </trkpt>
      <trkpt lat="42.52972" lon="1.97472">
        <ele>1810.67</ele>
        <time>2021-06-14T13:46:00.000Z</time>
      </trkpt>
      <trkpt lat="42.52985" lon="1.97475">
        <ele>1817.77</ele>
        <time>2021-06-14T13:46:09.073Z</time>
      </trkpt>
      <trkpt lat="42.52992" lon="1.97479">
        <ele>1817.58</ele>
        <time>2021-06-14T13:46:20.000Z</time>
      </trkpt>
      <trkpt lat="42.53001" lon="1.97481">
        <ele>1802.82</ele>
        <time>2021-06-14T13:46:30.000Z</time>
      </trkpt>
      <trkpt lat="42.5301" lon="1.97473">
        <ele>1799.89</ele>
        <time>2021-06-14T13:46:41.000Z</time>
      </trkpt>
      <trkpt lat="42.5302" lon="1.97481">
        <ele>1799</ele>
        <time>2021-06-14T13:46:50.182Z</time>
      </trkpt>
      <trkpt lat="42.53025" lon="1.97489">
        <ele>1793.01</ele>
        <time>2021-06-14T13:47:01.000Z</time>
      </trkpt>
      <trkpt lat="42.5303" lon="1.9749">
        <ele>1792.82</ele>
        <time>2021-06-14T13:47:11.091Z</time>
      </trkpt>
      <trkpt lat="42.5304" lon="1.97496">
        <ele>1802.53</ele>
        <time>2021-06-14T13:47:20.284Z</time>
      </trkpt>
      <trkpt lat="42.53046" lon="1.97504">
        <ele>1790.1</ele>
        <time>2021-06-14T13:47:32.000Z</time>
      </trkpt>
      <trkpt lat="42.53055" lon="1.97515">
        <ele>1791.1</ele>
        <time>2021-06-14T13:47:43.000Z</time>
      </trkpt>
      <trkpt lat="42.53057" lon="1.97524">
        <ele>1807.11</ele>
        <time>2021-06-14T13:47:52.154Z</time>
      </trkpt>
      <trkpt lat="42.53059" lon="1.9753">
        <ele>1808.1</ele>
        <time>2021-06-14T13:48:03.000Z</time>
      </trkpt>
      <trkpt lat="42.53069" lon="1.9753">
        <ele>1809.47</ele>
        <time>2021-06-14T13:48:12.211Z</time>
      </trkpt>
      <trkpt lat="42.53076" lon="1.97537">
        <ele>1814.86</ele>
        <time>2021-06-14T13:48:21.226Z</time>
      </trkpt>
      <trkpt lat="42.53084" lon="1.97546">
        <ele>1787.8</ele>
        <time>2021-06-14T13:48:30.658Z</time>
      </trkpt>
      <trkpt lat="42.53093" lon="1.97551">
        <ele>1792.97</ele>
        <time>2021-06-14T13:48:40.074Z</time>
      </trkpt>
      <trkpt lat="42.53099" lon="1.97554">
        <ele>1806.43</ele>
        <time>2021-06-14T13:48:49.231Z</time>
      </trkpt>
      <trkpt lat="42.53106" lon="1.97556">
        <ele>1815.29</ele>
        <time>2021-06-14T13:48:58.390Z</time>
      </trkpt>
      <trkpt lat="42.53117" lon="1.97563">
        <ele>1803.76</ele>
        <time>2021-06-14T13:49:07.873Z</time>
      </trkpt>
      <trkpt lat="42.53129" lon="1.97569">
        <ele>1812.15</ele>
        <time>2021-06-14T13:49:17.389Z</time>
      </trkpt>
      <trkpt lat="42.53139" lon="1.9758">
        <ele>1811.9</ele>
        <time>2021-06-14T13:49:28.000Z</time>
      </trkpt>
      <trkpt lat="42.53146" lon="1.97589">
        <ele>1825.58</ele>
        <time>2021-06-14T13:49:39.000Z</time>
      </trkpt>
      <trkpt lat="42.53156" lon="1.97595">
        <ele>1809.57</ele>
        <time>2021-06-14T13:49:49.000Z</time>
      </trkpt>
      <trkpt lat="42.53163" lon="1.97607">
        <ele>1799.11</ele>
        <time>2021-06-14T13:49:58.539Z</time>
      </trkpt>
      <trkpt lat="42.53172" lon="1.97615">
        <ele>1817.22</ele>
        <time>2021-06-14T13:50:08.408Z</time>
      </trkpt>
      <trkpt lat="42.53183" lon="1.97628">
        <ele>1813.88</ele>
        <time>2021-06-14T13:50:18.308Z</time>
      </trkpt>
      <trkpt lat="42.53192" lon="1.97645">
        <ele>1806.75</ele>
        <time>2021-06-14T13:50:30.000Z</time>
      </trkpt>
      <trkpt lat="42.532" lon="1.97657">
        <ele>1814.38</ele>
        <time>2021-06-14T13:50:39.484Z</time>
      </trkpt>
      <trkpt lat="42.53203" lon="1.9767">
        <ele>1812.71</ele>
        <time>2021-06-14T13:50:48.704Z</time>
      </trkpt>
      <trkpt lat="42.53211" lon="1.97677">
        <ele>1813.23</ele>
        <time>2021-06-14T13:50:59.000Z</time>
      </trkpt>
      <trkpt lat="42.53215" lon="1.97676">
        <ele>1808.44</ele>
        <time>2021-06-14T13:51:09.000Z</time>
      </trkpt>
      <trkpt lat="42.53223" lon="1.97681">
        <ele>1806.26</ele>
        <time>2021-06-14T13:51:20.000Z</time>
      </trkpt>
      <trkpt lat="42.53227" lon="1.9769">
        <ele>1811.66</ele>
        <time>2021-06-14T13:51:31.000Z</time>
      </trkpt>
      <trkpt lat="42.53227" lon="1.97699">
        <ele>1809.12</ele>
        <time>2021-06-14T13:51:41.000Z</time>
      </trkpt>
      <trkpt lat="42.53231" lon="1.97708">
        <ele>1809.27</ele>
        <time>2021-06-14T13:51:50.133Z</time>
      </trkpt>
      <trkpt lat="42.53235" lon="1.97717">
        <ele>1804.22</ele>
        <time>2021-06-14T13:52:01.000Z</time>
      </trkpt>
      <trkpt lat="42.53238" lon="1.97725">
        <ele>1815.78</ele>
        <time>2021-06-14T13:52:10.378Z</time>
      </trkpt>
      <trkpt lat="42.53248" lon="1.97731">
        <ele>1819.78</ele>
        <time>2021-06-14T13:52:20.000Z</time>
      </trkpt>
      <trkpt lat="42.53249" lon="1.97755">
        <ele>1813.11</ele>
        <time>2021-06-14T13:52:30.000Z</time>
      </trkpt>
      <trkpt lat="42.53254" lon="1.97783">
        <ele>1823.95</ele>
        <time>2021-06-14T13:52:39.070Z</time>
      </trkpt>
      <trkpt lat="42.53259" lon="1.97802">
        <ele>1822.05</ele>
        <time>2021-06-14T13:52:49.525Z</time>
      </trkpt>
      <trkpt lat="42.53261" lon="1.97824">
        <ele>1834.82</ele>
        <time>2021-06-14T13:52:59.036Z</time>
      </trkpt>
      <trkpt lat="42.53256" lon="1.97827">
        <ele>1818.75</ele>
        <time>2021-06-14T13:53:08.445Z</time>
      </trkpt>
      <trkpt lat="42.53259" lon="1.97833">
        <ele>1816.52</ele>
        <time>2021-06-14T13:53:18.000Z</time>
      </trkpt>
      <trkpt lat="42.53261" lon="1.97852">
        <ele>1817.04</ele>
        <time>2021-06-14T13:53:28.000Z</time>
      </trkpt>
      <trkpt lat="42.5327" lon="1.97871">
        <ele>1812.86</ele>
        <time>2021-06-14T13:53:37.263Z</time>
      </trkpt>
      <trkpt lat="42.53273" lon="1.97884">
        <ele>1826.06</ele>
        <time>2021-06-14T13:53:46.438Z</time>
      </trkpt>
      <trkpt lat="42.53273" lon="1.9789">
        <ele>1828.56</ele>
        <time>2021-06-14T13:53:55.798Z</time>
      </trkpt>
      <trkpt lat="42.53274" lon="1.97893">
        <ele>1814.75</ele>
        <time>2021-06-14T13:54:05.000Z</time>
      </trkpt>
      <trkpt lat="42.53278" lon="1.97906">
        <ele>1809.15</ele>
        <time>2021-06-14T13:54:16.000Z</time>
      </trkpt>
      <trkpt lat="42.53283" lon="1.97926">
        <ele>1827.3</ele>
        <time>2021-06-14T13:54:25.678Z</time>
      </trkpt>
      <trkpt lat="42.53284" lon="1.97934">
        <ele>1818.82</ele>
        <time>2021-06-14T13:54:36.000Z</time>
      </trkpt>
      <trkpt lat="42.53288" lon="1.97945">
        <ele>1821.52</ele>
        <time>2021-06-14T13:54:45.869Z</time>
      </trkpt>
      <trkpt lat="42.53291" lon="1.97958">
        <ele>1804.32</ele>
        <time>2021-06-14T13:54:55.725Z</time>
      </trkpt>
      <trkpt lat="42.53293" lon="1.97966">
        <ele>1822.7</ele>
        <time>2021-06-14T13:55:05.000Z</time>
      </trkpt>
      <trkpt lat="42.53294" lon="1.97977">
        <ele>1799.19</ele>
        <time>2021-06-14T13:55:16.000Z</time>
      </trkpt>
      <trkpt lat="42.53292" lon="1.97988">
        <ele>1811.93</ele>
        <time>2021-06-14T13:55:25.629Z</time>
      </trkpt>
      <trkpt lat="42.53295" lon="1.98001">
        <ele>1820.36</ele>
        <time>2021-06-14T13:55:35.151Z</time>
      </trkpt>
      <trkpt lat="42.53297" lon="1.98006">
        <ele>1812.16</ele>
        <time>2021-06-14T13:55:44.293Z</time>
      </trkpt>
      <trkpt lat="42.53311" lon="1.98026">
        <ele>1845.73</ele>
        <time>2021-06-14T13:55:55.000Z</time>
      </trkpt>
      <trkpt lat="42.53315" lon="1.98064">
        <ele>1836.56</ele>
        <time>2021-06-14T13:56:04.487Z</time>
      </trkpt>
      <trkpt lat="42.53315" lon="1.98067">
        <ele>1823.27</ele>
        <time>2021-06-14T13:56:15.000Z</time>
      </trkpt>
      <trkpt lat="42.5332" lon="1.9808">
        <ele>1859.78</ele>
        <time>2021-06-14T13:56:24.346Z</time>
      </trkpt>
      <trkpt lat="42.53321" lon="1.98081">
        <ele>1842.57</ele>
        <time>2021-06-14T13:56:34.000Z</time>
      </trkpt>
      <trkpt lat="42.53319" lon="1.98094">
        <ele>1825.2</ele>
        <time>2021-06-14T13:56:45.000Z</time>
      </trkpt>
      <trkpt lat="42.5332" lon="1.98103">
        <ele>1834.81</ele>
        <time>2021-06-14T13:56:56.000Z</time>
      </trkpt>
      <trkpt lat="42.53318" lon="1.98114">
        <ele>1835.11</ele>
        <time>2021-06-14T13:57:08.000Z</time>
      </trkpt>
      <trkpt lat="42.53315" lon="1.98128">
        <ele>1836.28</ele>
        <time>2021-06-14T13:57:18.000Z</time>
      </trkpt>
      <trkpt lat="42.53314" lon="1.98139">
        <ele>1823.66</ele>
        <time>2021-06-14T13:57:28.000Z</time>
      </trkpt>
      <trkpt lat="42.53315" lon="1.98149">
        <ele>1818.5</ele>
        <time>2021-06-14T13:57:38.000Z</time>
      </trkpt>
      <trkpt lat="42.53318" lon="1.98162">
        <ele>1826.31</ele>
        <time>2021-06-14T13:57:49.000Z</time>
      </trkpt>
      <trkpt lat="42.53322" lon="1.98173">
        <ele>1828.5</ele>
        <time>2021-06-14T13:57:58.370Z</time>
      </trkpt>
      <trkpt lat="42.53325" lon="1.98182">
        <ele>1819.42</ele>
        <time>2021-06-14T13:58:08.000Z</time>
      </trkpt>
      <trkpt lat="42.53325" lon="1.98192">
        <ele>1823.83</ele>
        <time>2021-06-14T13:58:20.000Z</time>
      </trkpt>
      <trkpt lat="42.53328" lon="1.98208">
        <ele>1833.45</ele>
        <time>2021-06-14T13:58:29.448Z</time>
      </trkpt>
      <trkpt lat="42.53323" lon="1.98232">
        <ele>1830.79</ele>
        <time>2021-06-14T13:58:39.000Z</time>
      </trkpt>
      <trkpt lat="42.53323" lon="1.98244">
        <ele>1843.31</ele>
        <time>2021-06-14T13:58:50.000Z</time>
      </trkpt>
      <trkpt lat="42.53325" lon="1.98247">
        <ele>1832.01</ele>
        <time>2021-06-14T13:58:59.047Z</time>
      </trkpt>
      <trkpt lat="42.53328" lon="1.98258">
        <ele>1850.15</ele>
        <time>2021-06-14T13:59:09.169Z</time>
      </trkpt>
      <trkpt lat="42.53327" lon="1.98274">
        <ele>1835.02</ele>
        <time>2021-06-14T13:59:19.000Z</time>
      </trkpt>
      <trkpt lat="42.53334" lon="1.98284">
        <ele>1853.84</ele>
        <time>2021-06-14T13:59:29.000Z</time>
      </trkpt>
      <trkpt lat="42.53341" lon="1.98296">
        <ele>1845.13</ele>
        <time>2021-06-14T13:59:40.000Z</time>
      </trkpt>
      <trkpt lat="42.53341" lon="1.98305">
        <ele>1842.71</ele>
        <time>2021-06-14T13:59:50.000Z</time>
      </trkpt>
      <trkpt lat="42.53349" lon="1.98313">
        <ele>1843.28</ele>
        <time>2021-06-14T14:00:01.000Z</time>
      </trkpt>
      <trkpt lat="42.5335" lon="1.9833">
        <ele>1859.08</ele>
        <time>2021-06-14T14:00:12.000Z</time>
      </trkpt>
      <trkpt lat="42.53352" lon="1.98336">
        <ele>1850.22</ele>
        <time>2021-06-14T14:00:22.000Z</time>
      </trkpt>
      <trkpt lat="42.53356" lon="1.98345">
        <ele>1840.63</ele>
        <time>2021-06-14T14:00:31.901Z</time>
      </trkpt>
      <trkpt lat="42.53359" lon="1.98353">
        <ele>1848.04</ele>
        <time>2021-06-14T14:00:41.000Z</time>
      </trkpt>
      <trkpt lat="42.5336" lon="1.98355">
        <ele>1846.73</ele>
        <time>2021-06-14T14:00:50.282Z</time>
      </trkpt>
      <trkpt lat="42.5336" lon="1.98363">
        <ele>1843.22</ele>
        <time>2021-06-14T14:01:00.000Z</time>
      </trkpt>
      <trkpt lat="42.53363" lon="1.98378">
        <ele>1840.15</ele>
        <time>2021-06-14T14:01:09.178Z</time>
      </trkpt>
      <trkpt lat="42.53363" lon="1.98392">
        <ele>1824.48</ele>
        <time>2021-06-14T14:01:19.037Z</time>
      </trkpt>
      <trkpt lat="42.53364" lon="1.98407">
        <ele>1832.88</ele>
        <time>2021-06-14T14:01:29.000Z</time>
      </trkpt>
      <trkpt lat="42.53371" lon="1.98422">
        <ele>1830.71</ele>
        <time>2021-06-14T14:01:38.716Z</time>
      </trkpt>
      <trkpt lat="42.53375" lon="1.98431">
        <ele>1848.76</ele>
        <time>2021-06-14T14:01:48.013Z</time>
      </trkpt>
      <trkpt lat="42.53378" lon="1.98443">
        <ele>1842.82</ele>
        <time>2021-06-14T14:01:59.000Z</time>
      </trkpt>
      <trkpt lat="42.53388" lon="1.98452">
        <ele>1853.01</ele>
        <time>2021-06-14T14:02:08.416Z</time>
      </trkpt>
      <trkpt lat="42.53397" lon="1.98456">
        <ele>1840.69</ele>
        <time>2021-06-14T14:02:18.450Z</time>
      </trkpt>
      <trkpt lat="42.53402" lon="1.98469">
        <ele>1842.64</ele>
        <time>2021-06-14T14:02:28.062Z</time>
      </trkpt>
      <trkpt lat="42.53407" lon="1.98488">
        <ele>1815.96</ele>
        <time>2021-06-14T14:02:38.267Z</time>
      </trkpt>
      <trkpt lat="42.53416" lon="1.9851">
        <ele>1872.07</ele>
        <time>2021-06-14T14:02:47.308Z</time>
      </trkpt>
      <trkpt lat="42.53428" lon="1.98525">
        <ele>1873.57</ele>
        <time>2021-06-14T14:02:57.000Z</time>
      </trkpt>
      <trkpt lat="42.53429" lon="1.98536">
        <ele>1852.01</ele>
        <time>2021-06-14T14:03:06.380Z</time>
      </trkpt>
      <trkpt lat="42.53433" lon="1.98546">
        <ele>1849.46</ele>
        <time>2021-06-14T14:03:16.000Z</time>
      </trkpt>
      <trkpt lat="42.53439" lon="1.9856">
        <ele>1859.61</ele>
        <time>2021-06-14T14:03:25.383Z</time>
      </trkpt>
      <trkpt lat="42.5344" lon="1.98573">
        <ele>1872.93</ele>
        <time>2021-06-14T14:03:36.000Z</time>
      </trkpt>
      <trkpt lat="42.53443" lon="1.98579">
        <ele>1865.38</ele>
        <time>2021-06-14T14:03:47.000Z</time>
      </trkpt>
      <trkpt lat="42.53443" lon="1.98593">
        <ele>1856.3</ele>
        <time>2021-06-14T14:03:57.000Z</time>
      </trkpt>
      <trkpt lat="42.53451" lon="1.98604">
        <ele>1869.94</ele>
        <time>2021-06-14T14:04:08.000Z</time>
      </trkpt>
      <trkpt lat="42.53455" lon="1.98614">
        <ele>1863.66</ele>
        <time>2021-06-14T14:04:17.988Z</time>
      </trkpt>
      <trkpt lat="42.53464" lon="1.98619">
        <ele>1863.41</ele>
        <time>2021-06-14T14:04:27.097Z</time>
      </trkpt>
      <trkpt lat="42.53468" lon="1.98626">
        <ele>1862.15</ele>
        <time>2021-06-14T14:04:37.000Z</time>
      </trkpt>
      <trkpt lat="42.53472" lon="1.98631">
        <ele>1871.33</ele>
        <time>2021-06-14T14:04:48.000Z</time>
      </trkpt>
      <trkpt lat="42.53481" lon="1.98659">
        <ele>1871.05</ele>
        <time>2021-06-14T14:04:58.000Z</time>
      </trkpt>
      <trkpt lat="42.5349" lon="1.98681">
        <ele>1883.76</ele>
        <time>2021-06-14T14:05:07.494Z</time>
      </trkpt>
      <trkpt lat="42.53494" lon="1.98691">
        <ele>1866.16</ele>
        <time>2021-06-14T14:05:16.827Z</time>
      </trkpt>
      <trkpt lat="42.53499" lon="1.9869">
        <ele>1854.42</ele>
        <time>2021-06-14T14:05:25.889Z</time>
      </trkpt>
      <trkpt lat="42.53505" lon="1.98699">
        <ele>1873.08</ele>
        <time>2021-06-14T14:05:35.000Z</time>
      </trkpt>
      <trkpt lat="42.53507" lon="1.987">
        <ele>1884.99</ele>
        <time>2021-06-14T14:05:45.000Z</time>
      </trkpt>
      <trkpt lat="42.53508" lon="1.98702">
        <ele>1876.74</ele>
        <time>2021-06-14T14:05:55.000Z</time>
      </trkpt>
      <trkpt lat="42.53506" lon="1.98703">
        <ele>1871.98</ele>
        <time>2021-06-14T14:06:05.000Z</time>
      </trkpt>
      <trkpt lat="42.53514" lon="1.98698">
        <ele>1883.03</ele>
        <time>2021-06-14T14:06:16.000Z</time>
      </trkpt>
      <trkpt lat="42.5351" lon="1.98701">
        <ele>1860.39</ele>
        <time>2021-06-14T14:06:27.000Z</time>
      </trkpt>
      <trkpt lat="42.53512" lon="1.98699">
        <ele>1871.67</ele>
        <time>2021-06-14T14:06:37.000Z</time>
      </trkpt>
      <trkpt lat="42.53511" lon="1.98701">
        <ele>1882.58</ele>
        <time>2021-06-14T14:06:47.000Z</time>
      </trkpt>
      <trkpt lat="42.53511" lon="1.98699">
        <ele>1874.57</ele>
        <time>2021-06-14T14:06:57.000Z</time>
      </trkpt>
      <trkpt lat="42.53512" lon="1.98698">
        <ele>1868.53</ele>
        <time>2021-06-14T14:07:07.000Z</time>
      </trkpt>
      <trkpt lat="42.53514" lon="1.98692">
        <ele>1866.11</ele>
        <time>2021-06-14T14:07:17.000Z</time>
      </trkpt>
      <trkpt lat="42.53514" lon="1.98689">
        <ele>1875.22</ele>
        <time>2021-06-14T14:07:27.000Z</time>
      </trkpt>
      <trkpt lat="42.5349" lon="1.98688">
        <ele>1875.32</ele>
        <time>2021-06-14T14:07:37.000Z</time>
      </trkpt>
      <trkpt lat="42.53494" lon="1.9869">
        <ele>1862.71</ele>
        <time>2021-06-14T14:07:47.000Z</time>
      </trkpt>
      <trkpt lat="42.53501" lon="1.98688">
        <ele>1859.24</ele>
        <time>2021-06-14T14:07:57.000Z</time>
      </trkpt>
      <trkpt lat="42.53503" lon="1.9869">
        <ele>1863.49</ele>
        <time>2021-06-14T14:08:07.000Z</time>
      </trkpt>
      <trkpt lat="42.53504" lon="1.98691">
        <ele>1868.23</ele>
        <time>2021-06-14T14:08:17.000Z</time>
      </trkpt>
      <trkpt lat="42.5351" lon="1.98695">
        <ele>1866.82</ele>
        <time>2021-06-14T14:08:27.000Z</time>
      </trkpt>
      <trkpt lat="42.53516" lon="1.98689">
        <ele>1889.08</ele>
        <time>2021-06-14T14:08:37.000Z</time>
      </trkpt>
      <trkpt lat="42.53515" lon="1.98692">
        <ele>1871.2</ele>
        <time>2021-06-14T14:08:47.000Z</time>
      </trkpt>
      <trkpt lat="42.53517" lon="1.98697">
        <ele>1856.89</ele>
        <time>2021-06-14T14:08:57.000Z</time>
      </trkpt>
      <trkpt lat="42.53517" lon="1.98717">
        <ele>1862.54</ele>
        <time>2021-06-14T14:09:07.000Z</time>
      </trkpt>
      <trkpt lat="42.53499" lon="1.98706">
        <ele>1873.82</ele>
        <time>2021-06-14T14:09:17.000Z</time>
      </trkpt>
      <trkpt lat="42.535" lon="1.987">
        <ele>1867.71</ele>
        <time>2021-06-14T14:09:27.000Z</time>
      </trkpt>
      <trkpt lat="42.53501" lon="1.98699">
        <ele>1867.29</ele>
        <time>2021-06-14T14:09:37.000Z</time>
      </trkpt>
      <trkpt lat="42.53505" lon="1.98694">
        <ele>1863.83</ele>
        <time>2021-06-14T14:09:47.000Z</time>
      </trkpt>
      <trkpt lat="42.53508" lon="1.98697">
        <ele>1876.65</ele>
        <time>2021-06-14T14:09:57.144Z</time>
      </trkpt>
      <trkpt lat="42.53511" lon="1.98705">
        <ele>1860.12</ele>
        <time>2021-06-14T14:10:07.000Z</time>
      </trkpt>
      <trkpt lat="42.53518" lon="1.98715">
        <ele>1871.45</ele>
        <time>2021-06-14T14:10:19.000Z</time>
      </trkpt>
      <trkpt lat="42.53518" lon="1.98719">
        <ele>1873.26</ele>
        <time>2021-06-14T14:10:29.000Z</time>
      </trkpt>
      <trkpt lat="42.53523" lon="1.9872">
        <ele>1870.26</ele>
        <time>2021-06-14T14:10:39.000Z</time>
      </trkpt>
      <trkpt lat="42.53537" lon="1.98725">
        <ele>1873.6</ele>
        <time>2021-06-14T14:10:49.000Z</time>
      </trkpt>
      <trkpt lat="42.53545" lon="1.98746">
        <ele>1887.4</ele>
        <time>2021-06-14T14:10:58.344Z</time>
      </trkpt>
      <trkpt lat="42.53545" lon="1.98758">
        <ele>1901.83</ele>
        <time>2021-06-14T14:11:07.420Z</time>
      </trkpt>
      <trkpt lat="42.53555" lon="1.98768">
        <ele>1896.94</ele>
        <time>2021-06-14T14:11:17.122Z</time>
      </trkpt>
      <trkpt lat="42.53564" lon="1.98777">
        <ele>1877.01</ele>
        <time>2021-06-14T14:11:26.242Z</time>
      </trkpt>
      <trkpt lat="42.53566" lon="1.9879">
        <ele>1762.53</ele>
        <time>2021-06-14T14:11:36.000Z</time>
      </trkpt>
      <trkpt lat="42.53565" lon="1.98745">
        <ele>1706.82</ele>
        <time>2021-06-14T14:11:46.000Z</time>
      </trkpt>
      <trkpt lat="42.53556" lon="1.98712">
        <ele>1722.43</ele>
        <time>2021-06-14T14:11:56.000Z</time>
      </trkpt>
      <trkpt lat="42.53562" lon="1.98728">
        <ele>1762.95</ele>
        <time>2021-06-14T14:12:05.965Z</time>
      </trkpt>
      <trkpt lat="42.53563" lon="1.98757">
        <ele>1788.42</ele>
        <time>2021-06-14T14:12:15.000Z</time>
      </trkpt>
      <trkpt lat="42.53566" lon="1.98781">
        <ele>1816.29</ele>
        <time>2021-06-14T14:12:26.000Z</time>
      </trkpt>
      <trkpt lat="42.53569" lon="1.98804">
        <ele>1817.54</ele>
        <time>2021-06-14T14:12:36.000Z</time>
      </trkpt>
      <trkpt lat="42.5357" lon="1.98815">
        <ele>1836.92</ele>
        <time>2021-06-14T14:12:47.000Z</time>
      </trkpt>
      <trkpt lat="42.53575" lon="1.98819">
        <ele>1841.32</ele>
        <time>2021-06-14T14:12:57.000Z</time>
      </trkpt>
      <trkpt lat="42.5358" lon="1.98827">
        <ele>1860.02</ele>
        <time>2021-06-14T14:13:08.000Z</time>
      </trkpt>
      <trkpt lat="42.53585" lon="1.98832">
        <ele>1832.11</ele>
        <time>2021-06-14T14:13:18.000Z</time>
      </trkpt>
      <trkpt lat="42.53593" lon="1.98834">
        <ele>1832.39</ele>
        <time>2021-06-14T14:13:27.579Z</time>
      </trkpt>
      <trkpt lat="42.53593" lon="1.98842">
        <ele>1850.64</ele>
        <time>2021-06-14T14:13:38.000Z</time>
      </trkpt>
      <trkpt lat="42.53597" lon="1.98857">
        <ele>1856.61</ele>
        <time>2021-06-14T14:13:47.454Z</time>
      </trkpt>
      <trkpt lat="42.53601" lon="1.98865">
        <ele>1859.03</ele>
        <time>2021-06-14T14:13:57.000Z</time>
      </trkpt>
      <trkpt lat="42.53601" lon="1.98885">
        <ele>1862.94</ele>
        <time>2021-06-14T14:14:07.000Z</time>
      </trkpt>
      <trkpt lat="42.53617" lon="1.98892">
        <ele>1853.74</ele>
        <time>2021-06-14T14:14:18.000Z</time>
      </trkpt>
      <trkpt lat="42.53627" lon="1.98896">
        <ele>1857.89</ele>
        <time>2021-06-14T14:14:28.000Z</time>
      </trkpt>
      <trkpt lat="42.53624" lon="1.98897">
        <ele>1875.76</ele>
        <time>2021-06-14T14:14:38.000Z</time>
      </trkpt>
      <trkpt lat="42.53625" lon="1.98904">
        <ele>1882.94</ele>
        <time>2021-06-14T14:14:48.000Z</time>
      </trkpt>
      <trkpt lat="42.53633" lon="1.98912">
        <ele>1875.03</ele>
        <time>2021-06-14T14:14:59.000Z</time>
      </trkpt>
      <trkpt lat="42.53634" lon="1.98917">
        <ele>1875.53</ele>
        <time>2021-06-14T14:15:09.000Z</time>
      </trkpt>
      <trkpt lat="42.53632" lon="1.98926">
        <ele>1871.32</ele>
        <time>2021-06-14T14:15:21.000Z</time>
      </trkpt>
      <trkpt lat="42.53637" lon="1.98937">
        <ele>1872.02</ele>
        <time>2021-06-14T14:15:30.202Z</time>
      </trkpt>
      <trkpt lat="42.53646" lon="1.98943">
        <ele>1878.15</ele>
        <time>2021-06-14T14:15:40.000Z</time>
      </trkpt>
      <trkpt lat="42.53645" lon="1.98944">
        <ele>1877.96</ele>
        <time>2021-06-14T14:15:50.000Z</time>
      </trkpt>
      <trkpt lat="42.53644" lon="1.98943">
        <ele>1875.66</ele>
        <time>2021-06-14T14:16:01.000Z</time>
      </trkpt>
      <trkpt lat="42.53641" lon="1.98947">
        <ele>1886.06</ele>
        <time>2021-06-14T14:16:11.000Z</time>
      </trkpt>
      <trkpt lat="42.53643" lon="1.98942">
        <ele>1885.53</ele>
        <time>2021-06-14T14:16:21.000Z</time>
      </trkpt>
      <trkpt lat="42.53645" lon="1.98942">
        <ele>1893.44</ele>
        <time>2021-06-14T14:16:31.000Z</time>
      </trkpt>
      <trkpt lat="42.5365" lon="1.98952">
        <ele>1879.27</ele>
        <time>2021-06-14T14:16:43.000Z</time>
      </trkpt>
      <trkpt lat="42.53652" lon="1.98953">
        <ele>1881.4</ele>
        <time>2021-06-14T14:16:54.000Z</time>
      </trkpt>
      <trkpt lat="42.53657" lon="1.9896">
        <ele>1880.41</ele>
        <time>2021-06-14T14:17:03.280Z</time>
      </trkpt>
      <trkpt lat="42.53659" lon="1.98971">
        <ele>1879.47</ele>
        <time>2021-06-14T14:17:13.000Z</time>
      </trkpt>
      <trkpt lat="42.53656" lon="1.98988">
        <ele>1880.49</ele>
        <time>2021-06-14T14:17:23.000Z</time>
      </trkpt>
      <trkpt lat="42.5366" lon="1.99006">
        <ele>1875.99</ele>
        <time>2021-06-14T14:17:33.000Z</time>
      </trkpt>
      <trkpt lat="42.53663" lon="1.9901">
        <ele>1887.98</ele>
        <time>2021-06-14T14:17:43.060Z</time>
      </trkpt>
      <trkpt lat="42.53667" lon="1.99016">
        <ele>1889.69</ele>
        <time>2021-06-14T14:17:52.080Z</time>
      </trkpt>
      <trkpt lat="42.5367" lon="1.99036">
        <ele>1871.17</ele>
        <time>2021-06-14T14:18:02.356Z</time>
      </trkpt>
      <trkpt lat="42.5367" lon="1.9905">
        <ele>1892.48</ele>
        <time>2021-06-14T14:18:11.694Z</time>
      </trkpt>
      <trkpt lat="42.53666" lon="1.99056">
        <ele>1877.53</ele>
        <time>2021-06-14T14:18:21.000Z</time>
      </trkpt>
      <trkpt lat="42.53662" lon="1.99069">
        <ele>1873.17</ele>
        <time>2021-06-14T14:18:32.820Z</time>
      </trkpt>
      <trkpt lat="42.53659" lon="1.99071">
        <ele>1872.21</ele>
        <time>2021-06-14T14:18:42.000Z</time>
      </trkpt>
      <trkpt lat="42.53654" lon="1.99078">
        <ele>1872.1</ele>
        <time>2021-06-14T14:18:52.000Z</time>
      </trkpt>
      <trkpt lat="42.53653" lon="1.99078">
        <ele>1876.71</ele>
        <time>2021-06-14T14:19:02.000Z</time>
      </trkpt>
      <trkpt lat="42.53612" lon="1.99074">
        <ele>1869.66</ele>
        <time>2021-06-14T14:19:12.000Z</time>
      </trkpt>
      <trkpt lat="42.53597" lon="1.99077">
        <ele>1876</ele>
        <time>2021-06-14T14:19:22.000Z</time>
      </trkpt>
      <trkpt lat="42.5364" lon="1.99084">
        <ele>1866.28</ele>
        <time>2021-06-14T14:19:32.000Z</time>
      </trkpt>
      <trkpt lat="42.53646" lon="1.99088">
        <ele>1859.71</ele>
        <time>2021-06-14T14:19:42.000Z</time>
      </trkpt>
      <trkpt lat="42.5365" lon="1.99089">
        <ele>1870.36</ele>
        <time>2021-06-14T14:19:52.000Z</time>
      </trkpt>
      <trkpt lat="42.53662" lon="1.99088">
        <ele>1874.16</ele>
        <time>2021-06-14T14:20:02.000Z</time>
      </trkpt>
      <trkpt lat="42.53675" lon="1.99082">
        <ele>1890.03</ele>
        <time>2021-06-14T14:20:12.000Z</time>
      </trkpt>
      <trkpt lat="42.53677" lon="1.99088">
        <ele>1868.53</ele>
        <time>2021-06-14T14:20:22.000Z</time>
      </trkpt>
      <trkpt lat="42.53678" lon="1.99086">
        <ele>1880.09</ele>
        <time>2021-06-14T14:20:32.000Z</time>
      </trkpt>
      <trkpt lat="42.5367" lon="1.99088">
        <ele>1864.24</ele>
        <time>2021-06-14T14:20:42.000Z</time>
      </trkpt>
      <trkpt lat="42.5367" lon="1.99087">
        <ele>1887.76</ele>
        <time>2021-06-14T14:21:00.000Z</time>
      </trkpt>
      <trkpt lat="42.53669" lon="1.99086">
        <ele>1875.78</ele>
        <time>2021-06-14T14:21:11.000Z</time>
      </trkpt>
      <trkpt lat="42.5367" lon="1.99088">
        <ele>1879.71</ele>
        <time>2021-06-14T14:21:22.000Z</time>
      </trkpt>
      <trkpt lat="42.53673" lon="1.99098">
        <ele>1871.53</ele>
        <time>2021-06-14T14:21:32.000Z</time>
      </trkpt>
      <trkpt lat="42.53673" lon="1.99102">
        <ele>1885.83</ele>
        <time>2021-06-14T14:21:42.000Z</time>
      </trkpt>
      <trkpt lat="42.53671" lon="1.99093">
        <ele>1885.95</ele>
        <time>2021-06-14T14:21:52.000Z</time>
      </trkpt>
      <trkpt lat="42.53672" lon="1.9909">
        <ele>1874.26</ele>
        <time>2021-06-14T14:22:02.000Z</time>
      </trkpt>
      <trkpt lat="42.53669" lon="1.99088">
        <ele>1892.8</ele>
        <time>2021-06-14T14:22:12.000Z</time>
      </trkpt>
      <trkpt lat="42.53673" lon="1.99085">
        <ele>1891.49</ele>
        <time>2021-06-14T14:22:22.000Z</time>
      </trkpt>
      <trkpt lat="42.53674" lon="1.99088">
        <ele>1898.49</ele>
        <time>2021-06-14T14:22:32.000Z</time>
      </trkpt>
      <trkpt lat="42.53677" lon="1.99098">
        <ele>1887.9</ele>
        <time>2021-06-14T14:22:43.000Z</time>
      </trkpt>
      <trkpt lat="42.53677" lon="1.99104">
        <ele>1873.12</ele>
        <time>2021-06-14T14:22:54.000Z</time>
      </trkpt>
      <trkpt lat="42.53676" lon="1.99107">
        <ele>1882.3</ele>
        <time>2021-06-14T14:23:05.000Z</time>
      </trkpt>
      <trkpt lat="42.53675" lon="1.99114">
        <ele>1900.01</ele>
        <time>2021-06-14T14:23:16.000Z</time>
      </trkpt>
      <trkpt lat="42.53677" lon="1.99121">
        <ele>1889.24</ele>
        <time>2021-06-14T14:23:25.369Z</time>
      </trkpt>
      <trkpt lat="42.53679" lon="1.99132">
        <ele>1873.94</ele>
        <time>2021-06-14T14:23:34.889Z</time>
      </trkpt>
      <trkpt lat="42.53681" lon="1.99144">
        <ele>1882.71</ele>
        <time>2021-06-14T14:23:44.249Z</time>
      </trkpt>
      <trkpt lat="42.53679" lon="1.99157">
        <ele>1867.61</ele>
        <time>2021-06-14T14:23:54.000Z</time>
      </trkpt>
      <trkpt lat="42.53679" lon="1.99174">
        <ele>1877.64</ele>
        <time>2021-06-14T14:24:05.000Z</time>
      </trkpt>
      <trkpt lat="42.5368" lon="1.99191">
        <ele>1874.48</ele>
        <time>2021-06-14T14:24:14.095Z</time>
      </trkpt>
      <trkpt lat="42.5369" lon="1.992">
        <ele>1881.39</ele>
        <time>2021-06-14T14:24:23.985Z</time>
      </trkpt>
      <trkpt lat="42.53697" lon="1.99216">
        <ele>1892.72</ele>
        <time>2021-06-14T14:24:33.886Z</time>
      </trkpt>
      <trkpt lat="42.53701" lon="1.99244">
        <ele>1875.68</ele>
        <time>2021-06-14T14:24:43.377Z</time>
      </trkpt>
      <trkpt lat="42.53707" lon="1.99258">
        <ele>1879.75</ele>
        <time>2021-06-14T14:24:52.736Z</time>
      </trkpt>
      <trkpt lat="42.53713" lon="1.99272">
        <ele>1874.48</ele>
        <time>2021-06-14T14:25:02.000Z</time>
      </trkpt>
      <trkpt lat="42.53719" lon="1.99286">
        <ele>1885.95</ele>
        <time>2021-06-14T14:25:12.373Z</time>
      </trkpt>
      <trkpt lat="42.53724" lon="1.993">
        <ele>1888.67</ele>
        <time>2021-06-14T14:25:23.000Z</time>
      </trkpt>
      <trkpt lat="42.53727" lon="1.99313">
        <ele>1900.44</ele>
        <time>2021-06-14T14:25:32.002Z</time>
      </trkpt>
      <trkpt lat="42.53727" lon="1.99323">
        <ele>1895.26</ele>
        <time>2021-06-14T14:25:43.000Z</time>
      </trkpt>
      <trkpt lat="42.53732" lon="1.99336">
        <ele>1910.61</ele>
        <time>2021-06-14T14:25:52.468Z</time>
      </trkpt>
      <trkpt lat="42.53736" lon="1.99337">
        <ele>1904.74</ele>
        <time>2021-06-14T14:26:02.000Z</time>
      </trkpt>
      <trkpt lat="42.53738" lon="1.99346">
        <ele>1900.42</ele>
        <time>2021-06-14T14:26:12.000Z</time>
      </trkpt>
      <trkpt lat="42.53743" lon="1.9935">
        <ele>1904.01</ele>
        <time>2021-06-14T14:26:23.000Z</time>
      </trkpt>
      <trkpt lat="42.53748" lon="1.99365">
        <ele>1895.08</ele>
        <time>2021-06-14T14:26:32.048Z</time>
      </trkpt>
      <trkpt lat="42.53761" lon="1.99379">
        <ele>1893.97</ele>
        <time>2021-06-14T14:26:42.000Z</time>
      </trkpt>
      <trkpt lat="42.53779" lon="1.99375">
        <ele>1891.21</ele>
        <time>2021-06-14T14:26:52.000Z</time>
      </trkpt>
      <trkpt lat="42.53782" lon="1.99379">
        <ele>1892.69</ele>
        <time>2021-06-14T14:27:03.000Z</time>
      </trkpt>
      <trkpt lat="42.53785" lon="1.9939">
        <ele>1905.05</ele>
        <time>2021-06-14T14:27:14.000Z</time>
      </trkpt>
      <trkpt lat="42.53788" lon="1.99404">
        <ele>1892.57</ele>
        <time>2021-06-14T14:27:24.000Z</time>
      </trkpt>
      <trkpt lat="42.53795" lon="1.99419">
        <ele>1891.57</ele>
        <time>2021-06-14T14:27:33.073Z</time>
      </trkpt>
      <trkpt lat="42.53803" lon="1.99438">
        <ele>1893.07</ele>
        <time>2021-06-14T14:27:42.985Z</time>
      </trkpt>
      <trkpt lat="42.53813" lon="1.99446">
        <ele>1895.55</ele>
        <time>2021-06-14T14:27:52.446Z</time>
      </trkpt>
      <trkpt lat="42.53815" lon="1.99459">
        <ele>1909.69</ele>
        <time>2021-06-14T14:28:02.000Z</time>
      </trkpt>
      <trkpt lat="42.53813" lon="1.99458">
        <ele>1883.91</ele>
        <time>2021-06-14T14:28:12.000Z</time>
      </trkpt>
      <trkpt lat="42.53808" lon="1.99452">
        <ele>1870.41</ele>
        <time>2021-06-14T14:28:22.000Z</time>
      </trkpt>
      <trkpt lat="42.53786" lon="1.99437">
        <ele>1891.83</ele>
        <time>2021-06-14T14:28:32.000Z</time>
      </trkpt>
      <trkpt lat="42.53778" lon="1.99449">
        <ele>1895.78</ele>
        <time>2021-06-14T14:28:42.073Z</time>
      </trkpt>
      <trkpt lat="42.53789" lon="1.99459">
        <ele>1880.96</ele>
        <time>2021-06-14T14:28:52.000Z</time>
      </trkpt>
      <trkpt lat="42.53825" lon="1.99472">
        <ele>1899.61</ele>
        <time>2021-06-14T14:29:02.000Z</time>
      </trkpt>
      <trkpt lat="42.53845" lon="1.99484">
        <ele>1893.24</ele>
        <time>2021-06-14T14:29:11.019Z</time>
      </trkpt>
      <trkpt lat="42.53844" lon="1.99478">
        <ele>1905.38</ele>
        <time>2021-06-14T14:29:22.000Z</time>
      </trkpt>
      <trkpt lat="42.53845" lon="1.99477">
        <ele>1891.99</ele>
        <time>2021-06-14T14:29:32.000Z</time>
      </trkpt>
      <trkpt lat="42.53826" lon="1.99496">
        <ele>1883.77</ele>
        <time>2021-06-14T14:29:42.074Z</time>
      </trkpt>
      <trkpt lat="42.53835" lon="1.99507">
        <ele>1900.47</ele>
        <time>2021-06-14T14:29:51.238Z</time>
      </trkpt>
      <trkpt lat="42.53853" lon="1.99521">
        <ele>1880.27</ele>
        <time>2021-06-14T14:30:01.536Z</time>
      </trkpt>
      <trkpt lat="42.53865" lon="1.99529">
        <ele>1899.78</ele>
        <time>2021-06-14T14:30:11.000Z</time>
      </trkpt>
      <trkpt lat="42.53877" lon="1.99537">
        <ele>1903.76</ele>
        <time>2021-06-14T14:30:20.730Z</time>
      </trkpt>
      <trkpt lat="42.53881" lon="1.99539">
        <ele>1911.66</ele>
        <time>2021-06-14T14:30:30.351Z</time>
      </trkpt>
      <trkpt lat="42.53887" lon="1.99551">
        <ele>1906.92</ele>
        <time>2021-06-14T14:30:40.000Z</time>
      </trkpt>
      <trkpt lat="42.5389" lon="1.99567">
        <ele>1921.59</ele>
        <time>2021-06-14T14:30:49.050Z</time>
      </trkpt>
      <trkpt lat="42.539" lon="1.99579">
        <ele>1909.69</ele>
        <time>2021-06-14T14:31:00.000Z</time>
      </trkpt>
      <trkpt lat="42.5391" lon="1.99588">
        <ele>1901.39</ele>
        <time>2021-06-14T14:31:09.213Z</time>
      </trkpt>
      <trkpt lat="42.53914" lon="1.99595">
        <ele>1896.99</ele>
        <time>2021-06-14T14:31:19.000Z</time>
      </trkpt>
      <trkpt lat="42.53918" lon="1.99609">
        <ele>1910.65</ele>
        <time>2021-06-14T14:31:29.000Z</time>
      </trkpt>
      <trkpt lat="42.53928" lon="1.99618">
        <ele>1906.48</ele>
        <time>2021-06-14T14:31:38.316Z</time>
      </trkpt>
      <trkpt lat="42.53932" lon="1.99627">
        <ele>1895.19</ele>
        <time>2021-06-14T14:31:47.332Z</time>
      </trkpt>
      <trkpt lat="42.53941" lon="1.99641">
        <ele>1903.01</ele>
        <time>2021-06-14T14:31:56.882Z</time>
      </trkpt>
      <trkpt lat="42.53947" lon="1.99658">
        <ele>1912.69</ele>
        <time>2021-06-14T14:32:06.542Z</time>
      </trkpt>
      <trkpt lat="42.53959" lon="1.99672">
        <ele>1923.74</ele>
        <time>2021-06-14T14:32:15.662Z</time>
      </trkpt>
      <trkpt lat="42.53962" lon="1.99677">
        <ele>1913.57</ele>
        <time>2021-06-14T14:32:25.000Z</time>
      </trkpt>
      <trkpt lat="42.53964" lon="1.99675">
        <ele>1914.99</ele>
        <time>2021-06-14T14:32:35.000Z</time>
      </trkpt>
      <trkpt lat="42.53957" lon="1.99653">
        <ele>1913.78</ele>
        <time>2021-06-14T14:32:45.000Z</time>
      </trkpt>
      <trkpt lat="42.53962" lon="1.99669">
        <ele>1918.94</ele>
        <time>2021-06-14T14:32:55.000Z</time>
      </trkpt>
      <trkpt lat="42.53963" lon="1.99679">
        <ele>1918.89</ele>
        <time>2021-06-14T14:33:05.000Z</time>
      </trkpt>
      <trkpt lat="42.53961" lon="1.99683">
        <ele>1926.57</ele>
        <time>2021-06-14T14:33:15.000Z</time>
      </trkpt>
      <trkpt lat="42.53967" lon="1.99682">
        <ele>1943.14</ele>
        <time>2021-06-14T14:33:25.000Z</time>
      </trkpt>
      <trkpt lat="42.53965" lon="1.99683">
        <ele>1923.34</ele>
        <time>2021-06-14T14:33:35.000Z</time>
      </trkpt>
      <trkpt lat="42.53967" lon="1.99683">
        <ele>1910.51</ele>
        <time>2021-06-14T14:33:45.000Z</time>
      </trkpt>
      <trkpt lat="42.5397" lon="1.99682">
        <ele>1917.92</ele>
        <time>2021-06-14T14:33:55.000Z</time>
      </trkpt>
      <trkpt lat="42.53977" lon="1.99697">
        <ele>1916.55</ele>
        <time>2021-06-14T14:34:05.000Z</time>
      </trkpt>
      <trkpt lat="42.53988" lon="1.99704">
        <ele>1918.19</ele>
        <time>2021-06-14T14:34:14.671Z</time>
      </trkpt>
      <trkpt lat="42.53994" lon="1.99709">
        <ele>1921.78</ele>
        <time>2021-06-14T14:34:24.105Z</time>
      </trkpt>
      <trkpt lat="42.53999" lon="1.9972">
        <ele>1917.18</ele>
        <time>2021-06-14T14:34:33.140Z</time>
      </trkpt>
      <trkpt lat="42.54005" lon="1.99737">
        <ele>1931.01</ele>
        <time>2021-06-14T14:34:42.471Z</time>
      </trkpt>
      <trkpt lat="42.54009" lon="1.99745">
        <ele>1910.65</ele>
        <time>2021-06-14T14:34:52.000Z</time>
      </trkpt>
      <trkpt lat="42.54019" lon="1.99757">
        <ele>1926.86</ele>
        <time>2021-06-14T14:35:02.000Z</time>
      </trkpt>
      <trkpt lat="42.54029" lon="1.9977">
        <ele>1938.38</ele>
        <time>2021-06-14T14:35:11.415Z</time>
      </trkpt>
      <trkpt lat="42.54035" lon="1.9978">
        <ele>1930.41</ele>
        <time>2021-06-14T14:35:21.000Z</time>
      </trkpt>
      <trkpt lat="42.54038" lon="1.99802">
        <ele>1923.58</ele>
        <time>2021-06-14T14:35:30.150Z</time>
      </trkpt>
      <trkpt lat="42.54042" lon="1.99817">
        <ele>1916.75</ele>
        <time>2021-06-14T14:35:39.230Z</time>
      </trkpt>
      <trkpt lat="42.54046" lon="1.99829">
        <ele>1927.8</ele>
        <time>2021-06-14T14:35:49.000Z</time>
      </trkpt>
      <trkpt lat="42.5405" lon="1.99836">
        <ele>1931.82</ele>
        <time>2021-06-14T14:36:00.000Z</time>
      </trkpt>
      <trkpt lat="42.54048" lon="1.99835">
        <ele>1933.07</ele>
        <time>2021-06-14T14:36:17.000Z</time>
      </trkpt>
      <trkpt lat="42.54019" lon="1.99834">
        <ele>1919.38</ele>
        <time>2021-06-14T14:36:27.000Z</time>
      </trkpt>
      <trkpt lat="42.54034" lon="1.99836">
        <ele>1928.44</ele>
        <time>2021-06-14T14:36:37.000Z</time>
      </trkpt>
      <trkpt lat="42.54035" lon="1.99837">
        <ele>1928.11</ele>
        <time>2021-06-14T14:36:48.000Z</time>
      </trkpt>
      <trkpt lat="42.54042" lon="1.99835">
        <ele>1919.22</ele>
        <time>2021-06-14T14:36:58.000Z</time>
      </trkpt>
      <trkpt lat="42.54049" lon="1.9984">
        <ele>1928.59</ele>
        <time>2021-06-14T14:37:08.000Z</time>
      </trkpt>
      <trkpt lat="42.54048" lon="1.99848">
        <ele>1936.59</ele>
        <time>2021-06-14T14:37:17.408Z</time>
      </trkpt>
      <trkpt lat="42.54056" lon="1.99871">
        <ele>1923.11</ele>
        <time>2021-06-14T14:37:27.000Z</time>
      </trkpt>
      <trkpt lat="42.54062" lon="1.99887">
        <ele>1930.21</ele>
        <time>2021-06-14T14:37:36.029Z</time>
      </trkpt>
      <trkpt lat="42.54068" lon="1.99897">
        <ele>1929.86</ele>
        <time>2021-06-14T14:37:46.000Z</time>
      </trkpt>
      <trkpt lat="42.54067" lon="1.999">
        <ele>1921.16</ele>
        <time>2021-06-14T14:37:57.000Z</time>
      </trkpt>
      <trkpt lat="42.54064" lon="1.99892">
        <ele>1944.8</ele>
        <time>2021-06-14T14:38:07.088Z</time>
      </trkpt>
      <trkpt lat="42.54076" lon="1.99914">
        <ele>1920.86</ele>
        <time>2021-06-14T14:38:16.530Z</time>
      </trkpt>
      <trkpt lat="42.54084" lon="1.99929">
        <ele>1933.76</ele>
        <time>2021-06-14T14:38:27.000Z</time>
      </trkpt>
      <trkpt lat="42.54089" lon="1.99936">
        <ele>1939.3</ele>
        <time>2021-06-14T14:38:37.000Z</time>
      </trkpt>
      <trkpt lat="42.54086" lon="1.99937">
        <ele>1932.38</ele>
        <time>2021-06-14T14:38:46.635Z</time>
      </trkpt>
      <trkpt lat="42.54084" lon="1.9993">
        <ele>1936.23</ele>
        <time>2021-06-14T14:38:58.000Z</time>
      </trkpt>
      <trkpt lat="42.54102" lon="1.99957">
        <ele>1928.04</ele>
        <time>2021-06-14T14:39:09.000Z</time>
      </trkpt>
      <trkpt lat="42.54117" lon="1.99977">
        <ele>1929.58</ele>
        <time>2021-06-14T14:39:18.494Z</time>
      </trkpt>
      <trkpt lat="42.54125" lon="1.99989">
        <ele>1933.06</ele>
        <time>2021-06-14T14:39:28.000Z</time>
      </trkpt>
      <trkpt lat="42.54136" lon="2.00003">
        <ele>1929.69</ele>
        <time>2021-06-14T14:39:37.669Z</time>
      </trkpt>
      <trkpt lat="42.54145" lon="2.00013">
        <ele>1920.63</ele>
        <time>2021-06-14T14:39:48.000Z</time>
      </trkpt>
      <trkpt lat="42.54156" lon="2.00026">
        <ele>1936.25</ele>
        <time>2021-06-14T14:39:57.366Z</time>
      </trkpt>
      <trkpt lat="42.54169" lon="2.00037">
        <ele>1934.13</ele>
        <time>2021-06-14T14:40:06.566Z</time>
      </trkpt>
      <trkpt lat="42.54178" lon="2.00047">
        <ele>1939.63</ele>
        <time>2021-06-14T14:40:16.441Z</time>
      </trkpt>
      <trkpt lat="42.54185" lon="2.00055">
        <ele>1923.44</ele>
        <time>2021-06-14T14:40:26.000Z</time>
      </trkpt>
      <trkpt lat="42.54193" lon="2.00068">
        <ele>1943.03</ele>
        <time>2021-06-14T14:40:36.000Z</time>
      </trkpt>
      <trkpt lat="42.54203" lon="2.00079">
        <ele>1943.19</ele>
        <time>2021-06-14T14:40:45.280Z</time>
      </trkpt>
      <trkpt lat="42.54214" lon="2.00091">
        <ele>1935.34</ele>
        <time>2021-06-14T14:40:56.000Z</time>
      </trkpt>
      <trkpt lat="42.5423" lon="2.00107">
        <ele>1933.44</ele>
        <time>2021-06-14T14:41:06.000Z</time>
      </trkpt>
      <trkpt lat="42.54244" lon="2.00116">
        <ele>1938.65</ele>
        <time>2021-06-14T14:41:16.000Z</time>
      </trkpt>
      <trkpt lat="42.54256" lon="2.00129">
        <ele>1926.04</ele>
        <time>2021-06-14T14:41:26.000Z</time>
      </trkpt>
      <trkpt lat="42.54269" lon="2.00133">
        <ele>1931.89</ele>
        <time>2021-06-14T14:41:35.665Z</time>
      </trkpt>
      <trkpt lat="42.54274" lon="2.00135">
        <ele>1942.93</ele>
        <time>2021-06-14T14:41:45.000Z</time>
      </trkpt>
      <trkpt lat="42.54285" lon="2.00147">
        <ele>1940.05</ele>
        <time>2021-06-14T14:41:54.383Z</time>
      </trkpt>
      <trkpt lat="42.54299" lon="2.00157">
        <ele>1937.41</ele>
        <time>2021-06-14T14:42:04.217Z</time>
      </trkpt>
      <trkpt lat="42.54314" lon="2.00168">
        <ele>1941.08</ele>
        <time>2021-06-14T14:42:15.000Z</time>
      </trkpt>
      <trkpt lat="42.54329" lon="2.00182">
        <ele>1942.96</ele>
        <time>2021-06-14T14:42:26.000Z</time>
      </trkpt>
      <trkpt lat="42.54338" lon="2.00189">
        <ele>1935.89</ele>
        <time>2021-06-14T14:42:35.208Z</time>
      </trkpt>
      <trkpt lat="42.54348" lon="2.00196">
        <ele>1945.22</ele>
        <time>2021-06-14T14:42:45.190Z</time>
      </trkpt>
      <trkpt lat="42.54358" lon="2.00205">
        <ele>1946.87</ele>
        <time>2021-06-14T14:42:54.367Z</time>
      </trkpt>
      <trkpt lat="42.54368" lon="2.0021">
        <ele>1950.98</ele>
        <time>2021-06-14T14:43:03.734Z</time>
      </trkpt>
      <trkpt lat="42.5438" lon="2.00213">
        <ele>1931.98</ele>
        <time>2021-06-14T14:43:13.000Z</time>
      </trkpt>
      <trkpt lat="42.54397" lon="2.00222">
        <ele>1943.38</ele>
        <time>2021-06-14T14:43:23.000Z</time>
      </trkpt>
      <trkpt lat="42.54412" lon="2.00233">
        <ele>1943.76</ele>
        <time>2021-06-14T14:43:32.198Z</time>
      </trkpt>
      <trkpt lat="42.54421" lon="2.00235">
        <ele>1934.13</ele>
        <time>2021-06-14T14:43:43.000Z</time>
      </trkpt>
      <trkpt lat="42.54428" lon="2.00232">
        <ele>1951.29</ele>
        <time>2021-06-14T14:43:53.000Z</time>
      </trkpt>
      <trkpt lat="42.54427" lon="2.00233">
        <ele>1943.92</ele>
        <time>2021-06-14T14:44:05.062Z</time>
      </trkpt>
      <trkpt lat="42.54435" lon="2.00225">
        <ele>1948.74</ele>
        <time>2021-06-14T14:44:15.386Z</time>
      </trkpt>
      <trkpt lat="42.54448" lon="2.00222">
        <ele>1955.22</ele>
        <time>2021-06-14T14:44:24.645Z</time>
      </trkpt>
      <trkpt lat="42.54456" lon="2.00224">
        <ele>1952.24</ele>
        <time>2021-06-14T14:44:34.186Z</time>
      </trkpt>
      <trkpt lat="42.54481" lon="2.00245">
        <ele>1953.47</ele>
        <time>2021-06-14T14:44:43.274Z</time>
      </trkpt>
      <trkpt lat="42.54496" lon="2.00246">
        <ele>1955.25</ele>
        <time>2021-06-14T14:44:54.000Z</time>
      </trkpt>
      <trkpt lat="42.54514" lon="2.00248">
        <ele>1944.41</ele>
        <time>2021-06-14T14:45:03.041Z</time>
      </trkpt>
      <trkpt lat="42.54526" lon="2.00253">
        <ele>1958.88</ele>
        <time>2021-06-14T14:45:14.000Z</time>
      </trkpt>
      <trkpt lat="42.54542" lon="2.00257">
        <ele>1950.26</ele>
        <time>2021-06-14T14:45:23.256Z</time>
      </trkpt>
      <trkpt lat="42.54556" lon="2.00259">
        <ele>1942.71</ele>
        <time>2021-06-14T14:45:33.000Z</time>
      </trkpt>
      <trkpt lat="42.54571" lon="2.00264">
        <ele>1960.52</ele>
        <time>2021-06-14T14:45:43.131Z</time>
      </trkpt>
      <trkpt lat="42.54582" lon="2.00268">
        <ele>1951.55</ele>
        <time>2021-06-14T14:45:53.215Z</time>
      </trkpt>
      <trkpt lat="42.54591" lon="2.00265">
        <ele>1969.07</ele>
        <time>2021-06-14T14:46:04.000Z</time>
      </trkpt>
      <trkpt lat="42.54609" lon="2.00259">
        <ele>1967.74</ele>
        <time>2021-06-14T14:46:13.410Z</time>
      </trkpt>
      <trkpt lat="42.54622" lon="2.00259">
        <ele>1966.29</ele>
        <time>2021-06-14T14:46:25.000Z</time>
      </trkpt>
      <trkpt lat="42.54629" lon="2.0026">
        <ele>1964.35</ele>
        <time>2021-06-14T14:46:35.000Z</time>
      </trkpt>
      <trkpt lat="42.5464" lon="2.0027">
        <ele>1953.43</ele>
        <time>2021-06-14T14:46:44.079Z</time>
      </trkpt>
      <trkpt lat="42.54651" lon="2.00275">
        <ele>1962.49</ele>
        <time>2021-06-14T14:46:56.000Z</time>
      </trkpt>
      <trkpt lat="42.54656" lon="2.00284">
        <ele>1940.73</ele>
        <time>2021-06-14T14:47:05.129Z</time>
      </trkpt>
      <trkpt lat="42.54664" lon="2.00284">
        <ele>1951.24</ele>
        <time>2021-06-14T14:47:15.000Z</time>
      </trkpt>
      <trkpt lat="42.54672" lon="2.00283">
        <ele>1971.94</ele>
        <time>2021-06-14T14:47:25.000Z</time>
      </trkpt>
      <trkpt lat="42.54681" lon="2.0028">
        <ele>1963.94</ele>
        <time>2021-06-14T14:47:36.000Z</time>
      </trkpt>
      <trkpt lat="42.54685" lon="2.00276">
        <ele>1958.47</ele>
        <time>2021-06-14T14:47:46.000Z</time>
      </trkpt>
      <trkpt lat="42.54685" lon="2.00274">
        <ele>1958.71</ele>
        <time>2021-06-14T14:47:56.000Z</time>
      </trkpt>
      <trkpt lat="42.54686" lon="2.00273">
        <ele>1958.57</ele>
        <time>2021-06-14T14:48:11.000Z</time>
      </trkpt>
      <trkpt lat="42.54682" lon="2.00273">
        <ele>1957.77</ele>
        <time>2021-06-14T14:48:21.000Z</time>
      </trkpt>
      <trkpt lat="42.54682" lon="2.00277">
        <ele>1972.36</ele>
        <time>2021-06-14T14:48:31.000Z</time>
      </trkpt>
      <trkpt lat="42.54683" lon="2.00278">
        <ele>1974.59</ele>
        <time>2021-06-14T14:48:41.000Z</time>
      </trkpt>
      <trkpt lat="42.54682" lon="2.00278">
        <ele>1955.26</ele>
        <time>2021-06-14T14:48:56.000Z</time>
      </trkpt>
      <trkpt lat="42.5468" lon="2.00277">
        <ele>1971.03</ele>
        <time>2021-06-14T14:49:06.000Z</time>
      </trkpt>
      <trkpt lat="42.54679" lon="2.00273">
        <ele>1967.23</ele>
        <time>2021-06-14T14:49:15.090Z</time>
      </trkpt>
      <trkpt lat="42.54688" lon="2.00265">
        <ele>1956.45</ele>
        <time>2021-06-14T14:49:24.203Z</time>
      </trkpt>
      <trkpt lat="42.547" lon="2.0026">
        <ele>1962.18</ele>
        <time>2021-06-14T14:49:33.808Z</time>
      </trkpt>
      <trkpt lat="42.54711" lon="2.00253">
        <ele>1968.01</ele>
        <time>2021-06-14T14:49:46.000Z</time>
      </trkpt>
      <trkpt lat="42.5472" lon="2.00251">
        <ele>1963.76</ele>
        <time>2021-06-14T14:49:57.000Z</time>
      </trkpt>
      <trkpt lat="42.54738" lon="2.00257">
        <ele>1955.47</ele>
        <time>2021-06-14T14:50:06.189Z</time>
      </trkpt>
      <trkpt lat="42.54749" lon="2.0026">
        <ele>1944.99</ele>
        <time>2021-06-14T14:50:15.292Z</time>
      </trkpt>
      <trkpt lat="42.54761" lon="2.00258">
        <ele>1960.33</ele>
        <time>2021-06-14T14:50:24.840Z</time>
      </trkpt>
      <trkpt lat="42.5477" lon="2.00258">
        <ele>1972.78</ele>
        <time>2021-06-14T14:50:34.000Z</time>
      </trkpt>
      <trkpt lat="42.54782" lon="2.00257">
        <ele>1963.58</ele>
        <time>2021-06-14T14:50:43.056Z</time>
      </trkpt>
      <trkpt lat="42.54791" lon="2.00259">
        <ele>1970.92</ele>
        <time>2021-06-14T14:50:53.095Z</time>
      </trkpt>
      <trkpt lat="42.54801" lon="2.00257">
        <ele>1983.28</ele>
        <time>2021-06-14T14:51:04.000Z</time>
      </trkpt>
      <trkpt lat="42.54812" lon="2.00251">
        <ele>1976.72</ele>
        <time>2021-06-14T14:51:13.408Z</time>
      </trkpt>
      <trkpt lat="42.54828" lon="2.00247">
        <ele>1955.28</ele>
        <time>2021-06-14T14:51:22.496Z</time>
      </trkpt>
      <trkpt lat="42.54839" lon="2.00246">
        <ele>1959.03</ele>
        <time>2021-06-14T14:51:32.000Z</time>
      </trkpt>
      <trkpt lat="42.54851" lon="2.00244">
        <ele>1966.32</ele>
        <time>2021-06-14T14:51:41.040Z</time>
      </trkpt>
      <trkpt lat="42.54861" lon="2.00243">
        <ele>1965.61</ele>
        <time>2021-06-14T14:51:51.000Z</time>
      </trkpt>
      <trkpt lat="42.54872" lon="2.0024">
        <ele>1973.56</ele>
        <time>2021-06-14T14:52:01.000Z</time>
      </trkpt>
      <trkpt lat="42.54883" lon="2.00238">
        <ele>1958.38</ele>
        <time>2021-06-14T14:52:11.000Z</time>
      </trkpt>
      <trkpt lat="42.54894" lon="2.00238">
        <ele>1976.77</ele>
        <time>2021-06-14T14:52:22.000Z</time>
      </trkpt>
      <trkpt lat="42.54908" lon="2.00238">
        <ele>1985.37</ele>
        <time>2021-06-14T14:52:31.921Z</time>
      </trkpt>
      <trkpt lat="42.54921" lon="2.00236">
        <ele>1967.88</ele>
        <time>2021-06-14T14:52:42.000Z</time>
      </trkpt>
      <trkpt lat="42.54931" lon="2.00234">
        <ele>1950.98</ele>
        <time>2021-06-14T14:52:52.000Z</time>
      </trkpt>
      <trkpt lat="42.54943" lon="2.00231">
        <ele>1974.12</ele>
        <time>2021-06-14T14:53:01.456Z</time>
      </trkpt>
      <trkpt lat="42.54956" lon="2.00238">
        <ele>1970.29</ele>
        <time>2021-06-14T14:53:11.328Z</time>
      </trkpt>
      <trkpt lat="42.54965" lon="2.00239">
        <ele>1980.36</ele>
        <time>2021-06-14T14:53:21.000Z</time>
      </trkpt>
      <trkpt lat="42.5498" lon="2.00233">
        <ele>1958.46</ele>
        <time>2021-06-14T14:53:32.000Z</time>
      </trkpt>
      <trkpt lat="42.54992" lon="2.00231">
        <ele>1946.29</ele>
        <time>2021-06-14T14:53:43.000Z</time>
      </trkpt>
      <trkpt lat="42.55007" lon="2.00226">
        <ele>1980.75</ele>
        <time>2021-06-14T14:53:52.897Z</time>
      </trkpt>
      <trkpt lat="42.5501" lon="2.00218">
        <ele>1968.92</ele>
        <time>2021-06-14T14:54:03.000Z</time>
      </trkpt>
      <trkpt lat="42.55024" lon="2.00212">
        <ele>1980.68</ele>
        <time>2021-06-14T14:54:14.000Z</time>
      </trkpt>
      <trkpt lat="42.55038" lon="2.00211">
        <ele>1977.03</ele>
        <time>2021-06-14T14:54:25.000Z</time>
      </trkpt>
      <trkpt lat="42.5505" lon="2.00209">
        <ele>1976.02</ele>
        <time>2021-06-14T14:54:34.205Z</time>
      </trkpt>
      <trkpt lat="42.55061" lon="2.00204">
        <ele>1984.49</ele>
        <time>2021-06-14T14:54:44.000Z</time>
      </trkpt>
      <trkpt lat="42.55073" lon="2.00195">
        <ele>1967.31</ele>
        <time>2021-06-14T14:54:53.022Z</time>
      </trkpt>
      <trkpt lat="42.5509" lon="2.00192">
        <ele>1978.14</ele>
        <time>2021-06-14T14:55:03.007Z</time>
      </trkpt>
      <trkpt lat="42.55098" lon="2.00195">
        <ele>1984.89</ele>
        <time>2021-06-14T14:55:13.000Z</time>
      </trkpt>
      <trkpt lat="42.55111" lon="2.00193">
        <ele>1979.01</ele>
        <time>2021-06-14T14:55:23.101Z</time>
      </trkpt>
      <trkpt lat="42.5512" lon="2.0019">
        <ele>1976.1</ele>
        <time>2021-06-14T14:55:32.509Z</time>
      </trkpt>
      <trkpt lat="42.55132" lon="2.00186">
        <ele>1978.71</ele>
        <time>2021-06-14T14:55:42.290Z</time>
      </trkpt>
      <trkpt lat="42.55133" lon="2.00185">
        <ele>1990.33</ele>
        <time>2021-06-14T14:55:52.000Z</time>
      </trkpt>
      <trkpt lat="42.55144" lon="2.00172">
        <ele>1974.29</ele>
        <time>2021-06-14T14:56:03.000Z</time>
      </trkpt>
      <trkpt lat="42.55155" lon="2.00172">
        <ele>1977.22</ele>
        <time>2021-06-14T14:56:13.000Z</time>
      </trkpt>
      <trkpt lat="42.55167" lon="2.0017">
        <ele>1983.39</ele>
        <time>2021-06-14T14:56:22.390Z</time>
      </trkpt>
      <trkpt lat="42.55178" lon="2.00174">
        <ele>1971.14</ele>
        <time>2021-06-14T14:56:32.253Z</time>
      </trkpt>
      <trkpt lat="42.55192" lon="2.00174">
        <ele>1979.5</ele>
        <time>2021-06-14T14:56:41.477Z</time>
      </trkpt>
      <trkpt lat="42.55202" lon="2.00169">
        <ele>1975.34</ele>
        <time>2021-06-14T14:56:52.000Z</time>
      </trkpt>
      <trkpt lat="42.55212" lon="2.00175">
        <ele>1989.33</ele>
        <time>2021-06-14T14:57:02.000Z</time>
      </trkpt>
      <trkpt lat="42.55221" lon="2.00186">
        <ele>1979.18</ele>
        <time>2021-06-14T14:57:12.016Z</time>
      </trkpt>
      <trkpt lat="42.55228" lon="2.00168">
        <ele>1959.29</ele>
        <time>2021-06-14T14:57:22.000Z</time>
      </trkpt>
      <trkpt lat="42.55244" lon="2.00166">
        <ele>1980.2</ele>
        <time>2021-06-14T14:57:34.000Z</time>
      </trkpt>
      <trkpt lat="42.55253" lon="2.00171">
        <ele>1963.26</ele>
        <time>2021-06-14T14:57:45.000Z</time>
      </trkpt>
      <trkpt lat="42.55257" lon="2.00178">
        <ele>1978.44</ele>
        <time>2021-06-14T14:57:55.000Z</time>
      </trkpt>
      <trkpt lat="42.55258" lon="2.00182">
        <ele>1982.77</ele>
        <time>2021-06-14T14:58:05.000Z</time>
      </trkpt>
      <trkpt lat="42.55259" lon="2.00183">
        <ele>1982.88</ele>
        <time>2021-06-14T14:58:15.000Z</time>
      </trkpt>
      <trkpt lat="42.5526" lon="2.00183">
        <ele>1995.43</ele>
        <time>2021-06-14T14:58:30.000Z</time>
      </trkpt>
      <trkpt lat="42.55272" lon="2.00184">
        <ele>1980.12</ele>
        <time>2021-06-14T14:58:41.000Z</time>
      </trkpt>
      <trkpt lat="42.55283" lon="2.00181">
        <ele>1968.16</ele>
        <time>2021-06-14T14:58:50.272Z</time>
      </trkpt>
      <trkpt lat="42.55295" lon="2.00166">
        <ele>1986.45</ele>
        <time>2021-06-14T14:59:02.000Z</time>
      </trkpt>
      <trkpt lat="42.55311" lon="2.00152">
        <ele>1982.63</ele>
        <time>2021-06-14T14:59:11.082Z</time>
      </trkpt>
      <trkpt lat="42.55321" lon="2.00147">
        <ele>1989.89</ele>
        <time>2021-06-14T14:59:21.000Z</time>
      </trkpt>
      <trkpt lat="42.55332" lon="2.00146">
        <ele>1968.18</ele>
        <time>2021-06-14T14:59:31.000Z</time>
      </trkpt>
      <trkpt lat="42.55331" lon="2.00145">
        <ele>1971.02</ele>
        <time>2021-06-14T14:59:41.000Z</time>
      </trkpt>
      <trkpt lat="42.55331" lon="2.00148">
        <ele>1985.14</ele>
        <time>2021-06-14T14:59:51.000Z</time>
      </trkpt>
      <trkpt lat="42.55329" lon="2.00149">
        <ele>1985.7</ele>
        <time>2021-06-14T15:00:01.000Z</time>
      </trkpt>
      <trkpt lat="42.55331" lon="2.00146">
        <ele>2016.11</ele>
        <time>2021-06-14T15:00:11.000Z</time>
      </trkpt>
      <trkpt lat="42.55331" lon="2.00135">
        <ele>2016.7</ele>
        <time>2021-06-14T15:00:20.161Z</time>
      </trkpt>
      <trkpt lat="42.55343" lon="2.00122">
        <ele>2016.7</ele>
        <time>2021-06-14T15:00:29.861Z</time>
      </trkpt>
      <trkpt lat="42.55359" lon="2.00114">
        <ele>2016.77</ele>
        <time>2021-06-14T15:00:40.000Z</time>
      </trkpt>
      <trkpt lat="42.5538" lon="2.00103">
        <ele>2016.86</ele>
        <time>2021-06-14T15:00:49.509Z</time>
      </trkpt>
      <trkpt lat="42.55395" lon="2.00095">
        <ele>2016.95</ele>
        <time>2021-06-14T15:01:00.000Z</time>
      </trkpt>
      <trkpt lat="42.55403" lon="2.00083">
        <ele>1984.62</ele>
        <time>2021-06-14T15:01:12.000Z</time>
      </trkpt>
      <trkpt lat="42.5542" lon="2.00071">
        <ele>1994.86</ele>
        <time>2021-06-14T15:01:21.303Z</time>
      </trkpt>
      <trkpt lat="42.55431" lon="2.00065">
        <ele>1986.18</ele>
        <time>2021-06-14T15:01:31.482Z</time>
      </trkpt>
      <trkpt lat="42.5544" lon="2.00061">
        <ele>1989.81</ele>
        <time>2021-06-14T15:01:41.000Z</time>
      </trkpt>
      <trkpt lat="42.55452" lon="2.00054">
        <ele>1995.91</ele>
        <time>2021-06-14T15:01:50.467Z</time>
      </trkpt>
      <trkpt lat="42.55463" lon="2.00049">
        <ele>1987.95</ele>
        <time>2021-06-14T15:02:00.412Z</time>
      </trkpt>
      <trkpt lat="42.55472" lon="2.0004">
        <ele>1982.3</ele>
        <time>2021-06-14T15:02:11.000Z</time>
      </trkpt>
      <trkpt lat="42.55488" lon="2.00032">
        <ele>2000.21</ele>
        <time>2021-06-14T15:02:20.668Z</time>
      </trkpt>
      <trkpt lat="42.55497" lon="2.00025">
        <ele>1994.1</ele>
        <time>2021-06-14T15:02:32.000Z</time>
      </trkpt>
      <trkpt lat="42.55511" lon="2.00009">
        <ele>2000.32</ele>
        <time>2021-06-14T15:02:42.516Z</time>
      </trkpt>
      <trkpt lat="42.55522" lon="2.00003">
        <ele>1997.03</ele>
        <time>2021-06-14T15:02:52.126Z</time>
      </trkpt>
      <trkpt lat="42.55532" lon="2.00003">
        <ele>2004.08</ele>
        <time>2021-06-14T15:03:02.000Z</time>
      </trkpt>
      <trkpt lat="42.55546" lon="1.99998">
        <ele>1991.04</ele>
        <time>2021-06-14T15:03:13.000Z</time>
      </trkpt>
      <trkpt lat="42.55555" lon="1.99988">
        <ele>1991.22</ele>
        <time>2021-06-14T15:03:22.220Z</time>
      </trkpt>
      <trkpt lat="42.55565" lon="1.99978">
        <ele>1992.13</ele>
        <time>2021-06-14T15:03:32.197Z</time>
      </trkpt>
      <trkpt lat="42.55576" lon="1.99968">
        <ele>1975.92</ele>
        <time>2021-06-14T15:03:41.962Z</time>
      </trkpt>
      <trkpt lat="42.55584" lon="1.99958">
        <ele>1983.6</ele>
        <time>2021-06-14T15:03:53.000Z</time>
      </trkpt>
      <trkpt lat="42.55595" lon="1.99949">
        <ele>1985.52</ele>
        <time>2021-06-14T15:04:02.800Z</time>
      </trkpt>
      <trkpt lat="42.5561" lon="1.99937">
        <ele>1991.91</ele>
        <time>2021-06-14T15:04:12.599Z</time>
      </trkpt>
      <trkpt lat="42.55622" lon="1.99927">
        <ele>1994.93</ele>
        <time>2021-06-14T15:04:21.944Z</time>
      </trkpt>
      <trkpt lat="42.55627" lon="1.99916">
        <ele>1994.1</ele>
        <time>2021-06-14T15:04:31.089Z</time>
      </trkpt>
      <trkpt lat="42.55636" lon="1.99905">
        <ele>1974.5</ele>
        <time>2021-06-14T15:04:40.296Z</time>
      </trkpt>
      <trkpt lat="42.55645" lon="1.99895">
        <ele>1986.73</ele>
        <time>2021-06-14T15:04:51.000Z</time>
      </trkpt>
      <trkpt lat="42.55665" lon="1.99891">
        <ele>1992.4</ele>
        <time>2021-06-14T15:05:00.310Z</time>
      </trkpt>
      <trkpt lat="42.55674" lon="1.99885">
        <ele>1991.46</ele>
        <time>2021-06-14T15:05:10.000Z</time>
      </trkpt>
      <trkpt lat="42.55683" lon="1.99876">
        <ele>1986.76</ele>
        <time>2021-06-14T15:05:19.042Z</time>
      </trkpt>
      <trkpt lat="42.55697" lon="1.9987">
        <ele>2001.24</ele>
        <time>2021-06-14T15:05:28.803Z</time>
      </trkpt>
      <trkpt lat="42.55708" lon="1.99865">
        <ele>1999.73</ele>
        <time>2021-06-14T15:05:37.833Z</time>
      </trkpt>
      <trkpt lat="42.5572" lon="1.99858">
        <ele>2004.6</ele>
        <time>2021-06-14T15:05:48.085Z</time>
      </trkpt>
      <trkpt lat="42.55728" lon="1.99853">
        <ele>2004.49</ele>
        <time>2021-06-14T15:05:58.000Z</time>
      </trkpt>
      <trkpt lat="42.5574" lon="1.99846">
        <ele>2006.06</ele>
        <time>2021-06-14T15:06:08.000Z</time>
      </trkpt>
      <trkpt lat="42.55744" lon="1.99849">
        <ele>1989.51</ele>
        <time>2021-06-14T15:06:18.000Z</time>
      </trkpt>
      <trkpt lat="42.55751" lon="1.99846">
        <ele>1989.02</ele>
        <time>2021-06-14T15:06:28.000Z</time>
      </trkpt>
      <trkpt lat="42.55766" lon="1.99851">
        <ele>2015.25</ele>
        <time>2021-06-14T15:06:39.000Z</time>
      </trkpt>
      <trkpt lat="42.5578" lon="1.99856">
        <ele>1991.8</ele>
        <time>2021-06-14T15:06:51.000Z</time>
      </trkpt>
      <trkpt lat="42.55782" lon="1.99859">
        <ele>1999.74</ele>
        <time>2021-06-14T15:07:02.000Z</time>
      </trkpt>
      <trkpt lat="42.55791" lon="1.99872">
        <ele>2006.98</ele>
        <time>2021-06-14T15:07:11.621Z</time>
      </trkpt>
      <trkpt lat="42.55799" lon="1.9988">
        <ele>1998.5</ele>
        <time>2021-06-14T15:07:23.000Z</time>
      </trkpt>
      <trkpt lat="42.55813" lon="1.99879">
        <ele>2003.93</ele>
        <time>2021-06-14T15:07:32.985Z</time>
      </trkpt>
      <trkpt lat="42.55823" lon="1.99872">
        <ele>1996.6</ele>
        <time>2021-06-14T15:07:42.000Z</time>
      </trkpt>
      <trkpt lat="42.55836" lon="1.99861">
        <ele>2010.31</ele>
        <time>2021-06-14T15:07:52.000Z</time>
      </trkpt>
      <trkpt lat="42.55842" lon="1.99853">
        <ele>2007.14</ele>
        <time>2021-06-14T15:08:02.000Z</time>
      </trkpt>
      <trkpt lat="42.55849" lon="1.99828">
        <ele>1998.96</ele>
        <time>2021-06-14T15:08:11.985Z</time>
      </trkpt>
      <trkpt lat="42.55859" lon="1.99821">
        <ele>2006.53</ele>
        <time>2021-06-14T15:08:22.000Z</time>
      </trkpt>
      <trkpt lat="42.55868" lon="1.9981">
        <ele>2011.5</ele>
        <time>2021-06-14T15:08:31.190Z</time>
      </trkpt>
      <trkpt lat="42.55869" lon="1.99798">
        <ele>2006.88</ele>
        <time>2021-06-14T15:08:42.000Z</time>
      </trkpt>
      <trkpt lat="42.55873" lon="1.99783">
        <ele>2017.1</ele>
        <time>2021-06-14T15:08:53.000Z</time>
      </trkpt>
      <trkpt lat="42.55882" lon="1.99773">
        <ele>1997.77</ele>
        <time>2021-06-14T15:09:02.664Z</time>
      </trkpt>
      <trkpt lat="42.5589" lon="1.99769">
        <ele>2008.66</ele>
        <time>2021-06-14T15:09:12.000Z</time>
      </trkpt>
      <trkpt lat="42.559" lon="1.99762">
        <ele>2015.63</ele>
        <time>2021-06-14T15:09:24.000Z</time>
      </trkpt>
      <trkpt lat="42.55907" lon="1.99748">
        <ele>2003.99</ele>
        <time>2021-06-14T15:09:34.066Z</time>
      </trkpt>
      <trkpt lat="42.55916" lon="1.9974">
        <ele>2002.65</ele>
        <time>2021-06-14T15:09:45.000Z</time>
      </trkpt>
      <trkpt lat="42.55926" lon="1.9973">
        <ele>2004.04</ele>
        <time>2021-06-14T15:09:54.461Z</time>
      </trkpt>
      <trkpt lat="42.55933" lon="1.99729">
        <ele>2012.01</ele>
        <time>2021-06-14T15:10:03.717Z</time>
      </trkpt>
      <trkpt lat="42.5594" lon="1.9973">
        <ele>2020.72</ele>
        <time>2021-06-14T15:10:13.000Z</time>
      </trkpt>
      <trkpt lat="42.55943" lon="1.99728">
        <ele>2025.69</ele>
        <time>2021-06-14T15:10:22.718Z</time>
      </trkpt>
      <trkpt lat="42.55949" lon="1.99723">
        <ele>2023.34</ele>
        <time>2021-06-14T15:10:33.000Z</time>
      </trkpt>
      <trkpt lat="42.55952" lon="1.99719">
        <ele>2016.61</ele>
        <time>2021-06-14T15:10:42.450Z</time>
      </trkpt>
      <trkpt lat="42.55954" lon="1.99712">
        <ele>2016.71</ele>
        <time>2021-06-14T15:10:52.000Z</time>
      </trkpt>
      <trkpt lat="42.55956" lon="1.99709">
        <ele>2016.77</ele>
        <time>2021-06-14T15:11:02.000Z</time>
      </trkpt>
      <trkpt lat="42.55956" lon="1.99705">
        <ele>2016.65</ele>
        <time>2021-06-14T15:11:12.000Z</time>
      </trkpt>
      <trkpt lat="42.55964" lon="1.99703">
        <ele>2016.63</ele>
        <time>2021-06-14T15:11:22.175Z</time>
      </trkpt>
      <trkpt lat="42.55969" lon="1.99727">
        <ele>2016.43</ele>
        <time>2021-06-14T15:11:32.295Z</time>
      </trkpt>
      <trkpt lat="42.5597" lon="1.99744">
        <ele>2016.4</ele>
        <time>2021-06-14T15:11:43.000Z</time>
      </trkpt>
      <trkpt lat="42.55975" lon="1.9976">
        <ele>2016.5</ele>
        <time>2021-06-14T15:11:53.000Z</time>
      </trkpt>
      <trkpt lat="42.55974" lon="1.99766">
        <ele>2016.44</ele>
        <time>2021-06-14T15:12:03.000Z</time>
      </trkpt>
      <trkpt lat="42.55973" lon="1.99763">
        <ele>2016.38</ele>
        <time>2021-06-14T15:12:12.180Z</time>
      </trkpt>
      <trkpt lat="42.55981" lon="1.99751">
        <ele>2016.35</ele>
        <time>2021-06-14T15:12:21.219Z</time>
      </trkpt>
      <trkpt lat="42.55982" lon="1.9974">
        <ele>2016.32</ele>
        <time>2021-06-14T15:12:31.000Z</time>
      </trkpt>
      <trkpt lat="42.55988" lon="1.99745">
        <ele>2016.41</ele>
        <time>2021-06-14T15:12:40.941Z</time>
      </trkpt>
      <trkpt lat="42.55999" lon="1.9975">
        <ele>2016.27</ele>
        <time>2021-06-14T15:12:50.473Z</time>
      </trkpt>
      <trkpt lat="42.56008" lon="1.9975">
        <ele>2016.18</ele>
        <time>2021-06-14T15:13:00.000Z</time>
      </trkpt>
      <trkpt lat="42.56018" lon="1.99755">
        <ele>2015.95</ele>
        <time>2021-06-14T15:13:11.000Z</time>
      </trkpt>
      <trkpt lat="42.56028" lon="1.99749">
        <ele>2016.01</ele>
        <time>2021-06-14T15:13:21.000Z</time>
      </trkpt>
      <trkpt lat="42.56039" lon="1.9974">
        <ele>2015.91</ele>
        <time>2021-06-14T15:13:32.000Z</time>
      </trkpt>
      <trkpt lat="42.56038" lon="1.99727">
        <ele>2015.91</ele>
        <time>2021-06-14T15:13:42.000Z</time>
      </trkpt>
      <trkpt lat="42.56024" lon="1.99716">
        <ele>2045.23</ele>
        <time>2021-06-14T15:13:53.000Z</time>
      </trkpt>
      <trkpt lat="42.56024" lon="1.99704">
        <ele>2045.66</ele>
        <time>2021-06-14T15:14:03.000Z</time>
      </trkpt>
      <trkpt lat="42.56021" lon="1.99694">
        <ele>2045.28</ele>
        <time>2021-06-14T15:14:13.000Z</time>
      </trkpt>
      <trkpt lat="42.56026" lon="1.99691">
        <ele>2045.32</ele>
        <time>2021-06-14T15:14:23.000Z</time>
      </trkpt>
      <trkpt lat="42.56026" lon="1.99693">
        <ele>2045.39</ele>
        <time>2021-06-14T15:14:33.000Z</time>
      </trkpt>
      <trkpt lat="42.56026" lon="1.99695">
        <ele>2045.46</ele>
        <time>2021-06-14T15:14:43.000Z</time>
      </trkpt>
      <trkpt lat="42.56029" lon="1.99693">
        <ele>2045.29</ele>
        <time>2021-06-14T15:14:53.000Z</time>
      </trkpt>
      <trkpt lat="42.56031" lon="1.99693">
        <ele>2045.3</ele>
        <time>2021-06-14T15:14:58.000Z</time>
      </trkpt>
    </trkseg>
  </trk>
</gpx>